<?xml version="1.0" encoding="UTF-8" standalone="no" ?>
<gpx xmlns="http://www.topografix.com/GPX/1/1" xmlns:xsi="http://www.w3.org/2001/XMLSchema-instance" xsi:schemaLocation="http://www.topografix.com/GPX/1/1 http://www.topografix.com/GPX/1/1/gpx.xsd" version="1.1" creator="VisuGPX - https://www.visugpx.com">
  <metadata>
    <name>Pic et tour du Canigou </name>
    <desc><![CDATA[Trek effectué du dimanche 30/08/2020 vers 13h au jeudi 3 vers 10h.]]></desc>
  </metadata>
  <trk>
    <name><![CDATA[Pic et tour du Canigou _2]]></name>
    <extensions>
      <line xmlns="http://www.topografix.com/GPX/gpx_style/0/2">
        <color>fbff00</color>
        <opacity>1</opacity>
        <width>4</width>
      </line>
    </extensions>
    <trkseg>
      <trkpt lat="42.504" lon="2.44549">
        <ele>2127.2</ele>
        <time>2020-08-31T06:00:00.000Z</time>
      </trkpt>
      <trkpt lat="42.50398" lon="2.44551">
        <ele>2126.9</ele>
        <time>2020-08-31T06:00:00.621Z</time>
      </trkpt>
      <trkpt lat="42.504" lon="2.44557">
        <ele>2127.7</ele>
        <time>2020-08-31T06:00:24.850Z</time>
      </trkpt>
      <trkpt lat="42.50402" lon="2.44564">
        <ele>2128.6</ele>
        <time>2020-08-31T06:00:52.474Z</time>
      </trkpt>
      <trkpt lat="42.50404" lon="2.44576">
        <ele>2130.8</ele>
        <time>2020-08-31T06:01:37.744Z</time>
      </trkpt>
      <trkpt lat="42.50405" lon="2.44583">
        <ele>2131.7</ele>
        <time>2020-08-31T06:02:03.981Z</time>
      </trkpt>
      <trkpt lat="42.50406" lon="2.44588">
        <ele>2132.7</ele>
        <time>2020-08-31T06:02:23.044Z</time>
      </trkpt>
      <trkpt lat="42.50406" lon="2.44592">
        <ele>2132.3</ele>
        <time>2020-08-31T06:02:23.781Z</time>
      </trkpt>
      <trkpt lat="42.50407" lon="2.44595">
        <ele>2131.9</ele>
        <time>2020-08-31T06:02:24.387Z</time>
      </trkpt>
      <trkpt lat="42.50409" lon="2.446">
        <ele>2131.4</ele>
        <time>2020-08-31T06:02:25.435Z</time>
      </trkpt>
      <trkpt lat="42.50412" lon="2.44605">
        <ele>2131.1</ele>
        <time>2020-08-31T06:02:26.552Z</time>
      </trkpt>
      <trkpt lat="42.50414" lon="2.44613">
        <ele>2130.6</ele>
        <time>2020-08-31T06:02:28.108Z</time>
      </trkpt>
      <trkpt lat="42.50417" lon="2.44618">
        <ele>2146.3</ele>
        <time>2020-08-31T06:02:51.829Z</time>
      </trkpt>
      <trkpt lat="42.50419" lon="2.44622">
        <ele>2146.6</ele>
        <time>2020-08-31T06:03:02.219Z</time>
      </trkpt>
      <trkpt lat="42.50422" lon="2.44625">
        <ele>2146.9</ele>
        <time>2020-08-31T06:03:12.758Z</time>
      </trkpt>
      <trkpt lat="42.50426" lon="2.44628">
        <ele>2147.2</ele>
        <time>2020-08-31T06:03:24.280Z</time>
      </trkpt>
      <trkpt lat="42.5043" lon="2.44632">
        <ele>2147.4</ele>
        <time>2020-08-31T06:03:34.465Z</time>
      </trkpt>
      <trkpt lat="42.50432" lon="2.44637">
        <ele>2147.5</ele>
        <time>2020-08-31T06:03:41.408Z</time>
      </trkpt>
      <trkpt lat="42.50434" lon="2.44641">
        <ele>2147.5</ele>
        <time>2020-08-31T06:03:46.019Z</time>
      </trkpt>
      <trkpt lat="42.50436" lon="2.44646">
        <ele>2147.4</ele>
        <time>2020-08-31T06:03:47.440Z</time>
      </trkpt>
      <trkpt lat="42.50438" lon="2.44651">
        <ele>2147.2</ele>
        <time>2020-08-31T06:03:48.561Z</time>
      </trkpt>
      <trkpt lat="42.50439" lon="2.44657">
        <ele>2147</ele>
        <time>2020-08-31T06:03:49.813Z</time>
      </trkpt>
      <trkpt lat="42.5044" lon="2.44664">
        <ele>2147</ele>
        <time>2020-08-31T06:03:56.615Z</time>
      </trkpt>
      <trkpt lat="42.50441" lon="2.44669">
        <ele>2146.3</ele>
        <time>2020-08-31T06:03:57.569Z</time>
      </trkpt>
      <trkpt lat="42.50441" lon="2.44673">
        <ele>2146.5</ele>
        <time>2020-08-31T06:04:05.123Z</time>
      </trkpt>
      <trkpt lat="42.50441" lon="2.44678">
        <ele>2146.7</ele>
        <time>2020-08-31T06:04:13.703Z</time>
      </trkpt>
      <trkpt lat="42.50441" lon="2.44684">
        <ele>2147.1</ele>
        <time>2020-08-31T06:04:27.318Z</time>
      </trkpt>
      <trkpt lat="42.50442" lon="2.44691">
        <ele>2147.6</ele>
        <time>2020-08-31T06:04:44.204Z</time>
      </trkpt>
      <trkpt lat="42.50443" lon="2.44697">
        <ele>2148.1</ele>
        <time>2020-08-31T06:05:01.158Z</time>
      </trkpt>
      <trkpt lat="42.50447" lon="2.44709">
        <ele>2148.8</ele>
        <time>2020-08-31T06:05:26.845Z</time>
      </trkpt>
      <trkpt lat="42.50448" lon="2.44715">
        <ele>2149</ele>
        <time>2020-08-31T06:05:36.691Z</time>
      </trkpt>
      <trkpt lat="42.50452" lon="2.44724">
        <ele>2149.3</ele>
        <time>2020-08-31T06:05:52.226Z</time>
      </trkpt>
      <trkpt lat="42.50454" lon="2.44729">
        <ele>2149.5</ele>
        <time>2020-08-31T06:06:01.574Z</time>
      </trkpt>
      <trkpt lat="42.50455" lon="2.44736">
        <ele>2149.7</ele>
        <time>2020-08-31T06:06:12.014Z</time>
      </trkpt>
      <trkpt lat="42.50458" lon="2.44742">
        <ele>2150.1</ele>
        <time>2020-08-31T06:06:26.458Z</time>
      </trkpt>
      <trkpt lat="42.50461" lon="2.44746">
        <ele>2150.6</ele>
        <time>2020-08-31T06:06:43.801Z</time>
      </trkpt>
      <trkpt lat="42.50466" lon="2.44756">
        <ele>2152.4</ele>
        <time>2020-08-31T06:07:28.262Z</time>
      </trkpt>
      <trkpt lat="42.5047" lon="2.44761">
        <ele>2152.9</ele>
        <time>2020-08-31T06:07:45.230Z</time>
      </trkpt>
      <trkpt lat="42.5048" lon="2.44776">
        <ele>2153.9</ele>
        <time>2020-08-31T06:08:23.213Z</time>
      </trkpt>
      <trkpt lat="42.50487" lon="2.44787">
        <ele>2154.4</ele>
        <time>2020-08-31T06:08:46.935Z</time>
      </trkpt>
      <trkpt lat="42.50491" lon="2.44793">
        <ele>2154.9</ele>
        <time>2020-08-31T06:09:04.273Z</time>
      </trkpt>
      <trkpt lat="42.50495" lon="2.44797">
        <ele>2155.3</ele>
        <time>2020-08-31T06:09:18.324Z</time>
      </trkpt>
      <trkpt lat="42.50499" lon="2.44803">
        <ele>2155.9</ele>
        <time>2020-08-31T06:09:38.512Z</time>
      </trkpt>
      <trkpt lat="42.50504" lon="2.44808">
        <ele>2170.1</ele>
        <time>2020-08-31T06:10:09.517Z</time>
      </trkpt>
      <trkpt lat="42.50509" lon="2.44815">
        <ele>2169.8</ele>
        <time>2020-08-31T06:10:11.544Z</time>
      </trkpt>
      <trkpt lat="42.50513" lon="2.44819">
        <ele>2169.8</ele>
        <time>2020-08-31T06:10:17.974Z</time>
      </trkpt>
      <trkpt lat="42.50517" lon="2.44824">
        <ele>2170.2</ele>
        <time>2020-08-31T06:10:32.526Z</time>
      </trkpt>
      <trkpt lat="42.50522" lon="2.44829">
        <ele>2171.1</ele>
        <time>2020-08-31T06:11:03.530Z</time>
      </trkpt>
      <trkpt lat="42.50525" lon="2.44834">
        <ele>2171.9</ele>
        <time>2020-08-31T06:11:27.251Z</time>
      </trkpt>
      <trkpt lat="42.50531" lon="2.44844">
        <ele>2173.7</ele>
        <time>2020-08-31T06:12:14.693Z</time>
      </trkpt>
      <trkpt lat="42.50534" lon="2.44847">
        <ele>2174.3</ele>
        <time>2020-08-31T06:12:33.296Z</time>
      </trkpt>
      <trkpt lat="42.50537" lon="2.4485">
        <ele>2174.9</ele>
        <time>2020-08-31T06:12:51.898Z</time>
      </trkpt>
      <trkpt lat="42.5054" lon="2.44853">
        <ele>2175.5</ele>
        <time>2020-08-31T06:13:10.501Z</time>
      </trkpt>
      <trkpt lat="42.50542" lon="2.44856">
        <ele>2175.9</ele>
        <time>2020-08-31T06:13:25.384Z</time>
      </trkpt>
      <trkpt lat="42.50543" lon="2.44859">
        <ele>2176.1</ele>
        <time>2020-08-31T06:13:32.356Z</time>
      </trkpt>
      <trkpt lat="42.50546" lon="2.44862">
        <ele>2176.6</ele>
        <time>2020-08-31T06:13:50.958Z</time>
      </trkpt>
      <trkpt lat="42.50551" lon="2.44867">
        <ele>2177.3</ele>
        <time>2020-08-31T06:14:14.810Z</time>
      </trkpt>
      <trkpt lat="42.50554" lon="2.44868">
        <ele>2177.7</ele>
        <time>2020-08-31T06:14:29.396Z</time>
      </trkpt>
      <trkpt lat="42.50557" lon="2.44872">
        <ele>2178</ele>
        <time>2020-08-31T06:14:40.459Z</time>
      </trkpt>
      <trkpt lat="42.50557" lon="2.44876">
        <ele>2178</ele>
        <time>2020-08-31T06:14:44.275Z</time>
      </trkpt>
      <trkpt lat="42.50558" lon="2.44883">
        <ele>2178.2</ele>
        <time>2020-08-31T06:14:54.716Z</time>
      </trkpt>
      <trkpt lat="42.50559" lon="2.44889">
        <ele>2178.6</ele>
        <time>2020-08-31T06:15:08.403Z</time>
      </trkpt>
      <trkpt lat="42.5056" lon="2.44896">
        <ele>2179.1</ele>
        <time>2020-08-31T06:15:25.288Z</time>
      </trkpt>
      <trkpt lat="42.50561" lon="2.44902">
        <ele>2179.6</ele>
        <time>2020-08-31T06:15:42.243Z</time>
      </trkpt>
      <trkpt lat="42.50563" lon="2.44909">
        <ele>2180.3</ele>
        <time>2020-08-31T06:16:07.343Z</time>
      </trkpt>
      <trkpt lat="42.50564" lon="2.44915">
        <ele>2180.8</ele>
        <time>2020-08-31T06:16:24.298Z</time>
      </trkpt>
      <trkpt lat="42.50566" lon="2.44927">
        <ele>2183.7</ele>
        <time>2020-08-31T06:17:09.567Z</time>
      </trkpt>
      <trkpt lat="42.50569" lon="2.44936">
        <ele>2183.8</ele>
        <time>2020-08-31T06:17:20.345Z</time>
      </trkpt>
      <trkpt lat="42.5057" lon="2.44947">
        <ele>2184</ele>
        <time>2020-08-31T06:17:33.974Z</time>
      </trkpt>
      <trkpt lat="42.5057" lon="2.44954">
        <ele>2184.5</ele>
        <time>2020-08-31T06:17:50.828Z</time>
      </trkpt>
      <trkpt lat="42.50572" lon="2.4496">
        <ele>2185.1</ele>
        <time>2020-08-31T06:18:12.042Z</time>
      </trkpt>
      <trkpt lat="42.5058" lon="2.44966">
        <ele>2186.6</ele>
        <time>2020-08-31T06:18:57.668Z</time>
      </trkpt>
      <trkpt lat="42.50583" lon="2.44969">
        <ele>2187.1</ele>
        <time>2020-08-31T06:19:16.270Z</time>
      </trkpt>
      <trkpt lat="42.50585" lon="2.44973">
        <ele>2204.6</ele>
        <time>2020-08-31T06:19:34.054Z</time>
      </trkpt>
      <trkpt lat="42.50587" lon="2.44976">
        <ele>2204.6</ele>
        <time>2020-08-31T06:19:37.913Z</time>
      </trkpt>
      <trkpt lat="42.5059" lon="2.4498">
        <ele>2204.6</ele>
        <time>2020-08-31T06:19:43.356Z</time>
      </trkpt>
      <trkpt lat="42.50593" lon="2.44986">
        <ele>2204.4</ele>
        <time>2020-08-31T06:19:44.928Z</time>
      </trkpt>
      <trkpt lat="42.50597" lon="2.44994">
        <ele>2204.3</ele>
        <time>2020-08-31T06:19:47.641Z</time>
      </trkpt>
      <trkpt lat="42.50604" lon="2.45003">
        <ele>2207.8</ele>
        <time>2020-08-31T06:20:35.779Z</time>
      </trkpt>
      <trkpt lat="42.50609" lon="2.45007">
        <ele>2209.5</ele>
        <time>2020-08-31T06:21:04.752Z</time>
      </trkpt>
      <trkpt lat="42.50616" lon="2.45016">
        <ele>2211.8</ele>
        <time>2020-08-31T06:21:52.890Z</time>
      </trkpt>
      <trkpt lat="42.50622" lon="2.45026">
        <ele>2213.1</ele>
        <time>2020-08-31T06:22:40.332Z</time>
      </trkpt>
      <trkpt lat="42.50625" lon="2.45035">
        <ele>2213.8</ele>
        <time>2020-08-31T06:23:03.945Z</time>
      </trkpt>
      <trkpt lat="42.50629" lon="2.45044">
        <ele>2214.5</ele>
        <time>2020-08-31T06:23:27.775Z</time>
      </trkpt>
      <trkpt lat="42.50631" lon="2.45052">
        <ele>2214.9</ele>
        <time>2020-08-31T06:23:43.315Z</time>
      </trkpt>
      <trkpt lat="42.50636" lon="2.45056">
        <ele>2215.8</ele>
        <time>2020-08-31T06:24:12.287Z</time>
      </trkpt>
      <trkpt lat="42.50638" lon="2.45065">
        <ele>2216.5</ele>
        <time>2020-08-31T06:24:35.839Z</time>
      </trkpt>
      <trkpt lat="42.50642" lon="2.45069">
        <ele>2217.6</ele>
        <time>2020-08-31T06:25:00.642Z</time>
      </trkpt>
      <trkpt lat="42.50646" lon="2.45078">
        <ele>2219.5</ele>
        <time>2020-08-31T06:25:39.310Z</time>
      </trkpt>
      <trkpt lat="42.50648" lon="2.45085">
        <ele>2220.8</ele>
        <time>2020-08-31T06:26:06.933Z</time>
      </trkpt>
      <trkpt lat="42.50652" lon="2.45089">
        <ele>2221.9</ele>
        <time>2020-08-31T06:26:31.737Z</time>
      </trkpt>
      <trkpt lat="42.50656" lon="2.45096">
        <ele>2222.1</ele>
        <time>2020-08-31T06:26:43.481Z</time>
      </trkpt>
      <trkpt lat="42.50661" lon="2.45104">
        <ele>2221.5</ele>
        <time>2020-08-31T06:26:45.412Z</time>
      </trkpt>
      <trkpt lat="42.50666" lon="2.45111">
        <ele>2221.1</ele>
        <time>2020-08-31T06:26:47.206Z</time>
      </trkpt>
      <trkpt lat="42.50668" lon="2.45118">
        <ele>2240.7</ele>
        <time>2020-08-31T06:27:14.829Z</time>
      </trkpt>
      <trkpt lat="42.5067" lon="2.45126">
        <ele>2241.3</ele>
        <time>2020-08-31T06:27:35.064Z</time>
      </trkpt>
      <trkpt lat="42.50673" lon="2.4513">
        <ele>2241.5</ele>
        <time>2020-08-31T06:27:44.432Z</time>
      </trkpt>
      <trkpt lat="42.50675" lon="2.45133">
        <ele>2241.7</ele>
        <time>2020-08-31T06:27:52.028Z</time>
      </trkpt>
      <trkpt lat="42.50679" lon="2.45133">
        <ele>2242.1</ele>
        <time>2020-08-31T06:28:05.488Z</time>
      </trkpt>
      <trkpt lat="42.50684" lon="2.45135">
        <ele>2242.8</ele>
        <time>2020-08-31T06:28:31.507Z</time>
      </trkpt>
      <trkpt lat="42.50687" lon="2.45137">
        <ele>2243.2</ele>
        <time>2020-08-31T06:28:45.421Z</time>
      </trkpt>
      <trkpt lat="42.5069" lon="2.45141">
        <ele>2243.6</ele>
        <time>2020-08-31T06:28:58.930Z</time>
      </trkpt>
      <trkpt lat="42.50692" lon="2.45145">
        <ele>2243.9</ele>
        <time>2020-08-31T06:29:09.320Z</time>
      </trkpt>
      <trkpt lat="42.50695" lon="2.45149">
        <ele>2244.5</ele>
        <time>2020-08-31T06:29:30.316Z</time>
      </trkpt>
      <trkpt lat="42.50698" lon="2.45153">
        <ele>2245</ele>
        <time>2020-08-31T06:29:47.659Z</time>
      </trkpt>
      <trkpt lat="42.507" lon="2.45156">
        <ele>2245.6</ele>
        <time>2020-08-31T06:30:02.541Z</time>
      </trkpt>
      <trkpt lat="42.50704" lon="2.45159">
        <ele>2246.6</ele>
        <time>2020-08-31T06:30:25.354Z</time>
      </trkpt>
      <trkpt lat="42.50706" lon="2.45163">
        <ele>2247.2</ele>
        <time>2020-08-31T06:30:43.138Z</time>
      </trkpt>
      <trkpt lat="42.50709" lon="2.45168">
        <ele>2249.2</ele>
        <time>2020-08-31T06:31:06.858Z</time>
      </trkpt>
      <trkpt lat="42.50711" lon="2.45172">
        <ele>2249.8</ele>
        <time>2020-08-31T06:31:24.642Z</time>
      </trkpt>
      <trkpt lat="42.50714" lon="2.45177">
        <ele>2250.6</ele>
        <time>2020-08-31T06:31:48.363Z</time>
      </trkpt>
      <trkpt lat="42.50718" lon="2.45182">
        <ele>2251.6</ele>
        <time>2020-08-31T06:32:15.511Z</time>
      </trkpt>
      <trkpt lat="42.50721" lon="2.45187">
        <ele>2252.2</ele>
        <time>2020-08-31T06:32:37.000Z</time>
      </trkpt>
      <trkpt lat="42.50725" lon="2.45196">
        <ele>2252.7</ele>
        <time>2020-08-31T06:32:56.375Z</time>
      </trkpt>
      <trkpt lat="42.50727" lon="2.45199">
        <ele>2252.9</ele>
        <time>2020-08-31T06:33:03.972Z</time>
      </trkpt>
      <trkpt lat="42.5073" lon="2.45203">
        <ele>2253.2</ele>
        <time>2020-08-31T06:33:15.035Z</time>
      </trkpt>
      <trkpt lat="42.50733" lon="2.45207">
        <ele>2253.6</ele>
        <time>2020-08-31T06:33:28.544Z</time>
      </trkpt>
      <trkpt lat="42.50736" lon="2.4521">
        <ele>2254</ele>
        <time>2020-08-31T06:33:42.049Z</time>
      </trkpt>
      <trkpt lat="42.5074" lon="2.45213">
        <ele>2254.5</ele>
        <time>2020-08-31T06:33:58.979Z</time>
      </trkpt>
      <trkpt lat="42.50745" lon="2.45218">
        <ele>2255.1</ele>
        <time>2020-08-31T06:34:19.210Z</time>
      </trkpt>
      <trkpt lat="42.50749" lon="2.45225">
        <ele>2256</ele>
        <time>2020-08-31T06:34:51.798Z</time>
      </trkpt>
      <trkpt lat="42.50751" lon="2.4523">
        <ele>2272.2</ele>
        <time>2020-08-31T06:35:12.729Z</time>
      </trkpt>
      <trkpt lat="42.50751" lon="2.45235">
        <ele>2270.8</ele>
        <time>2020-08-31T06:35:13.649Z</time>
      </trkpt>
      <trkpt lat="42.50754" lon="2.4524">
        <ele>2269.4</ele>
        <time>2020-08-31T06:35:14.837Z</time>
      </trkpt>
      <trkpt lat="42.50758" lon="2.45241">
        <ele>2270</ele>
        <time>2020-08-31T06:35:35.138Z</time>
      </trkpt>
      <trkpt lat="42.50761" lon="2.45243">
        <ele>2270.6</ele>
        <time>2020-08-31T06:35:51.822Z</time>
      </trkpt>
      <trkpt lat="42.50763" lon="2.45248">
        <ele>2270.7</ele>
        <time>2020-08-31T06:35:58.765Z</time>
      </trkpt>
      <trkpt lat="42.50763" lon="2.45253">
        <ele>2269.9</ele>
        <time>2020-08-31T06:35:59.685Z</time>
      </trkpt>
      <trkpt lat="42.50762" lon="2.45259">
        <ele>2270</ele>
        <time>2020-08-31T06:36:07.039Z</time>
      </trkpt>
      <trkpt lat="42.5076" lon="2.45264">
        <ele>2270.6</ele>
        <time>2020-08-31T06:36:27.969Z</time>
      </trkpt>
      <trkpt lat="42.50759" lon="2.45275">
        <ele>2272.5</ele>
        <time>2020-08-31T06:37:08.750Z</time>
      </trkpt>
      <trkpt lat="42.50759" lon="2.45279">
        <ele>2273</ele>
        <time>2020-08-31T06:37:23.467Z</time>
      </trkpt>
      <trkpt lat="42.50762" lon="2.45286">
        <ele>2273.8</ele>
        <time>2020-08-31T06:37:53.259Z</time>
      </trkpt>
      <trkpt lat="42.50765" lon="2.45289">
        <ele>2274.2</ele>
        <time>2020-08-31T06:38:06.765Z</time>
      </trkpt>
      <trkpt lat="42.50768" lon="2.45293">
        <ele>2274.7</ele>
        <time>2020-08-31T06:38:24.108Z</time>
      </trkpt>
      <trkpt lat="42.50773" lon="2.453">
        <ele>2275.2</ele>
        <time>2020-08-31T06:38:42.759Z</time>
      </trkpt>
      <trkpt lat="42.50775" lon="2.45306">
        <ele>2275.2</ele>
        <time>2020-08-31T06:38:49.041Z</time>
      </trkpt>
      <trkpt lat="42.50779" lon="2.45308">
        <ele>2275.8</ele>
        <time>2020-08-31T06:39:10.318Z</time>
      </trkpt>
      <trkpt lat="42.50782" lon="2.4531">
        <ele>2276.4</ele>
        <time>2020-08-31T06:39:27.002Z</time>
      </trkpt>
      <trkpt lat="42.50787" lon="2.4531">
        <ele>2277.4</ele>
        <time>2020-08-31T06:39:51.958Z</time>
      </trkpt>
      <trkpt lat="42.5079" lon="2.45313">
        <ele>2278.1</ele>
        <time>2020-08-31T06:40:10.561Z</time>
      </trkpt>
      <trkpt lat="42.50793" lon="2.45317">
        <ele>2278.6</ele>
        <time>2020-08-31T06:40:27.904Z</time>
      </trkpt>
      <trkpt lat="42.50794" lon="2.4532">
        <ele>2278.9</ele>
        <time>2020-08-31T06:40:38.511Z</time>
      </trkpt>
      <trkpt lat="42.50796" lon="2.45326">
        <ele>2279.4</ele>
        <time>2020-08-31T06:40:55.338Z</time>
      </trkpt>
      <trkpt lat="42.50798" lon="2.4533">
        <ele>2280</ele>
        <time>2020-08-31T06:41:13.121Z</time>
      </trkpt>
      <trkpt lat="42.50803" lon="2.45336">
        <ele>2280.6</ele>
        <time>2020-08-31T06:41:33.568Z</time>
      </trkpt>
      <trkpt lat="42.50806" lon="2.45341">
        <ele>2281.3</ele>
        <time>2020-08-31T06:41:57.289Z</time>
      </trkpt>
      <trkpt lat="42.5081" lon="2.45349">
        <ele>2281.8</ele>
        <time>2020-08-31T06:42:15.867Z</time>
      </trkpt>
      <trkpt lat="42.50815" lon="2.45356">
        <ele>2282.1</ele>
        <time>2020-08-31T06:42:30.923Z</time>
      </trkpt>
      <trkpt lat="42.50818" lon="2.45363">
        <ele>2282</ele>
        <time>2020-08-31T06:42:33.120Z</time>
      </trkpt>
      <trkpt lat="42.50822" lon="2.45369">
        <ele>2281.9</ele>
        <time>2020-08-31T06:42:35.315Z</time>
      </trkpt>
      <trkpt lat="42.50824" lon="2.45377">
        <ele>2281.7</ele>
        <time>2020-08-31T06:42:37.245Z</time>
      </trkpt>
      <trkpt lat="42.50827" lon="2.45386">
        <ele>2282</ele>
        <time>2020-08-31T06:42:52.379Z</time>
      </trkpt>
      <trkpt lat="42.50831" lon="2.45399">
        <ele>2283.1</ele>
        <time>2020-08-31T06:43:29.465Z</time>
      </trkpt>
      <trkpt lat="42.50828" lon="2.45399">
        <ele>2282.9</ele>
        <time>2020-08-31T06:43:30.151Z</time>
      </trkpt>
      <trkpt lat="42.50824" lon="2.45398">
        <ele>2282.4</ele>
        <time>2020-08-31T06:43:31.167Z</time>
      </trkpt>
      <trkpt lat="42.50821" lon="2.45398">
        <ele>2282.1</ele>
        <time>2020-08-31T06:43:31.917Z</time>
      </trkpt>
      <trkpt lat="42.50813" lon="2.45395">
        <ele>2281.1</ele>
        <time>2020-08-31T06:43:33.990Z</time>
      </trkpt>
      <trkpt lat="42.5081" lon="2.45392">
        <ele>2280.5</ele>
        <time>2020-08-31T06:43:34.921Z</time>
      </trkpt>
      <trkpt lat="42.50804" lon="2.45388">
        <ele>2279.7</ele>
        <time>2020-08-31T06:43:36.591Z</time>
      </trkpt>
      <trkpt lat="42.50799" lon="2.45388">
        <ele>2279.1</ele>
        <time>2020-08-31T06:43:37.840Z</time>
      </trkpt>
      <trkpt lat="42.50795" lon="2.45395">
        <ele>2278.5</ele>
        <time>2020-08-31T06:43:39.471Z</time>
      </trkpt>
      <trkpt lat="42.50792" lon="2.45398">
        <ele>2278.2</ele>
        <time>2020-08-31T06:43:40.402Z</time>
      </trkpt>
      <trkpt lat="42.5079" lon="2.45403">
        <ele>2277.8</ele>
        <time>2020-08-31T06:43:41.450Z</time>
      </trkpt>
      <trkpt lat="42.50788" lon="2.45406">
        <ele>2277.5</ele>
        <time>2020-08-31T06:43:42.195Z</time>
      </trkpt>
      <trkpt lat="42.50785" lon="2.45411">
        <ele>2277.1</ele>
        <time>2020-08-31T06:43:43.382Z</time>
      </trkpt>
      <trkpt lat="42.50783" lon="2.45417">
        <ele>2280.5</ele>
        <time>2020-08-31T06:44:07.610Z</time>
      </trkpt>
      <trkpt lat="42.5078" lon="2.45425">
        <ele>2280.2</ele>
        <time>2020-08-31T06:44:09.416Z</time>
      </trkpt>
      <trkpt lat="42.50776" lon="2.45436">
        <ele>2280.7</ele>
        <time>2020-08-31T06:44:30.611Z</time>
      </trkpt>
      <trkpt lat="42.50767" lon="2.45467">
        <ele>2283.3</ele>
        <time>2020-08-31T06:45:58.264Z</time>
      </trkpt>
      <trkpt lat="42.50764" lon="2.45478">
        <ele>2284.1</ele>
        <time>2020-08-31T06:46:25.384Z</time>
      </trkpt>
      <trkpt lat="42.5076" lon="2.45492">
        <ele>2285.1</ele>
        <time>2020-08-31T06:46:59.427Z</time>
      </trkpt>
      <trkpt lat="42.50757" lon="2.45502">
        <ele>2288.3</ele>
        <time>2020-08-31T06:47:39.152Z</time>
      </trkpt>
      <trkpt lat="42.50756" lon="2.45507">
        <ele>2288.8</ele>
        <time>2020-08-31T06:47:57.545Z</time>
      </trkpt>
      <trkpt lat="42.50747" lon="2.45518">
        <ele>2283.2</ele>
        <time>2020-08-31T06:48:00.571Z</time>
      </trkpt>
      <trkpt lat="42.50744" lon="2.45521">
        <ele>2282.8</ele>
        <time>2020-08-31T06:48:01.502Z</time>
      </trkpt>
      <trkpt lat="42.50741" lon="2.45523">
        <ele>2282.6</ele>
        <time>2020-08-31T06:48:02.309Z</time>
      </trkpt>
      <trkpt lat="42.50739" lon="2.45526">
        <ele>2282.4</ele>
        <time>2020-08-31T06:48:03.054Z</time>
      </trkpt>
      <trkpt lat="42.50737" lon="2.45533">
        <ele>2282.4</ele>
        <time>2020-08-31T06:48:10.215Z</time>
      </trkpt>
      <trkpt lat="42.50736" lon="2.45539">
        <ele>2282.6</ele>
        <time>2020-08-31T06:48:20.061Z</time>
      </trkpt>
      <trkpt lat="42.50737" lon="2.45546">
        <ele>2283.1</ele>
        <time>2020-08-31T06:48:36.946Z</time>
      </trkpt>
      <trkpt lat="42.50738" lon="2.4555">
        <ele>2283.7</ele>
        <time>2020-08-31T06:48:52.487Z</time>
      </trkpt>
      <trkpt lat="42.50739" lon="2.45558">
        <ele>2285</ele>
        <time>2020-08-31T06:49:22.343Z</time>
      </trkpt>
      <trkpt lat="42.5074" lon="2.45564">
        <ele>2286.2</ele>
        <time>2020-08-31T06:49:44.976Z</time>
      </trkpt>
      <trkpt lat="42.50742" lon="2.45573">
        <ele>2288.6</ele>
        <time>2020-08-31T06:50:19.563Z</time>
      </trkpt>
      <trkpt lat="42.50744" lon="2.4558">
        <ele>2291.4</ele>
        <time>2020-08-31T06:50:47.186Z</time>
      </trkpt>
      <trkpt lat="42.50747" lon="2.4559">
        <ele>2293.4</ele>
        <time>2020-08-31T06:51:26.910Z</time>
      </trkpt>
      <trkpt lat="42.5075" lon="2.45608">
        <ele>2301</ele>
        <time>2020-08-31T06:52:34.811Z</time>
      </trkpt>
      <trkpt lat="42.50751" lon="2.45626">
        <ele>2303</ele>
        <time>2020-08-31T06:53:41.229Z</time>
      </trkpt>
      <trkpt lat="42.50751" lon="2.45641">
        <ele>2303.7</ele>
        <time>2020-08-31T06:54:08.638Z</time>
      </trkpt>
      <trkpt lat="42.50752" lon="2.45657">
        <ele>2303.6</ele>
        <time>2020-08-31T06:54:13.486Z</time>
      </trkpt>
      <trkpt lat="42.50753" lon="2.45671">
        <ele>2304.5</ele>
        <time>2020-08-31T06:54:44.401Z</time>
      </trkpt>
      <trkpt lat="42.50754" lon="2.4568">
        <ele>2306.5</ele>
        <time>2020-08-31T06:55:17.890Z</time>
      </trkpt>
      <trkpt lat="42.50756" lon="2.45688">
        <ele>2307.7</ele>
        <time>2020-08-31T06:55:48.972Z</time>
      </trkpt>
      <trkpt lat="42.50758" lon="2.45689">
        <ele>2308</ele>
        <time>2020-08-31T06:55:59.611Z</time>
      </trkpt>
      <trkpt lat="42.50759" lon="2.45688">
        <ele>2307.9</ele>
        <time>2020-08-31T06:55:59.921Z</time>
      </trkpt>
      <trkpt lat="42.5076" lon="2.45685">
        <ele>2307.6</ele>
        <time>2020-08-31T06:56:00.527Z</time>
      </trkpt>
      <trkpt lat="42.50762" lon="2.45679">
        <ele>2307.2</ele>
        <time>2020-08-31T06:56:01.740Z</time>
      </trkpt>
      <trkpt lat="42.50764" lon="2.45674">
        <ele>2307.1</ele>
        <time>2020-08-31T06:56:03.161Z</time>
      </trkpt>
      <trkpt lat="42.50767" lon="2.45666">
        <ele>2304.5</ele>
        <time>2020-08-31T06:56:04.814Z</time>
      </trkpt>
      <trkpt lat="42.50776" lon="2.45655">
        <ele>2305.2</ele>
        <time>2020-08-31T06:56:33.697Z</time>
      </trkpt>
      <trkpt lat="42.50781" lon="2.45652">
        <ele>2305.6</ele>
        <time>2020-08-31T06:56:48.280Z</time>
      </trkpt>
      <trkpt lat="42.50785" lon="2.45649">
        <ele>2305.9</ele>
        <time>2020-08-31T06:56:59.803Z</time>
      </trkpt>
      <trkpt lat="42.5079" lon="2.45647">
        <ele>2306.2</ele>
        <time>2020-08-31T06:57:12.211Z</time>
      </trkpt>
      <trkpt lat="42.50795" lon="2.45645">
        <ele>2306.6</ele>
        <time>2020-08-31T06:57:26.511Z</time>
      </trkpt>
      <trkpt lat="42.50799" lon="2.45645">
        <ele>2307.1</ele>
        <time>2020-08-31T06:57:44.306Z</time>
      </trkpt>
      <trkpt lat="42.50806" lon="2.45646">
        <ele>2307.9</ele>
        <time>2020-08-31T06:58:11.628Z</time>
      </trkpt>
      <trkpt lat="42.50817" lon="2.45653">
        <ele>2310.2</ele>
        <time>2020-08-31T06:59:12.272Z</time>
      </trkpt>
      <trkpt lat="42.50827" lon="2.45659">
        <ele>2313.2</ele>
        <time>2020-08-31T07:00:06.848Z</time>
      </trkpt>
      <trkpt lat="42.50833" lon="2.45663">
        <ele>2315.2</ele>
        <time>2020-08-31T07:00:40.216Z</time>
      </trkpt>
      <trkpt lat="42.50836" lon="2.45667">
        <ele>2316.8</ele>
        <time>2020-08-31T07:01:01.211Z</time>
      </trkpt>
      <trkpt lat="42.50838" lon="2.45672">
        <ele>2318.3</ele>
        <time>2020-08-31T07:01:22.142Z</time>
      </trkpt>
      <trkpt lat="42.50841" lon="2.45677">
        <ele>2319</ele>
        <time>2020-08-31T07:01:45.862Z</time>
      </trkpt>
      <trkpt lat="42.50843" lon="2.45683">
        <ele>2319.6</ele>
        <time>2020-08-31T07:02:07.076Z</time>
      </trkpt>
      <trkpt lat="42.50845" lon="2.45687">
        <ele>2320.1</ele>
        <time>2020-08-31T07:02:24.859Z</time>
      </trkpt>
      <trkpt lat="42.50851" lon="2.45692">
        <ele>2320.6</ele>
        <time>2020-08-31T07:02:43.335Z</time>
      </trkpt>
      <trkpt lat="42.50855" lon="2.45694">
        <ele>2320.9</ele>
        <time>2020-08-31T07:02:54.467Z</time>
      </trkpt>
      <trkpt lat="42.50861" lon="2.45695">
        <ele>2321.2</ele>
        <time>2020-08-31T07:03:08.111Z</time>
      </trkpt>
      <trkpt lat="42.50866" lon="2.45696">
        <ele>2321.4</ele>
        <time>2020-08-31T07:03:18.370Z</time>
      </trkpt>
      <trkpt lat="42.50888" lon="2.45721">
        <ele>2323.4</ele>
        <time>2020-08-31T07:04:32.923Z</time>
      </trkpt>
      <trkpt lat="42.50896" lon="2.45735">
        <ele>2324.9</ele>
        <time>2020-08-31T07:05:24.311Z</time>
      </trkpt>
      <trkpt lat="42.50907" lon="2.45755">
        <ele>2330.2</ele>
        <time>2020-08-31T07:06:56.122Z</time>
      </trkpt>
      <trkpt lat="42.5091" lon="2.45761">
        <ele>2330.4</ele>
        <time>2020-08-31T07:07:06.645Z</time>
      </trkpt>
      <trkpt lat="42.50922" lon="2.45784">
        <ele>2338</ele>
        <time>2020-08-31T07:08:50.320Z</time>
      </trkpt>
      <trkpt lat="42.50924" lon="2.45784">
        <ele>2338</ele>
        <time>2020-08-31T07:08:52.908Z</time>
      </trkpt>
      <trkpt lat="42.50925" lon="2.45785">
        <ele>2338.1</ele>
        <time>2020-08-31T07:08:56.421Z</time>
      </trkpt>
      <trkpt lat="42.50926" lon="2.45787">
        <ele>2338.4</ele>
        <time>2020-08-31T07:09:05.313Z</time>
      </trkpt>
      <trkpt lat="42.50927" lon="2.45789">
        <ele>2338.8</ele>
        <time>2020-08-31T07:09:14.204Z</time>
      </trkpt>
      <trkpt lat="42.50928" lon="2.45792">
        <ele>2339.1</ele>
        <time>2020-08-31T07:09:24.812Z</time>
      </trkpt>
      <trkpt lat="42.50928" lon="2.45796">
        <ele>2339.5</ele>
        <time>2020-08-31T07:09:39.529Z</time>
      </trkpt>
      <trkpt lat="42.50928" lon="2.45799">
        <ele>2339.8</ele>
        <time>2020-08-31T07:09:50.567Z</time>
      </trkpt>
      <trkpt lat="42.50929" lon="2.458">
        <ele>2339.9</ele>
        <time>2020-08-31T07:09:54.080Z</time>
      </trkpt>
      <trkpt lat="42.50931" lon="2.45802">
        <ele>2340.1</ele>
        <time>2020-08-31T07:10:01.105Z</time>
      </trkpt>
      <trkpt lat="42.50934" lon="2.45803">
        <ele>2340.2</ele>
        <time>2020-08-31T07:10:06.788Z</time>
      </trkpt>
      <trkpt lat="42.50937" lon="2.45804">
        <ele>2340.4</ele>
        <time>2020-08-31T07:10:14.525Z</time>
      </trkpt>
      <trkpt lat="42.50939" lon="2.45807">
        <ele>2340.7</ele>
        <time>2020-08-31T07:10:24.619Z</time>
      </trkpt>
      <trkpt lat="42.50939" lon="2.45814">
        <ele>2341.2</ele>
        <time>2020-08-31T07:10:41.473Z</time>
      </trkpt>
      <trkpt lat="42.5094" lon="2.45821">
        <ele>2341.6</ele>
        <time>2020-08-31T07:10:55.819Z</time>
      </trkpt>
      <trkpt lat="42.50941" lon="2.45825">
        <ele>2341.7</ele>
        <time>2020-08-31T07:11:01.528Z</time>
      </trkpt>
      <trkpt lat="42.50944" lon="2.45828">
        <ele>2341.9</ele>
        <time>2020-08-31T07:11:10.168Z</time>
      </trkpt>
      <trkpt lat="42.50945" lon="2.45828">
        <ele>2341.9</ele>
        <time>2020-08-31T07:11:11.462Z</time>
      </trkpt>
      <trkpt lat="42.50948" lon="2.45828">
        <ele>2342</ele>
        <time>2020-08-31T07:11:17.050Z</time>
      </trkpt>
      <trkpt lat="42.5095" lon="2.45828">
        <ele>2342</ele>
        <time>2020-08-31T07:11:19.638Z</time>
      </trkpt>
      <trkpt lat="42.50953" lon="2.45826">
        <ele>2342.1</ele>
        <time>2020-08-31T07:11:25.596Z</time>
      </trkpt>
      <trkpt lat="42.50956" lon="2.45826">
        <ele>2342.3</ele>
        <time>2020-08-31T07:11:33.216Z</time>
      </trkpt>
      <trkpt lat="42.50959" lon="2.45827">
        <ele>2342.5</ele>
        <time>2020-08-31T07:11:40.953Z</time>
      </trkpt>
      <trkpt lat="42.50961" lon="2.45828">
        <ele>2342.6</ele>
        <time>2020-08-31T07:11:45.681Z</time>
      </trkpt>
      <trkpt lat="42.50962" lon="2.45827">
        <ele>2342.7</ele>
        <time>2020-08-31T07:11:49.194Z</time>
      </trkpt>
      <trkpt lat="42.50963" lon="2.45826">
        <ele>2342.7</ele>
        <time>2020-08-31T07:11:50.801Z</time>
      </trkpt>
      <trkpt lat="42.50966" lon="2.45819">
        <ele>2342.7</ele>
        <time>2020-08-31T07:11:58.525Z</time>
      </trkpt>
      <trkpt lat="42.50969" lon="2.45819">
        <ele>2342.8</ele>
        <time>2020-08-31T07:12:04.113Z</time>
      </trkpt>
      <trkpt lat="42.50971" lon="2.45819">
        <ele>2343</ele>
        <time>2020-08-31T07:12:10.843Z</time>
      </trkpt>
      <trkpt lat="42.50972" lon="2.45821">
        <ele>2343.3</ele>
        <time>2020-08-31T07:12:19.735Z</time>
      </trkpt>
      <trkpt lat="42.50974" lon="2.45823">
        <ele>2343.6</ele>
        <time>2020-08-31T07:12:30.214Z</time>
      </trkpt>
      <trkpt lat="42.50976" lon="2.45827">
        <ele>2344.1</ele>
        <time>2020-08-31T07:12:47.997Z</time>
      </trkpt>
      <trkpt lat="42.50979" lon="2.45831">
        <ele>2344.7</ele>
        <time>2020-08-31T07:13:08.992Z</time>
      </trkpt>
      <trkpt lat="42.50984" lon="2.45842">
        <ele>2352.9</ele>
        <time>2020-08-31T07:13:56.540Z</time>
      </trkpt>
      <trkpt lat="42.50987" lon="2.45846">
        <ele>2353.2</ele>
        <time>2020-08-31T07:14:07.603Z</time>
      </trkpt>
      <trkpt lat="42.50991" lon="2.45851">
        <ele>2353.6</ele>
        <time>2020-08-31T07:14:22.154Z</time>
      </trkpt>
      <trkpt lat="42.50995" lon="2.45856">
        <ele>2354.3</ele>
        <time>2020-08-31T07:14:47.562Z</time>
      </trkpt>
      <trkpt lat="42.50999" lon="2.4586">
        <ele>2354.9</ele>
        <time>2020-08-31T07:15:08.520Z</time>
      </trkpt>
      <trkpt lat="42.51003" lon="2.45864">
        <ele>2359.9</ele>
        <time>2020-08-31T07:15:33.322Z</time>
      </trkpt>
      <trkpt lat="42.51007" lon="2.45869">
        <ele>2360.8</ele>
        <time>2020-08-31T07:16:00.470Z</time>
      </trkpt>
      <trkpt lat="42.51015" lon="2.45876">
        <ele>2362.4</ele>
        <time>2020-08-31T07:16:47.985Z</time>
      </trkpt>
      <trkpt lat="42.51019" lon="2.4588">
        <ele>2362.9</ele>
        <time>2020-08-31T07:17:04.809Z</time>
      </trkpt>
      <trkpt lat="42.51022" lon="2.45883">
        <ele>2363.4</ele>
        <time>2020-08-31T07:17:23.411Z</time>
      </trkpt>
      <trkpt lat="42.51025" lon="2.45886">
        <ele>2363.8</ele>
        <time>2020-08-31T07:17:36.916Z</time>
      </trkpt>
      <trkpt lat="42.51028" lon="2.4589">
        <ele>2364.2</ele>
        <time>2020-08-31T07:17:50.425Z</time>
      </trkpt>
      <trkpt lat="42.51031" lon="2.45891">
        <ele>2364.4</ele>
        <time>2020-08-31T07:17:58.162Z</time>
      </trkpt>
      <trkpt lat="42.51035" lon="2.45893">
        <ele>2364.6</ele>
        <time>2020-08-31T07:18:07.617Z</time>
      </trkpt>
      <trkpt lat="42.51038" lon="2.45894">
        <ele>2364.7</ele>
        <time>2020-08-31T07:18:13.299Z</time>
      </trkpt>
      <trkpt lat="42.51042" lon="2.45894">
        <ele>2364.8</ele>
        <time>2020-08-31T07:18:20.012Z</time>
      </trkpt>
      <trkpt lat="42.51044" lon="2.45895">
        <ele>2365</ele>
        <time>2020-08-31T07:18:26.778Z</time>
      </trkpt>
      <trkpt lat="42.51048" lon="2.45895">
        <ele>2365.2</ele>
        <time>2020-08-31T07:18:35.829Z</time>
      </trkpt>
      <trkpt lat="42.51053" lon="2.45895">
        <ele>2365.4</ele>
        <time>2020-08-31T07:18:46.040Z</time>
      </trkpt>
      <trkpt lat="42.51057" lon="2.45895">
        <ele>2365.7</ele>
        <time>2020-08-31T07:18:56.864Z</time>
      </trkpt>
      <trkpt lat="42.51061" lon="2.45895">
        <ele>2366</ele>
        <time>2020-08-31T07:19:07.687Z</time>
      </trkpt>
      <trkpt lat="42.51065" lon="2.45896">
        <ele>2366.3</ele>
        <time>2020-08-31T07:19:18.587Z</time>
      </trkpt>
      <trkpt lat="42.51068" lon="2.45897">
        <ele>2366.7</ele>
        <time>2020-08-31T07:19:33.173Z</time>
      </trkpt>
      <trkpt lat="42.5107" lon="2.45897">
        <ele>2366.9</ele>
        <time>2020-08-31T07:19:39.903Z</time>
      </trkpt>
      <trkpt lat="42.51073" lon="2.45895">
        <ele>2366.8</ele>
        <time>2020-08-31T07:19:40.963Z</time>
      </trkpt>
      <trkpt lat="42.51076" lon="2.45894">
        <ele>2366.9</ele>
        <time>2020-08-31T07:19:46.645Z</time>
      </trkpt>
      <trkpt lat="42.51078" lon="2.45894">
        <ele>2366.9</ele>
        <time>2020-08-31T07:19:49.233Z</time>
      </trkpt>
      <trkpt lat="42.51082" lon="2.45895">
        <ele>2367.3</ele>
        <time>2020-08-31T07:20:02.703Z</time>
      </trkpt>
      <trkpt lat="42.51085" lon="2.45897">
        <ele>2373.3</ele>
        <time>2020-08-31T07:20:19.387Z</time>
      </trkpt>
      <trkpt lat="42.5109" lon="2.45901">
        <ele>2373.6</ele>
        <time>2020-08-31T07:20:32.667Z</time>
      </trkpt>
      <trkpt lat="42.51093" lon="2.45903">
        <ele>2373.8</ele>
        <time>2020-08-31T07:20:40.751Z</time>
      </trkpt>
      <trkpt lat="42.51097" lon="2.45905">
        <ele>2374</ele>
        <time>2020-08-31T07:20:50.206Z</time>
      </trkpt>
      <trkpt lat="42.51101" lon="2.45907">
        <ele>2374.4</ele>
        <time>2020-08-31T07:21:03.737Z</time>
      </trkpt>
      <trkpt lat="42.51104" lon="2.45908">
        <ele>2374.7</ele>
        <time>2020-08-31T07:21:13.848Z</time>
      </trkpt>
      <trkpt lat="42.51107" lon="2.45908">
        <ele>2375</ele>
        <time>2020-08-31T07:21:23.943Z</time>
      </trkpt>
      <trkpt lat="42.51112" lon="2.45907">
        <ele>2375.4</ele>
        <time>2020-08-31T07:21:38.078Z</time>
      </trkpt>
      <trkpt lat="42.51113" lon="2.45905">
        <ele>2375.5</ele>
        <time>2020-08-31T07:21:42.277Z</time>
      </trkpt>
      <trkpt lat="42.51116" lon="2.45903">
        <ele>2375.7</ele>
        <time>2020-08-31T07:21:50.362Z</time>
      </trkpt>
      <trkpt lat="42.51117" lon="2.459">
        <ele>2375.7</ele>
        <time>2020-08-31T07:21:53.502Z</time>
      </trkpt>
      <trkpt lat="42.51118" lon="2.45895">
        <ele>2375.6</ele>
        <time>2020-08-31T07:21:54.763Z</time>
      </trkpt>
      <trkpt lat="42.51119" lon="2.45889">
        <ele>2375.4</ele>
        <time>2020-08-31T07:21:56.015Z</time>
      </trkpt>
      <trkpt lat="42.5112" lon="2.45884">
        <ele>2375.1</ele>
        <time>2020-08-31T07:21:56.969Z</time>
      </trkpt>
      <trkpt lat="42.5112" lon="2.45876">
        <ele>2374.5</ele>
        <time>2020-08-31T07:21:58.442Z</time>
      </trkpt>
      <trkpt lat="42.51121" lon="2.4587">
        <ele>2374.1</ele>
        <time>2020-08-31T07:21:59.574Z</time>
      </trkpt>
      <trkpt lat="42.51128" lon="2.45863">
        <ele>2374.4</ele>
        <time>2020-08-31T07:22:16.026Z</time>
      </trkpt>
      <trkpt lat="42.51132" lon="2.4586">
        <ele>2374.7</ele>
        <time>2020-08-31T07:22:27.548Z</time>
      </trkpt>
      <trkpt lat="42.51138" lon="2.45857">
        <ele>2375.1</ele>
        <time>2020-08-31T07:22:43.313Z</time>
      </trkpt>
      <trkpt lat="42.51141" lon="2.45855">
        <ele>2375.4</ele>
        <time>2020-08-31T07:22:53.540Z</time>
      </trkpt>
      <trkpt lat="42.51145" lon="2.45855">
        <ele>2375.8</ele>
        <time>2020-08-31T07:23:07.000Z</time>
      </trkpt>
      <trkpt lat="42.5115" lon="2.45856">
        <ele>2376.2</ele>
        <time>2020-08-31T07:23:21.135Z</time>
      </trkpt>
      <trkpt lat="42.51154" lon="2.45857">
        <ele>2376.5</ele>
        <time>2020-08-31T07:23:32.034Z</time>
      </trkpt>
      <trkpt lat="42.51157" lon="2.45858">
        <ele>2376.8</ele>
        <time>2020-08-31T07:23:42.145Z</time>
      </trkpt>
      <trkpt lat="42.5116" lon="2.45861">
        <ele>2377</ele>
        <time>2020-08-31T07:23:50.785Z</time>
      </trkpt>
      <trkpt lat="42.51162" lon="2.45862">
        <ele>2377.2</ele>
        <time>2020-08-31T07:23:57.551Z</time>
      </trkpt>
      <trkpt lat="42.51164" lon="2.45864">
        <ele>2377.4</ele>
        <time>2020-08-31T07:24:04.577Z</time>
      </trkpt>
      <trkpt lat="42.51166" lon="2.45867">
        <ele>2377.7</ele>
        <time>2020-08-31T07:24:14.671Z</time>
      </trkpt>
      <trkpt lat="42.51169" lon="2.4587">
        <ele>2390</ele>
        <time>2020-08-31T07:24:33.273Z</time>
      </trkpt>
      <trkpt lat="42.51171" lon="2.45874">
        <ele>2390.6</ele>
        <time>2020-08-31T07:24:51.056Z</time>
      </trkpt>
      <trkpt lat="42.51173" lon="2.45877">
        <ele>2391.1</ele>
        <time>2020-08-31T07:25:05.938Z</time>
      </trkpt>
      <trkpt lat="42.51176" lon="2.4588">
        <ele>2391.5</ele>
        <time>2020-08-31T07:25:19.443Z</time>
      </trkpt>
      <trkpt lat="42.5118" lon="2.45883">
        <ele>2392</ele>
        <time>2020-08-31T07:25:36.373Z</time>
      </trkpt>
      <trkpt lat="42.51183" lon="2.45887">
        <ele>2392.5</ele>
        <time>2020-08-31T07:25:53.717Z</time>
      </trkpt>
      <trkpt lat="42.51187" lon="2.45888">
        <ele>2392.9</ele>
        <time>2020-08-31T07:26:07.186Z</time>
      </trkpt>
      <trkpt lat="42.5119" lon="2.4589">
        <ele>2393.3</ele>
        <time>2020-08-31T07:26:21.101Z</time>
      </trkpt>
      <trkpt lat="42.51194" lon="2.4589">
        <ele>2393.7</ele>
        <time>2020-08-31T07:26:34.561Z</time>
      </trkpt>
      <trkpt lat="42.51198" lon="2.45892">
        <ele>2394.3</ele>
        <time>2020-08-31T07:26:55.838Z</time>
      </trkpt>
      <trkpt lat="42.512" lon="2.45893">
        <ele>2394.7</ele>
        <time>2020-08-31T07:27:06.477Z</time>
      </trkpt>
      <trkpt lat="42.51203" lon="2.45894">
        <ele>2395.1</ele>
        <time>2020-08-31T07:27:21.063Z</time>
      </trkpt>
      <trkpt lat="42.51206" lon="2.45894">
        <ele>2395.6</ele>
        <time>2020-08-31T07:27:36.036Z</time>
      </trkpt>
      <trkpt lat="42.51209" lon="2.45894">
        <ele>2396</ele>
        <time>2020-08-31T07:27:50.988Z</time>
      </trkpt>
      <trkpt lat="42.51212" lon="2.45894">
        <ele>2396.6</ele>
        <time>2020-08-31T07:28:05.962Z</time>
      </trkpt>
      <trkpt lat="42.51216" lon="2.45894">
        <ele>2397.1</ele>
        <time>2020-08-31T07:28:23.757Z</time>
      </trkpt>
      <trkpt lat="42.5122" lon="2.45893">
        <ele>2397.7</ele>
        <time>2020-08-31T07:28:44.058Z</time>
      </trkpt>
      <trkpt lat="42.51224" lon="2.45892">
        <ele>2398.3</ele>
        <time>2020-08-31T07:29:04.359Z</time>
      </trkpt>
      <trkpt lat="42.51228" lon="2.4589">
        <ele>2398.6</ele>
        <time>2020-08-31T07:29:15.490Z</time>
      </trkpt>
      <trkpt lat="42.51231" lon="2.45886">
        <ele>2398.5</ele>
        <time>2020-08-31T07:29:16.916Z</time>
      </trkpt>
      <trkpt lat="42.51237" lon="2.45875">
        <ele>2397.7</ele>
        <time>2020-08-31T07:29:19.436Z</time>
      </trkpt>
      <trkpt lat="42.51241" lon="2.45871">
        <ele>2397.5</ele>
        <time>2020-08-31T07:29:20.858Z</time>
      </trkpt>
      <trkpt lat="42.51243" lon="2.45871">
        <ele>2397.7</ele>
        <time>2020-08-31T07:29:27.588Z</time>
      </trkpt>
      <trkpt lat="42.51243" lon="2.45875">
        <ele>2398.2</ele>
        <time>2020-08-31T07:29:42.305Z</time>
      </trkpt>
      <trkpt lat="42.51242" lon="2.4588">
        <ele>2398.6</ele>
        <time>2020-08-31T07:29:55.778Z</time>
      </trkpt>
      <trkpt lat="42.5124" lon="2.45884">
        <ele>2399.3</ele>
        <time>2020-08-31T07:30:13.561Z</time>
      </trkpt>
      <trkpt lat="42.51239" lon="2.45891">
        <ele>2400.4</ele>
        <time>2020-08-31T07:30:39.794Z</time>
      </trkpt>
      <trkpt lat="42.51238" lon="2.45898">
        <ele>2401.7</ele>
        <time>2020-08-31T07:31:06.027Z</time>
      </trkpt>
      <trkpt lat="42.51236" lon="2.45902">
        <ele>2402.1</ele>
        <time>2020-08-31T07:31:19.644Z</time>
      </trkpt>
      <trkpt lat="42.51233" lon="2.45905">
        <ele>2402.1</ele>
        <time>2020-08-31T07:31:24.467Z</time>
      </trkpt>
      <trkpt lat="42.51227" lon="2.45914">
        <ele>2401.4</ele>
        <time>2020-08-31T07:31:26.702Z</time>
      </trkpt>
      <trkpt lat="42.51223" lon="2.45919">
        <ele>2410.3</ele>
        <time>2020-08-31T07:31:53.849Z</time>
      </trkpt>
      <trkpt lat="42.51219" lon="2.45927">
        <ele>2410.1</ele>
        <time>2020-08-31T07:31:56.154Z</time>
      </trkpt>
      <trkpt lat="42.51215" lon="2.45932">
        <ele>2409.9</ele>
        <time>2020-08-31T07:31:57.763Z</time>
      </trkpt>
      <trkpt lat="42.51212" lon="2.45937">
        <ele>2410</ele>
        <time>2020-08-31T07:32:05.381Z</time>
      </trkpt>
      <trkpt lat="42.5121" lon="2.45942">
        <ele>2410.2</ele>
        <time>2020-08-31T07:32:14.728Z</time>
      </trkpt>
      <trkpt lat="42.5121" lon="2.45946">
        <ele>2410.6</ele>
        <time>2020-08-31T07:32:29.445Z</time>
      </trkpt>
      <trkpt lat="42.5121" lon="2.45951">
        <ele>2411.2</ele>
        <time>2020-08-31T07:32:47.840Z</time>
      </trkpt>
      <trkpt lat="42.51208" lon="2.45954">
        <ele>2411.4</ele>
        <time>2020-08-31T07:32:55.437Z</time>
      </trkpt>
      <trkpt lat="42.51205" lon="2.45958">
        <ele>2411.6</ele>
        <time>2020-08-31T07:33:04.804Z</time>
      </trkpt>
      <trkpt lat="42.51202" lon="2.45961">
        <ele>2411.5</ele>
        <time>2020-08-31T07:33:06.026Z</time>
      </trkpt>
      <trkpt lat="42.51199" lon="2.45965">
        <ele>2411.7</ele>
        <time>2020-08-31T07:33:15.393Z</time>
      </trkpt>
      <trkpt lat="42.51195" lon="2.45972">
        <ele>2412.1</ele>
        <time>2020-08-31T07:33:31.342Z</time>
      </trkpt>
      <trkpt lat="42.51192" lon="2.4598">
        <ele>2412.5</ele>
        <time>2020-08-31T07:33:47.414Z</time>
      </trkpt>
      <trkpt lat="42.51189" lon="2.45992">
        <ele>2412.9</ele>
        <time>2020-08-31T07:34:07.302Z</time>
      </trkpt>
      <trkpt lat="42.51186" lon="2.45999">
        <ele>2413</ele>
        <time>2020-08-31T07:34:16.425Z</time>
      </trkpt>
      <trkpt lat="42.51182" lon="2.46007">
        <ele>2425.6</ele>
        <time>2020-08-31T07:34:51.991Z</time>
      </trkpt>
      <trkpt lat="42.51176" lon="2.46018">
        <ele>2427.7</ele>
        <time>2020-08-31T07:35:42.337Z</time>
      </trkpt>
      <trkpt lat="42.51174" lon="2.46025">
        <ele>2430.2</ele>
        <time>2020-08-31T07:36:09.958Z</time>
      </trkpt>
      <trkpt lat="42.51171" lon="2.46029">
        <ele>2431.7</ele>
        <time>2020-08-31T07:36:30.953Z</time>
      </trkpt>
      <trkpt lat="42.51166" lon="2.46038">
        <ele>2421.9</ele>
        <time>2020-08-31T07:36:33.028Z</time>
      </trkpt>
      <trkpt lat="42.51163" lon="2.46042">
        <ele>2422.9</ele>
        <time>2020-08-31T07:36:54.023Z</time>
      </trkpt>
      <trkpt lat="42.51166" lon="2.46043">
        <ele>2423.3</ele>
        <time>2020-08-31T07:37:08.609Z</time>
      </trkpt>
      <trkpt lat="42.51171" lon="2.46041">
        <ele>2435.4</ele>
        <time>2020-08-31T07:37:34.627Z</time>
      </trkpt>
      <trkpt lat="42.51177" lon="2.46035">
        <ele>2434.3</ele>
        <time>2020-08-31T07:37:36.489Z</time>
      </trkpt>
      <trkpt lat="42.51182" lon="2.46031">
        <ele>2433.8</ele>
        <time>2020-08-31T07:37:37.939Z</time>
      </trkpt>
      <trkpt lat="42.51187" lon="2.4603">
        <ele>2434.3</ele>
        <time>2020-08-31T07:37:54.770Z</time>
      </trkpt>
      <trkpt lat="42.51191" lon="2.46028">
        <ele>2434.4</ele>
        <time>2020-08-31T07:38:01.796Z</time>
      </trkpt>
      <trkpt lat="42.51195" lon="2.46022">
        <ele>2434.2</ele>
        <time>2020-08-31T07:38:03.619Z</time>
      </trkpt>
      <trkpt lat="42.51198" lon="2.4602">
        <ele>2434.4</ele>
        <time>2020-08-31T07:38:11.703Z</time>
      </trkpt>
      <trkpt lat="42.51203" lon="2.4602">
        <ele>2435.4</ele>
        <time>2020-08-31T07:38:36.658Z</time>
      </trkpt>
      <trkpt lat="42.51206" lon="2.46021">
        <ele>2436.1</ele>
        <time>2020-08-31T07:38:52.077Z</time>
      </trkpt>
      <trkpt lat="42.51209" lon="2.46019">
        <ele>2436.4</ele>
        <time>2020-08-31T07:39:02.304Z</time>
      </trkpt>
      <trkpt lat="42.51217" lon="2.46014">
        <ele>2436.9</ele>
        <time>2020-08-31T07:39:23.158Z</time>
      </trkpt>
      <trkpt lat="42.51226" lon="2.46007">
        <ele>2436.8</ele>
        <time>2020-08-31T07:39:27.340Z</time>
      </trkpt>
      <trkpt lat="42.51231" lon="2.46002">
        <ele>2436.5</ele>
        <time>2020-08-31T07:39:28.991Z</time>
      </trkpt>
      <trkpt lat="42.51236" lon="2.45998">
        <ele>2424.8</ele>
        <time>2020-08-31T07:39:30.441Z</time>
      </trkpt>
      <trkpt lat="42.51245" lon="2.45994">
        <ele>2428.4</ele>
        <time>2020-08-31T07:40:17.711Z</time>
      </trkpt>
      <trkpt lat="42.51254" lon="2.45991">
        <ele>2435.9</ele>
        <time>2020-08-31T07:41:03.967Z</time>
      </trkpt>
      <trkpt lat="42.51259" lon="2.4599">
        <ele>2436.5</ele>
        <time>2020-08-31T07:41:24.768Z</time>
      </trkpt>
      <trkpt lat="42.51264" lon="2.45991">
        <ele>2437.3</ele>
        <time>2020-08-31T07:41:49.994Z</time>
      </trkpt>
      <trkpt lat="42.51268" lon="2.45989">
        <ele>2438.2</ele>
        <time>2020-08-31T07:42:11.271Z</time>
      </trkpt>
      <trkpt lat="42.51274" lon="2.45988">
        <ele>2439.3</ele>
        <time>2020-08-31T07:42:41.443Z</time>
      </trkpt>
      <trkpt lat="42.51279" lon="2.45987">
        <ele>2440.5</ele>
        <time>2020-08-31T07:43:06.669Z</time>
      </trkpt>
      <trkpt lat="42.51281" lon="2.45988">
        <ele>2441</ele>
        <time>2020-08-31T07:43:17.307Z</time>
      </trkpt>
      <trkpt lat="42.51277" lon="2.45992">
        <ele>2440.2</ele>
        <time>2020-08-31T07:43:18.549Z</time>
      </trkpt>
      <trkpt lat="42.51266" lon="2.46003">
        <ele>2453.2</ele>
        <time>2020-08-31T07:44:26.755Z</time>
      </trkpt>
      <trkpt lat="42.51262" lon="2.46006">
        <ele>2450.6</ele>
        <time>2020-08-31T07:44:27.897Z</time>
      </trkpt>
      <trkpt lat="42.51259" lon="2.46012">
        <ele>2452.5</ele>
        <time>2020-08-31T07:44:54.571Z</time>
      </trkpt>
      <trkpt lat="42.51257" lon="2.46017">
        <ele>2455.5</ele>
        <time>2020-08-31T07:45:15.501Z</time>
      </trkpt>
      <trkpt lat="42.51258" lon="2.4602">
        <ele>2457.2</ele>
        <time>2020-08-31T07:45:27.614Z</time>
      </trkpt>
      <trkpt lat="42.51257" lon="2.46023">
        <ele>2459.2</ele>
        <time>2020-08-31T07:45:39.728Z</time>
      </trkpt>
      <trkpt lat="42.51256" lon="2.46026">
        <ele>2460.4</ele>
        <time>2020-08-31T07:45:51.841Z</time>
      </trkpt>
      <trkpt lat="42.51259" lon="2.46025">
        <ele>2460.5</ele>
        <time>2020-08-31T07:45:57.523Z</time>
      </trkpt>
      <trkpt lat="42.51267" lon="2.46021">
        <ele>2460.7</ele>
        <time>2020-08-31T07:46:11.575Z</time>
      </trkpt>
      <trkpt lat="42.51274" lon="2.46017">
        <ele>2462.3</ele>
        <time>2020-08-31T07:46:49.486Z</time>
      </trkpt>
      <trkpt lat="42.5128" lon="2.46015">
        <ele>2464.5</ele>
        <time>2020-08-31T07:47:20.324Z</time>
      </trkpt>
      <trkpt lat="42.51287" lon="2.46014">
        <ele>2466.8</ele>
        <time>2020-08-31T07:47:55.455Z</time>
      </trkpt>
      <trkpt lat="42.51299" lon="2.46012">
        <ele>2470.4</ele>
        <time>2020-08-31T07:48:55.800Z</time>
      </trkpt>
      <trkpt lat="42.51306" lon="2.4601">
        <ele>2471.7</ele>
        <time>2020-08-31T07:49:31.504Z</time>
      </trkpt>
      <trkpt lat="42.51313" lon="2.46011">
        <ele>2472.7</ele>
        <time>2020-08-31T07:50:06.635Z</time>
      </trkpt>
      <trkpt lat="42.51312" lon="2.46013">
        <ele>2472.9</ele>
        <time>2020-08-31T07:50:13.444Z</time>
      </trkpt>
      <trkpt lat="42.51307" lon="2.46017">
        <ele>2472.8</ele>
        <time>2020-08-31T07:50:15.568Z</time>
      </trkpt>
      <trkpt lat="42.513" lon="2.46025">
        <ele>2472.9</ele>
        <time>2020-08-31T07:50:28.729Z</time>
      </trkpt>
      <trkpt lat="42.51288" lon="2.46041">
        <ele>2474</ele>
        <time>2020-08-31T07:51:11.065Z</time>
      </trkpt>
      <trkpt lat="42.51279" lon="2.46053">
        <ele>2474.8</ele>
        <time>2020-08-31T07:51:42.365Z</time>
      </trkpt>
      <trkpt lat="42.51275" lon="2.46059">
        <ele>2475.3</ele>
        <time>2020-08-31T07:51:59.702Z</time>
      </trkpt>
      <trkpt lat="42.51272" lon="2.46065">
        <ele>2475.8</ele>
        <time>2020-08-31T07:52:16.624Z</time>
      </trkpt>
      <trkpt lat="42.51269" lon="2.4607">
        <ele>2475.8</ele>
        <time>2020-08-31T07:52:22.773Z</time>
      </trkpt>
      <trkpt lat="42.51264" lon="2.46075">
        <ele>2475.7</ele>
        <time>2020-08-31T07:52:25.078Z</time>
      </trkpt>
      <trkpt lat="42.51261" lon="2.4608">
        <ele>2475.5</ele>
        <time>2020-08-31T07:52:26.415Z</time>
      </trkpt>
      <trkpt lat="42.5126" lon="2.46084">
        <ele>2488.6</ele>
        <time>2020-08-31T07:52:41.954Z</time>
      </trkpt>
      <trkpt lat="42.51257" lon="2.46086">
        <ele>2486.5</ele>
        <time>2020-08-31T07:52:42.789Z</time>
      </trkpt>
      <trkpt lat="42.51255" lon="2.46088">
        <ele>2485</ele>
        <time>2020-08-31T07:52:43.410Z</time>
      </trkpt>
      <trkpt lat="42.51252" lon="2.46091">
        <ele>2486.3</ele>
        <time>2020-08-31T07:53:02.012Z</time>
      </trkpt>
      <trkpt lat="42.5125" lon="2.46095">
        <ele>2490.1</ele>
        <time>2020-08-31T07:53:19.795Z</time>
      </trkpt>
      <trkpt lat="42.51249" lon="2.46097">
        <ele>2480</ele>
        <time>2020-08-31T07:53:20.240Z</time>
      </trkpt>
      <trkpt lat="42.51245" lon="2.46098">
        <ele>2480.5</ele>
        <time>2020-08-31T07:53:37.865Z</time>
      </trkpt>
      <trkpt lat="42.51242" lon="2.46099">
        <ele>2480.9</ele>
        <time>2020-08-31T07:53:52.450Z</time>
      </trkpt>
      <trkpt lat="42.51239" lon="2.46104">
        <ele>2482.3</ele>
        <time>2020-08-31T07:54:16.170Z</time>
      </trkpt>
      <trkpt lat="42.51235" lon="2.46109">
        <ele>2483.9</ele>
        <time>2020-08-31T07:54:43.317Z</time>
      </trkpt>
      <trkpt lat="42.51235" lon="2.46111">
        <ele>2484.7</ele>
        <time>2020-08-31T07:54:50.675Z</time>
      </trkpt>
      <trkpt lat="42.51236" lon="2.46112">
        <ele>2484.9</ele>
        <time>2020-08-31T07:54:56.876Z</time>
      </trkpt>
      <trkpt lat="42.51244" lon="2.46111">
        <ele>2484.9</ele>
        <time>2020-08-31T07:55:07.272Z</time>
      </trkpt>
      <trkpt lat="42.51248" lon="2.46111">
        <ele>2484.8</ele>
        <time>2020-08-31T07:55:08.610Z</time>
      </trkpt>
      <trkpt lat="42.51252" lon="2.4611">
        <ele>2502.1</ele>
        <time>2020-08-31T07:55:28.911Z</time>
      </trkpt>
      <trkpt lat="42.51257" lon="2.46107">
        <ele>2501.2</ele>
        <time>2020-08-31T07:55:30.276Z</time>
      </trkpt>
      <trkpt lat="42.5126" lon="2.46106">
        <ele>2501.7</ele>
        <time>2020-08-31T07:55:45.695Z</time>
      </trkpt>
      <trkpt lat="42.5126" lon="2.46108">
        <ele>2503</ele>
        <time>2020-08-31T07:55:53.053Z</time>
      </trkpt>
      <trkpt lat="42.51257" lon="2.46113">
        <ele>2504.9</ele>
        <time>2020-08-31T07:56:16.773Z</time>
      </trkpt>
      <trkpt lat="42.51246" lon="2.46127">
        <ele>2491.2</ele>
        <time>2020-08-31T07:56:20.540Z</time>
      </trkpt>
      <trkpt lat="42.51248" lon="2.46128">
        <ele>2491.8</ele>
        <time>2020-08-31T07:56:31.179Z</time>
      </trkpt>
      <trkpt lat="42.51249" lon="2.46129">
        <ele>2492.2</ele>
        <time>2020-08-31T07:56:37.380Z</time>
      </trkpt>
      <trkpt lat="42.51258" lon="2.46131">
        <ele>2512.3</ele>
        <time>2020-08-31T07:57:22.899Z</time>
      </trkpt>
      <trkpt lat="42.5126" lon="2.46131">
        <ele>2512.6</ele>
        <time>2020-08-31T07:57:32.881Z</time>
      </trkpt>
      <trkpt lat="42.51262" lon="2.46131">
        <ele>2512.9</ele>
        <time>2020-08-31T07:57:42.863Z</time>
      </trkpt>
      <trkpt lat="42.51265" lon="2.46132">
        <ele>2513.5</ele>
        <time>2020-08-31T07:57:58.282Z</time>
      </trkpt>
      <trkpt lat="42.51266" lon="2.46134">
        <ele>2514.4</ele>
        <time>2020-08-31T07:58:07.174Z</time>
      </trkpt>
      <trkpt lat="42.51267" lon="2.46137">
        <ele>2515.1</ele>
        <time>2020-08-31T07:58:19.287Z</time>
      </trkpt>
      <trkpt lat="42.51265" lon="2.4614">
        <ele>2515.8</ele>
        <time>2020-08-31T07:58:34.169Z</time>
      </trkpt>
      <trkpt lat="42.51262" lon="2.46143">
        <ele>2516.2</ele>
        <time>2020-08-31T07:58:47.674Z</time>
      </trkpt>
      <trkpt lat="42.51253" lon="2.46149">
        <ele>2517.1</ele>
        <time>2020-08-31T07:59:18.354Z</time>
      </trkpt>
      <trkpt lat="42.51243" lon="2.46159">
        <ele>2508.9</ele>
        <time>2020-08-31T07:59:21.458Z</time>
      </trkpt>
      <trkpt lat="42.51239" lon="2.46164">
        <ele>2508.8</ele>
        <time>2020-08-31T07:59:23.421Z</time>
      </trkpt>
      <trkpt lat="42.51236" lon="2.46167">
        <ele>2506.5</ele>
        <time>2020-08-31T07:59:24.352Z</time>
      </trkpt>
      <trkpt lat="42.51229" lon="2.46168">
        <ele>2517</ele>
        <time>2020-08-31T07:59:59.483Z</time>
      </trkpt>
      <trkpt lat="42.51218" lon="2.46174">
        <ele>2515.4</ele>
        <time>2020-08-31T08:00:02.445Z</time>
      </trkpt>
      <trkpt lat="42.51211" lon="2.46179">
        <ele>2514.3</ele>
        <time>2020-08-31T08:00:04.421Z</time>
      </trkpt>
      <trkpt lat="42.51201" lon="2.46184">
        <ele>2513.2</ele>
        <time>2020-08-31T08:00:07.083Z</time>
      </trkpt>
      <trkpt lat="42.51192" lon="2.46191">
        <ele>2512.3</ele>
        <time>2020-08-31T08:00:09.675Z</time>
      </trkpt>
      <trkpt lat="42.51206" lon="2.4619">
        <ele>2513.7</ele>
        <time>2020-08-31T08:00:56.787Z</time>
      </trkpt>
      <trkpt lat="42.5122" lon="2.4619">
        <ele>2515.3</ele>
        <time>2020-08-31T08:01:51.517Z</time>
      </trkpt>
      <trkpt lat="42.51229" lon="2.4619">
        <ele>2516.2</ele>
        <time>2020-08-31T08:02:21.802Z</time>
      </trkpt>
      <trkpt lat="42.51242" lon="2.46191">
        <ele>2517.1</ele>
        <time>2020-08-31T08:02:55.483Z</time>
      </trkpt>
      <trkpt lat="42.51247" lon="2.4619">
        <ele>2517.3</ele>
        <time>2020-08-31T08:03:05.741Z</time>
      </trkpt>
      <trkpt lat="42.51251" lon="2.46189">
        <ele>2527</ele>
        <time>2020-08-31T08:03:26.042Z</time>
      </trkpt>
      <trkpt lat="42.51254" lon="2.46189">
        <ele>2527.3</ele>
        <time>2020-08-31T08:03:36.137Z</time>
      </trkpt>
      <trkpt lat="42.51258" lon="2.46189">
        <ele>2527.8</ele>
        <time>2020-08-31T08:03:53.933Z</time>
      </trkpt>
      <trkpt lat="42.51266" lon="2.46186">
        <ele>2528.8</ele>
        <time>2020-08-31T08:04:28.827Z</time>
      </trkpt>
      <trkpt lat="42.51277" lon="2.46183">
        <ele>2531.9</ele>
        <time>2020-08-31T08:05:24.828Z</time>
      </trkpt>
      <trkpt lat="42.51285" lon="2.46181">
        <ele>2534.7</ele>
        <time>2020-08-31T08:06:05.430Z</time>
      </trkpt>
      <trkpt lat="42.51288" lon="2.46179">
        <ele>2535.6</ele>
        <time>2020-08-31T08:06:22.113Z</time>
      </trkpt>
      <trkpt lat="42.51291" lon="2.4618">
        <ele>2536.8</ele>
        <time>2020-08-31T08:06:37.532Z</time>
      </trkpt>
      <trkpt lat="42.51295" lon="2.4618">
        <ele>2538</ele>
        <time>2020-08-31T08:06:57.497Z</time>
      </trkpt>
      <trkpt lat="42.51298" lon="2.4618">
        <ele>2539.5</ele>
        <time>2020-08-31T08:07:12.470Z</time>
      </trkpt>
      <trkpt lat="42.51304" lon="2.46179">
        <ele>2541.7</ele>
        <time>2020-08-31T08:07:42.643Z</time>
      </trkpt>
      <trkpt lat="42.51311" lon="2.46178">
        <ele>2544.3</ele>
        <time>2020-08-31T08:08:17.774Z</time>
      </trkpt>
      <trkpt lat="42.51333" lon="2.46168">
        <ele>2553.3</ele>
        <time>2020-08-31T08:10:13.579Z</time>
      </trkpt>
      <trkpt lat="42.51341" lon="2.46161">
        <ele>2550.3</ele>
        <time>2020-08-31T08:10:15.957Z</time>
      </trkpt>
      <trkpt lat="42.51347" lon="2.46157">
        <ele>2547.8</ele>
        <time>2020-08-31T08:10:17.627Z</time>
      </trkpt>
      <trkpt lat="42.51355" lon="2.46144">
        <ele>2542.4</ele>
        <time>2020-08-31T08:10:20.745Z</time>
      </trkpt>
      <trkpt lat="42.5136" lon="2.46132">
        <ele>2538.6</ele>
        <time>2020-08-31T08:10:23.283Z</time>
      </trkpt>
      <trkpt lat="42.51362" lon="2.46127">
        <ele>2537.1</ele>
        <time>2020-08-31T08:10:24.331Z</time>
      </trkpt>
      <trkpt lat="42.51365" lon="2.46123">
        <ele>2536</ele>
        <time>2020-08-31T08:10:25.381Z</time>
      </trkpt>
      <trkpt lat="42.51368" lon="2.4612">
        <ele>2535.3</ele>
        <time>2020-08-31T08:10:26.312Z</time>
      </trkpt>
      <trkpt lat="42.5137" lon="2.46116">
        <ele>2534.3</ele>
        <time>2020-08-31T08:10:27.202Z</time>
      </trkpt>
      <trkpt lat="42.51372" lon="2.46111">
        <ele>2533.5</ele>
        <time>2020-08-31T08:10:28.250Z</time>
      </trkpt>
      <trkpt lat="42.51375" lon="2.46109">
        <ele>2533.1</ele>
        <time>2020-08-31T08:10:29.085Z</time>
      </trkpt>
      <trkpt lat="42.51379" lon="2.46107">
        <ele>2533.2</ele>
        <time>2020-08-31T08:10:36.111Z</time>
      </trkpt>
      <trkpt lat="42.51384" lon="2.46106">
        <ele>2533.4</ele>
        <time>2020-08-31T08:10:46.369Z</time>
      </trkpt>
      <trkpt lat="42.5139" lon="2.46107">
        <ele>2533.9</ele>
        <time>2020-08-31T08:11:03.778Z</time>
      </trkpt>
      <trkpt lat="42.51397" lon="2.46109">
        <ele>2534.6</ele>
        <time>2020-08-31T08:11:27.357Z</time>
      </trkpt>
      <trkpt lat="42.51401" lon="2.46111">
        <ele>2534.9</ele>
        <time>2020-08-31T08:11:38.489Z</time>
      </trkpt>
      <trkpt lat="42.51403" lon="2.46112">
        <ele>2535</ele>
        <time>2020-08-31T08:11:43.216Z</time>
      </trkpt>
      <trkpt lat="42.51405" lon="2.46112">
        <ele>2535.1</ele>
        <time>2020-08-31T08:11:47.741Z</time>
      </trkpt>
      <trkpt lat="42.51408" lon="2.46112">
        <ele>2535.2</ele>
        <time>2020-08-31T08:11:53.330Z</time>
      </trkpt>
      <trkpt lat="42.5141" lon="2.46111">
        <ele>2535.2</ele>
        <time>2020-08-31T08:11:56.088Z</time>
      </trkpt>
      <trkpt lat="42.51412" lon="2.46111">
        <ele>2535.2</ele>
        <time>2020-08-31T08:11:58.676Z</time>
      </trkpt>
      <trkpt lat="42.51416" lon="2.4611">
        <ele>2535.2</ele>
        <time>2020-08-31T08:12:03.939Z</time>
      </trkpt>
      <trkpt lat="42.51417" lon="2.46108">
        <ele>2570.2</ele>
        <time>2020-08-31T08:12:12.830Z</time>
      </trkpt>
      <trkpt lat="42.51418" lon="2.46107">
        <ele>2570.1</ele>
        <time>2020-08-31T08:12:19.031Z</time>
      </trkpt>
      <trkpt lat="42.5142" lon="2.46106">
        <ele>2570.4</ele>
        <time>2020-08-31T08:12:29.669Z</time>
      </trkpt>
      <trkpt lat="42.51422" lon="2.46105">
        <ele>2570.8</ele>
        <time>2020-08-31T08:12:40.308Z</time>
      </trkpt>
      <trkpt lat="42.51425" lon="2.46104">
        <ele>2571.8</ele>
        <time>2020-08-31T08:12:55.727Z</time>
      </trkpt>
      <trkpt lat="42.51428" lon="2.46104">
        <ele>2573.3</ele>
        <time>2020-08-31T08:13:10.700Z</time>
      </trkpt>
      <trkpt lat="42.51431" lon="2.46103">
        <ele>2574.4</ele>
        <time>2020-08-31T08:13:26.119Z</time>
      </trkpt>
      <trkpt lat="42.51434" lon="2.46103">
        <ele>2575.9</ele>
        <time>2020-08-31T08:13:41.093Z</time>
      </trkpt>
      <trkpt lat="42.51435" lon="2.46103">
        <ele>2576.4</ele>
        <time>2020-08-31T08:13:46.084Z</time>
      </trkpt>
      <trkpt lat="42.51437" lon="2.46102">
        <ele>2577.1</ele>
        <time>2020-08-31T08:13:56.723Z</time>
      </trkpt>
      <trkpt lat="42.51438" lon="2.461">
        <ele>2577</ele>
        <time>2020-08-31T08:14:05.614Z</time>
      </trkpt>
      <trkpt lat="42.51438" lon="2.46098">
        <ele>2576.4</ele>
        <time>2020-08-31T08:14:12.972Z</time>
      </trkpt>
      <trkpt lat="42.51439" lon="2.46096">
        <ele>2576.4</ele>
        <time>2020-08-31T08:14:21.863Z</time>
      </trkpt>
      <trkpt lat="42.51444" lon="2.46086">
        <ele>2577.2</ele>
        <time>2020-08-31T08:15:06.319Z</time>
      </trkpt>
      <trkpt lat="42.51446" lon="2.46082">
        <ele>2515</ele>
        <time>2020-08-31T08:15:24.101Z</time>
      </trkpt>
      <trkpt lat="42.51448" lon="2.46077">
        <ele>2515</ele>
        <time>2020-08-31T08:15:29.527Z</time>
      </trkpt>
      <trkpt lat="42.5145" lon="2.46075">
        <ele>2515</ele>
        <time>2020-08-31T08:15:32.742Z</time>
      </trkpt>
      <trkpt lat="42.51452" lon="2.46073">
        <ele>2515</ele>
        <time>2020-08-31T08:15:35.957Z</time>
      </trkpt>
      <trkpt lat="42.51455" lon="2.46072">
        <ele>2515</ele>
        <time>2020-08-31T08:15:39.955Z</time>
      </trkpt>
      <trkpt lat="42.51459" lon="2.46069">
        <ele>2515</ele>
        <time>2020-08-31T08:15:45.869Z</time>
      </trkpt>
      <trkpt lat="42.51462" lon="2.46067">
        <ele>2515</ele>
        <time>2020-08-31T08:15:50.194Z</time>
      </trkpt>
      <trkpt lat="42.51464" lon="2.46067">
        <ele>2515</ele>
        <time>2020-08-31T08:15:52.782Z</time>
      </trkpt>
      <trkpt lat="42.51467" lon="2.46066">
        <ele>2515</ele>
        <time>2020-08-31T08:15:56.780Z</time>
      </trkpt>
      <trkpt lat="42.5147" lon="2.46065">
        <ele>2515</ele>
        <time>2020-08-31T08:16:00.777Z</time>
      </trkpt>
      <trkpt lat="42.51473" lon="2.46063">
        <ele>2515</ele>
        <time>2020-08-31T08:16:05.103Z</time>
      </trkpt>
      <trkpt lat="42.51475" lon="2.46061">
        <ele>2515</ele>
        <time>2020-08-31T08:16:08.318Z</time>
      </trkpt>
      <trkpt lat="42.51476" lon="2.4606">
        <ele>2515</ele>
        <time>2020-08-31T08:16:09.925Z</time>
      </trkpt>
      <trkpt lat="42.51479" lon="2.46054">
        <ele>2515</ele>
        <time>2020-08-31T08:16:16.841Z</time>
      </trkpt>
      <trkpt lat="42.5148" lon="2.46052">
        <ele>2515</ele>
        <time>2020-08-31T08:16:19.146Z</time>
      </trkpt>
      <trkpt lat="42.51483" lon="2.46049">
        <ele>2515</ele>
        <time>2020-08-31T08:16:23.968Z</time>
      </trkpt>
      <trkpt lat="42.51484" lon="2.46047">
        <ele>2515</ele>
        <time>2020-08-31T08:16:26.273Z</time>
      </trkpt>
      <trkpt lat="42.51486" lon="2.46044">
        <ele>2515</ele>
        <time>2020-08-31T08:16:30.132Z</time>
      </trkpt>
      <trkpt lat="42.51487" lon="2.46041">
        <ele>2515</ele>
        <time>2020-08-31T08:16:33.272Z</time>
      </trkpt>
      <trkpt lat="42.51489" lon="2.46038">
        <ele>2515</ele>
        <time>2020-08-31T08:16:37.130Z</time>
      </trkpt>
      <trkpt lat="42.5149" lon="2.46036">
        <ele>2515</ele>
        <time>2020-08-31T08:16:39.435Z</time>
      </trkpt>
      <trkpt lat="42.51493" lon="2.46034">
        <ele>2515</ele>
        <time>2020-08-31T08:16:43.761Z</time>
      </trkpt>
      <trkpt lat="42.51494" lon="2.46033">
        <ele>2515</ele>
        <time>2020-08-31T08:16:45.368Z</time>
      </trkpt>
      <trkpt lat="42.51496" lon="2.4603">
        <ele>2515</ele>
        <time>2020-08-31T08:16:49.226Z</time>
      </trkpt>
      <trkpt lat="42.51498" lon="2.46028">
        <ele>2515</ele>
        <time>2020-08-31T08:16:52.441Z</time>
      </trkpt>
      <trkpt lat="42.51501" lon="2.46026">
        <ele>2589.9</ele>
        <time>2020-08-31T08:17:09.125Z</time>
      </trkpt>
      <trkpt lat="42.51502" lon="2.46025">
        <ele>2590.1</ele>
        <time>2020-08-31T08:17:15.326Z</time>
      </trkpt>
      <trkpt lat="42.51505" lon="2.46024">
        <ele>2591.9</ele>
        <time>2020-08-31T08:17:30.744Z</time>
      </trkpt>
      <trkpt lat="42.51506" lon="2.46022">
        <ele>2591.7</ele>
        <time>2020-08-31T08:17:39.636Z</time>
      </trkpt>
      <trkpt lat="42.51507" lon="2.46021">
        <ele>2591.9</ele>
        <time>2020-08-31T08:17:45.836Z</time>
        <extensions>
          <visugpx:TrkExtension xmlns:visugpx="https://www.visugpx.com/editgpx/">
            <visugpx:node>1</visugpx:node>
            </visugpx:TrkExtension>
        </extensions>
      </trkpt>
      <trkpt lat="42.51508" lon="2.4602">
        <ele>2592.2</ele>
        <time>2020-08-31T08:17:52.037Z</time>
      </trkpt>
      <trkpt lat="42.51513" lon="2.46015">
        <ele>2593.6</ele>
        <time>2020-08-31T08:18:23.039Z</time>
      </trkpt>
      <trkpt lat="42.51514" lon="2.46014">
        <ele>2593.9</ele>
        <time>2020-08-31T08:18:29.240Z</time>
      </trkpt>
      <trkpt lat="42.51515" lon="2.46011">
        <ele>2593.3</ele>
        <time>2020-08-31T08:18:41.353Z</time>
      </trkpt>
      <trkpt lat="42.51517" lon="2.46008">
        <ele>2593.4</ele>
        <time>2020-08-31T08:18:56.234Z</time>
      </trkpt>
      <trkpt lat="42.5152" lon="2.46004">
        <ele>2593.9</ele>
        <time>2020-08-31T08:19:17.229Z</time>
      </trkpt>
      <trkpt lat="42.51522" lon="2.46003">
        <ele>2595</ele>
        <time>2020-08-31T08:19:27.867Z</time>
      </trkpt>
      <trkpt lat="42.51523" lon="2.46">
        <ele>2541</ele>
        <time>2020-08-31T08:19:39.980Z</time>
      </trkpt>
      <trkpt lat="42.51525" lon="2.45998">
        <ele>2541</ele>
        <time>2020-08-31T08:19:43.195Z</time>
      </trkpt>
      <trkpt lat="42.51526" lon="2.45997">
        <ele>2541</ele>
        <time>2020-08-31T08:19:44.803Z</time>
      </trkpt>
      <trkpt lat="42.51528" lon="2.45994">
        <ele>2541</ele>
        <time>2020-08-31T08:19:48.661Z</time>
      </trkpt>
      <trkpt lat="42.5153" lon="2.45992">
        <ele>2541</ele>
        <time>2020-08-31T08:19:51.876Z</time>
      </trkpt>
      <trkpt lat="42.51532" lon="2.45989">
        <ele>2541</ele>
        <time>2020-08-31T08:19:55.734Z</time>
      </trkpt>
      <trkpt lat="42.51533" lon="2.45987">
        <ele>2541</ele>
        <time>2020-08-31T08:19:58.040Z</time>
      </trkpt>
      <trkpt lat="42.51535" lon="2.45986">
        <ele>2541</ele>
        <time>2020-08-31T08:20:00.798Z</time>
      </trkpt>
      <trkpt lat="42.51537" lon="2.45982">
        <ele>2541</ele>
        <time>2020-08-31T08:20:05.408Z</time>
      </trkpt>
      <trkpt lat="42.51539" lon="2.4598">
        <ele>2541</ele>
        <time>2020-08-31T08:20:08.623Z</time>
      </trkpt>
      <trkpt lat="42.51541" lon="2.45977">
        <ele>2541</ele>
        <time>2020-08-31T08:20:12.481Z</time>
      </trkpt>
      <trkpt lat="42.51543" lon="2.45975">
        <ele>2541</ele>
        <time>2020-08-31T08:20:15.696Z</time>
      </trkpt>
      <trkpt lat="42.51544" lon="2.45973">
        <ele>2541</ele>
        <time>2020-08-31T08:20:18.001Z</time>
      </trkpt>
      <trkpt lat="42.51547" lon="2.45971">
        <ele>2541</ele>
        <time>2020-08-31T08:20:22.327Z</time>
      </trkpt>
      <trkpt lat="42.51549" lon="2.45971">
        <ele>2541</ele>
        <time>2020-08-31T08:20:24.915Z</time>
      </trkpt>
      <trkpt lat="42.51551" lon="2.45969">
        <ele>2541</ele>
        <time>2020-08-31T08:20:28.130Z</time>
      </trkpt>
      <trkpt lat="42.51554" lon="2.45967">
        <ele>2541</ele>
        <time>2020-08-31T08:20:32.455Z</time>
      </trkpt>
      <trkpt lat="42.51556" lon="2.45964">
        <ele>2541</ele>
        <time>2020-08-31T08:20:36.313Z</time>
      </trkpt>
      <trkpt lat="42.51557" lon="2.45963">
        <ele>2541</ele>
        <time>2020-08-31T08:20:37.921Z</time>
      </trkpt>
      <trkpt lat="42.51557" lon="2.4596">
        <ele>2541</ele>
        <time>2020-08-31T08:20:40.782Z</time>
      </trkpt>
      <trkpt lat="42.51558" lon="2.45956">
        <ele>2541</ele>
        <time>2020-08-31T08:20:44.811Z</time>
      </trkpt>
      <trkpt lat="42.5156" lon="2.45954">
        <ele>2541</ele>
        <time>2020-08-31T08:20:48.026Z</time>
      </trkpt>
      <trkpt lat="42.51562" lon="2.45951">
        <ele>2541</ele>
        <time>2020-08-31T08:20:51.884Z</time>
      </trkpt>
      <trkpt lat="42.51563" lon="2.45949">
        <ele>2541</ele>
        <time>2020-08-31T08:20:54.189Z</time>
      </trkpt>
      <trkpt lat="42.51565" lon="2.45946">
        <ele>2541</ele>
        <time>2020-08-31T08:20:58.047Z</time>
      </trkpt>
      <trkpt lat="42.51566" lon="2.45942">
        <ele>2541</ele>
        <time>2020-08-31T08:21:02.076Z</time>
      </trkpt>
      <trkpt lat="42.51569" lon="2.45939">
        <ele>2541</ele>
        <time>2020-08-31T08:21:06.899Z</time>
      </trkpt>
      <trkpt lat="42.51571" lon="2.45936">
        <ele>2541</ele>
        <time>2020-08-31T08:21:10.757Z</time>
      </trkpt>
      <trkpt lat="42.51575" lon="2.45933">
        <ele>2541</ele>
        <time>2020-08-31T08:21:16.671Z</time>
      </trkpt>
      <trkpt lat="42.51578" lon="2.45931">
        <ele>2541</ele>
        <time>2020-08-31T08:21:20.997Z</time>
      </trkpt>
      <trkpt lat="42.51581" lon="2.45929">
        <ele>2541</ele>
        <time>2020-08-31T08:21:25.322Z</time>
      </trkpt>
      <trkpt lat="42.51584" lon="2.45929">
        <ele>2612.2</ele>
        <time>2020-08-31T08:21:40.295Z</time>
      </trkpt>
      <trkpt lat="42.51587" lon="2.45928">
        <ele>2613.8</ele>
        <time>2020-08-31T08:21:55.714Z</time>
      </trkpt>
      <trkpt lat="42.5159" lon="2.45926">
        <ele>2614.9</ele>
        <time>2020-08-31T08:22:12.398Z</time>
      </trkpt>
      <trkpt lat="42.51591" lon="2.45924">
        <ele>2614.7</ele>
        <time>2020-08-31T08:22:21.289Z</time>
      </trkpt>
      <trkpt lat="42.51593" lon="2.45921">
        <ele>2614.6</ele>
        <time>2020-08-31T08:22:36.170Z</time>
      </trkpt>
      <trkpt lat="42.51595" lon="2.45919">
        <ele>2615.1</ele>
        <time>2020-08-31T08:22:48.571Z</time>
      </trkpt>
      <trkpt lat="42.51597" lon="2.45918">
        <ele>2616</ele>
        <time>2020-08-31T08:22:59.210Z</time>
      </trkpt>
      <trkpt lat="42.51599" lon="2.45917">
        <ele>2616.9</ele>
        <time>2020-08-31T08:23:09.849Z</time>
      </trkpt>
      <trkpt lat="42.516" lon="2.45915">
        <ele>2616.7</ele>
        <time>2020-08-31T08:23:18.740Z</time>
      </trkpt>
      <trkpt lat="42.51604" lon="2.4591">
        <ele>2617.3</ele>
        <time>2020-08-31T08:23:45.886Z</time>
      </trkpt>
      <trkpt lat="42.5161" lon="2.45905">
        <ele>2619.2</ele>
        <time>2020-08-31T08:24:21.031Z</time>
      </trkpt>
      <trkpt lat="42.51615" lon="2.459">
        <ele>2620.6</ele>
        <time>2020-08-31T08:24:52.034Z</time>
      </trkpt>
      <trkpt lat="42.51618" lon="2.45897">
        <ele>2621.5</ele>
        <time>2020-08-31T08:25:10.635Z</time>
      </trkpt>
      <trkpt lat="42.51621" lon="2.45893">
        <ele>2621.9</ele>
        <time>2020-08-31T08:25:31.630Z</time>
      </trkpt>
      <trkpt lat="42.51624" lon="2.45891">
        <ele>2623.2</ele>
        <time>2020-08-31T08:25:48.313Z</time>
      </trkpt>
      <trkpt lat="42.51626" lon="2.45888">
        <ele>2623.4</ele>
        <time>2020-08-31T08:26:03.195Z</time>
      </trkpt>
      <trkpt lat="42.51629" lon="2.45886">
        <ele>2624.9</ele>
        <time>2020-08-31T08:26:19.878Z</time>
      </trkpt>
      <trkpt lat="42.51631" lon="2.45886">
        <ele>2626.3</ele>
        <time>2020-08-31T08:26:29.860Z</time>
      </trkpt>
      <trkpt lat="42.51632" lon="2.45885">
        <ele>2626.7</ele>
        <time>2020-08-31T08:26:36.061Z</time>
      </trkpt>
      <trkpt lat="42.51637" lon="2.4588">
        <ele>2628.7</ele>
        <time>2020-08-31T08:27:07.063Z</time>
      </trkpt>
      <trkpt lat="42.51638" lon="2.45878">
        <ele>2628.8</ele>
        <time>2020-08-31T08:27:15.954Z</time>
      </trkpt>
      <trkpt lat="42.51639" lon="2.45876">
        <ele>2628.9</ele>
        <time>2020-08-31T08:27:24.845Z</time>
      </trkpt>
      <trkpt lat="42.5164" lon="2.45874">
        <ele>2629.1</ele>
        <time>2020-08-31T08:27:33.736Z</time>
      </trkpt>
      <trkpt lat="42.51641" lon="2.45872">
        <ele>2629.2</ele>
        <time>2020-08-31T08:27:42.627Z</time>
      </trkpt>
      <trkpt lat="42.51645" lon="2.45867">
        <ele>2630.9</ele>
        <time>2020-08-31T08:28:09.774Z</time>
      </trkpt>
      <trkpt lat="42.51645" lon="2.45865">
        <ele>2630.3</ele>
        <time>2020-08-31T08:28:17.132Z</time>
      </trkpt>
      <trkpt lat="42.51646" lon="2.45863">
        <ele>2630.5</ele>
        <time>2020-08-31T08:28:26.023Z</time>
      </trkpt>
      <trkpt lat="42.51646" lon="2.45861">
        <ele>2629.9</ele>
        <time>2020-08-31T08:28:33.380Z</time>
      </trkpt>
      <trkpt lat="42.51647" lon="2.45858">
        <ele>2629.7</ele>
        <time>2020-08-31T08:28:45.493Z</time>
      </trkpt>
      <trkpt lat="42.51648" lon="2.45856">
        <ele>2629.8</ele>
        <time>2020-08-31T08:28:54.384Z</time>
      </trkpt>
      <trkpt lat="42.51649" lon="2.45854">
        <ele>2630</ele>
        <time>2020-08-31T08:29:03.275Z</time>
      </trkpt>
      <trkpt lat="42.51649" lon="2.45852">
        <ele>2629.3</ele>
        <time>2020-08-31T08:29:10.633Z</time>
      </trkpt>
      <trkpt lat="42.51651" lon="2.45851">
        <ele>2630.6</ele>
        <time>2020-08-31T08:29:21.272Z</time>
      </trkpt>
      <trkpt lat="42.51652" lon="2.45849">
        <ele>2630.7</ele>
        <time>2020-08-31T08:29:30.162Z</time>
      </trkpt>
      <trkpt lat="42.51653" lon="2.45848">
        <ele>2631.2</ele>
        <time>2020-08-31T08:29:36.363Z</time>
      </trkpt>
      <trkpt lat="42.51654" lon="2.45847">
        <ele>2631.7</ele>
        <time>2020-08-31T08:29:42.563Z</time>
      </trkpt>
      <trkpt lat="42.51654" lon="2.45845">
        <ele>2631</ele>
        <time>2020-08-31T08:29:49.921Z</time>
      </trkpt>
      <trkpt lat="42.51655" lon="2.45843">
        <ele>2631.1</ele>
        <time>2020-08-31T08:29:58.812Z</time>
      </trkpt>
      <trkpt lat="42.51655" lon="2.45841">
        <ele>2630.4</ele>
        <time>2020-08-31T08:30:06.170Z</time>
      </trkpt>
      <trkpt lat="42.51656" lon="2.45839">
        <ele>2630.5</ele>
        <time>2020-08-31T08:30:15.061Z</time>
      </trkpt>
      <trkpt lat="42.51656" lon="2.45838">
        <ele>2630.2</ele>
        <time>2020-08-31T08:30:18.740Z</time>
      </trkpt>
      <trkpt lat="42.51657" lon="2.45836">
        <ele>2630.3</ele>
        <time>2020-08-31T08:30:27.631Z</time>
      </trkpt>
      <trkpt lat="42.51657" lon="2.45834">
        <ele>2629.6</ele>
        <time>2020-08-31T08:30:34.988Z</time>
      </trkpt>
      <trkpt lat="42.51659" lon="2.45832">
        <ele>2545</ele>
        <time>2020-08-31T08:30:47.389Z</time>
      </trkpt>
      <trkpt lat="42.5166" lon="2.45831">
        <ele>2545</ele>
        <time>2020-08-31T08:30:48.997Z</time>
      </trkpt>
      <trkpt lat="42.51661" lon="2.4583">
        <ele>2545</ele>
        <time>2020-08-31T08:30:50.604Z</time>
      </trkpt>
      <trkpt lat="42.51664" lon="2.45827">
        <ele>2545</ele>
        <time>2020-08-31T08:30:55.427Z</time>
      </trkpt>
      <trkpt lat="42.51665" lon="2.45826">
        <ele>2545</ele>
        <time>2020-08-31T08:30:57.035Z</time>
      </trkpt>
      <trkpt lat="42.51666" lon="2.45825">
        <ele>2545</ele>
        <time>2020-08-31T08:30:58.642Z</time>
      </trkpt>
      <trkpt lat="42.51667" lon="2.45823">
        <ele>2633.9</ele>
        <time>2020-08-31T08:31:07.533Z</time>
      </trkpt>
      <trkpt lat="42.51668" lon="2.45821">
        <ele>2633.9</ele>
        <time>2020-08-31T08:31:16.424Z</time>
      </trkpt>
      <trkpt lat="42.51671" lon="2.45818">
        <ele>2635</ele>
        <time>2020-08-31T08:31:35.025Z</time>
      </trkpt>
      <trkpt lat="42.51672" lon="2.45817">
        <ele>2635.4</ele>
        <time>2020-08-31T08:31:41.226Z</time>
      </trkpt>
      <trkpt lat="42.51673" lon="2.45815">
        <ele>2635.4</ele>
        <time>2020-08-31T08:31:50.117Z</time>
      </trkpt>
      <trkpt lat="42.51674" lon="2.45813">
        <ele>2635.4</ele>
        <time>2020-08-31T08:31:59.008Z</time>
      </trkpt>
      <trkpt lat="42.51675" lon="2.45811">
        <ele>2635.5</ele>
        <time>2020-08-31T08:32:07.899Z</time>
      </trkpt>
      <trkpt lat="42.51677" lon="2.45809">
        <ele>2636.2</ele>
        <time>2020-08-31T08:32:20.300Z</time>
      </trkpt>
      <trkpt lat="42.51678" lon="2.45807">
        <ele>2636.2</ele>
        <time>2020-08-31T08:32:29.190Z</time>
      </trkpt>
      <trkpt lat="42.5168" lon="2.45806">
        <ele>2637.3</ele>
        <time>2020-08-31T08:32:39.829Z</time>
      </trkpt>
      <trkpt lat="42.51681" lon="2.45804">
        <ele>2637.2</ele>
        <time>2020-08-31T08:32:48.720Z</time>
      </trkpt>
      <trkpt lat="42.51682" lon="2.45803">
        <ele>2637.6</ele>
        <time>2020-08-31T08:32:54.920Z</time>
      </trkpt>
      <trkpt lat="42.51684" lon="2.45801">
        <ele>2638.2</ele>
        <time>2020-08-31T08:33:07.321Z</time>
      </trkpt>
      <trkpt lat="42.51685" lon="2.45799">
        <ele>2638.1</ele>
        <time>2020-08-31T08:33:16.212Z</time>
      </trkpt>
      <trkpt lat="42.51687" lon="2.45798">
        <ele>2639.1</ele>
        <time>2020-08-31T08:33:26.851Z</time>
      </trkpt>
      <trkpt lat="42.51688" lon="2.45796">
        <ele>2639</ele>
        <time>2020-08-31T08:33:35.742Z</time>
      </trkpt>
      <trkpt lat="42.51689" lon="2.45794">
        <ele>2638.9</ele>
        <time>2020-08-31T08:33:44.633Z</time>
      </trkpt>
      <trkpt lat="42.5169" lon="2.45793">
        <ele>2639.1</ele>
        <time>2020-08-31T08:33:50.833Z</time>
      </trkpt>
      <trkpt lat="42.51692" lon="2.45792">
        <ele>2640</ele>
        <time>2020-08-31T08:34:01.472Z</time>
      </trkpt>
      <trkpt lat="42.51694" lon="2.4579">
        <ele>2640.6</ele>
        <time>2020-08-31T08:34:13.873Z</time>
      </trkpt>
      <trkpt lat="42.51695" lon="2.45789">
        <ele>2640.4</ele>
        <time>2020-08-31T08:34:20.073Z</time>
      </trkpt>
      <trkpt lat="42.51697" lon="2.45788">
        <ele>2640.2</ele>
        <time>2020-08-31T08:34:30.712Z</time>
      </trkpt>
      <trkpt lat="42.51698" lon="2.45786">
        <ele>2639.7</ele>
        <time>2020-08-31T08:34:39.603Z</time>
      </trkpt>
      <trkpt lat="42.51699" lon="2.45784">
        <ele>2639.4</ele>
        <time>2020-08-31T08:34:48.494Z</time>
      </trkpt>
      <trkpt lat="42.517" lon="2.45783">
        <ele>2639.5</ele>
        <time>2020-08-31T08:34:54.694Z</time>
      </trkpt>
      <trkpt lat="42.51702" lon="2.45781">
        <ele>2639.8</ele>
        <time>2020-08-31T08:35:07.095Z</time>
      </trkpt>
      <trkpt lat="42.51704" lon="2.45779">
        <ele>2640.5</ele>
        <time>2020-08-31T08:35:19.496Z</time>
      </trkpt>
      <trkpt lat="42.51706" lon="2.45777">
        <ele>2641.2</ele>
        <time>2020-08-31T08:35:31.897Z</time>
      </trkpt>
      <trkpt lat="42.51708" lon="2.45775">
        <ele>2641.5</ele>
        <time>2020-08-31T08:35:44.298Z</time>
      </trkpt>
      <trkpt lat="42.5171" lon="2.45773">
        <ele>2641.9</ele>
        <time>2020-08-31T08:35:56.699Z</time>
      </trkpt>
      <trkpt lat="42.51711" lon="2.45771">
        <ele>2641.8</ele>
        <time>2020-08-31T08:36:05.590Z</time>
      </trkpt>
      <trkpt lat="42.51717" lon="2.45765">
        <ele>2643.4</ele>
        <time>2020-08-31T08:36:42.792Z</time>
      </trkpt>
      <trkpt lat="42.51718" lon="2.45764">
        <ele>2643.7</ele>
        <time>2020-08-31T08:36:48.993Z</time>
      </trkpt>
      <trkpt lat="42.5172" lon="2.4576">
        <ele>2643.9</ele>
        <time>2020-08-31T08:37:06.774Z</time>
      </trkpt>
      <trkpt lat="42.51723" lon="2.45756">
        <ele>2644.8</ele>
        <time>2020-08-31T08:37:27.768Z</time>
      </trkpt>
      <trkpt lat="42.51724" lon="2.45755">
        <ele>2645.3</ele>
        <time>2020-08-31T08:37:33.969Z</time>
      </trkpt>
      <trkpt lat="42.51725" lon="2.45753">
        <ele>2645.5</ele>
        <time>2020-08-31T08:37:42.860Z</time>
      </trkpt>
      <trkpt lat="42.51726" lon="2.45752">
        <ele>2646</ele>
        <time>2020-08-31T08:37:49.060Z</time>
      </trkpt>
      <trkpt lat="42.51729" lon="2.4575">
        <ele>2647.6</ele>
        <time>2020-08-31T08:38:05.744Z</time>
      </trkpt>
      <trkpt lat="42.51731" lon="2.45747">
        <ele>2648</ele>
        <time>2020-08-31T08:38:20.625Z</time>
      </trkpt>
      <trkpt lat="42.51734" lon="2.45745">
        <ele>2649.3</ele>
        <time>2020-08-31T08:38:37.309Z</time>
      </trkpt>
      <trkpt lat="42.51737" lon="2.45742">
        <ele>2650.4</ele>
        <time>2020-08-31T08:38:55.910Z</time>
      </trkpt>
      <trkpt lat="42.51739" lon="2.4574">
        <ele>2651.1</ele>
        <time>2020-08-31T08:39:08.311Z</time>
      </trkpt>
      <trkpt lat="42.51741" lon="2.45737">
        <ele>2651.5</ele>
        <time>2020-08-31T08:39:23.192Z</time>
      </trkpt>
      <trkpt lat="42.51744" lon="2.45733">
        <ele>2652.3</ele>
        <time>2020-08-31T08:39:44.186Z</time>
      </trkpt>
      <trkpt lat="42.51744" lon="2.45732">
        <ele>2651.9</ele>
        <time>2020-08-31T08:39:47.865Z</time>
      </trkpt>
      <trkpt lat="42.51745" lon="2.45732">
        <ele>2652.6</ele>
        <time>2020-08-31T08:39:52.856Z</time>
      </trkpt>
      <trkpt lat="42.51754" lon="2.45726">
        <ele>2656.9</ele>
        <time>2020-08-31T08:40:42.907Z</time>
      </trkpt>
      <trkpt lat="42.51751" lon="2.4573">
        <ele>2656.2</ele>
        <time>2020-08-31T08:41:03.901Z</time>
      </trkpt>
      <trkpt lat="42.51751" lon="2.45734">
        <ele>2657.5</ele>
        <time>2020-08-31T08:41:18.616Z</time>
      </trkpt>
      <trkpt lat="42.51753" lon="2.45735">
        <ele>2659.1</ele>
        <time>2020-08-31T08:41:29.255Z</time>
      </trkpt>
      <trkpt lat="42.51756" lon="2.45732">
        <ele>2660.2</ele>
        <time>2020-08-31T08:41:47.856Z</time>
      </trkpt>
      <trkpt lat="42.51757" lon="2.45732">
        <ele>2660.9</ele>
        <time>2020-08-31T08:41:52.847Z</time>
      </trkpt>
      <trkpt lat="42.51759" lon="2.45731">
        <ele>2661.9</ele>
        <time>2020-08-31T08:42:03.486Z</time>
      </trkpt>
      <trkpt lat="42.5176" lon="2.45731">
        <ele>2662.6</ele>
        <time>2020-08-31T08:42:08.477Z</time>
      </trkpt>
      <trkpt lat="42.51762" lon="2.4573">
        <ele>2663.6</ele>
        <time>2020-08-31T08:42:19.115Z</time>
      </trkpt>
      <trkpt lat="42.51763" lon="2.4573">
        <ele>2664.3</ele>
        <time>2020-08-31T08:42:24.107Z</time>
      </trkpt>
      <trkpt lat="42.51767" lon="2.45731">
        <ele>2667.3</ele>
        <time>2020-08-31T08:42:44.407Z</time>
      </trkpt>
      <trkpt lat="42.5177" lon="2.45729">
        <ele>2668.7</ele>
        <time>2020-08-31T08:43:01.091Z</time>
      </trkpt>
      <trkpt lat="42.51773" lon="2.45732">
        <ele>2671.6</ele>
        <time>2020-08-31T08:43:19.692Z</time>
      </trkpt>
      <trkpt lat="42.51778" lon="2.45732">
        <ele>2675</ele>
        <time>2020-08-31T08:43:44.648Z</time>
      </trkpt>
      <trkpt lat="42.5178" lon="2.45734">
        <ele>2676.9</ele>
        <time>2020-08-31T08:43:57.049Z</time>
      </trkpt>
      <trkpt lat="42.51788" lon="2.45727">
        <ele>2680.6</ele>
        <time>2020-08-31T08:44:44.562Z</time>
        <extensions>
          <visugpx:TrkExtension xmlns:visugpx="https://www.visugpx.com/editgpx/">
            <visugpx:node>3</visugpx:node>
            </visugpx:TrkExtension>
        </extensions>
      </trkpt>
      <trkpt lat="42.51804" lon="2.45701">
        <ele>2686.3</ele>
        <time>2020-08-31T08:46:49.166Z</time>
        <extensions>
          <visugpx:TrkExtension xmlns:visugpx="https://www.visugpx.com/editgpx/">
            <visugpx:node>4</visugpx:node>
            </visugpx:TrkExtension>
        </extensions>
      </trkpt>
      <trkpt lat="42.51818" lon="2.45718">
        <ele>2700.6</ele>
        <time>2020-08-31T08:48:22.942Z</time>
        <extensions>
          <visugpx:TrkExtension xmlns:visugpx="https://www.visugpx.com/editgpx/">
            <visugpx:node>5</visugpx:node>
            </visugpx:TrkExtension>
        </extensions>
      </trkpt>
      <trkpt lat="42.51829" lon="2.45692">
        <ele>2705.5</ele>
        <time>2020-08-31T08:50:13.227Z</time>
        <extensions>
          <visugpx:TrkExtension xmlns:visugpx="https://www.visugpx.com/editgpx/">
            <visugpx:node>6</visugpx:node>
            </visugpx:TrkExtension>
        </extensions>
      </trkpt>
      <trkpt lat="42.51853" lon="2.45706">
        <ele>2732.5</ele>
        <time>2020-08-31T08:52:23.618Z</time>
        <extensions>
          <visugpx:TrkExtension xmlns:visugpx="https://www.visugpx.com/editgpx/">
            <visugpx:node>7</visugpx:node>
            </visugpx:TrkExtension>
        </extensions>
      </trkpt>
      <trkpt lat="42.5186" lon="2.45683">
        <ele>2735.5</ele>
        <time>2020-08-31T08:53:55.159Z</time>
        <extensions>
          <visugpx:TrkExtension xmlns:visugpx="https://www.visugpx.com/editgpx/">
            <visugpx:node>8</visugpx:node>
            </visugpx:TrkExtension>
        </extensions>
      </trkpt>
      <trkpt lat="42.51875" lon="2.45692">
        <ele>2749.2</ele>
        <time>2020-08-31T08:55:17.021Z</time>
        <extensions>
          <visugpx:TrkExtension xmlns:visugpx="https://www.visugpx.com/editgpx/">
            <visugpx:node>9</visugpx:node>
            </visugpx:TrkExtension>
        </extensions>
      </trkpt>
      <trkpt lat="42.51895" lon="2.4566">
        <ele>2776</ele>
        <time>2020-08-31T08:57:51.367Z</time>
        <extensions>
          <visugpx:TrkExtension xmlns:visugpx="https://www.visugpx.com/editgpx/">
            <visugpx:node>10</visugpx:node>
            </visugpx:TrkExtension>
        </extensions>
      </trkpt>
      <trkpt lat="42.51898" lon="2.45651">
        <ele>2774.4</ele>
        <time>2020-08-31T08:58:27.704Z</time>
        <extensions>
          <visugpx:TrkExtension xmlns:visugpx="https://www.visugpx.com/editgpx/">
            <visugpx:node>11</visugpx:node>
            </visugpx:TrkExtension>
        </extensions>
      </trkpt>
      <trkpt lat="42.51898" lon="2.45651">
        <ele>2774.4</ele>
        <time>2020-08-31T08:58:27.704Z</time>
      </trkpt>
      <trkpt lat="42.51899" lon="2.45651">
        <ele>2774.3</ele>
        <time>2020-08-31T08:58:32.695Z</time>
      </trkpt>
      <trkpt lat="42.51901" lon="2.45651">
        <ele>2774</ele>
        <time>2020-08-31T08:58:42.678Z</time>
      </trkpt>
      <trkpt lat="42.51903" lon="2.45651">
        <ele>2773.6</ele>
        <time>2020-08-31T08:58:52.660Z</time>
      </trkpt>
      <trkpt lat="42.51907" lon="2.45649">
        <ele>2772.6</ele>
        <time>2020-08-31T08:59:13.937Z</time>
      </trkpt>
      <trkpt lat="42.51913" lon="2.45647">
        <ele>2771</ele>
        <time>2020-08-31T08:59:44.775Z</time>
      </trkpt>
      <trkpt lat="42.51917" lon="2.45644">
        <ele>2769.4</ele>
        <time>2020-08-31T09:00:07.587Z</time>
      </trkpt>
      <trkpt lat="42.5192" lon="2.45643">
        <ele>2768.2</ele>
        <time>2020-08-31T09:00:23.005Z</time>
      </trkpt>
      <trkpt lat="42.51923" lon="2.45642">
        <ele>2767.1</ele>
        <time>2020-08-31T09:00:38.424Z</time>
      </trkpt>
      <trkpt lat="42.51928" lon="2.45645">
        <ele>2766.2</ele>
        <time>2020-08-31T09:01:05.711Z</time>
      </trkpt>
      <trkpt lat="42.51935" lon="2.45645">
        <ele>2764</ele>
        <time>2020-08-31T09:01:40.649Z</time>
      </trkpt>
      <trkpt lat="42.51942" lon="2.45646">
        <ele>2761.8</ele>
        <time>2020-08-31T09:02:15.781Z</time>
      </trkpt>
      <trkpt lat="42.51947" lon="2.45647">
        <ele>2760</ele>
        <time>2020-08-31T09:02:41.006Z</time>
      </trkpt>
      <trkpt lat="42.51952" lon="2.45647">
        <ele>2758.2</ele>
        <time>2020-08-31T09:03:05.962Z</time>
      </trkpt>
      <trkpt lat="42.51955" lon="2.45647">
        <ele>2757</ele>
        <time>2020-08-31T09:03:20.935Z</time>
      </trkpt>
      <trkpt lat="42.51959" lon="2.45648">
        <ele>2755.4</ele>
        <time>2020-08-31T09:03:41.236Z</time>
      </trkpt>
      <trkpt lat="42.51961" lon="2.45649">
        <ele>2754.6</ele>
        <time>2020-08-31T09:03:51.875Z</time>
      </trkpt>
      <trkpt lat="42.51961" lon="2.45648">
        <ele>2754.7</ele>
        <time>2020-08-31T09:03:55.553Z</time>
      </trkpt>
      <trkpt lat="42.5196" lon="2.45648">
        <ele>2755</ele>
        <time>2020-08-31T09:04:00.545Z</time>
      </trkpt>
      <trkpt lat="42.51959" lon="2.45647">
        <ele>2755.5</ele>
        <time>2020-08-31T09:04:06.745Z</time>
      </trkpt>
      <trkpt lat="42.51958" lon="2.45645">
        <ele>2756.1</ele>
        <time>2020-08-31T09:04:15.636Z</time>
      </trkpt>
      <trkpt lat="42.51957" lon="2.45644">
        <ele>2756.5</ele>
        <time>2020-08-31T09:04:21.836Z</time>
      </trkpt>
      <trkpt lat="42.51956" lon="2.45643">
        <ele>2756.9</ele>
        <time>2020-08-31T09:04:28.036Z</time>
      </trkpt>
      <trkpt lat="42.51953" lon="2.45642">
        <ele>2758.1</ele>
        <time>2020-08-31T09:04:43.455Z</time>
      </trkpt>
      <trkpt lat="42.51951" lon="2.4564">
        <ele>2758.8</ele>
        <time>2020-08-31T09:04:55.856Z</time>
      </trkpt>
      <trkpt lat="42.51949" lon="2.45637">
        <ele>2758.4</ele>
        <time>2020-08-31T09:05:10.737Z</time>
      </trkpt>
      <trkpt lat="42.51946" lon="2.45633">
        <ele>2757.1</ele>
        <time>2020-08-31T09:05:31.730Z</time>
      </trkpt>
      <trkpt lat="42.51942" lon="2.4563">
        <ele>2756.4</ele>
        <time>2020-08-31T09:05:54.542Z</time>
      </trkpt>
      <trkpt lat="42.5194" lon="2.45627">
        <ele>2755.1</ele>
        <time>2020-08-31T09:06:09.423Z</time>
      </trkpt>
      <trkpt lat="42.51938" lon="2.45626">
        <ele>2754.9</ele>
        <time>2020-08-31T09:06:20.062Z</time>
      </trkpt>
      <trkpt lat="42.51937" lon="2.45625">
        <ele>2754.5</ele>
        <time>2020-08-31T09:06:26.262Z</time>
      </trkpt>
      <trkpt lat="42.51936" lon="2.45623">
        <ele>2753.5</ele>
        <time>2020-08-31T09:06:35.153Z</time>
      </trkpt>
      <trkpt lat="42.51932" lon="2.4562">
        <ele>2752.3</ele>
        <time>2020-08-31T09:06:57.965Z</time>
      </trkpt>
      <trkpt lat="42.51929" lon="2.45619">
        <ele>2752.2</ele>
        <time>2020-08-31T09:07:13.384Z</time>
      </trkpt>
      <trkpt lat="42.51927" lon="2.45617">
        <ele>2751.3</ele>
        <time>2020-08-31T09:07:25.784Z</time>
      </trkpt>
      <trkpt lat="42.51925" lon="2.45615">
        <ele>2750.3</ele>
        <time>2020-08-31T09:07:38.185Z</time>
      </trkpt>
      <trkpt lat="42.51926" lon="2.45614">
        <ele>2749.5</ele>
        <time>2020-08-31T09:07:44.385Z</time>
      </trkpt>
      <trkpt lat="42.51927" lon="2.45614">
        <ele>2749.4</ele>
        <time>2020-08-31T09:07:49.377Z</time>
      </trkpt>
      <trkpt lat="42.51931" lon="2.45614">
        <ele>2748.8</ele>
        <time>2020-08-31T09:08:09.341Z</time>
      </trkpt>
      <trkpt lat="42.51934" lon="2.45614">
        <ele>2748.3</ele>
        <time>2020-08-31T09:08:24.315Z</time>
      </trkpt>
      <trkpt lat="42.51936" lon="2.45614">
        <ele>2748</ele>
        <time>2020-08-31T09:08:34.297Z</time>
      </trkpt>
      <trkpt lat="42.51939" lon="2.45614">
        <ele>2747.5</ele>
        <time>2020-08-31T09:08:49.271Z</time>
      </trkpt>
      <trkpt lat="42.51944" lon="2.45614">
        <ele>2746.7</ele>
        <time>2020-08-31T09:09:14.226Z</time>
      </trkpt>
      <trkpt lat="42.51947" lon="2.45616">
        <ele>2747</ele>
        <time>2020-08-31T09:09:30.910Z</time>
      </trkpt>
      <trkpt lat="42.51949" lon="2.45615">
        <ele>2745.8</ele>
        <time>2020-08-31T09:09:41.548Z</time>
      </trkpt>
      <trkpt lat="42.51953" lon="2.45616">
        <ele>2745</ele>
        <time>2020-08-31T09:10:01.849Z</time>
      </trkpt>
      <trkpt lat="42.5196" lon="2.45618">
        <ele>2743.9</ele>
        <time>2020-08-31T09:10:37.553Z</time>
      </trkpt>
      <trkpt lat="42.51962" lon="2.45617">
        <ele>2742.7</ele>
        <time>2020-08-31T09:10:48.192Z</time>
      </trkpt>
      <trkpt lat="42.51966" lon="2.45618">
        <ele>2742</ele>
        <time>2020-08-31T09:11:08.493Z</time>
      </trkpt>
      <trkpt lat="42.51971" lon="2.45619">
        <ele>2740.9</ele>
        <time>2020-08-31T09:11:33.718Z</time>
      </trkpt>
      <trkpt lat="42.51974" lon="2.4562">
        <ele>2740.4</ele>
        <time>2020-08-31T09:11:49.137Z</time>
      </trkpt>
      <trkpt lat="42.51977" lon="2.45621">
        <ele>2739.8</ele>
        <time>2020-08-31T09:12:04.556Z</time>
      </trkpt>
      <trkpt lat="42.51981" lon="2.45622">
        <ele>2738.7</ele>
        <time>2020-08-31T09:12:24.856Z</time>
      </trkpt>
      <trkpt lat="42.51982" lon="2.45622">
        <ele>2738.3</ele>
        <time>2020-08-31T09:12:29.848Z</time>
      </trkpt>
      <trkpt lat="42.51984" lon="2.45624">
        <ele>2738.6</ele>
        <time>2020-08-31T09:12:42.248Z</time>
      </trkpt>
      <trkpt lat="42.51985" lon="2.45625">
        <ele>2738.7</ele>
        <time>2020-08-31T09:12:48.449Z</time>
      </trkpt>
      <trkpt lat="42.51985" lon="2.45625">
        <ele>2738.7</ele>
        <time>2020-08-31T09:12:48.449Z</time>
      </trkpt>
      <trkpt lat="42.51986" lon="2.45624">
        <ele>2737.8</ele>
        <time>2020-08-31T09:12:54.649Z</time>
      </trkpt>
      <trkpt lat="42.51985" lon="2.45623">
        <ele>2737.7</ele>
        <time>2020-08-31T09:13:00.849Z</time>
      </trkpt>
      <trkpt lat="42.51984" lon="2.45622">
        <ele>2737.5</ele>
        <time>2020-08-31T09:13:07.050Z</time>
      </trkpt>
      <trkpt lat="42.51981" lon="2.45618">
        <ele>2736.6</ele>
        <time>2020-08-31T09:13:28.043Z</time>
      </trkpt>
      <trkpt lat="42.51979" lon="2.45615">
        <ele>2735.7</ele>
        <time>2020-08-31T09:13:42.924Z</time>
      </trkpt>
      <trkpt lat="42.51977" lon="2.45613">
        <ele>2735.3</ele>
        <time>2020-08-31T09:13:55.325Z</time>
      </trkpt>
      <trkpt lat="42.51976" lon="2.45611">
        <ele>2734.6</ele>
        <time>2020-08-31T09:14:04.216Z</time>
      </trkpt>
      <trkpt lat="42.51975" lon="2.45608">
        <ele>2733.3</ele>
        <time>2020-08-31T09:14:16.328Z</time>
      </trkpt>
      <trkpt lat="42.51973" lon="2.45607">
        <ele>2733.5</ele>
        <time>2020-08-31T09:14:26.966Z</time>
      </trkpt>
      <trkpt lat="42.51971" lon="2.45605">
        <ele>2733.1</ele>
        <time>2020-08-31T09:14:39.367Z</time>
      </trkpt>
      <trkpt lat="42.5197" lon="2.45603">
        <ele>2732.3</ele>
        <time>2020-08-31T09:14:48.258Z</time>
      </trkpt>
      <trkpt lat="42.51968" lon="2.45601">
        <ele>2731.9</ele>
        <time>2020-08-31T09:15:00.659Z</time>
      </trkpt>
      <trkpt lat="42.51967" lon="2.456">
        <ele>2731.6</ele>
        <time>2020-08-31T09:15:06.859Z</time>
      </trkpt>
      <trkpt lat="42.51965" lon="2.45599">
        <ele>2731.7</ele>
        <time>2020-08-31T09:15:17.498Z</time>
      </trkpt>
      <trkpt lat="42.51963" lon="2.45597">
        <ele>2731.2</ele>
        <time>2020-08-31T09:15:29.898Z</time>
      </trkpt>
      <trkpt lat="42.51962" lon="2.45596">
        <ele>2731</ele>
        <time>2020-08-31T09:15:36.099Z</time>
      </trkpt>
      <trkpt lat="42.51961" lon="2.45593">
        <ele>2729.6</ele>
        <time>2020-08-31T09:15:48.211Z</time>
      </trkpt>
      <trkpt lat="42.51963" lon="2.45593">
        <ele>2729</ele>
        <time>2020-08-31T09:15:58.193Z</time>
      </trkpt>
      <trkpt lat="42.51971" lon="2.45593">
        <ele>2726.6</ele>
        <time>2020-08-31T09:16:38.122Z</time>
      </trkpt>
      <trkpt lat="42.51973" lon="2.45593">
        <ele>2725.9</ele>
        <time>2020-08-31T09:16:48.105Z</time>
      </trkpt>
      <trkpt lat="42.51974" lon="2.45593">
        <ele>2725.5</ele>
        <time>2020-08-31T09:16:53.096Z</time>
      </trkpt>
      <trkpt lat="42.51976" lon="2.45594">
        <ele>2725.3</ele>
        <time>2020-08-31T09:17:03.735Z</time>
      </trkpt>
      <trkpt lat="42.5198" lon="2.45595">
        <ele>2724.3</ele>
        <time>2020-08-31T09:17:24.035Z</time>
      </trkpt>
      <trkpt lat="42.51989" lon="2.45599">
        <ele>2723.2</ele>
        <time>2020-08-31T09:18:11.304Z</time>
      </trkpt>
      <trkpt lat="42.51998" lon="2.45602">
        <ele>2721.5</ele>
        <time>2020-08-31T09:18:57.561Z</time>
      </trkpt>
      <trkpt lat="42.52007" lon="2.45605">
        <ele>2719.5</ele>
        <time>2020-08-31T09:19:43.817Z</time>
      </trkpt>
      <trkpt lat="42.52011" lon="2.45606">
        <ele>2718.3</ele>
        <time>2020-08-31T09:20:04.118Z</time>
      </trkpt>
      <trkpt lat="42.52015" lon="2.45606">
        <ele>2716.6</ele>
        <time>2020-08-31T09:20:24.082Z</time>
      </trkpt>
      <trkpt lat="42.52019" lon="2.45607">
        <ele>2715.4</ele>
        <time>2020-08-31T09:20:44.383Z</time>
      </trkpt>
      <trkpt lat="42.52021" lon="2.45609">
        <ele>2715.7</ele>
        <time>2020-08-31T09:20:56.784Z</time>
      </trkpt>
      <trkpt lat="42.52023" lon="2.4561">
        <ele>2715.4</ele>
        <time>2020-08-31T09:21:07.422Z</time>
      </trkpt>
      <trkpt lat="42.52024" lon="2.45611">
        <ele>2715.6</ele>
        <time>2020-08-31T09:21:13.623Z</time>
      </trkpt>
      <trkpt lat="42.52025" lon="2.45612">
        <ele>2715.4</ele>
        <time>2020-08-31T09:21:19.823Z</time>
      </trkpt>
      <trkpt lat="42.52026" lon="2.45612">
        <ele>2715</ele>
        <time>2020-08-31T09:21:24.814Z</time>
      </trkpt>
      <trkpt lat="42.52027" lon="2.45612">
        <ele>2714.6</ele>
        <time>2020-08-31T09:21:29.805Z</time>
      </trkpt>
      <trkpt lat="42.52027" lon="2.45611">
        <ele>2714.3</ele>
        <time>2020-08-31T09:21:33.484Z</time>
      </trkpt>
      <trkpt lat="42.52027" lon="2.4561">
        <ele>2713.7</ele>
        <time>2020-08-31T09:21:37.163Z</time>
      </trkpt>
      <trkpt lat="42.52026" lon="2.45608">
        <ele>2713</ele>
        <time>2020-08-31T09:21:46.053Z</time>
      </trkpt>
      <trkpt lat="42.52025" lon="2.45607">
        <ele>2712.8</ele>
        <time>2020-08-31T09:21:52.253Z</time>
      </trkpt>
      <trkpt lat="42.52022" lon="2.45603">
        <ele>2711.8</ele>
        <time>2020-08-31T09:22:13.247Z</time>
      </trkpt>
      <trkpt lat="42.5202" lon="2.456">
        <ele>2711</ele>
        <time>2020-08-31T09:22:28.128Z</time>
      </trkpt>
      <trkpt lat="42.52018" lon="2.45598">
        <ele>2710.7</ele>
        <time>2020-08-31T09:22:40.529Z</time>
      </trkpt>
      <trkpt lat="42.52017" lon="2.45597">
        <ele>2710.5</ele>
        <time>2020-08-31T09:22:46.729Z</time>
      </trkpt>
      <trkpt lat="42.52016" lon="2.45596">
        <ele>2710.4</ele>
        <time>2020-08-31T09:22:52.929Z</time>
      </trkpt>
      <trkpt lat="42.52015" lon="2.45595">
        <ele>2710.2</ele>
        <time>2020-08-31T09:22:59.130Z</time>
      </trkpt>
      <trkpt lat="42.52014" lon="2.45594">
        <ele>2710.1</ele>
        <time>2020-08-31T09:23:05.330Z</time>
      </trkpt>
      <trkpt lat="42.52013" lon="2.45591">
        <ele>2708.8</ele>
        <time>2020-08-31T09:23:17.442Z</time>
      </trkpt>
      <trkpt lat="42.52011" lon="2.45588">
        <ele>2707.9</ele>
        <time>2020-08-31T09:23:32.323Z</time>
      </trkpt>
      <trkpt lat="42.52008" lon="2.45585">
        <ele>2707.5</ele>
        <time>2020-08-31T09:23:50.924Z</time>
      </trkpt>
      <trkpt lat="42.52005" lon="2.45582">
        <ele>2707.1</ele>
        <time>2020-08-31T09:24:09.525Z</time>
      </trkpt>
      <trkpt lat="42.52003" lon="2.45579">
        <ele>2706.4</ele>
        <time>2020-08-31T09:24:24.406Z</time>
      </trkpt>
      <trkpt lat="42.52001" lon="2.45576">
        <ele>2705.6</ele>
        <time>2020-08-31T09:24:39.287Z</time>
      </trkpt>
      <trkpt lat="42.52" lon="2.45575">
        <ele>2705.5</ele>
        <time>2020-08-31T09:24:45.487Z</time>
        <extensions>
          <visugpx:TrkExtension xmlns:visugpx="https://www.visugpx.com/editgpx/">
            <visugpx:node>12</visugpx:node>
            </visugpx:TrkExtension>
        </extensions>
      </trkpt>
      <trkpt lat="42.51998" lon="2.45571">
        <ele>2704.1</ele>
        <time>2020-08-31T09:25:03.269Z</time>
      </trkpt>
      <trkpt lat="42.51993" lon="2.45565">
        <ele>2702.7</ele>
        <time>2020-08-31T09:25:36.585Z</time>
      </trkpt>
      <trkpt lat="42.51992" lon="2.45562">
        <ele>2701.4</ele>
        <time>2020-08-31T09:25:48.697Z</time>
      </trkpt>
      <trkpt lat="42.51989" lon="2.4556">
        <ele>2701.4</ele>
        <time>2020-08-31T09:26:05.380Z</time>
      </trkpt>
      <trkpt lat="42.51987" lon="2.45558">
        <ele>2701</ele>
        <time>2020-08-31T09:26:17.781Z</time>
      </trkpt>
      <trkpt lat="42.51986" lon="2.45556">
        <ele>2700.3</ele>
        <time>2020-08-31T09:26:26.672Z</time>
      </trkpt>
      <trkpt lat="42.51985" lon="2.45552">
        <ele>2698.5</ele>
        <time>2020-08-31T09:26:42.210Z</time>
      </trkpt>
      <trkpt lat="42.51982" lon="2.45549">
        <ele>2697.9</ele>
        <time>2020-08-31T09:27:00.811Z</time>
      </trkpt>
      <trkpt lat="42.51979" lon="2.45548">
        <ele>2698.5</ele>
        <time>2020-08-31T09:27:16.230Z</time>
      </trkpt>
      <trkpt lat="42.51978" lon="2.45547">
        <ele>2698.3</ele>
        <time>2020-08-31T09:27:22.430Z</time>
      </trkpt>
      <trkpt lat="42.51977" lon="2.45546">
        <ele>2698.1</ele>
        <time>2020-08-31T09:27:28.631Z</time>
      </trkpt>
      <trkpt lat="42.51977" lon="2.45543">
        <ele>2696.5</ele>
        <time>2020-08-31T09:27:39.667Z</time>
      </trkpt>
      <trkpt lat="42.51975" lon="2.4554">
        <ele>2695.6</ele>
        <time>2020-08-31T09:27:54.548Z</time>
      </trkpt>
      <trkpt lat="42.51975" lon="2.45539">
        <ele>2695.1</ele>
        <time>2020-08-31T09:27:58.226Z</time>
      </trkpt>
      <trkpt lat="42.51973" lon="2.45538">
        <ele>2695.2</ele>
        <time>2020-08-31T09:28:08.865Z</time>
      </trkpt>
      <trkpt lat="42.51972" lon="2.45538">
        <ele>2695.6</ele>
        <time>2020-08-31T09:28:13.856Z</time>
      </trkpt>
      <trkpt lat="42.5197" lon="2.45537">
        <ele>2695.4</ele>
        <time>2020-08-31T09:28:24.495Z</time>
      </trkpt>
      <trkpt lat="42.51969" lon="2.45536">
        <ele>2695</ele>
        <time>2020-08-31T09:28:30.695Z</time>
      </trkpt>
      <trkpt lat="42.51969" lon="2.45535">
        <ele>2694.4</ele>
        <time>2020-08-31T09:28:34.374Z</time>
      </trkpt>
      <trkpt lat="42.51968" lon="2.45534">
        <ele>2694</ele>
        <time>2020-08-31T09:28:40.574Z</time>
      </trkpt>
      <trkpt lat="42.51967" lon="2.45534">
        <ele>2694.1</ele>
        <time>2020-08-31T09:28:45.565Z</time>
      </trkpt>
      <trkpt lat="42.51966" lon="2.45533">
        <ele>2693.7</ele>
        <time>2020-08-31T09:28:51.766Z</time>
      </trkpt>
      <trkpt lat="42.51965" lon="2.45531">
        <ele>2692.7</ele>
        <time>2020-08-31T09:29:00.656Z</time>
      </trkpt>
      <trkpt lat="42.51964" lon="2.45529">
        <ele>2691.6</ele>
        <time>2020-08-31T09:29:09.547Z</time>
      </trkpt>
      <trkpt lat="42.51964" lon="2.45528">
        <ele>2691</ele>
        <time>2020-08-31T09:29:13.226Z</time>
      </trkpt>
      <trkpt lat="42.51964" lon="2.45527">
        <ele>2690.5</ele>
        <time>2020-08-31T09:29:16.904Z</time>
      </trkpt>
      <trkpt lat="42.51964" lon="2.45526">
        <ele>2690</ele>
        <time>2020-08-31T09:29:20.583Z</time>
      </trkpt>
      <trkpt lat="42.51964" lon="2.45526">
        <ele>2690</ele>
        <time>2020-08-31T09:29:20.583Z</time>
      </trkpt>
      <trkpt lat="42.51965" lon="2.45526">
        <ele>2689.9</ele>
        <time>2020-08-31T09:29:25.574Z</time>
      </trkpt>
      <trkpt lat="42.51967" lon="2.45527">
        <ele>2690.2</ele>
        <time>2020-08-31T09:29:36.213Z</time>
      </trkpt>
      <trkpt lat="42.51968" lon="2.45528">
        <ele>2690.6</ele>
        <time>2020-08-31T09:29:42.413Z</time>
      </trkpt>
      <trkpt lat="42.51969" lon="2.45529">
        <ele>2691</ele>
        <time>2020-08-31T09:29:48.613Z</time>
      </trkpt>
      <trkpt lat="42.5197" lon="2.4553">
        <ele>2691.5</ele>
        <time>2020-08-31T09:29:54.814Z</time>
      </trkpt>
      <trkpt lat="42.51971" lon="2.4553">
        <ele>2691.3</ele>
        <time>2020-08-31T09:29:59.805Z</time>
      </trkpt>
      <trkpt lat="42.51973" lon="2.45531">
        <ele>2691.5</ele>
        <time>2020-08-31T09:30:10.444Z</time>
      </trkpt>
      <trkpt lat="42.51977" lon="2.45531">
        <ele>2690</ele>
        <time>2020-08-31T09:30:30.408Z</time>
      </trkpt>
      <trkpt lat="42.51983" lon="2.45532">
        <ele>2688.4</ele>
        <time>2020-08-31T09:31:00.580Z</time>
      </trkpt>
      <trkpt lat="42.51989" lon="2.45533">
        <ele>2686.8</ele>
        <time>2020-08-31T09:31:30.752Z</time>
      </trkpt>
      <trkpt lat="42.51994" lon="2.45535">
        <ele>2686.1</ele>
        <time>2020-08-31T09:31:56.770Z</time>
      </trkpt>
      <trkpt lat="42.51997" lon="2.45538">
        <ele>2686.6</ele>
        <time>2020-08-31T09:32:15.371Z</time>
      </trkpt>
      <trkpt lat="42.51998" lon="2.45537">
        <ele>2685.7</ele>
        <time>2020-08-31T09:32:21.571Z</time>
      </trkpt>
      <trkpt lat="42.52" lon="2.45537">
        <ele>2685</ele>
        <time>2020-08-31T09:32:31.554Z</time>
      </trkpt>
      <trkpt lat="42.52001" lon="2.45537">
        <ele>2684.6</ele>
        <time>2020-08-31T09:32:36.545Z</time>
      </trkpt>
      <trkpt lat="42.52005" lon="2.45538">
        <ele>2683.5</ele>
        <time>2020-08-31T09:32:56.846Z</time>
      </trkpt>
      <trkpt lat="42.52008" lon="2.45539">
        <ele>2682.9</ele>
        <time>2020-08-31T09:33:12.264Z</time>
      </trkpt>
      <trkpt lat="42.52013" lon="2.4554">
        <ele>2681.5</ele>
        <time>2020-08-31T09:33:37.490Z</time>
      </trkpt>
      <trkpt lat="42.52024" lon="2.45547">
        <ele>2680.9</ele>
        <time>2020-08-31T09:34:38.131Z</time>
      </trkpt>
      <trkpt lat="42.5203" lon="2.45548">
        <ele>2678.8</ele>
        <time>2020-08-31T09:35:08.304Z</time>
      </trkpt>
      <trkpt lat="42.52032" lon="2.45551">
        <ele>2679.3</ele>
        <time>2020-08-31T09:35:23.184Z</time>
      </trkpt>
      <trkpt lat="42.52043" lon="2.45555">
        <ele>2675.5</ele>
        <time>2020-08-31T09:36:20.025Z</time>
      </trkpt>
      <trkpt lat="42.52053" lon="2.45563">
        <ele>2674.4</ele>
        <time>2020-08-31T09:37:17.967Z</time>
      </trkpt>
      <trkpt lat="42.52064" lon="2.45569">
        <ele>2673.2</ele>
        <time>2020-08-31T09:38:17.140Z</time>
      </trkpt>
      <trkpt lat="42.52071" lon="2.45569">
        <ele>2670.7</ele>
        <time>2020-08-31T09:38:52.078Z</time>
      </trkpt>
      <trkpt lat="42.52083" lon="2.45568">
        <ele>2665.7</ele>
        <time>2020-08-31T09:39:52.085Z</time>
      </trkpt>
      <trkpt lat="42.52093" lon="2.45573">
        <ele>2666.2</ele>
        <time>2020-08-31T09:40:45.277Z</time>
      </trkpt>
      <trkpt lat="42.52119" lon="2.45574">
        <ele>2659.2</ele>
        <time>2020-08-31T09:42:55.100Z</time>
      </trkpt>
      <trkpt lat="42.5212" lon="2.45574">
        <ele>2658.9</ele>
        <time>2020-08-31T09:43:00.091Z</time>
      </trkpt>
      <trkpt lat="42.52121" lon="2.45574">
        <ele>2658.5</ele>
        <time>2020-08-31T09:43:05.082Z</time>
      </trkpt>
      <trkpt lat="42.52121" lon="2.45573">
        <ele>2658.1</ele>
        <time>2020-08-31T09:43:08.761Z</time>
      </trkpt>
      <trkpt lat="42.52121" lon="2.45572">
        <ele>2657.7</ele>
        <time>2020-08-31T09:43:12.439Z</time>
      </trkpt>
      <trkpt lat="42.52121" lon="2.45571">
        <ele>2657.3</ele>
        <time>2020-08-31T09:43:16.118Z</time>
      </trkpt>
      <trkpt lat="42.5212" lon="2.4557">
        <ele>2657.2</ele>
        <time>2020-08-31T09:43:22.318Z</time>
      </trkpt>
      <trkpt lat="42.5212" lon="2.45569">
        <ele>2656.8</ele>
        <time>2020-08-31T09:43:25.997Z</time>
      </trkpt>
      <trkpt lat="42.5212" lon="2.45568">
        <ele>2656.4</ele>
        <time>2020-08-31T09:43:29.675Z</time>
      </trkpt>
      <trkpt lat="42.52121" lon="2.45567">
        <ele>2655.6</ele>
        <time>2020-08-31T09:43:35.876Z</time>
      </trkpt>
      <trkpt lat="42.52122" lon="2.45567">
        <ele>2655.3</ele>
        <time>2020-08-31T09:43:40.867Z</time>
      </trkpt>
      <trkpt lat="42.52125" lon="2.45567">
        <ele>2654.2</ele>
        <time>2020-08-31T09:43:55.840Z</time>
      </trkpt>
      <trkpt lat="42.52127" lon="2.45568">
        <ele>2654</ele>
        <time>2020-08-31T09:44:06.479Z</time>
      </trkpt>
      <trkpt lat="42.52133" lon="2.4557">
        <ele>2652.7</ele>
        <time>2020-08-31T09:44:37.316Z</time>
      </trkpt>
      <trkpt lat="42.52136" lon="2.4557">
        <ele>2651.7</ele>
        <time>2020-08-31T09:44:52.290Z</time>
      </trkpt>
      <trkpt lat="42.52136" lon="2.4557">
        <ele>2651.7</ele>
        <time>2020-08-31T09:44:52.290Z</time>
      </trkpt>
      <trkpt lat="42.52136" lon="2.45569">
        <ele>2651.3</ele>
        <time>2020-08-31T09:44:55.968Z</time>
      </trkpt>
      <trkpt lat="42.52135" lon="2.45568">
        <ele>2651.3</ele>
        <time>2020-08-31T09:45:02.169Z</time>
      </trkpt>
      <trkpt lat="42.52134" lon="2.45563">
        <ele>2649.6</ele>
        <time>2020-08-31T09:45:21.227Z</time>
      </trkpt>
      <trkpt lat="42.52132" lon="2.45559">
        <ele>2648.6</ele>
        <time>2020-08-31T09:45:39.008Z</time>
      </trkpt>
      <trkpt lat="42.5213" lon="2.45555">
        <ele>2647.6</ele>
        <time>2020-08-31T09:45:56.789Z</time>
      </trkpt>
      <trkpt lat="42.52127" lon="2.4555">
        <ele>2646.1</ele>
        <time>2020-08-31T09:46:20.506Z</time>
      </trkpt>
      <trkpt lat="42.52125" lon="2.45545">
        <ele>2644.2</ele>
        <time>2020-08-31T09:46:41.433Z</time>
      </trkpt>
      <trkpt lat="42.52124" lon="2.45544">
        <ele>2644</ele>
        <time>2020-08-31T09:46:47.634Z</time>
      </trkpt>
      <trkpt lat="42.52123" lon="2.45542">
        <ele>2643.2</ele>
        <time>2020-08-31T09:46:56.524Z</time>
      </trkpt>
      <trkpt lat="42.52123" lon="2.45541">
        <ele>2642.7</ele>
        <time>2020-08-31T09:47:00.203Z</time>
      </trkpt>
      <trkpt lat="42.52124" lon="2.45541">
        <ele>2642.5</ele>
        <time>2020-08-31T09:47:05.194Z</time>
      </trkpt>
      <trkpt lat="42.52124" lon="2.45541">
        <ele>2642.5</ele>
        <time>2020-08-31T09:47:05.194Z</time>
      </trkpt>
      <trkpt lat="42.52126" lon="2.45541">
        <ele>2641.9</ele>
        <time>2020-08-31T09:47:15.176Z</time>
      </trkpt>
      <trkpt lat="42.52129" lon="2.45543">
        <ele>2642</ele>
        <time>2020-08-31T09:47:31.860Z</time>
      </trkpt>
      <trkpt lat="42.52135" lon="2.4555">
        <ele>2643.6</ele>
        <time>2020-08-31T09:48:11.355Z</time>
      </trkpt>
      <trkpt lat="42.52141" lon="2.45555">
        <ele>2643.7</ele>
        <time>2020-08-31T09:48:46.500Z</time>
      </trkpt>
      <trkpt lat="42.52146" lon="2.45558">
        <ele>2642.3</ele>
        <time>2020-08-31T09:49:13.787Z</time>
      </trkpt>
      <trkpt lat="42.52147" lon="2.4556">
        <ele>2642.5</ele>
        <time>2020-08-31T09:49:22.677Z</time>
      </trkpt>
      <trkpt lat="42.52148" lon="2.4556">
        <ele>2642</ele>
        <time>2020-08-31T09:49:27.668Z</time>
      </trkpt>
      <trkpt lat="42.52149" lon="2.45561">
        <ele>2641.8</ele>
        <time>2020-08-31T09:49:33.868Z</time>
      </trkpt>
      <trkpt lat="42.52151" lon="2.45562">
        <ele>2641</ele>
        <time>2020-08-31T09:49:44.507Z</time>
      </trkpt>
      <trkpt lat="42.52153" lon="2.45563">
        <ele>2640.3</ele>
        <time>2020-08-31T09:49:55.146Z</time>
      </trkpt>
      <trkpt lat="42.52154" lon="2.45564">
        <ele>2640.1</ele>
        <time>2020-08-31T09:50:01.346Z</time>
      </trkpt>
      <trkpt lat="42.52156" lon="2.45565">
        <ele>2639.3</ele>
        <time>2020-08-31T09:50:11.984Z</time>
      </trkpt>
      <trkpt lat="42.52157" lon="2.45565">
        <ele>2638.7</ele>
        <time>2020-08-31T09:50:16.976Z</time>
      </trkpt>
      <trkpt lat="42.52158" lon="2.45565">
        <ele>2638.2</ele>
        <time>2020-08-31T09:50:21.967Z</time>
      </trkpt>
      <trkpt lat="42.52159" lon="2.45566">
        <ele>2637.9</ele>
        <time>2020-08-31T09:50:28.167Z</time>
      </trkpt>
      <trkpt lat="42.52162" lon="2.45568">
        <ele>2636.8</ele>
        <time>2020-08-31T09:50:44.850Z</time>
      </trkpt>
      <trkpt lat="42.52163" lon="2.45568">
        <ele>2636.2</ele>
        <time>2020-08-31T09:50:49.841Z</time>
      </trkpt>
      <trkpt lat="42.52162" lon="2.45566">
        <ele>2636.2</ele>
        <time>2020-08-31T09:50:58.732Z</time>
      </trkpt>
      <trkpt lat="42.5216" lon="2.45562">
        <ele>2636.2</ele>
        <time>2020-08-31T09:51:16.513Z</time>
      </trkpt>
      <trkpt lat="42.52158" lon="2.45557">
        <ele>2635.8</ele>
        <time>2020-08-31T09:51:37.440Z</time>
      </trkpt>
      <trkpt lat="42.52155" lon="2.45551">
        <ele>2634.7</ele>
        <time>2020-08-31T09:52:04.111Z</time>
      </trkpt>
      <trkpt lat="42.52152" lon="2.45543">
        <ele>2632.5</ele>
        <time>2020-08-31T09:52:37.130Z</time>
      </trkpt>
      <trkpt lat="42.52148" lon="2.45537">
        <ele>2631.7</ele>
        <time>2020-08-31T09:53:06.892Z</time>
      </trkpt>
      <trkpt lat="42.52145" lon="2.45532">
        <ele>2630.9</ele>
        <time>2020-08-31T09:53:30.609Z</time>
      </trkpt>
      <trkpt lat="42.52142" lon="2.45526">
        <ele>2629.5</ele>
        <time>2020-08-31T09:53:57.280Z</time>
      </trkpt>
      <trkpt lat="42.52139" lon="2.45523">
        <ele>2629.4</ele>
        <time>2020-08-31T09:54:15.881Z</time>
      </trkpt>
      <trkpt lat="42.52139" lon="2.45521">
        <ele>2628.3</ele>
        <time>2020-08-31T09:54:23.239Z</time>
      </trkpt>
      <trkpt lat="42.52139" lon="2.4552">
        <ele>2627.7</ele>
        <time>2020-08-31T09:54:26.917Z</time>
      </trkpt>
      <trkpt lat="42.5214" lon="2.4552">
        <ele>2627.3</ele>
        <time>2020-08-31T09:54:31.908Z</time>
      </trkpt>
      <trkpt lat="42.5214" lon="2.45521">
        <ele>2627.8</ele>
        <time>2020-08-31T09:54:35.587Z</time>
      </trkpt>
      <trkpt lat="42.52141" lon="2.45521">
        <ele>2627.3</ele>
        <time>2020-08-31T09:54:40.578Z</time>
      </trkpt>
      <trkpt lat="42.52142" lon="2.45521">
        <ele>2626.8</ele>
        <time>2020-08-31T09:54:45.569Z</time>
      </trkpt>
      <trkpt lat="42.52151" lon="2.45526">
        <ele>2625</ele>
        <time>2020-08-31T09:55:34.109Z</time>
      </trkpt>
      <trkpt lat="42.52174" lon="2.4554">
        <ele>2620.1</ele>
        <time>2020-08-31T09:57:39.929Z</time>
      </trkpt>
      <trkpt lat="42.52182" lon="2.45546">
        <ele>2619.2</ele>
        <time>2020-08-31T09:58:25.552Z</time>
      </trkpt>
      <trkpt lat="42.522" lon="2.45554">
        <ele>2614.8</ele>
        <time>2020-08-31T10:00:00.090Z</time>
      </trkpt>
      <trkpt lat="42.52225" lon="2.45567">
        <ele>2608.7</ele>
        <time>2020-08-31T10:02:13.719Z</time>
      </trkpt>
      <trkpt lat="42.52233" lon="2.4557">
        <ele>2606.6</ele>
        <time>2020-08-31T10:02:55.145Z</time>
      </trkpt>
      <trkpt lat="42.52247" lon="2.4557">
        <ele>2601.3</ele>
        <time>2020-08-31T10:04:05.021Z</time>
      </trkpt>
      <trkpt lat="42.52259" lon="2.45566">
        <ele>2558</ele>
        <time>2020-08-31T10:05:06.696Z</time>
      </trkpt>
      <trkpt lat="42.52268" lon="2.45568">
        <ele>2558</ele>
        <time>2020-08-31T10:05:18.498Z</time>
      </trkpt>
      <trkpt lat="42.5227" lon="2.45568">
        <ele>2558</ele>
        <time>2020-08-31T10:05:21.086Z</time>
      </trkpt>
      <trkpt lat="42.52278" lon="2.45566">
        <ele>2558</ele>
        <time>2020-08-31T10:05:31.612Z</time>
      </trkpt>
      <trkpt lat="42.52285" lon="2.45569">
        <ele>2558</ele>
        <time>2020-08-31T10:05:41.111Z</time>
      </trkpt>
      <trkpt lat="42.52287" lon="2.45572">
        <ele>2558</ele>
        <time>2020-08-31T10:05:44.969Z</time>
      </trkpt>
      <trkpt lat="42.52293" lon="2.45569">
        <ele>2558</ele>
        <time>2020-08-31T10:05:53.243Z</time>
      </trkpt>
      <trkpt lat="42.52305" lon="2.45567">
        <ele>2558</ele>
        <time>2020-08-31T10:06:08.888Z</time>
      </trkpt>
      <trkpt lat="42.52308" lon="2.45565">
        <ele>2558</ele>
        <time>2020-08-31T10:06:13.213Z</time>
      </trkpt>
      <trkpt lat="42.52316" lon="2.4556">
        <ele>2558</ele>
        <time>2020-08-31T10:06:24.611Z</time>
      </trkpt>
      <trkpt lat="42.52326" lon="2.45555">
        <ele>2558</ele>
        <time>2020-08-31T10:06:38.401Z</time>
      </trkpt>
      <trkpt lat="42.5234" lon="2.45546">
        <ele>2558</ele>
        <time>2020-08-31T10:06:58.448Z</time>
      </trkpt>
      <trkpt lat="42.52344" lon="2.4554">
        <ele>2558</ele>
        <time>2020-08-31T10:07:06.164Z</time>
      </trkpt>
      <trkpt lat="42.52348" lon="2.45538">
        <ele>2558</ele>
        <time>2020-08-31T10:07:11.680Z</time>
      </trkpt>
      <trkpt lat="42.52353" lon="2.45533">
        <ele>2558</ele>
        <time>2020-08-31T10:07:19.717Z</time>
      </trkpt>
      <trkpt lat="42.52366" lon="2.45533">
        <ele>2558</ele>
        <time>2020-08-31T10:07:36.539Z</time>
      </trkpt>
      <trkpt lat="42.52375" lon="2.45525">
        <ele>2558</ele>
        <time>2020-08-31T10:07:50.462Z</time>
      </trkpt>
      <trkpt lat="42.52385" lon="2.45521">
        <ele>2558</ele>
        <time>2020-08-31T10:08:03.953Z</time>
      </trkpt>
      <trkpt lat="42.52393" lon="2.45515">
        <ele>2558</ele>
        <time>2020-08-31T10:08:15.781Z</time>
      </trkpt>
      <trkpt lat="42.52396" lon="2.45515">
        <ele>2558</ele>
        <time>2020-08-31T10:08:19.663Z</time>
      </trkpt>
      <trkpt lat="42.52407" lon="2.45509">
        <ele>2558</ele>
        <time>2020-08-31T10:08:35.004Z</time>
      </trkpt>
      <trkpt lat="42.52429" lon="2.45495">
        <ele>2532.1</ele>
        <time>2020-08-31T10:08:41.074Z</time>
      </trkpt>
      <trkpt lat="42.5245" lon="2.45492">
        <ele>2534.8</ele>
        <time>2020-08-31T10:10:18.616Z</time>
      </trkpt>
      <trkpt lat="42.52459" lon="2.45489">
        <ele>2536</ele>
        <time>2020-08-31T10:11:02.373Z</time>
      </trkpt>
      <trkpt lat="42.52464" lon="2.45489">
        <ele>2537.1</ele>
        <time>2020-08-31T10:11:27.329Z</time>
      </trkpt>
      <trkpt lat="42.52468" lon="2.45487">
        <ele>2538</ele>
        <time>2020-08-31T10:11:48.606Z</time>
      </trkpt>
      <trkpt lat="42.52485" lon="2.45481">
        <ele>2540.6</ele>
        <time>2020-08-31T10:13:16.279Z</time>
      </trkpt>
      <trkpt lat="42.52518" lon="2.45471">
        <ele>2535.3</ele>
        <time>2020-08-31T10:13:24.726Z</time>
      </trkpt>
      <trkpt lat="42.52552" lon="2.45462">
        <ele>2530.3</ele>
        <time>2020-08-31T10:13:33.379Z</time>
      </trkpt>
      <trkpt lat="42.52569" lon="2.45455">
        <ele>2527.8</ele>
        <time>2020-08-31T10:13:37.817Z</time>
      </trkpt>
      <trkpt lat="42.52589" lon="2.45451">
        <ele>2518.5</ele>
        <time>2020-08-31T10:13:42.867Z</time>
      </trkpt>
      <trkpt lat="42.52605" lon="2.45447">
        <ele>2517.3</ele>
        <time>2020-08-31T10:13:46.931Z</time>
      </trkpt>
      <trkpt lat="42.52621" lon="2.45442">
        <ele>2516.2</ele>
        <time>2020-08-31T10:13:51.032Z</time>
      </trkpt>
      <trkpt lat="42.52633" lon="2.45438">
        <ele>2515.1</ele>
        <time>2020-08-31T10:13:54.119Z</time>
      </trkpt>
      <trkpt lat="42.52667" lon="2.45422">
        <ele>2508.7</ele>
        <time>2020-08-31T10:14:03.108Z</time>
      </trkpt>
      <trkpt lat="42.52676" lon="2.45414">
        <ele>2499.8</ele>
        <time>2020-08-31T10:14:05.796Z</time>
      </trkpt>
      <trkpt lat="42.52686" lon="2.45407">
        <ele>2493.6</ele>
        <time>2020-08-31T10:14:08.607Z</time>
      </trkpt>
      <trkpt lat="42.52696" lon="2.45402">
        <ele>2490.3</ele>
        <time>2020-08-31T10:14:11.269Z</time>
      </trkpt>
      <trkpt lat="42.52706" lon="2.45397">
        <ele>2487.8</ele>
        <time>2020-08-31T10:14:13.931Z</time>
      </trkpt>
      <trkpt lat="42.52723" lon="2.45392">
        <ele>2485.6</ele>
        <time>2020-08-31T10:14:18.276Z</time>
      </trkpt>
      <trkpt lat="42.5273" lon="2.45393">
        <ele>2485.3</ele>
        <time>2020-08-31T10:14:20.246Z</time>
      </trkpt>
      <trkpt lat="42.52732" lon="2.45392">
        <ele>2485.2</ele>
        <time>2020-08-31T10:14:20.819Z</time>
      </trkpt>
      <trkpt lat="42.52744" lon="2.45393">
        <ele>2485.3</ele>
        <time>2020-08-31T10:14:37.660Z</time>
      </trkpt>
      <trkpt lat="42.52766" lon="2.454">
        <ele>2473.9</ele>
        <time>2020-08-31T10:14:43.304Z</time>
      </trkpt>
      <trkpt lat="42.52772" lon="2.45403">
        <ele>2473</ele>
        <time>2020-08-31T10:14:44.902Z</time>
      </trkpt>
      <trkpt lat="42.52781" lon="2.45406">
        <ele>2470.6</ele>
        <time>2020-08-31T10:14:47.217Z</time>
      </trkpt>
      <trkpt lat="42.52793" lon="2.45412">
        <ele>2467.9</ele>
        <time>2020-08-31T10:14:50.411Z</time>
      </trkpt>
      <trkpt lat="42.52808" lon="2.45421">
        <ele>2473.4</ele>
        <time>2020-08-31T10:16:12.271Z</time>
      </trkpt>
      <trkpt lat="42.52821" lon="2.45433">
        <ele>2471.5</ele>
        <time>2020-08-31T10:16:16.198Z</time>
      </trkpt>
      <trkpt lat="42.52832" lon="2.45446">
        <ele>2471.7</ele>
        <time>2020-08-31T10:16:37.785Z</time>
      </trkpt>
      <trkpt lat="42.52839" lon="2.4546">
        <ele>2458.2</ele>
        <time>2020-08-31T10:16:40.900Z</time>
      </trkpt>
      <trkpt lat="42.52841" lon="2.45462">
        <ele>2458.1</ele>
        <time>2020-08-31T10:16:41.610Z</time>
      </trkpt>
      <trkpt lat="42.52843" lon="2.45463">
        <ele>2457.9</ele>
        <time>2020-08-31T10:16:42.143Z</time>
      </trkpt>
      <trkpt lat="42.52844" lon="2.45463">
        <ele>2457.9</ele>
        <time>2020-08-31T10:16:43.437Z</time>
      </trkpt>
      <trkpt lat="42.52845" lon="2.45463">
        <ele>2457.8</ele>
        <time>2020-08-31T10:16:43.687Z</time>
      </trkpt>
      <trkpt lat="42.52846" lon="2.45462">
        <ele>2457.7</ele>
        <time>2020-08-31T10:16:43.997Z</time>
      </trkpt>
      <trkpt lat="42.52847" lon="2.45461">
        <ele>2457.7</ele>
        <time>2020-08-31T10:16:45.604Z</time>
      </trkpt>
      <trkpt lat="42.52848" lon="2.4546">
        <ele>2457.6</ele>
        <time>2020-08-31T10:16:45.915Z</time>
      </trkpt>
      <trkpt lat="42.52848" lon="2.45458">
        <ele>2457.6</ele>
        <time>2020-08-31T10:16:47.822Z</time>
      </trkpt>
      <trkpt lat="42.52849" lon="2.45455">
        <ele>2457.5</ele>
        <time>2020-08-31T10:16:48.510Z</time>
      </trkpt>
      <trkpt lat="42.52851" lon="2.45449">
        <ele>2457.5</ele>
        <time>2020-08-31T10:16:54.790Z</time>
      </trkpt>
      <trkpt lat="42.52852" lon="2.45445">
        <ele>2457.7</ele>
        <time>2020-08-31T10:17:02.558Z</time>
      </trkpt>
      <trkpt lat="42.52852" lon="2.45442">
        <ele>2457.8</ele>
        <time>2020-08-31T10:17:07.409Z</time>
      </trkpt>
      <trkpt lat="42.52852" lon="2.45439">
        <ele>2458</ele>
        <time>2020-08-31T10:17:14.216Z</time>
      </trkpt>
      <trkpt lat="42.52852" lon="2.45438">
        <ele>2458.1</ele>
        <time>2020-08-31T10:17:17.894Z</time>
      </trkpt>
      <trkpt lat="42.52852" lon="2.45435">
        <ele>2458.4</ele>
        <time>2020-08-31T10:17:28.929Z</time>
      </trkpt>
      <trkpt lat="42.5285" lon="2.4543">
        <ele>2459</ele>
        <time>2020-08-31T10:17:49.854Z</time>
      </trkpt>
      <trkpt lat="42.52848" lon="2.45421">
        <ele>2460.1</ele>
        <time>2020-08-31T10:18:24.430Z</time>
      </trkpt>
      <trkpt lat="42.52848" lon="2.45416">
        <ele>2454.3</ele>
        <time>2020-08-31T10:18:25.351Z</time>
      </trkpt>
      <trkpt lat="42.52847" lon="2.45412">
        <ele>2453.9</ele>
        <time>2020-08-31T10:18:26.128Z</time>
      </trkpt>
      <trkpt lat="42.52847" lon="2.4541">
        <ele>2453.6</ele>
        <time>2020-08-31T10:18:26.496Z</time>
      </trkpt>
      <trkpt lat="42.52846" lon="2.45408">
        <ele>2453.1</ele>
        <time>2020-08-31T10:18:26.941Z</time>
      </trkpt>
      <trkpt lat="42.52846" lon="2.45406">
        <ele>2452.6</ele>
        <time>2020-08-31T10:18:27.309Z</time>
      </trkpt>
      <trkpt lat="42.52845" lon="2.45404">
        <ele>2452.2</ele>
        <time>2020-08-31T10:18:27.754Z</time>
      </trkpt>
      <trkpt lat="42.52845" lon="2.45403">
        <ele>2451.9</ele>
        <time>2020-08-31T10:18:27.938Z</time>
      </trkpt>
      <trkpt lat="42.52845" lon="2.45402">
        <ele>2451.5</ele>
        <time>2020-08-31T10:18:28.122Z</time>
      </trkpt>
      <trkpt lat="42.52845" lon="2.45402">
        <ele>2451.2</ele>
        <time>2020-08-31T10:18:28.122Z</time>
      </trkpt>
      <trkpt lat="42.52846" lon="2.45402">
        <ele>2451.2</ele>
        <time>2020-08-31T10:18:29.416Z</time>
      </trkpt>
      <trkpt lat="42.52846" lon="2.45402">
        <ele>2451.1</ele>
        <time>2020-08-31T10:18:29.416Z</time>
      </trkpt>
      <trkpt lat="42.52847" lon="2.45403">
        <ele>2451.1</ele>
        <time>2020-08-31T10:18:31.024Z</time>
      </trkpt>
      <trkpt lat="42.52848" lon="2.45403">
        <ele>2451</ele>
        <time>2020-08-31T10:18:31.274Z</time>
      </trkpt>
      <trkpt lat="42.5285" lon="2.45405">
        <ele>2450.9</ele>
        <time>2020-08-31T10:18:31.985Z</time>
      </trkpt>
      <trkpt lat="42.52854" lon="2.45409">
        <ele>2450.4</ele>
        <time>2020-08-31T10:18:33.226Z</time>
      </trkpt>
      <trkpt lat="42.52858" lon="2.45411">
        <ele>2449.2</ele>
        <time>2020-08-31T10:18:34.291Z</time>
      </trkpt>
      <trkpt lat="42.52861" lon="2.45413">
        <ele>2448.4</ele>
        <time>2020-08-31T10:18:35.126Z</time>
      </trkpt>
      <trkpt lat="42.52864" lon="2.45413">
        <ele>2447.6</ele>
        <time>2020-08-31T10:18:35.875Z</time>
      </trkpt>
      <trkpt lat="42.52868" lon="2.45412">
        <ele>2446.4</ele>
        <time>2020-08-31T10:18:36.891Z</time>
      </trkpt>
      <trkpt lat="42.52879" lon="2.45409">
        <ele>2444.1</ele>
        <time>2020-08-31T10:18:39.694Z</time>
      </trkpt>
      <trkpt lat="42.52888" lon="2.45405">
        <ele>2442.6</ele>
        <time>2020-08-31T10:18:42.059Z</time>
      </trkpt>
      <trkpt lat="42.52891" lon="2.45403">
        <ele>2442.2</ele>
        <time>2020-08-31T10:18:42.894Z</time>
      </trkpt>
      <trkpt lat="42.52892" lon="2.45402">
        <ele>2442</ele>
        <time>2020-08-31T10:18:43.205Z</time>
      </trkpt>
      <trkpt lat="42.52893" lon="2.45401">
        <ele>2441.9</ele>
        <time>2020-08-31T10:18:43.515Z</time>
      </trkpt>
      <trkpt lat="42.52894" lon="2.454">
        <ele>2441.7</ele>
        <time>2020-08-31T10:18:43.825Z</time>
      </trkpt>
      <trkpt lat="42.52897" lon="2.454">
        <ele>2441.6</ele>
        <time>2020-08-31T10:18:44.744Z</time>
      </trkpt>
      <trkpt lat="42.52901" lon="2.454">
        <ele>2441.5</ele>
        <time>2020-08-31T10:18:46.082Z</time>
      </trkpt>
      <trkpt lat="42.52904" lon="2.45399">
        <ele>2441.4</ele>
        <time>2020-08-31T10:18:47.037Z</time>
      </trkpt>
      <trkpt lat="42.52905" lon="2.45398">
        <ele>2441.3</ele>
        <time>2020-08-31T10:18:47.347Z</time>
      </trkpt>
      <trkpt lat="42.52906" lon="2.45396">
        <ele>2440.9</ele>
        <time>2020-08-31T10:18:47.792Z</time>
      </trkpt>
      <trkpt lat="42.52911" lon="2.45395">
        <ele>2440.5</ele>
        <time>2020-08-31T10:18:49.055Z</time>
      </trkpt>
      <trkpt lat="42.52912" lon="2.45395">
        <ele>2440.5</ele>
        <time>2020-08-31T10:18:50.349Z</time>
      </trkpt>
      <trkpt lat="42.52913" lon="2.45395">
        <ele>2440.5</ele>
        <time>2020-08-31T10:18:51.643Z</time>
      </trkpt>
      <trkpt lat="42.52914" lon="2.45394">
        <ele>2440.3</ele>
        <time>2020-08-31T10:18:51.953Z</time>
      </trkpt>
      <trkpt lat="42.52916" lon="2.45394">
        <ele>2440</ele>
        <time>2020-08-31T10:18:52.453Z</time>
      </trkpt>
      <trkpt lat="42.52928" lon="2.45388">
        <ele>2428.4</ele>
        <time>2020-08-31T10:18:55.647Z</time>
      </trkpt>
      <trkpt lat="42.52945" lon="2.4538">
        <ele>2424.7</ele>
        <time>2020-08-31T10:19:00.142Z</time>
      </trkpt>
      <trkpt lat="42.52949" lon="2.45376">
        <ele>2423.6</ele>
        <time>2020-08-31T10:19:01.383Z</time>
      </trkpt>
      <trkpt lat="42.52955" lon="2.45376">
        <ele>2423.1</ele>
        <time>2020-08-31T10:19:02.882Z</time>
      </trkpt>
      <trkpt lat="42.52975" lon="2.45366">
        <ele>2419.8</ele>
        <time>2020-08-31T10:19:08.206Z</time>
      </trkpt>
      <trkpt lat="42.52987" lon="2.45363">
        <ele>2418.2</ele>
        <time>2020-08-31T10:19:11.254Z</time>
      </trkpt>
      <trkpt lat="42.52996" lon="2.4536">
        <ele>2416.8</ele>
        <time>2020-08-31T10:19:13.569Z</time>
      </trkpt>
      <trkpt lat="42.53021" lon="2.45355">
        <ele>2407.8</ele>
        <time>2020-08-31T10:19:19.882Z</time>
      </trkpt>
      <trkpt lat="42.5304" lon="2.45352">
        <ele>2406.1</ele>
        <time>2020-08-31T10:19:24.660Z</time>
      </trkpt>
      <trkpt lat="42.53048" lon="2.45347">
        <ele>2404.8</ele>
        <time>2020-08-31T10:19:26.860Z</time>
      </trkpt>
      <trkpt lat="42.53056" lon="2.45347">
        <ele>2403.3</ele>
        <time>2020-08-31T10:19:28.858Z</time>
      </trkpt>
      <trkpt lat="42.53063" lon="2.45341">
        <ele>2400.9</ele>
        <time>2020-08-31T10:19:30.927Z</time>
      </trkpt>
      <trkpt lat="42.53092" lon="2.45327">
        <ele>2384.2</ele>
        <time>2020-08-31T10:19:38.615Z</time>
      </trkpt>
      <trkpt lat="42.531" lon="2.45325">
        <ele>2380.4</ele>
        <time>2020-08-31T10:19:40.647Z</time>
      </trkpt>
      <trkpt lat="42.53113" lon="2.45323">
        <ele>2377</ele>
        <time>2020-08-31T10:19:43.916Z</time>
      </trkpt>
      <trkpt lat="42.5312" lon="2.4532">
        <ele>2375.7</ele>
        <time>2020-08-31T10:19:45.749Z</time>
      </trkpt>
      <trkpt lat="42.53142" lon="2.45308">
        <ele>2373.1</ele>
        <time>2020-08-31T10:19:51.672Z</time>
      </trkpt>
      <trkpt lat="42.53166" lon="2.45291">
        <ele>2369.9</ele>
        <time>2020-08-31T10:19:58.435Z</time>
      </trkpt>
      <trkpt lat="42.53174" lon="2.45288">
        <ele>2361.2</ele>
        <time>2020-08-31T10:20:00.508Z</time>
      </trkpt>
      <trkpt lat="42.53179" lon="2.45287">
        <ele>2360.8</ele>
        <time>2020-08-31T10:20:01.771Z</time>
      </trkpt>
      <trkpt lat="42.53186" lon="2.45285">
        <ele>2360</ele>
        <time>2020-08-31T10:20:03.558Z</time>
      </trkpt>
      <trkpt lat="42.53206" lon="2.45262">
        <ele>2357.4</ele>
        <time>2020-08-31T10:20:10.106Z</time>
      </trkpt>
      <trkpt lat="42.53228" lon="2.45233">
        <ele>2348.8</ele>
        <time>2020-08-31T10:20:17.768Z</time>
      </trkpt>
      <trkpt lat="42.53234" lon="2.45231">
        <ele>2348.8</ele>
        <time>2020-08-31T10:20:25.763Z</time>
      </trkpt>
      <trkpt lat="42.53244" lon="2.4523">
        <ele>2349</ele>
        <time>2020-08-31T10:20:41.638Z</time>
      </trkpt>
      <trkpt lat="42.53253" lon="2.45225">
        <ele>2341.7</ele>
        <time>2020-08-31T10:20:44.067Z</time>
      </trkpt>
      <trkpt lat="42.53255" lon="2.45225">
        <ele>2341.6</ele>
        <time>2020-08-31T10:20:44.591Z</time>
      </trkpt>
      <trkpt lat="42.53256" lon="2.45225">
        <ele>2341.4</ele>
        <time>2020-08-31T10:20:44.841Z</time>
      </trkpt>
      <trkpt lat="42.53258" lon="2.45226">
        <ele>2341.4</ele>
        <time>2020-08-31T10:20:47.599Z</time>
      </trkpt>
      <trkpt lat="42.53259" lon="2.45226">
        <ele>2341.3</ele>
        <time>2020-08-31T10:20:47.849Z</time>
      </trkpt>
      <trkpt lat="42.53261" lon="2.45226">
        <ele>2340.9</ele>
        <time>2020-08-31T10:20:48.349Z</time>
      </trkpt>
      <trkpt lat="42.53263" lon="2.45225">
        <ele>2340.5</ele>
        <time>2020-08-31T10:20:48.881Z</time>
      </trkpt>
      <trkpt lat="42.53266" lon="2.45222">
        <ele>2339.7</ele>
        <time>2020-08-31T10:20:49.812Z</time>
      </trkpt>
      <trkpt lat="42.53274" lon="2.45212">
        <ele>2337.7</ele>
        <time>2020-08-31T10:20:52.529Z</time>
      </trkpt>
      <trkpt lat="42.53281" lon="2.452">
        <ele>2336.2</ele>
        <time>2020-08-31T10:20:55.346Z</time>
      </trkpt>
      <trkpt lat="42.53285" lon="2.45193">
        <ele>2335.4</ele>
        <time>2020-08-31T10:20:56.977Z</time>
      </trkpt>
      <trkpt lat="42.53288" lon="2.45186">
        <ele>2334.8</ele>
        <time>2020-08-31T10:20:58.467Z</time>
      </trkpt>
      <trkpt lat="42.5329" lon="2.45182">
        <ele>2334.5</ele>
        <time>2020-08-31T10:20:59.357Z</time>
      </trkpt>
      <trkpt lat="42.53291" lon="2.4518">
        <ele>2334.3</ele>
        <time>2020-08-31T10:20:59.802Z</time>
      </trkpt>
      <trkpt lat="42.53291" lon="2.45179">
        <ele>2334.1</ele>
        <time>2020-08-31T10:20:59.986Z</time>
      </trkpt>
      <trkpt lat="42.53292" lon="2.45181">
        <ele>2334</ele>
        <time>2020-08-31T10:21:00.429Z</time>
      </trkpt>
      <trkpt lat="42.53292" lon="2.45182">
        <ele>2334</ele>
        <time>2020-08-31T10:21:01.382Z</time>
      </trkpt>
      <trkpt lat="42.53292" lon="2.45185">
        <ele>2334</ele>
        <time>2020-08-31T10:21:04.243Z</time>
      </trkpt>
      <trkpt lat="42.53292" lon="2.4519">
        <ele>2334.1</ele>
        <time>2020-08-31T10:21:10.588Z</time>
      </trkpt>
      <trkpt lat="42.53292" lon="2.4519">
        <ele>2334.1</ele>
        <time>2020-08-31T10:21:10.588Z</time>
      </trkpt>
      <trkpt lat="42.53292" lon="2.45206">
        <ele>2334.4</ele>
        <time>2020-08-31T10:21:30.481Z</time>
      </trkpt>
      <trkpt lat="42.53298" lon="2.45257">
        <ele>2331</ele>
        <time>2020-08-31T10:21:39.988Z</time>
      </trkpt>
      <trkpt lat="42.53303" lon="2.4528">
        <ele>2329.6</ele>
        <time>2020-08-31T10:21:44.402Z</time>
      </trkpt>
      <trkpt lat="42.53304" lon="2.45285">
        <ele>2329.2</ele>
        <time>2020-08-31T10:21:45.355Z</time>
      </trkpt>
      <trkpt lat="42.53311" lon="2.45321">
        <ele>2323.9</ele>
        <time>2020-08-31T10:21:52.209Z</time>
      </trkpt>
      <trkpt lat="42.53312" lon="2.45334">
        <ele>2316.2</ele>
        <time>2020-08-31T10:21:54.615Z</time>
      </trkpt>
      <trkpt lat="42.53312" lon="2.45344">
        <ele>2316.2</ele>
        <time>2020-08-31T10:22:04.150Z</time>
      </trkpt>
      <trkpt lat="42.53313" lon="2.45378">
        <ele>2315.1</ele>
        <time>2020-08-31T10:22:11.087Z</time>
      </trkpt>
      <trkpt lat="42.53314" lon="2.45415">
        <ele>2308.5</ele>
        <time>2020-08-31T10:22:17.902Z</time>
      </trkpt>
      <trkpt lat="42.53318" lon="2.45413">
        <ele>2306.7</ele>
        <time>2020-08-31T10:22:18.967Z</time>
      </trkpt>
      <trkpt lat="42.53355" lon="2.45384">
        <ele>2285.8</ele>
        <time>2020-08-31T10:22:29.640Z</time>
      </trkpt>
      <trkpt lat="42.53362" lon="2.45379">
        <ele>2284.7</ele>
        <time>2020-08-31T10:22:31.616Z</time>
      </trkpt>
      <trkpt lat="42.53372" lon="2.45368">
        <ele>2282.8</ele>
        <time>2020-08-31T10:22:34.832Z</time>
      </trkpt>
      <trkpt lat="42.53377" lon="2.45357">
        <ele>2281.6</ele>
        <time>2020-08-31T10:22:37.211Z</time>
      </trkpt>
      <trkpt lat="42.53378" lon="2.45356">
        <ele>2281.4</ele>
        <time>2020-08-31T10:22:37.521Z</time>
      </trkpt>
      <trkpt lat="42.53378" lon="2.45354">
        <ele>2281.3</ele>
        <time>2020-08-31T10:22:37.889Z</time>
      </trkpt>
      <trkpt lat="42.53379" lon="2.45353">
        <ele>2281.2</ele>
        <time>2020-08-31T10:22:38.199Z</time>
      </trkpt>
      <trkpt lat="42.53379" lon="2.45353">
        <ele>2280.9</ele>
        <time>2020-08-31T10:22:38.199Z</time>
      </trkpt>
      <trkpt lat="42.5338" lon="2.45354">
        <ele>2280.7</ele>
        <time>2020-08-31T10:22:38.510Z</time>
      </trkpt>
      <trkpt lat="42.5338" lon="2.45355">
        <ele>2280.6</ele>
        <time>2020-08-31T10:22:38.694Z</time>
      </trkpt>
      <trkpt lat="42.5338" lon="2.45356">
        <ele>2280.6</ele>
        <time>2020-08-31T10:22:39.647Z</time>
      </trkpt>
      <trkpt lat="42.5338" lon="2.45357">
        <ele>2280.6</ele>
        <time>2020-08-31T10:22:40.601Z</time>
      </trkpt>
      <trkpt lat="42.5338" lon="2.45365">
        <ele>2280.8</ele>
        <time>2020-08-31T10:22:51.668Z</time>
      </trkpt>
      <trkpt lat="42.53379" lon="2.45389">
        <ele>2280.5</ele>
        <time>2020-08-31T10:22:58.174Z</time>
      </trkpt>
      <trkpt lat="42.53378" lon="2.45407">
        <ele>2280.1</ele>
        <time>2020-08-31T10:23:02.386Z</time>
      </trkpt>
      <trkpt lat="42.53378" lon="2.45408">
        <ele>2280.1</ele>
        <time>2020-08-31T10:23:03.340Z</time>
      </trkpt>
      <trkpt lat="42.53377" lon="2.45412">
        <ele>2280.3</ele>
        <time>2020-08-31T10:23:11.108Z</time>
      </trkpt>
      <trkpt lat="42.53375" lon="2.45413">
        <ele>2280.7</ele>
        <time>2020-08-31T10:23:21.746Z</time>
      </trkpt>
      <trkpt lat="42.53374" lon="2.45416">
        <ele>2281</ele>
        <time>2020-08-31T10:23:32.356Z</time>
      </trkpt>
      <trkpt lat="42.53374" lon="2.45419">
        <ele>2275.8</ele>
        <time>2020-08-31T10:23:32.908Z</time>
      </trkpt>
      <trkpt lat="42.53374" lon="2.45423">
        <ele>2275.6</ele>
        <time>2020-08-31T10:23:33.644Z</time>
      </trkpt>
      <trkpt lat="42.53374" lon="2.45429">
        <ele>2275.3</ele>
        <time>2020-08-31T10:23:34.748Z</time>
      </trkpt>
      <trkpt lat="42.53374" lon="2.45432">
        <ele>2275.1</ele>
        <time>2020-08-31T10:23:35.301Z</time>
      </trkpt>
      <trkpt lat="42.53374" lon="2.45434">
        <ele>2275</ele>
        <time>2020-08-31T10:23:35.669Z</time>
      </trkpt>
      <trkpt lat="42.53374" lon="2.45436">
        <ele>2275</ele>
        <time>2020-08-31T10:23:37.576Z</time>
      </trkpt>
      <trkpt lat="42.53373" lon="2.4544">
        <ele>2274.9</ele>
        <time>2020-08-31T10:23:38.541Z</time>
      </trkpt>
      <trkpt lat="42.53373" lon="2.45442">
        <ele>2274.9</ele>
        <time>2020-08-31T10:23:40.448Z</time>
      </trkpt>
      <trkpt lat="42.53373" lon="2.45445">
        <ele>2274.6</ele>
        <time>2020-08-31T10:23:41.000Z</time>
      </trkpt>
      <trkpt lat="42.53373" lon="2.45448">
        <ele>2274.3</ele>
        <time>2020-08-31T10:23:41.552Z</time>
      </trkpt>
      <trkpt lat="42.53373" lon="2.45451">
        <ele>2274.2</ele>
        <time>2020-08-31T10:23:42.156Z</time>
      </trkpt>
      <trkpt lat="42.53373" lon="2.45456">
        <ele>2273.8</ele>
        <time>2020-08-31T10:23:43.077Z</time>
      </trkpt>
      <trkpt lat="42.53373" lon="2.45463">
        <ele>2273.3</ele>
        <time>2020-08-31T10:23:44.365Z</time>
      </trkpt>
      <trkpt lat="42.53372" lon="2.45471">
        <ele>2273</ele>
        <time>2020-08-31T10:23:45.929Z</time>
      </trkpt>
      <trkpt lat="42.53371" lon="2.45476">
        <ele>2272.8</ele>
        <time>2020-08-31T10:23:46.908Z</time>
      </trkpt>
      <trkpt lat="42.53371" lon="2.4548">
        <ele>2272.7</ele>
        <time>2020-08-31T10:23:47.806Z</time>
      </trkpt>
      <trkpt lat="42.53371" lon="2.45484">
        <ele>2272.6</ele>
        <time>2020-08-31T10:23:48.703Z</time>
      </trkpt>
      <trkpt lat="42.5337" lon="2.45486">
        <ele>2272.8</ele>
        <time>2020-08-31T10:23:55.512Z</time>
      </trkpt>
      <trkpt lat="42.53369" lon="2.45487">
        <ele>2272.9</ele>
        <time>2020-08-31T10:23:59.024Z</time>
      </trkpt>
      <trkpt lat="42.5337" lon="2.45489">
        <ele>2272.7</ele>
        <time>2020-08-31T10:23:59.469Z</time>
      </trkpt>
      <trkpt lat="42.5337" lon="2.45493">
        <ele>2272.5</ele>
        <time>2020-08-31T10:24:00.206Z</time>
      </trkpt>
      <trkpt lat="42.5337" lon="2.45496">
        <ele>2272.4</ele>
        <time>2020-08-31T10:24:00.810Z</time>
      </trkpt>
      <trkpt lat="42.5337" lon="2.45498">
        <ele>2272.4</ele>
        <time>2020-08-31T10:24:02.717Z</time>
      </trkpt>
      <trkpt lat="42.53369" lon="2.455">
        <ele>2263.6</ele>
        <time>2020-08-31T10:24:03.162Z</time>
      </trkpt>
      <trkpt lat="42.53368" lon="2.45505">
        <ele>2263.8</ele>
        <time>2020-08-31T10:24:11.937Z</time>
      </trkpt>
      <trkpt lat="42.53365" lon="2.45513">
        <ele>2264.1</ele>
        <time>2020-08-31T10:24:26.461Z</time>
      </trkpt>
      <trkpt lat="42.53363" lon="2.45519">
        <ele>2263.7</ele>
        <time>2020-08-31T10:24:27.673Z</time>
      </trkpt>
      <trkpt lat="42.53364" lon="2.45521">
        <ele>2263.3</ele>
        <time>2020-08-31T10:24:28.118Z</time>
      </trkpt>
      <trkpt lat="42.53364" lon="2.45523">
        <ele>2263.1</ele>
        <time>2020-08-31T10:24:28.486Z</time>
      </trkpt>
      <trkpt lat="42.53363" lon="2.45526">
        <ele>2262.8</ele>
        <time>2020-08-31T10:24:29.092Z</time>
      </trkpt>
      <trkpt lat="42.53362" lon="2.45529">
        <ele>2262.7</ele>
        <time>2020-08-31T10:24:29.780Z</time>
      </trkpt>
      <trkpt lat="42.53357" lon="2.45543">
        <ele>2261.5</ele>
        <time>2020-08-31T10:24:32.644Z</time>
      </trkpt>
      <trkpt lat="42.53351" lon="2.45561">
        <ele>2260.8</ele>
        <time>2020-08-31T10:24:36.522Z</time>
      </trkpt>
      <trkpt lat="42.53337" lon="2.45596">
        <ele>2254.4</ele>
        <time>2020-08-31T10:24:43.852Z</time>
      </trkpt>
      <trkpt lat="42.53333" lon="2.4562">
        <ele>2263.3</ele>
        <time>2020-08-31T10:26:14.351Z</time>
      </trkpt>
      <trkpt lat="42.53328" lon="2.45644">
        <ele>2258</ele>
        <time>2020-08-31T10:26:18.942Z</time>
      </trkpt>
      <trkpt lat="42.53322" lon="2.45655">
        <ele>2254.7</ele>
        <time>2020-08-31T10:26:21.461Z</time>
      </trkpt>
      <trkpt lat="42.5332" lon="2.45663">
        <ele>2253.6</ele>
        <time>2020-08-31T10:26:23.016Z</time>
      </trkpt>
      <trkpt lat="42.53318" lon="2.45673">
        <ele>2244</ele>
        <time>2020-08-31T10:26:24.924Z</time>
      </trkpt>
      <trkpt lat="42.53318" lon="2.45684">
        <ele>2243.5</ele>
        <time>2020-08-31T10:26:26.852Z</time>
      </trkpt>
      <trkpt lat="42.53313" lon="2.45697">
        <ele>2242.6</ele>
        <time>2020-08-31T10:26:29.551Z</time>
      </trkpt>
      <trkpt lat="42.53312" lon="2.4571">
        <ele>2240.5</ele>
        <time>2020-08-31T10:26:31.957Z</time>
      </trkpt>
      <trkpt lat="42.53302" lon="2.45727">
        <ele>2239</ele>
        <time>2020-08-31T10:26:35.961Z</time>
      </trkpt>
      <trkpt lat="42.5329" lon="2.45755">
        <ele>2221.2</ele>
        <time>2020-08-31T10:26:41.923Z</time>
      </trkpt>
      <trkpt lat="42.53283" lon="2.45765">
        <ele>2221.4</ele>
        <time>2020-08-31T10:26:57.967Z</time>
      </trkpt>
      <trkpt lat="42.53246" lon="2.45792">
        <ele>2231.6</ele>
        <time>2020-08-31T10:30:27.646Z</time>
      </trkpt>
      <trkpt lat="42.53224" lon="2.45805">
        <ele>2230.6</ele>
        <time>2020-08-31T10:30:34.420Z</time>
      </trkpt>
      <trkpt lat="42.53206" lon="2.45812">
        <ele>2232.4</ele>
        <time>2020-08-31T10:31:35.140Z</time>
      </trkpt>
      <trkpt lat="42.53197" lon="2.45815">
        <ele>2233.1</ele>
        <time>2020-08-31T10:32:00.322Z</time>
      </trkpt>
      <trkpt lat="42.5319" lon="2.45821">
        <ele>2232.9</ele>
        <time>2020-08-31T10:32:03.117Z</time>
      </trkpt>
      <trkpt lat="42.5318" lon="2.45834">
        <ele>2219.3</ele>
        <time>2020-08-31T10:32:06.576Z</time>
      </trkpt>
      <trkpt lat="42.53171" lon="2.45848">
        <ele>2217.8</ele>
        <time>2020-08-31T10:32:09.996Z</time>
      </trkpt>
      <trkpt lat="42.53156" lon="2.45873">
        <ele>2221.4</ele>
        <time>2020-08-31T10:34:08.571Z</time>
      </trkpt>
      <trkpt lat="42.53144" lon="2.45897">
        <ele>2216.6</ele>
        <time>2020-08-31T10:34:13.910Z</time>
      </trkpt>
      <trkpt lat="42.53138" lon="2.45908">
        <ele>2215.9</ele>
        <time>2020-08-31T10:34:16.429Z</time>
      </trkpt>
      <trkpt lat="42.53133" lon="2.45923">
        <ele>2202.3</ele>
        <time>2020-08-31T10:34:19.459Z</time>
      </trkpt>
      <trkpt lat="42.5313" lon="2.45931">
        <ele>2202.4</ele>
        <time>2020-08-31T10:34:29.395Z</time>
      </trkpt>
      <trkpt lat="42.53127" lon="2.45938">
        <ele>2202.3</ele>
        <time>2020-08-31T10:34:31.591Z</time>
      </trkpt>
      <trkpt lat="42.53126" lon="2.45943">
        <ele>2202</ele>
        <time>2020-08-31T10:34:32.545Z</time>
      </trkpt>
      <trkpt lat="42.53126" lon="2.45947">
        <ele>2201.8</ele>
        <time>2020-08-31T10:34:33.281Z</time>
      </trkpt>
      <trkpt lat="42.53126" lon="2.45964">
        <ele>2200</ele>
        <time>2020-08-31T10:34:36.410Z</time>
      </trkpt>
      <trkpt lat="42.53131" lon="2.45973">
        <ele>2198.5</ele>
        <time>2020-08-31T10:34:38.485Z</time>
      </trkpt>
      <trkpt lat="42.5314" lon="2.45992">
        <ele>2194.6</ele>
        <time>2020-08-31T10:34:42.643Z</time>
      </trkpt>
      <trkpt lat="42.53141" lon="2.45994">
        <ele>2194.2</ele>
        <time>2020-08-31T10:34:43.088Z</time>
        <extensions>
          <visugpx:TrkExtension xmlns:visugpx="https://www.visugpx.com/editgpx/">
            <visugpx:node>13</visugpx:node>
            </visugpx:TrkExtension>
        </extensions>
      </trkpt>
      <trkpt lat="42.53152" lon="2.46015">
        <ele>2186.9</ele>
        <time>2020-08-31T10:34:47.831Z</time>
      </trkpt>
      <trkpt lat="42.53157" lon="2.46023">
        <ele>2187</ele>
        <time>2020-08-31T10:34:59.178Z</time>
      </trkpt>
      <trkpt lat="42.53169" lon="2.46035">
        <ele>2178.2</ele>
        <time>2020-08-31T10:35:02.901Z</time>
      </trkpt>
      <trkpt lat="42.5317" lon="2.46037">
        <ele>2178.1</ele>
        <time>2020-08-31T10:35:03.344Z</time>
      </trkpt>
      <trkpt lat="42.53171" lon="2.46042">
        <ele>2178</ele>
        <time>2020-08-31T10:35:04.605Z</time>
      </trkpt>
      <trkpt lat="42.53172" lon="2.46046">
        <ele>2177.9</ele>
        <time>2020-08-31T10:35:05.570Z</time>
      </trkpt>
      <trkpt lat="42.53173" lon="2.46051">
        <ele>2177.9</ele>
        <time>2020-08-31T10:35:10.510Z</time>
      </trkpt>
      <trkpt lat="42.53174" lon="2.46056">
        <ele>2177.9</ele>
        <time>2020-08-31T10:35:15.450Z</time>
      </trkpt>
      <trkpt lat="42.53175" lon="2.46058">
        <ele>2177.9</ele>
        <time>2020-08-31T10:35:17.755Z</time>
      </trkpt>
      <trkpt lat="42.53177" lon="2.46062">
        <ele>2177.9</ele>
        <time>2020-08-31T10:35:22.364Z</time>
      </trkpt>
      <trkpt lat="42.53181" lon="2.46064">
        <ele>2177.8</ele>
        <time>2020-08-31T10:35:23.815Z</time>
      </trkpt>
      <trkpt lat="42.53184" lon="2.46065">
        <ele>2177.7</ele>
        <time>2020-08-31T10:35:24.770Z</time>
      </trkpt>
      <trkpt lat="42.53187" lon="2.46065">
        <ele>2177.5</ele>
        <time>2020-08-31T10:35:25.456Z</time>
      </trkpt>
      <trkpt lat="42.53191" lon="2.46066">
        <ele>2177.3</ele>
        <time>2020-08-31T10:35:26.529Z</time>
      </trkpt>
      <trkpt lat="42.53195" lon="2.46067">
        <ele>2177.1</ele>
        <time>2020-08-31T10:35:27.603Z</time>
      </trkpt>
      <trkpt lat="42.53197" lon="2.46067">
        <ele>2176.9</ele>
        <time>2020-08-31T10:35:28.102Z</time>
      </trkpt>
      <trkpt lat="42.532" lon="2.46069">
        <ele>2176.7</ele>
        <time>2020-08-31T10:35:28.909Z</time>
      </trkpt>
      <trkpt lat="42.53202" lon="2.4607">
        <ele>2176.6</ele>
        <time>2020-08-31T10:35:29.482Z</time>
      </trkpt>
      <trkpt lat="42.53204" lon="2.46071">
        <ele>2176.5</ele>
        <time>2020-08-31T10:35:30.056Z</time>
      </trkpt>
      <trkpt lat="42.53206" lon="2.46073">
        <ele>2176.3</ele>
        <time>2020-08-31T10:35:30.677Z</time>
      </trkpt>
      <trkpt lat="42.53208" lon="2.46076">
        <ele>2176.2</ele>
        <time>2020-08-31T10:35:31.588Z</time>
      </trkpt>
      <trkpt lat="42.5321" lon="2.46078">
        <ele>2176</ele>
        <time>2020-08-31T10:35:32.208Z</time>
      </trkpt>
      <trkpt lat="42.53213" lon="2.4608">
        <ele>2175.8</ele>
        <time>2020-08-31T10:35:33.015Z</time>
      </trkpt>
      <trkpt lat="42.53215" lon="2.46082">
        <ele>2175.6</ele>
        <time>2020-08-31T10:35:33.635Z</time>
      </trkpt>
      <trkpt lat="42.53218" lon="2.46084">
        <ele>2173.7</ele>
        <time>2020-08-31T10:35:34.470Z</time>
      </trkpt>
      <trkpt lat="42.53221" lon="2.46084">
        <ele>2173.5</ele>
        <time>2020-08-31T10:35:35.157Z</time>
      </trkpt>
      <trkpt lat="42.53224" lon="2.46085">
        <ele>2173.3</ele>
        <time>2020-08-31T10:35:35.874Z</time>
      </trkpt>
      <trkpt lat="42.53227" lon="2.46085">
        <ele>2173.2</ele>
        <time>2020-08-31T10:35:36.793Z</time>
      </trkpt>
      <trkpt lat="42.5323" lon="2.46086">
        <ele>2173</ele>
        <time>2020-08-31T10:35:37.510Z</time>
      </trkpt>
      <trkpt lat="42.53233" lon="2.46088">
        <ele>2172.9</ele>
        <time>2020-08-31T10:35:38.570Z</time>
      </trkpt>
      <trkpt lat="42.53236" lon="2.4609">
        <ele>2172.8</ele>
        <time>2020-08-31T10:35:39.631Z</time>
      </trkpt>
      <trkpt lat="42.53239" lon="2.46091">
        <ele>2172.7</ele>
        <time>2020-08-31T10:35:40.586Z</time>
      </trkpt>
      <trkpt lat="42.53241" lon="2.46093">
        <ele>2172.6</ele>
        <time>2020-08-31T10:35:41.297Z</time>
      </trkpt>
      <trkpt lat="42.53244" lon="2.46094">
        <ele>2172.5</ele>
        <time>2020-08-31T10:35:42.252Z</time>
      </trkpt>
      <trkpt lat="42.53247" lon="2.46096">
        <ele>2172.5</ele>
        <time>2020-08-31T10:35:46.577Z</time>
      </trkpt>
      <trkpt lat="42.5325" lon="2.46098">
        <ele>2168.1</ele>
        <time>2020-08-31T10:35:47.412Z</time>
      </trkpt>
      <trkpt lat="42.53253" lon="2.46101">
        <ele>2167.6</ele>
        <time>2020-08-31T10:35:48.343Z</time>
      </trkpt>
      <trkpt lat="42.53257" lon="2.46104">
        <ele>2166.9</ele>
        <time>2020-08-31T10:35:49.485Z</time>
      </trkpt>
      <trkpt lat="42.53261" lon="2.46106">
        <ele>2166.4</ele>
        <time>2020-08-31T10:35:50.549Z</time>
      </trkpt>
      <trkpt lat="42.53263" lon="2.46108">
        <ele>2166</ele>
        <time>2020-08-31T10:35:51.170Z</time>
      </trkpt>
      <trkpt lat="42.53265" lon="2.46109">
        <ele>2165.8</ele>
        <time>2020-08-31T10:35:51.702Z</time>
      </trkpt>
      <trkpt lat="42.53267" lon="2.46111">
        <ele>2165.5</ele>
        <time>2020-08-31T10:35:52.323Z</time>
      </trkpt>
      <trkpt lat="42.53268" lon="2.46113">
        <ele>2165.2</ele>
        <time>2020-08-31T10:35:52.768Z</time>
      </trkpt>
      <trkpt lat="42.5327" lon="2.46115">
        <ele>2165</ele>
        <time>2020-08-31T10:35:53.388Z</time>
      </trkpt>
      <trkpt lat="42.53271" lon="2.46118">
        <ele>2164.8</ele>
        <time>2020-08-31T10:35:53.995Z</time>
      </trkpt>
      <trkpt lat="42.53278" lon="2.4613">
        <ele>2164</ele>
        <time>2020-08-31T10:35:56.812Z</time>
      </trkpt>
      <trkpt lat="42.53279" lon="2.46132">
        <ele>2163.8</ele>
        <time>2020-08-31T10:35:57.257Z</time>
      </trkpt>
      <trkpt lat="42.53281" lon="2.46137">
        <ele>2163.6</ele>
        <time>2020-08-31T10:35:58.377Z</time>
      </trkpt>
      <trkpt lat="42.53282" lon="2.4614">
        <ele>2163.5</ele>
        <time>2020-08-31T10:35:59.065Z</time>
      </trkpt>
      <trkpt lat="42.53284" lon="2.46144">
        <ele>2163.4</ele>
        <time>2020-08-31T10:36:00.217Z</time>
      </trkpt>
      <trkpt lat="42.53284" lon="2.46148">
        <ele>2163.3</ele>
        <time>2020-08-31T10:36:01.114Z</time>
      </trkpt>
      <trkpt lat="42.53285" lon="2.46151">
        <ele>2163.2</ele>
        <time>2020-08-31T10:36:01.802Z</time>
      </trkpt>
      <trkpt lat="42.53285" lon="2.46156">
        <ele>2163.1</ele>
        <time>2020-08-31T10:36:03.006Z</time>
      </trkpt>
      <trkpt lat="42.53286" lon="2.46165">
        <ele>2163.1</ele>
        <time>2020-08-31T10:36:11.685Z</time>
      </trkpt>
      <trkpt lat="42.53285" lon="2.46168">
        <ele>2163.9</ele>
        <time>2020-08-31T10:36:23.795Z</time>
      </trkpt>
      <trkpt lat="42.53285" lon="2.46176">
        <ele>2164</ele>
        <time>2020-08-31T10:36:32.827Z</time>
      </trkpt>
      <trkpt lat="42.53285" lon="2.4618">
        <ele>2164</ele>
        <time>2020-08-31T10:36:36.641Z</time>
      </trkpt>
      <trkpt lat="42.53285" lon="2.46185">
        <ele>2164</ele>
        <time>2020-08-31T10:36:41.409Z</time>
      </trkpt>
      <trkpt lat="42.53285" lon="2.46189">
        <ele>2164.1</ele>
        <time>2020-08-31T10:36:46.942Z</time>
      </trkpt>
      <trkpt lat="42.53286" lon="2.46193">
        <ele>2164.2</ele>
        <time>2020-08-31T10:36:52.650Z</time>
      </trkpt>
      <trkpt lat="42.53286" lon="2.46197">
        <ele>2164.2</ele>
        <time>2020-08-31T10:36:56.464Z</time>
      </trkpt>
      <trkpt lat="42.53286" lon="2.462">
        <ele>2164.2</ele>
        <time>2020-08-31T10:36:59.324Z</time>
      </trkpt>
      <trkpt lat="42.53287" lon="2.46202">
        <ele>2164.3</ele>
        <time>2020-08-31T10:37:03.523Z</time>
      </trkpt>
      <trkpt lat="42.53287" lon="2.46204">
        <ele>2164.3</ele>
        <time>2020-08-31T10:37:05.430Z</time>
      </trkpt>
      <trkpt lat="42.53288" lon="2.46207">
        <ele>2164.3</ele>
        <time>2020-08-31T10:37:08.570Z</time>
      </trkpt>
      <trkpt lat="42.53289" lon="2.46208">
        <ele>2164.2</ele>
        <time>2020-08-31T10:37:08.880Z</time>
      </trkpt>
      <trkpt lat="42.53291" lon="2.4621">
        <ele>2164.1</ele>
        <time>2020-08-31T10:37:09.591Z</time>
      </trkpt>
      <trkpt lat="42.53292" lon="2.46212">
        <ele>2164.1</ele>
        <time>2020-08-31T10:37:11.896Z</time>
      </trkpt>
      <trkpt lat="42.53295" lon="2.46213">
        <ele>2163.9</ele>
        <time>2020-08-31T10:37:12.613Z</time>
      </trkpt>
      <trkpt lat="42.53296" lon="2.46214">
        <ele>2163.8</ele>
        <time>2020-08-31T10:37:12.924Z</time>
      </trkpt>
      <trkpt lat="42.53298" lon="2.46215">
        <ele>2163.7</ele>
        <time>2020-08-31T10:37:13.497Z</time>
      </trkpt>
      <trkpt lat="42.533" lon="2.46217">
        <ele>2163.5</ele>
        <time>2020-08-31T10:37:14.118Z</time>
      </trkpt>
      <trkpt lat="42.53303" lon="2.46218">
        <ele>2163.4</ele>
        <time>2020-08-31T10:37:15.073Z</time>
      </trkpt>
      <trkpt lat="42.53305" lon="2.4622">
        <ele>2163.2</ele>
        <time>2020-08-31T10:37:15.694Z</time>
      </trkpt>
      <trkpt lat="42.53308" lon="2.46222">
        <ele>2163</ele>
        <time>2020-08-31T10:37:16.500Z</time>
      </trkpt>
      <trkpt lat="42.5331" lon="2.46224">
        <ele>2162.9</ele>
        <time>2020-08-31T10:37:17.211Z</time>
      </trkpt>
      <trkpt lat="42.53314" lon="2.46227">
        <ele>2162.7</ele>
        <time>2020-08-31T10:37:18.477Z</time>
      </trkpt>
      <trkpt lat="42.53317" lon="2.4623">
        <ele>2162.5</ele>
        <time>2020-08-31T10:37:19.423Z</time>
      </trkpt>
      <trkpt lat="42.53319" lon="2.46233">
        <ele>2162.2</ele>
        <time>2020-08-31T10:37:20.167Z</time>
      </trkpt>
      <trkpt lat="42.53322" lon="2.46236">
        <ele>2162</ele>
        <time>2020-08-31T10:37:21.113Z</time>
      </trkpt>
      <trkpt lat="42.53323" lon="2.46239">
        <ele>2161.8</ele>
        <time>2020-08-31T10:37:21.719Z</time>
      </trkpt>
      <trkpt lat="42.53325" lon="2.46243">
        <ele>2161.4</ele>
        <time>2020-08-31T10:37:22.609Z</time>
      </trkpt>
      <trkpt lat="42.53326" lon="2.46246">
        <ele>2161.1</ele>
        <time>2020-08-31T10:37:23.215Z</time>
      </trkpt>
      <trkpt lat="42.53327" lon="2.4625">
        <ele>2160.9</ele>
        <time>2020-08-31T10:37:23.941Z</time>
      </trkpt>
      <trkpt lat="42.53328" lon="2.46256">
        <ele>2160.9</ele>
        <time>2020-08-31T10:37:29.806Z</time>
      </trkpt>
      <trkpt lat="42.53328" lon="2.4626">
        <ele>2161.1</ele>
        <time>2020-08-31T10:37:37.359Z</time>
      </trkpt>
      <trkpt lat="42.53327" lon="2.46263">
        <ele>2161.3</ele>
        <time>2020-08-31T10:37:44.330Z</time>
      </trkpt>
      <trkpt lat="42.53327" lon="2.46266">
        <ele>2161.3</ele>
        <time>2020-08-31T10:37:47.191Z</time>
      </trkpt>
      <trkpt lat="42.53327" lon="2.46268">
        <ele>2161.4</ele>
        <time>2020-08-31T10:37:50.967Z</time>
      </trkpt>
      <trkpt lat="42.53326" lon="2.46271">
        <ele>2161.5</ele>
        <time>2020-08-31T10:37:56.011Z</time>
      </trkpt>
      <trkpt lat="42.53325" lon="2.46273">
        <ele>2161.5</ele>
        <time>2020-08-31T10:37:58.316Z</time>
      </trkpt>
      <trkpt lat="42.53325" lon="2.46277">
        <ele>2161.6</ele>
        <time>2020-08-31T10:38:03.849Z</time>
      </trkpt>
      <trkpt lat="42.53324" lon="2.4628">
        <ele>2161.5</ele>
        <time>2020-08-31T10:38:04.537Z</time>
      </trkpt>
      <trkpt lat="42.53324" lon="2.46286">
        <ele>2161.4</ele>
        <time>2020-08-31T10:38:06.056Z</time>
      </trkpt>
      <trkpt lat="42.53323" lon="2.4629">
        <ele>2161.3</ele>
        <time>2020-08-31T10:38:07.021Z</time>
      </trkpt>
      <trkpt lat="42.53322" lon="2.46296">
        <ele>2161.1</ele>
        <time>2020-08-31T10:38:08.272Z</time>
      </trkpt>
      <trkpt lat="42.53321" lon="2.46297">
        <ele>2161</ele>
        <time>2020-08-31T10:38:08.583Z</time>
      </trkpt>
      <trkpt lat="42.53319" lon="2.46299">
        <ele>2161</ele>
        <time>2020-08-31T10:38:11.797Z</time>
      </trkpt>
      <trkpt lat="42.53317" lon="2.46301">
        <ele>2161</ele>
        <time>2020-08-31T10:38:15.012Z</time>
      </trkpt>
      <trkpt lat="42.53315" lon="2.46303">
        <ele>2161</ele>
        <time>2020-08-31T10:38:18.227Z</time>
      </trkpt>
      <trkpt lat="42.53313" lon="2.46304">
        <ele>2161</ele>
        <time>2020-08-31T10:38:20.985Z</time>
      </trkpt>
      <trkpt lat="42.53311" lon="2.46306">
        <ele>2161.1</ele>
        <time>2020-08-31T10:38:26.077Z</time>
      </trkpt>
      <trkpt lat="42.5331" lon="2.46307">
        <ele>2161.1</ele>
        <time>2020-08-31T10:38:27.685Z</time>
      </trkpt>
      <trkpt lat="42.53308" lon="2.46308">
        <ele>2161.2</ele>
        <time>2020-08-31T10:38:32.412Z</time>
      </trkpt>
      <trkpt lat="42.53305" lon="2.46309">
        <ele>2161.3</ele>
        <time>2020-08-31T10:38:38.094Z</time>
      </trkpt>
      <trkpt lat="42.53303" lon="2.46311">
        <ele>2161.4</ele>
        <time>2020-08-31T10:38:43.186Z</time>
      </trkpt>
      <trkpt lat="42.53301" lon="2.46312">
        <ele>2161.5</ele>
        <time>2020-08-31T10:38:47.913Z</time>
      </trkpt>
      <trkpt lat="42.53299" lon="2.46313">
        <ele>2161.6</ele>
        <time>2020-08-31T10:38:52.641Z</time>
      </trkpt>
      <trkpt lat="42.53298" lon="2.46315">
        <ele>2161.7</ele>
        <time>2020-08-31T10:38:56.840Z</time>
      </trkpt>
      <trkpt lat="42.53296" lon="2.46316">
        <ele>2161.7</ele>
        <time>2020-08-31T10:38:59.598Z</time>
      </trkpt>
      <trkpt lat="42.53295" lon="2.46319">
        <ele>2161.7</ele>
        <time>2020-08-31T10:39:02.737Z</time>
      </trkpt>
      <trkpt lat="42.53294" lon="2.46322">
        <ele>2161.7</ele>
        <time>2020-08-31T10:39:05.877Z</time>
      </trkpt>
      <trkpt lat="42.53294" lon="2.46326">
        <ele>2161.6</ele>
        <time>2020-08-31T10:39:06.774Z</time>
      </trkpt>
      <trkpt lat="42.53294" lon="2.4633">
        <ele>2161.5</ele>
        <time>2020-08-31T10:39:07.671Z</time>
      </trkpt>
      <trkpt lat="42.53294" lon="2.46337">
        <ele>2158.2</ele>
        <time>2020-08-31T10:39:08.960Z</time>
      </trkpt>
      <trkpt lat="42.53294" lon="2.46342">
        <ele>2158.2</ele>
        <time>2020-08-31T10:39:13.727Z</time>
      </trkpt>
      <trkpt lat="42.53294" lon="2.46346">
        <ele>2158.1</ele>
        <time>2020-08-31T10:39:14.625Z</time>
      </trkpt>
      <trkpt lat="42.53294" lon="2.46349">
        <ele>2158.1</ele>
        <time>2020-08-31T10:39:17.485Z</time>
      </trkpt>
      <trkpt lat="42.53293" lon="2.46352">
        <ele>2158.1</ele>
        <time>2020-08-31T10:39:20.625Z</time>
      </trkpt>
      <trkpt lat="42.53292" lon="2.46354">
        <ele>2158.2</ele>
        <time>2020-08-31T10:39:24.824Z</time>
      </trkpt>
      <trkpt lat="42.53291" lon="2.46357">
        <ele>2158.2</ele>
        <time>2020-08-31T10:39:27.964Z</time>
      </trkpt>
      <trkpt lat="42.53289" lon="2.46361">
        <ele>2158.2</ele>
        <time>2020-08-31T10:39:32.573Z</time>
      </trkpt>
      <trkpt lat="42.53288" lon="2.46364">
        <ele>2158.1</ele>
        <time>2020-08-31T10:39:33.261Z</time>
      </trkpt>
      <trkpt lat="42.53288" lon="2.46367">
        <ele>2158.1</ele>
        <time>2020-08-31T10:39:36.121Z</time>
      </trkpt>
      <trkpt lat="42.53288" lon="2.46371">
        <ele>2158</ele>
        <time>2020-08-31T10:39:37.019Z</time>
      </trkpt>
      <trkpt lat="42.53289" lon="2.46374">
        <ele>2157.9</ele>
        <time>2020-08-31T10:39:37.707Z</time>
      </trkpt>
      <trkpt lat="42.53289" lon="2.46377">
        <ele>2157.8</ele>
        <time>2020-08-31T10:39:38.311Z</time>
      </trkpt>
      <trkpt lat="42.5329" lon="2.4638">
        <ele>2157.7</ele>
        <time>2020-08-31T10:39:38.998Z</time>
      </trkpt>
      <trkpt lat="42.53291" lon="2.46384">
        <ele>2157.6</ele>
        <time>2020-08-31T10:39:39.963Z</time>
      </trkpt>
      <trkpt lat="42.53292" lon="2.46387">
        <ele>2157.5</ele>
        <time>2020-08-31T10:39:40.651Z</time>
      </trkpt>
      <trkpt lat="42.53294" lon="2.46389">
        <ele>2157.4</ele>
        <time>2020-08-31T10:39:41.362Z</time>
      </trkpt>
      <trkpt lat="42.53295" lon="2.46391">
        <ele>2157.3</ele>
        <time>2020-08-31T10:39:41.805Z</time>
      </trkpt>
      <trkpt lat="42.53297" lon="2.46394">
        <ele>2157.2</ele>
        <time>2020-08-31T10:39:42.716Z</time>
      </trkpt>
      <trkpt lat="42.53299" lon="2.46396">
        <ele>2157.1</ele>
        <time>2020-08-31T10:39:43.427Z</time>
      </trkpt>
      <trkpt lat="42.53301" lon="2.46399">
        <ele>2156.9</ele>
        <time>2020-08-31T10:39:44.171Z</time>
      </trkpt>
      <trkpt lat="42.53303" lon="2.46401">
        <ele>2156.8</ele>
        <time>2020-08-31T10:39:44.882Z</time>
      </trkpt>
      <trkpt lat="42.53305" lon="2.46403">
        <ele>2156.7</ele>
        <time>2020-08-31T10:39:45.593Z</time>
      </trkpt>
      <trkpt lat="42.53307" lon="2.46405">
        <ele>2156.5</ele>
        <time>2020-08-31T10:39:46.214Z</time>
      </trkpt>
      <trkpt lat="42.5331" lon="2.46406">
        <ele>2156.3</ele>
        <time>2020-08-31T10:39:46.931Z</time>
      </trkpt>
      <trkpt lat="42.53313" lon="2.46407">
        <ele>2156.2</ele>
        <time>2020-08-31T10:39:47.886Z</time>
      </trkpt>
      <trkpt lat="42.53315" lon="2.46407">
        <ele>2156</ele>
        <time>2020-08-31T10:39:48.386Z</time>
      </trkpt>
      <trkpt lat="42.53318" lon="2.46408">
        <ele>2155.8</ele>
        <time>2020-08-31T10:39:49.103Z</time>
      </trkpt>
      <trkpt lat="42.5332" lon="2.46408">
        <ele>2155.6</ele>
        <time>2020-08-31T10:39:49.603Z</time>
      </trkpt>
      <trkpt lat="42.53324" lon="2.46409">
        <ele>2155.4</ele>
        <time>2020-08-31T10:39:50.676Z</time>
      </trkpt>
      <trkpt lat="42.53339" lon="2.46409">
        <ele>2153.6</ele>
        <time>2020-08-31T10:39:54.423Z</time>
      </trkpt>
      <trkpt lat="42.53342" lon="2.46419">
        <ele>2155.2</ele>
        <time>2020-08-31T10:40:34.133Z</time>
      </trkpt>
      <trkpt lat="42.53345" lon="2.46426">
        <ele>2155.8</ele>
        <time>2020-08-31T10:40:54.321Z</time>
      </trkpt>
      <trkpt lat="42.53348" lon="2.46431">
        <ele>2156.3</ele>
        <time>2020-08-31T10:41:11.169Z</time>
      </trkpt>
      <trkpt lat="42.53354" lon="2.46438">
        <ele>2156.8</ele>
        <time>2020-08-31T10:41:30.766Z</time>
      </trkpt>
      <trkpt lat="42.53357" lon="2.46441">
        <ele>2157</ele>
        <time>2020-08-31T10:41:39.405Z</time>
      </trkpt>
      <trkpt lat="42.53362" lon="2.46443">
        <ele>2157.2</ele>
        <time>2020-08-31T10:41:49.806Z</time>
      </trkpt>
      <trkpt lat="42.53367" lon="2.46446">
        <ele>2157.3</ele>
        <time>2020-08-31T10:41:58.304Z</time>
      </trkpt>
      <trkpt lat="42.53372" lon="2.46449">
        <ele>2157.5</ele>
        <time>2020-08-31T10:42:08.943Z</time>
      </trkpt>
      <trkpt lat="42.53379" lon="2.46452">
        <ele>2157.6</ele>
        <time>2020-08-31T10:42:19.796Z</time>
      </trkpt>
      <trkpt lat="42.53384" lon="2.46455">
        <ele>2157.7</ele>
        <time>2020-08-31T10:42:28.294Z</time>
      </trkpt>
      <trkpt lat="42.53388" lon="2.46456">
        <ele>2157.7</ele>
        <time>2020-08-31T10:42:33.557Z</time>
      </trkpt>
      <trkpt lat="42.53393" lon="2.46458">
        <ele>2157.7</ele>
        <time>2020-08-31T10:42:40.303Z</time>
      </trkpt>
      <trkpt lat="42.53396" lon="2.4646">
        <ele>2157.7</ele>
        <time>2020-08-31T10:42:44.628Z</time>
      </trkpt>
      <trkpt lat="42.53399" lon="2.46463">
        <ele>2157.8</ele>
        <time>2020-08-31T10:42:51.021Z</time>
      </trkpt>
      <trkpt lat="42.53403" lon="2.46467">
        <ele>2157.8</ele>
        <time>2020-08-31T10:42:57.451Z</time>
      </trkpt>
      <trkpt lat="42.53406" lon="2.46471">
        <ele>2157.8</ele>
        <time>2020-08-31T10:43:02.893Z</time>
      </trkpt>
      <trkpt lat="42.53411" lon="2.46479">
        <ele>2157.9</ele>
        <time>2020-08-31T10:43:14.240Z</time>
      </trkpt>
      <trkpt lat="42.53414" lon="2.46483">
        <ele>2158</ele>
        <time>2020-08-31T10:43:21.198Z</time>
      </trkpt>
      <trkpt lat="42.53415" lon="2.46489">
        <ele>2158</ele>
        <time>2020-08-31T10:43:27.063Z</time>
      </trkpt>
      <trkpt lat="42.53417" lon="2.46508">
        <ele>2155.8</ele>
        <time>2020-08-31T10:43:30.596Z</time>
      </trkpt>
      <trkpt lat="42.53424" lon="2.46533">
        <ele>2151.4</ele>
        <time>2020-08-31T10:43:35.519Z</time>
      </trkpt>
      <trkpt lat="42.53415" lon="2.46539">
        <ele>2155.6</ele>
        <time>2020-08-31T10:44:25.567Z</time>
      </trkpt>
      <trkpt lat="42.53413" lon="2.46541">
        <ele>2155.5</ele>
        <time>2020-08-31T10:44:26.278Z</time>
      </trkpt>
      <trkpt lat="42.5341" lon="2.46542">
        <ele>2155.4</ele>
        <time>2020-08-31T10:44:27.233Z</time>
      </trkpt>
      <trkpt lat="42.53407" lon="2.46544">
        <ele>2155.3</ele>
        <time>2020-08-31T10:44:28.293Z</time>
      </trkpt>
      <trkpt lat="42.53405" lon="2.46545">
        <ele>2155.3</ele>
        <time>2020-08-31T10:44:31.051Z</time>
      </trkpt>
      <trkpt lat="42.53403" lon="2.46547">
        <ele>2155.2</ele>
        <time>2020-08-31T10:44:31.762Z</time>
      </trkpt>
      <trkpt lat="42.534" lon="2.4655">
        <ele>2155.1</ele>
        <time>2020-08-31T10:44:32.984Z</time>
      </trkpt>
      <trkpt lat="42.53398" lon="2.46552">
        <ele>2155</ele>
        <time>2020-08-31T10:44:33.694Z</time>
      </trkpt>
      <trkpt lat="42.53395" lon="2.46556">
        <ele>2155</ele>
        <time>2020-08-31T10:44:39.137Z</time>
      </trkpt>
      <trkpt lat="42.53393" lon="2.46558">
        <ele>2154.9</ele>
        <time>2020-08-31T10:44:39.847Z</time>
      </trkpt>
      <trkpt lat="42.5339" lon="2.46562">
        <ele>2154.9</ele>
        <time>2020-08-31T10:44:45.290Z</time>
      </trkpt>
      <trkpt lat="42.53388" lon="2.46565">
        <ele>2155</ele>
        <time>2020-08-31T10:44:50.858Z</time>
      </trkpt>
      <trkpt lat="42.53386" lon="2.46568">
        <ele>2155</ele>
        <time>2020-08-31T10:44:54.716Z</time>
      </trkpt>
      <trkpt lat="42.53384" lon="2.46571">
        <ele>2155.3</ele>
        <time>2020-08-31T10:45:04.810Z</time>
      </trkpt>
      <trkpt lat="42.53381" lon="2.46574">
        <ele>2155.5</ele>
        <time>2020-08-31T10:45:13.449Z</time>
      </trkpt>
      <trkpt lat="42.53378" lon="2.46575">
        <ele>2155.9</ele>
        <time>2020-08-31T10:45:28.035Z</time>
      </trkpt>
      <trkpt lat="42.53375" lon="2.46578">
        <ele>2156.3</ele>
        <time>2020-08-31T10:45:41.541Z</time>
      </trkpt>
      <trkpt lat="42.53371" lon="2.46582">
        <ele>2156.9</ele>
        <time>2020-08-31T10:46:02.500Z</time>
      </trkpt>
      <trkpt lat="42.53367" lon="2.46584">
        <ele>2148.5</ele>
        <time>2020-08-31T10:46:03.565Z</time>
      </trkpt>
      <trkpt lat="42.53365" lon="2.46586">
        <ele>2148.9</ele>
        <time>2020-08-31T10:46:15.964Z</time>
      </trkpt>
      <trkpt lat="42.53363" lon="2.46589">
        <ele>2149.2</ele>
        <time>2020-08-31T10:46:26.058Z</time>
      </trkpt>
      <trkpt lat="42.5336" lon="2.46592">
        <ele>2149.6</ele>
        <time>2020-08-31T10:46:39.564Z</time>
      </trkpt>
      <trkpt lat="42.53357" lon="2.46594">
        <ele>2150</ele>
        <time>2020-08-31T10:46:53.479Z</time>
      </trkpt>
      <trkpt lat="42.53354" lon="2.46597">
        <ele>2150.3</ele>
        <time>2020-08-31T10:47:04.017Z</time>
      </trkpt>
      <trkpt lat="42.53352" lon="2.466">
        <ele>2150.4</ele>
        <time>2020-08-31T10:47:09.586Z</time>
      </trkpt>
      <trkpt lat="42.5335" lon="2.46602">
        <ele>2150.4</ele>
        <time>2020-08-31T10:47:12.800Z</time>
      </trkpt>
      <trkpt lat="42.53348" lon="2.46605">
        <ele>2150.2</ele>
        <time>2020-08-31T10:47:13.545Z</time>
      </trkpt>
      <trkpt lat="42.53345" lon="2.46608">
        <ele>2149.9</ele>
        <time>2020-08-31T10:47:14.476Z</time>
      </trkpt>
      <trkpt lat="42.53343" lon="2.4661">
        <ele>2149.5</ele>
        <time>2020-08-31T10:47:15.097Z</time>
      </trkpt>
      <trkpt lat="42.5334" lon="2.46613">
        <ele>2149.3</ele>
        <time>2020-08-31T10:47:16.043Z</time>
      </trkpt>
      <trkpt lat="42.53338" lon="2.46614">
        <ele>2149.2</ele>
        <time>2020-08-31T10:47:16.616Z</time>
      </trkpt>
      <trkpt lat="42.53335" lon="2.46615">
        <ele>2149</ele>
        <time>2020-08-31T10:47:17.334Z</time>
      </trkpt>
      <trkpt lat="42.53332" lon="2.46617">
        <ele>2162.4</ele>
        <time>2020-08-31T10:47:34.016Z</time>
      </trkpt>
      <trkpt lat="42.5333" lon="2.46619">
        <ele>2162.3</ele>
        <time>2020-08-31T10:47:34.727Z</time>
      </trkpt>
      <trkpt lat="42.53327" lon="2.46622">
        <ele>2162.2</ele>
        <time>2020-08-31T10:47:35.949Z</time>
      </trkpt>
      <trkpt lat="42.53325" lon="2.46625">
        <ele>2162</ele>
        <time>2020-08-31T10:47:36.693Z</time>
      </trkpt>
      <trkpt lat="42.53322" lon="2.46628">
        <ele>2161.8</ele>
        <time>2020-08-31T10:47:37.639Z</time>
      </trkpt>
      <trkpt lat="42.5332" lon="2.46632">
        <ele>2161.5</ele>
        <time>2020-08-31T10:47:38.529Z</time>
      </trkpt>
      <trkpt lat="42.53318" lon="2.46635">
        <ele>2161.3</ele>
        <time>2020-08-31T10:47:39.274Z</time>
      </trkpt>
      <trkpt lat="42.53315" lon="2.46639">
        <ele>2161.2</ele>
        <time>2020-08-31T10:47:40.700Z</time>
      </trkpt>
      <trkpt lat="42.53312" lon="2.46643">
        <ele>2161.1</ele>
        <time>2020-08-31T10:47:42.126Z</time>
      </trkpt>
      <trkpt lat="42.5331" lon="2.46646">
        <ele>2161.1</ele>
        <time>2020-08-31T10:47:45.983Z</time>
      </trkpt>
      <trkpt lat="42.53307" lon="2.4665">
        <ele>2161.2</ele>
        <time>2020-08-31T10:47:52.941Z</time>
      </trkpt>
      <trkpt lat="42.53304" lon="2.46654">
        <ele>2161.6</ele>
        <time>2020-08-31T10:48:06.450Z</time>
      </trkpt>
      <trkpt lat="42.53302" lon="2.46657">
        <ele>2161.9</ele>
        <time>2020-08-31T10:48:16.543Z</time>
      </trkpt>
      <trkpt lat="42.53299" lon="2.46661">
        <ele>2162.5</ele>
        <time>2020-08-31T10:48:37.535Z</time>
      </trkpt>
      <trkpt lat="42.53297" lon="2.46664">
        <ele>2163</ele>
        <time>2020-08-31T10:48:52.414Z</time>
      </trkpt>
      <trkpt lat="42.53295" lon="2.46668">
        <ele>2156.9</ele>
        <time>2020-08-31T10:48:53.304Z</time>
      </trkpt>
      <trkpt lat="42.53292" lon="2.46672">
        <ele>2157.6</ele>
        <time>2020-08-31T10:49:14.295Z</time>
      </trkpt>
      <trkpt lat="42.5329" lon="2.46675">
        <ele>2158.1</ele>
        <time>2020-08-31T10:49:29.174Z</time>
      </trkpt>
      <trkpt lat="42.53288" lon="2.46678">
        <ele>2158.5</ele>
        <time>2020-08-31T10:49:44.054Z</time>
      </trkpt>
      <trkpt lat="42.53285" lon="2.46681">
        <ele>2159.1</ele>
        <time>2020-08-31T10:50:02.653Z</time>
      </trkpt>
      <trkpt lat="42.53283" lon="2.46684">
        <ele>2159.6</ele>
        <time>2020-08-31T10:50:17.533Z</time>
      </trkpt>
      <trkpt lat="42.5328" lon="2.46686">
        <ele>2160.1</ele>
        <time>2020-08-31T10:50:34.215Z</time>
      </trkpt>
      <trkpt lat="42.53278" lon="2.46688">
        <ele>2160.5</ele>
        <time>2020-08-31T10:50:46.615Z</time>
      </trkpt>
      <trkpt lat="42.53275" lon="2.4669">
        <ele>2160.9</ele>
        <time>2020-08-31T10:51:00.530Z</time>
      </trkpt>
      <trkpt lat="42.53272" lon="2.46693">
        <ele>2161.2</ele>
        <time>2020-08-31T10:51:11.068Z</time>
      </trkpt>
      <trkpt lat="42.5327" lon="2.46695">
        <ele>2161.3</ele>
        <time>2020-08-31T10:51:16.160Z</time>
      </trkpt>
      <trkpt lat="42.53267" lon="2.46698">
        <ele>2161.6</ele>
        <time>2020-08-31T10:51:26.698Z</time>
      </trkpt>
      <trkpt lat="42.53265" lon="2.46699">
        <ele>2161.7</ele>
        <time>2020-08-31T10:51:31.426Z</time>
      </trkpt>
      <trkpt lat="42.53263" lon="2.46702">
        <ele>2161.7</ele>
        <time>2020-08-31T10:51:35.283Z</time>
      </trkpt>
      <trkpt lat="42.53261" lon="2.46704">
        <ele>2161.8</ele>
        <time>2020-08-31T10:51:40.375Z</time>
      </trkpt>
      <trkpt lat="42.53258" lon="2.46708">
        <ele>2161.8</ele>
        <time>2020-08-31T10:51:45.818Z</time>
      </trkpt>
      <trkpt lat="42.53256" lon="2.4671">
        <ele>2161.9</ele>
        <time>2020-08-31T10:51:50.910Z</time>
      </trkpt>
      <trkpt lat="42.53254" lon="2.46713">
        <ele>2162</ele>
        <time>2020-08-31T10:51:56.479Z</time>
      </trkpt>
      <trkpt lat="42.53253" lon="2.46715">
        <ele>2162.1</ele>
        <time>2020-08-31T10:52:00.677Z</time>
      </trkpt>
      <trkpt lat="42.53251" lon="2.46717">
        <ele>2162.4</ele>
        <time>2020-08-31T10:52:11.157Z</time>
      </trkpt>
      <trkpt lat="42.53248" lon="2.46719">
        <ele>2179.2</ele>
        <time>2020-08-31T10:52:27.840Z</time>
      </trkpt>
      <trkpt lat="42.53242" lon="2.46728">
        <ele>2178.6</ele>
        <time>2020-08-31T10:52:30.074Z</time>
      </trkpt>
      <trkpt lat="42.53242" lon="2.4673">
        <ele>2178.3</ele>
        <time>2020-08-31T10:52:30.442Z</time>
      </trkpt>
      <trkpt lat="42.53242" lon="2.46733">
        <ele>2177.8</ele>
        <time>2020-08-31T10:52:30.994Z</time>
      </trkpt>
      <trkpt lat="42.53242" lon="2.46736">
        <ele>2177.3</ele>
        <time>2020-08-31T10:52:31.546Z</time>
      </trkpt>
      <trkpt lat="42.53241" lon="2.46739">
        <ele>2176.9</ele>
        <time>2020-08-31T10:52:32.152Z</time>
      </trkpt>
      <trkpt lat="42.53241" lon="2.46742">
        <ele>2176.5</ele>
        <time>2020-08-31T10:52:32.705Z</time>
      </trkpt>
      <trkpt lat="42.5324" lon="2.46745">
        <ele>2176.2</ele>
        <time>2020-08-31T10:52:33.311Z</time>
      </trkpt>
      <trkpt lat="42.53238" lon="2.46751">
        <ele>2175.3</ele>
        <time>2020-08-31T10:52:34.523Z</time>
      </trkpt>
      <trkpt lat="42.53236" lon="2.46755">
        <ele>2175.9</ele>
        <time>2020-08-31T10:52:52.302Z</time>
      </trkpt>
      <trkpt lat="42.53231" lon="2.46768">
        <ele>2177.4</ele>
        <time>2020-08-31T10:53:46.236Z</time>
      </trkpt>
      <trkpt lat="42.53227" lon="2.46776">
        <ele>2178.2</ele>
        <time>2020-08-31T10:54:13.472Z</time>
      </trkpt>
      <trkpt lat="42.53225" lon="2.46782">
        <ele>2178.4</ele>
        <time>2020-08-31T10:54:23.560Z</time>
      </trkpt>
      <trkpt lat="42.53223" lon="2.46786">
        <ele>2178.6</ele>
        <time>2020-08-31T10:54:31.958Z</time>
      </trkpt>
      <trkpt lat="42.53219" lon="2.46792">
        <ele>2178.8</ele>
        <time>2020-08-31T10:54:43.095Z</time>
      </trkpt>
      <trkpt lat="42.53217" lon="2.46799">
        <ele>2179</ele>
        <time>2020-08-31T10:54:53.798Z</time>
      </trkpt>
      <trkpt lat="42.53213" lon="2.46816">
        <ele>2179</ele>
        <time>2020-08-31T10:55:10.815Z</time>
      </trkpt>
      <trkpt lat="42.53209" lon="2.46829">
        <ele>2180.1</ele>
        <time>2020-08-31T10:55:47.902Z</time>
      </trkpt>
      <trkpt lat="42.53207" lon="2.46834">
        <ele>2174.8</ele>
        <time>2020-08-31T10:55:48.949Z</time>
      </trkpt>
      <trkpt lat="42.53203" lon="2.46851">
        <ele>2175.3</ele>
        <time>2020-08-31T10:56:15.059Z</time>
      </trkpt>
      <trkpt lat="42.53203" lon="2.46857">
        <ele>2174.9</ele>
        <time>2020-08-31T10:56:16.164Z</time>
      </trkpt>
      <trkpt lat="42.53202" lon="2.46863">
        <ele>2174.4</ele>
        <time>2020-08-31T10:56:17.296Z</time>
      </trkpt>
      <trkpt lat="42.53202" lon="2.46868">
        <ele>2174.1</ele>
        <time>2020-08-31T10:56:18.217Z</time>
      </trkpt>
      <trkpt lat="42.53201" lon="2.46875">
        <ele>2173.7</ele>
        <time>2020-08-31T10:56:19.529Z</time>
      </trkpt>
      <trkpt lat="42.532" lon="2.46879">
        <ele>2173.7</ele>
        <time>2020-08-31T10:56:23.557Z</time>
      </trkpt>
      <trkpt lat="42.53199" lon="2.46883">
        <ele>2173.7</ele>
        <time>2020-08-31T10:56:27.585Z</time>
      </trkpt>
      <trkpt lat="42.53197" lon="2.46888">
        <ele>2173.8</ele>
        <time>2020-08-31T10:56:34.526Z</time>
      </trkpt>
      <trkpt lat="42.53195" lon="2.46893">
        <ele>2174.3</ele>
        <time>2020-08-31T10:56:51.894Z</time>
      </trkpt>
      <trkpt lat="42.53192" lon="2.46898">
        <ele>2175.1</ele>
        <time>2020-08-31T10:57:15.609Z</time>
      </trkpt>
      <trkpt lat="42.5319" lon="2.46901">
        <ele>2176</ele>
        <time>2020-08-31T10:57:30.488Z</time>
      </trkpt>
      <trkpt lat="42.53187" lon="2.46905">
        <ele>2177.2</ele>
        <time>2020-08-31T10:57:51.480Z</time>
      </trkpt>
      <trkpt lat="42.53185" lon="2.46908">
        <ele>2178.1</ele>
        <time>2020-08-31T10:58:06.359Z</time>
      </trkpt>
      <trkpt lat="42.53184" lon="2.46911">
        <ele>2178.9</ele>
        <time>2020-08-31T10:58:18.469Z</time>
      </trkpt>
      <trkpt lat="42.53182" lon="2.46914">
        <ele>2180</ele>
        <time>2020-08-31T10:58:33.349Z</time>
      </trkpt>
      <trkpt lat="42.53178" lon="2.46918">
        <ele>2175</ele>
        <time>2020-08-31T10:58:34.590Z</time>
      </trkpt>
      <trkpt lat="42.53176" lon="2.46921">
        <ele>2176.1</ele>
        <time>2020-08-31T10:58:49.469Z</time>
      </trkpt>
      <trkpt lat="42.53174" lon="2.46924">
        <ele>2176.1</ele>
        <time>2020-08-31T10:58:53.327Z</time>
      </trkpt>
      <trkpt lat="42.53173" lon="2.46927">
        <ele>2175.2</ele>
        <time>2020-08-31T10:58:53.933Z</time>
      </trkpt>
      <trkpt lat="42.5317" lon="2.4693">
        <ele>2173.7</ele>
        <time>2020-08-31T10:58:54.864Z</time>
      </trkpt>
      <trkpt lat="42.53169" lon="2.46932">
        <ele>2172.6</ele>
        <time>2020-08-31T10:58:55.309Z</time>
      </trkpt>
      <trkpt lat="42.53167" lon="2.46935">
        <ele>2170.5</ele>
        <time>2020-08-31T10:58:56.054Z</time>
      </trkpt>
      <trkpt lat="42.53166" lon="2.46938">
        <ele>2186.8</ele>
        <time>2020-08-31T10:59:08.164Z</time>
      </trkpt>
      <trkpt lat="42.53164" lon="2.46941">
        <ele>2186.5</ele>
        <time>2020-08-31T10:59:08.909Z</time>
      </trkpt>
      <trkpt lat="42.53162" lon="2.46943">
        <ele>2186.3</ele>
        <time>2020-08-31T10:59:09.529Z</time>
      </trkpt>
      <trkpt lat="42.5316" lon="2.46944">
        <ele>2186.2</ele>
        <time>2020-08-31T10:59:10.103Z</time>
      </trkpt>
      <trkpt lat="42.53154" lon="2.46948">
        <ele>2186.1</ele>
        <time>2020-08-31T10:59:12.619Z</time>
      </trkpt>
      <trkpt lat="42.53151" lon="2.4695">
        <ele>2186.1</ele>
        <time>2020-08-31T10:59:16.944Z</time>
      </trkpt>
      <trkpt lat="42.53148" lon="2.46952">
        <ele>2186.1</ele>
        <time>2020-08-31T10:59:21.269Z</time>
      </trkpt>
      <trkpt lat="42.53146" lon="2.46954">
        <ele>2186</ele>
        <time>2020-08-31T10:59:21.980Z</time>
      </trkpt>
      <trkpt lat="42.53143" lon="2.46956">
        <ele>2186.1</ele>
        <time>2020-08-31T10:59:27.938Z</time>
      </trkpt>
      <trkpt lat="42.53139" lon="2.46959">
        <ele>2186.1</ele>
        <time>2020-08-31T10:59:33.852Z</time>
      </trkpt>
      <trkpt lat="42.53136" lon="2.4696">
        <ele>2186.3</ele>
        <time>2020-08-31T10:59:41.589Z</time>
      </trkpt>
      <trkpt lat="42.53131" lon="2.46963">
        <ele>2186.6</ele>
        <time>2020-08-31T10:59:54.366Z</time>
      </trkpt>
      <trkpt lat="42.53127" lon="2.46966">
        <ele>2187</ele>
        <time>2020-08-31T11:00:08.078Z</time>
      </trkpt>
      <trkpt lat="42.53124" lon="2.46967">
        <ele>2187.4</ele>
        <time>2020-08-31T11:00:22.664Z</time>
      </trkpt>
      <trkpt lat="42.53119" lon="2.4697">
        <ele>2187.9</ele>
        <time>2020-08-31T11:00:39.647Z</time>
      </trkpt>
      <trkpt lat="42.53117" lon="2.46971">
        <ele>2188.1</ele>
        <time>2020-08-31T11:00:46.413Z</time>
      </trkpt>
      <trkpt lat="42.53116" lon="2.46972">
        <ele>2188.2</ele>
        <time>2020-08-31T11:00:49.926Z</time>
        <extensions>
          <visugpx:TrkExtension xmlns:visugpx="https://www.visugpx.com/editgpx/">
            <visugpx:node>14</visugpx:node>
            </visugpx:TrkExtension>
        </extensions>
      </trkpt>
      <trkpt lat="42.53114" lon="2.46973">
        <ele>2188.3</ele>
        <time>2020-08-31T11:00:54.653Z</time>
      </trkpt>
      <trkpt lat="42.53112" lon="2.46975">
        <ele>2188.4</ele>
        <time>2020-08-31T11:00:59.745Z</time>
      </trkpt>
      <trkpt lat="42.53109" lon="2.46978">
        <ele>2188.6</ele>
        <time>2020-08-31T11:01:08.385Z</time>
      </trkpt>
      <trkpt lat="42.53106" lon="2.4698">
        <ele>2188.7</ele>
        <time>2020-08-31T11:01:14.343Z</time>
      </trkpt>
      <trkpt lat="42.53104" lon="2.46982">
        <ele>2188.9</ele>
        <time>2020-08-31T11:01:21.368Z</time>
      </trkpt>
      <trkpt lat="42.53101" lon="2.46985">
        <ele>2189</ele>
        <time>2020-08-31T11:01:27.762Z</time>
      </trkpt>
      <trkpt lat="42.53099" lon="2.46988">
        <ele>2189</ele>
        <time>2020-08-31T11:01:31.620Z</time>
      </trkpt>
      <trkpt lat="42.53095" lon="2.46995">
        <ele>2189.2</ele>
        <time>2020-08-31T11:01:43.362Z</time>
      </trkpt>
      <trkpt lat="42.53092" lon="2.46999">
        <ele>2189.3</ele>
        <time>2020-08-31T11:01:50.319Z</time>
      </trkpt>
      <trkpt lat="42.53089" lon="2.47006">
        <ele>2180</ele>
        <time>2020-08-31T11:01:51.810Z</time>
      </trkpt>
      <trkpt lat="42.53088" lon="2.47009">
        <ele>2178.6</ele>
        <time>2020-08-31T11:01:52.416Z</time>
      </trkpt>
      <trkpt lat="42.53086" lon="2.47015">
        <ele>2174</ele>
        <time>2020-08-31T11:01:53.628Z</time>
      </trkpt>
      <trkpt lat="42.53084" lon="2.47018">
        <ele>2172.4</ele>
        <time>2020-08-31T11:01:54.373Z</time>
      </trkpt>
      <trkpt lat="42.53083" lon="2.47021">
        <ele>2189</ele>
        <time>2020-08-31T11:02:06.483Z</time>
      </trkpt>
      <trkpt lat="42.53081" lon="2.47024">
        <ele>2188.6</ele>
        <time>2020-08-31T11:02:07.228Z</time>
      </trkpt>
      <trkpt lat="42.5308" lon="2.47027">
        <ele>2188.2</ele>
        <time>2020-08-31T11:02:07.834Z</time>
      </trkpt>
      <trkpt lat="42.53078" lon="2.47029">
        <ele>2187.9</ele>
        <time>2020-08-31T11:02:08.455Z</time>
      </trkpt>
      <trkpt lat="42.53075" lon="2.47032">
        <ele>2187.7</ele>
        <time>2020-08-31T11:02:09.401Z</time>
      </trkpt>
      <trkpt lat="42.53071" lon="2.47034">
        <ele>2187.5</ele>
        <time>2020-08-31T11:02:10.548Z</time>
      </trkpt>
      <trkpt lat="42.53067" lon="2.47038">
        <ele>2187.4</ele>
        <time>2020-08-31T11:02:12.305Z</time>
      </trkpt>
      <trkpt lat="42.5306" lon="2.4704">
        <ele>2187.9</ele>
        <time>2020-08-31T11:02:30.917Z</time>
      </trkpt>
      <trkpt lat="42.53056" lon="2.47042">
        <ele>2188.3</ele>
        <time>2020-08-31T11:02:44.448Z</time>
      </trkpt>
      <trkpt lat="42.53053" lon="2.47043">
        <ele>2188.7</ele>
        <time>2020-08-31T11:02:59.034Z</time>
      </trkpt>
      <trkpt lat="42.5305" lon="2.47045">
        <ele>2189</ele>
        <time>2020-08-31T11:03:09.261Z</time>
      </trkpt>
      <trkpt lat="42.53047" lon="2.47047">
        <ele>2189.2</ele>
        <time>2020-08-31T11:03:17.345Z</time>
      </trkpt>
      <trkpt lat="42.53044" lon="2.47049">
        <ele>2189.5</ele>
        <time>2020-08-31T11:03:27.571Z</time>
      </trkpt>
      <trkpt lat="42.53042" lon="2.47051">
        <ele>2189.5</ele>
        <time>2020-08-31T11:03:30.786Z</time>
      </trkpt>
      <trkpt lat="42.5304" lon="2.47054">
        <ele>2189.6</ele>
        <time>2020-08-31T11:03:36.355Z</time>
      </trkpt>
      <trkpt lat="42.53038" lon="2.47055">
        <ele>2189.7</ele>
        <time>2020-08-31T11:03:41.082Z</time>
      </trkpt>
      <trkpt lat="42.53036" lon="2.47058">
        <ele>2189.9</ele>
        <time>2020-08-31T11:03:48.678Z</time>
      </trkpt>
      <trkpt lat="42.53034" lon="2.4706">
        <ele>2190.1</ele>
        <time>2020-08-31T11:03:55.703Z</time>
      </trkpt>
      <trkpt lat="42.53032" lon="2.47062">
        <ele>2190.3</ele>
        <time>2020-08-31T11:04:02.728Z</time>
      </trkpt>
      <trkpt lat="42.5303" lon="2.47064">
        <ele>2190.6</ele>
        <time>2020-08-31T11:04:13.208Z</time>
      </trkpt>
      <trkpt lat="42.53028" lon="2.47065">
        <ele>2190.8</ele>
        <time>2020-08-31T11:04:19.974Z</time>
      </trkpt>
      <trkpt lat="42.53026" lon="2.47067">
        <ele>2191</ele>
        <time>2020-08-31T11:04:26.999Z</time>
      </trkpt>
      <trkpt lat="42.53024" lon="2.4707">
        <ele>2191.3</ele>
        <time>2020-08-31T11:04:37.093Z</time>
      </trkpt>
      <trkpt lat="42.53023" lon="2.47071">
        <ele>2191.4</ele>
        <time>2020-08-31T11:04:40.606Z</time>
      </trkpt>
      <trkpt lat="42.53021" lon="2.47073">
        <ele>2191.6</ele>
        <time>2020-08-31T11:04:47.631Z</time>
      </trkpt>
      <trkpt lat="42.5302" lon="2.47076">
        <ele>2191.7</ele>
        <time>2020-08-31T11:04:52.675Z</time>
      </trkpt>
      <trkpt lat="42.53019" lon="2.47079">
        <ele>2191.8</ele>
        <time>2020-08-31T11:04:57.719Z</time>
      </trkpt>
      <trkpt lat="42.53018" lon="2.47082">
        <ele>2191.9</ele>
        <time>2020-08-31T11:05:02.762Z</time>
      </trkpt>
      <trkpt lat="42.53017" lon="2.47084">
        <ele>2178.7</ele>
        <time>2020-08-31T11:05:03.207Z</time>
      </trkpt>
      <trkpt lat="42.53016" lon="2.47087">
        <ele>2179.1</ele>
        <time>2020-08-31T11:05:15.318Z</time>
      </trkpt>
      <trkpt lat="42.53015" lon="2.4709">
        <ele>2179.1</ele>
        <time>2020-08-31T11:05:18.458Z</time>
      </trkpt>
      <trkpt lat="42.53013" lon="2.47092">
        <ele>2179</ele>
        <time>2020-08-31T11:05:19.169Z</time>
      </trkpt>
      <trkpt lat="42.53012" lon="2.47096">
        <ele>2178.2</ele>
        <time>2020-08-31T11:05:19.946Z</time>
      </trkpt>
      <trkpt lat="42.53011" lon="2.47098">
        <ele>2177.6</ele>
        <time>2020-08-31T11:05:20.391Z</time>
      </trkpt>
      <trkpt lat="42.53009" lon="2.47101">
        <ele>2176.8</ele>
        <time>2020-08-31T11:05:21.136Z</time>
      </trkpt>
      <trkpt lat="42.53008" lon="2.47103">
        <ele>2176.1</ele>
        <time>2020-08-31T11:05:21.581Z</time>
      </trkpt>
      <trkpt lat="42.53006" lon="2.47106">
        <ele>2175.1</ele>
        <time>2020-08-31T11:05:22.325Z</time>
      </trkpt>
      <trkpt lat="42.53005" lon="2.47108">
        <ele>2174.2</ele>
        <time>2020-08-31T11:05:22.770Z</time>
      </trkpt>
      <trkpt lat="42.53005" lon="2.4711">
        <ele>2173.5</ele>
        <time>2020-08-31T11:05:23.138Z</time>
      </trkpt>
      <trkpt lat="42.53004" lon="2.47113">
        <ele>2172.3</ele>
        <time>2020-08-31T11:05:23.745Z</time>
      </trkpt>
      <trkpt lat="42.53003" lon="2.47117">
        <ele>2171.4</ele>
        <time>2020-08-31T11:05:24.522Z</time>
      </trkpt>
      <trkpt lat="42.53001" lon="2.47121">
        <ele>2170.3</ele>
        <time>2020-08-31T11:05:25.412Z</time>
      </trkpt>
      <trkpt lat="42.52997" lon="2.47129">
        <ele>2198.9</ele>
        <time>2020-08-31T11:06:00.970Z</time>
      </trkpt>
      <trkpt lat="42.52992" lon="2.47138">
        <ele>2196.9</ele>
        <time>2020-08-31T11:06:03.045Z</time>
      </trkpt>
      <trkpt lat="42.52988" lon="2.47146">
        <ele>2194.5</ele>
        <time>2020-08-31T11:06:04.825Z</time>
      </trkpt>
      <trkpt lat="42.52984" lon="2.47154">
        <ele>2192.9</ele>
        <time>2020-08-31T11:06:06.604Z</time>
      </trkpt>
      <trkpt lat="42.52978" lon="2.47164">
        <ele>2194</ele>
        <time>2020-08-31T11:06:44.382Z</time>
      </trkpt>
      <trkpt lat="42.52974" lon="2.47175">
        <ele>2182.5</ele>
        <time>2020-08-31T11:06:46.640Z</time>
      </trkpt>
      <trkpt lat="42.52969" lon="2.47189">
        <ele>2183.7</ele>
        <time>2020-08-31T11:07:27.058Z</time>
      </trkpt>
      <trkpt lat="42.52965" lon="2.47201">
        <ele>2183.6</ele>
        <time>2020-08-31T11:07:30.936Z</time>
      </trkpt>
      <trkpt lat="42.52963" lon="2.47211">
        <ele>2182.8</ele>
        <time>2020-08-31T11:07:32.843Z</time>
      </trkpt>
      <trkpt lat="42.52962" lon="2.47216">
        <ele>2182.1</ele>
        <time>2020-08-31T11:07:33.797Z</time>
      </trkpt>
      <trkpt lat="42.52961" lon="2.47221">
        <ele>2181.6</ele>
        <time>2020-08-31T11:07:34.750Z</time>
      </trkpt>
      <trkpt lat="42.52961" lon="2.47223">
        <ele>2181.3</ele>
        <time>2020-08-31T11:07:35.119Z</time>
      </trkpt>
      <trkpt lat="42.5296" lon="2.47228">
        <ele>2181</ele>
        <time>2020-08-31T11:07:36.072Z</time>
      </trkpt>
      <trkpt lat="42.52959" lon="2.47231">
        <ele>2180.8</ele>
        <time>2020-08-31T11:07:36.678Z</time>
      </trkpt>
      <trkpt lat="42.52958" lon="2.47237">
        <ele>2180.9</ele>
        <time>2020-08-31T11:07:44.030Z</time>
      </trkpt>
      <trkpt lat="42.52957" lon="2.47239">
        <ele>2180.9</ele>
        <time>2020-08-31T11:07:46.335Z</time>
      </trkpt>
      <trkpt lat="42.52957" lon="2.47242">
        <ele>2181</ele>
        <time>2020-08-31T11:07:51.185Z</time>
      </trkpt>
      <trkpt lat="42.52955" lon="2.47247">
        <ele>2181.3</ele>
        <time>2020-08-31T11:08:02.231Z</time>
      </trkpt>
      <trkpt lat="42.52954" lon="2.4725">
        <ele>2181.8</ele>
        <time>2020-08-31T11:08:14.342Z</time>
      </trkpt>
      <trkpt lat="42.52953" lon="2.47252">
        <ele>2166.7</ele>
        <time>2020-08-31T11:08:14.787Z</time>
      </trkpt>
      <trkpt lat="42.52952" lon="2.47254">
        <ele>2167.3</ele>
        <time>2020-08-31T11:08:23.677Z</time>
      </trkpt>
      <trkpt lat="42.52952" lon="2.47255">
        <ele>2167.4</ele>
        <time>2020-08-31T11:08:27.355Z</time>
      </trkpt>
      <trkpt lat="42.52951" lon="2.47257">
        <ele>2167.5</ele>
        <time>2020-08-31T11:08:31.554Z</time>
      </trkpt>
      <trkpt lat="42.5295" lon="2.4726">
        <ele>2167.7</ele>
        <time>2020-08-31T11:08:38.525Z</time>
      </trkpt>
      <trkpt lat="42.52949" lon="2.47263">
        <ele>2167.9</ele>
        <time>2020-08-31T11:08:45.496Z</time>
      </trkpt>
      <trkpt lat="42.52948" lon="2.47264">
        <ele>2168.1</ele>
        <time>2020-08-31T11:08:51.696Z</time>
      </trkpt>
      <trkpt lat="42.52947" lon="2.47267">
        <ele>2168.2</ele>
        <time>2020-08-31T11:08:56.740Z</time>
      </trkpt>
      <trkpt lat="42.52946" lon="2.4727">
        <ele>2168.3</ele>
        <time>2020-08-31T11:09:01.784Z</time>
      </trkpt>
      <trkpt lat="42.52945" lon="2.47272">
        <ele>2168.1</ele>
        <time>2020-08-31T11:09:02.229Z</time>
      </trkpt>
      <trkpt lat="42.52944" lon="2.47275">
        <ele>2167.9</ele>
        <time>2020-08-31T11:09:02.835Z</time>
      </trkpt>
      <trkpt lat="42.52943" lon="2.47278">
        <ele>2167.7</ele>
        <time>2020-08-31T11:09:03.441Z</time>
      </trkpt>
      <trkpt lat="42.52939" lon="2.47287">
        <ele>2167.2</ele>
        <time>2020-08-31T11:09:05.242Z</time>
      </trkpt>
      <trkpt lat="42.52938" lon="2.47289">
        <ele>2167.1</ele>
        <time>2020-08-31T11:09:05.685Z</time>
      </trkpt>
      <trkpt lat="42.52937" lon="2.47292">
        <ele>2166.8</ele>
        <time>2020-08-31T11:09:06.291Z</time>
      </trkpt>
      <trkpt lat="42.52936" lon="2.47298">
        <ele>2166.4</ele>
        <time>2020-08-31T11:09:07.424Z</time>
      </trkpt>
      <trkpt lat="42.52935" lon="2.47301">
        <ele>2166.4</ele>
        <time>2020-08-31T11:09:10.564Z</time>
      </trkpt>
      <trkpt lat="42.52934" lon="2.47304">
        <ele>2166.6</ele>
        <time>2020-08-31T11:09:17.535Z</time>
      </trkpt>
      <trkpt lat="42.52933" lon="2.47306">
        <ele>2166.8</ele>
        <time>2020-08-31T11:09:24.344Z</time>
      </trkpt>
      <trkpt lat="42.52931" lon="2.47308">
        <ele>2167.2</ele>
        <time>2020-08-31T11:09:36.744Z</time>
      </trkpt>
      <trkpt lat="42.5293" lon="2.47311">
        <ele>2167.7</ele>
        <time>2020-08-31T11:09:48.855Z</time>
      </trkpt>
      <trkpt lat="42.52929" lon="2.47314">
        <ele>2168.1</ele>
        <time>2020-08-31T11:10:00.965Z</time>
      </trkpt>
      <trkpt lat="42.52928" lon="2.47316">
        <ele>2168.8</ele>
        <time>2020-08-31T11:10:09.855Z</time>
      </trkpt>
      <trkpt lat="42.52927" lon="2.4732">
        <ele>2169.6</ele>
        <time>2020-08-31T11:10:25.391Z</time>
      </trkpt>
      <trkpt lat="42.52926" lon="2.47322">
        <ele>2170.4</ele>
        <time>2020-08-31T11:10:34.281Z</time>
      </trkpt>
      <trkpt lat="42.52925" lon="2.47324">
        <ele>2171.2</ele>
        <time>2020-08-31T11:10:43.171Z</time>
      </trkpt>
      <trkpt lat="42.52924" lon="2.47328">
        <ele>2172.8</ele>
        <time>2020-08-31T11:10:58.707Z</time>
      </trkpt>
      <trkpt lat="42.52923" lon="2.47331">
        <ele>2174</ele>
        <time>2020-08-31T11:11:10.818Z</time>
      </trkpt>
      <trkpt lat="42.52923" lon="2.47333">
        <ele>2174.7</ele>
        <time>2020-08-31T11:11:18.174Z</time>
      </trkpt>
      <trkpt lat="42.52922" lon="2.47335">
        <ele>2172.6</ele>
        <time>2020-08-31T11:11:18.619Z</time>
      </trkpt>
      <trkpt lat="42.52921" lon="2.47337">
        <ele>2172.5</ele>
        <time>2020-08-31T11:11:19.062Z</time>
      </trkpt>
      <trkpt lat="42.52918" lon="2.4734">
        <ele>2171.1</ele>
        <time>2020-08-31T11:11:19.993Z</time>
      </trkpt>
      <trkpt lat="42.52918" lon="2.47342">
        <ele>2170.1</ele>
        <time>2020-08-31T11:11:20.361Z</time>
      </trkpt>
      <trkpt lat="42.52917" lon="2.47343">
        <ele>2168.7</ele>
        <time>2020-08-31T11:11:20.671Z</time>
      </trkpt>
      <trkpt lat="42.52917" lon="2.47345">
        <ele>2167.5</ele>
        <time>2020-08-31T11:11:21.039Z</time>
      </trkpt>
      <trkpt lat="42.52916" lon="2.47346">
        <ele>2189.6</ele>
        <time>2020-08-31T11:11:27.239Z</time>
      </trkpt>
      <trkpt lat="42.52915" lon="2.47347">
        <ele>2190.4</ele>
        <time>2020-08-31T11:11:33.439Z</time>
      </trkpt>
      <trkpt lat="42.52913" lon="2.47349">
        <ele>2191.4</ele>
        <time>2020-08-31T11:11:45.839Z</time>
      </trkpt>
      <trkpt lat="42.52912" lon="2.47351">
        <ele>2192.7</ele>
        <time>2020-08-31T11:11:54.729Z</time>
      </trkpt>
      <trkpt lat="42.52912" lon="2.47353">
        <ele>2193.3</ele>
        <time>2020-08-31T11:12:02.085Z</time>
      </trkpt>
      <trkpt lat="42.52912" lon="2.47354">
        <ele>2193.8</ele>
        <time>2020-08-31T11:12:05.764Z</time>
      </trkpt>
      <trkpt lat="42.52913" lon="2.47356">
        <ele>2194.2</ele>
        <time>2020-08-31T11:12:14.653Z</time>
      </trkpt>
      <trkpt lat="42.52914" lon="2.47357">
        <ele>2194.6</ele>
        <time>2020-08-31T11:12:20.853Z</time>
      </trkpt>
      <trkpt lat="42.52914" lon="2.47359">
        <ele>2194.9</ele>
        <time>2020-08-31T11:12:28.210Z</time>
      </trkpt>
      <trkpt lat="42.52915" lon="2.47361">
        <ele>2195.1</ele>
        <time>2020-08-31T11:12:35.019Z</time>
      </trkpt>
      <trkpt lat="42.52916" lon="2.47362">
        <ele>2195.4</ele>
        <time>2020-08-31T11:12:41.219Z</time>
      </trkpt>
      <trkpt lat="42.52917" lon="2.47364">
        <ele>2195.5</ele>
        <time>2020-08-31T11:12:45.418Z</time>
      </trkpt>
      <trkpt lat="42.52917" lon="2.47366">
        <ele>2158.7</ele>
        <time>2020-08-31T11:12:45.786Z</time>
      </trkpt>
      <trkpt lat="42.52917" lon="2.47368">
        <ele>2158.4</ele>
        <time>2020-08-31T11:12:46.154Z</time>
      </trkpt>
      <trkpt lat="42.52917" lon="2.47371">
        <ele>2158.1</ele>
        <time>2020-08-31T11:12:46.706Z</time>
      </trkpt>
      <trkpt lat="42.52917" lon="2.47372">
        <ele>2157.9</ele>
        <time>2020-08-31T11:12:46.890Z</time>
      </trkpt>
      <trkpt lat="42.52917" lon="2.47375">
        <ele>2157.7</ele>
        <time>2020-08-31T11:12:47.443Z</time>
      </trkpt>
      <trkpt lat="42.52917" lon="2.47377">
        <ele>2157.7</ele>
        <time>2020-08-31T11:12:49.350Z</time>
      </trkpt>
      <trkpt lat="42.52916" lon="2.47379">
        <ele>2195.9</ele>
        <time>2020-08-31T11:12:58.239Z</time>
      </trkpt>
      <trkpt lat="42.52915" lon="2.4738">
        <ele>2195.9</ele>
        <time>2020-08-31T11:12:59.847Z</time>
      </trkpt>
      <trkpt lat="42.52914" lon="2.47382">
        <ele>2195.9</ele>
        <time>2020-08-31T11:13:02.152Z</time>
      </trkpt>
      <trkpt lat="42.52913" lon="2.47385">
        <ele>2195.4</ele>
        <time>2020-08-31T11:13:02.758Z</time>
      </trkpt>
      <trkpt lat="42.52915" lon="2.47388">
        <ele>2194.6</ele>
        <time>2020-08-31T11:13:03.502Z</time>
      </trkpt>
      <trkpt lat="42.52915" lon="2.47389">
        <ele>2194.1</ele>
        <time>2020-08-31T11:13:03.686Z</time>
      </trkpt>
      <trkpt lat="42.52916" lon="2.47391">
        <ele>2193.6</ele>
        <time>2020-08-31T11:13:04.131Z</time>
      </trkpt>
      <trkpt lat="42.52916" lon="2.47393">
        <ele>2192.9</ele>
        <time>2020-08-31T11:13:04.500Z</time>
      </trkpt>
      <trkpt lat="42.52916" lon="2.47395">
        <ele>2192.1</ele>
        <time>2020-08-31T11:13:04.868Z</time>
      </trkpt>
      <trkpt lat="42.52916" lon="2.47397">
        <ele>2190.9</ele>
        <time>2020-08-31T11:13:05.236Z</time>
      </trkpt>
      <trkpt lat="42.52917" lon="2.474">
        <ele>2189.7</ele>
        <time>2020-08-31T11:13:05.842Z</time>
      </trkpt>
      <trkpt lat="42.52917" lon="2.47405">
        <ele>2164.3</ele>
        <time>2020-08-31T11:13:06.762Z</time>
      </trkpt>
      <trkpt lat="42.52918" lon="2.47407">
        <ele>2165.6</ele>
        <time>2020-08-31T11:13:15.652Z</time>
      </trkpt>
      <trkpt lat="42.52918" lon="2.4741">
        <ele>2167.9</ele>
        <time>2020-08-31T11:13:26.687Z</time>
      </trkpt>
      <trkpt lat="42.52918" lon="2.47413">
        <ele>2169.9</ele>
        <time>2020-08-31T11:13:37.721Z</time>
      </trkpt>
      <trkpt lat="42.52918" lon="2.47415">
        <ele>2172.1</ele>
        <time>2020-08-31T11:13:45.077Z</time>
      </trkpt>
      <trkpt lat="42.52918" lon="2.47418">
        <ele>2172.9</ele>
        <time>2020-08-31T11:13:56.112Z</time>
      </trkpt>
      <trkpt lat="42.52918" lon="2.4742">
        <ele>2171.1</ele>
        <time>2020-08-31T11:13:56.480Z</time>
      </trkpt>
      <trkpt lat="42.52918" lon="2.47423">
        <ele>2169.1</ele>
        <time>2020-08-31T11:13:57.032Z</time>
      </trkpt>
      <trkpt lat="42.52918" lon="2.47426">
        <ele>2167.5</ele>
        <time>2020-08-31T11:13:57.584Z</time>
      </trkpt>
      <trkpt lat="42.52919" lon="2.4743">
        <ele>2165.5</ele>
        <time>2020-08-31T11:13:58.362Z</time>
      </trkpt>
      <trkpt lat="42.5292" lon="2.47433">
        <ele>2164.5</ele>
        <time>2020-08-31T11:13:58.968Z</time>
      </trkpt>
      <trkpt lat="42.5292" lon="2.47435">
        <ele>2163.6</ele>
        <time>2020-08-31T11:13:59.336Z</time>
      </trkpt>
      <trkpt lat="42.5292" lon="2.47438">
        <ele>2162.9</ele>
        <time>2020-08-31T11:13:59.889Z</time>
      </trkpt>
      <trkpt lat="42.52921" lon="2.47443">
        <ele>2161.9</ele>
        <time>2020-08-31T11:14:00.842Z</time>
      </trkpt>
      <trkpt lat="42.52922" lon="2.47445">
        <ele>2161.6</ele>
        <time>2020-08-31T11:14:01.287Z</time>
      </trkpt>
      <trkpt lat="42.52923" lon="2.47447">
        <ele>2161.3</ele>
        <time>2020-08-31T11:14:01.732Z</time>
      </trkpt>
      <trkpt lat="42.52924" lon="2.4745">
        <ele>2161</ele>
        <time>2020-08-31T11:14:02.338Z</time>
      </trkpt>
      <trkpt lat="42.52925" lon="2.47453">
        <ele>2160.7</ele>
        <time>2020-08-31T11:14:02.944Z</time>
      </trkpt>
      <trkpt lat="42.52927" lon="2.47458">
        <ele>2160.6</ele>
        <time>2020-08-31T11:14:04.365Z</time>
      </trkpt>
      <trkpt lat="42.5293" lon="2.4746">
        <ele>2160.3</ele>
        <time>2020-08-31T11:14:05.200Z</time>
      </trkpt>
      <trkpt lat="42.52932" lon="2.47462">
        <ele>2160</ele>
        <time>2020-08-31T11:14:05.820Z</time>
      </trkpt>
      <trkpt lat="42.52933" lon="2.47463">
        <ele>2160</ele>
        <time>2020-08-31T11:14:07.428Z</time>
      </trkpt>
      <trkpt lat="42.52935" lon="2.47466">
        <ele>2160</ele>
        <time>2020-08-31T11:14:11.285Z</time>
      </trkpt>
      <trkpt lat="42.52936" lon="2.47468">
        <ele>2160.1</ele>
        <time>2020-08-31T11:14:15.484Z</time>
      </trkpt>
      <trkpt lat="42.52937" lon="2.4747">
        <ele>2160.2</ele>
        <time>2020-08-31T11:14:19.683Z</time>
      </trkpt>
      <trkpt lat="42.52938" lon="2.47473">
        <ele>2160.3</ele>
        <time>2020-08-31T11:14:24.727Z</time>
      </trkpt>
      <trkpt lat="42.52941" lon="2.4748">
        <ele>2160.7</ele>
        <time>2020-08-31T11:14:39.925Z</time>
      </trkpt>
      <trkpt lat="42.52942" lon="2.47482">
        <ele>2160.8</ele>
        <time>2020-08-31T11:14:44.124Z</time>
      </trkpt>
      <trkpt lat="42.52942" lon="2.47485">
        <ele>2161</ele>
        <time>2020-08-31T11:14:50.931Z</time>
      </trkpt>
      <trkpt lat="42.52943" lon="2.4749">
        <ele>2161.6</ele>
        <time>2020-08-31T11:15:09.987Z</time>
      </trkpt>
      <trkpt lat="42.52945" lon="2.47495">
        <ele>2161.3</ele>
        <time>2020-08-31T11:15:11.035Z</time>
      </trkpt>
      <trkpt lat="42.52946" lon="2.47497">
        <ele>2160.7</ele>
        <time>2020-08-31T11:15:11.479Z</time>
      </trkpt>
      <trkpt lat="42.52947" lon="2.47498">
        <ele>2160.2</ele>
        <time>2020-08-31T11:15:11.790Z</time>
      </trkpt>
      <trkpt lat="42.52951" lon="2.47503">
        <ele>2174.6</ele>
        <time>2020-08-31T11:15:38.934Z</time>
      </trkpt>
      <trkpt lat="42.52954" lon="2.47507">
        <ele>2173.8</ele>
        <time>2020-08-31T11:15:39.984Z</time>
      </trkpt>
      <trkpt lat="42.52957" lon="2.47511">
        <ele>2173.1</ele>
        <time>2020-08-31T11:15:41.035Z</time>
      </trkpt>
      <trkpt lat="42.52959" lon="2.47512">
        <ele>2172.8</ele>
        <time>2020-08-31T11:15:41.567Z</time>
      </trkpt>
      <trkpt lat="42.52961" lon="2.47514">
        <ele>2172.3</ele>
        <time>2020-08-31T11:15:42.188Z</time>
      </trkpt>
      <trkpt lat="42.52963" lon="2.47516">
        <ele>2172</ele>
        <time>2020-08-31T11:15:42.809Z</time>
      </trkpt>
      <trkpt lat="42.52964" lon="2.47517">
        <ele>2171.7</ele>
        <time>2020-08-31T11:15:43.119Z</time>
      </trkpt>
      <trkpt lat="42.52966" lon="2.47519">
        <ele>2171.1</ele>
        <time>2020-08-31T11:15:43.740Z</time>
      </trkpt>
      <trkpt lat="42.5297" lon="2.47521">
        <ele>2170.3</ele>
        <time>2020-08-31T11:15:44.804Z</time>
      </trkpt>
      <trkpt lat="42.52978" lon="2.47526">
        <ele>2168.9</ele>
        <time>2020-08-31T11:15:47.005Z</time>
      </trkpt>
      <trkpt lat="42.52983" lon="2.47529">
        <ele>2168.3</ele>
        <time>2020-08-31T11:15:48.370Z</time>
      </trkpt>
      <trkpt lat="42.52987" lon="2.47532">
        <ele>2168.8</ele>
        <time>2020-08-31T11:16:05.301Z</time>
      </trkpt>
      <trkpt lat="42.5299" lon="2.47534">
        <ele>2169</ele>
        <time>2020-08-31T11:16:13.384Z</time>
      </trkpt>
      <trkpt lat="42.52994" lon="2.47538">
        <ele>2169.9</ele>
        <time>2020-08-31T11:16:38.185Z</time>
      </trkpt>
      <trkpt lat="42.52997" lon="2.47542">
        <ele>2171</ele>
        <time>2020-08-31T11:16:59.176Z</time>
      </trkpt>
      <trkpt lat="42.53001" lon="2.47546">
        <ele>2143.5</ele>
        <time>2020-08-31T11:17:00.418Z</time>
      </trkpt>
      <trkpt lat="42.53004" lon="2.47548">
        <ele>2144.2</ele>
        <time>2020-08-31T11:17:17.100Z</time>
      </trkpt>
      <trkpt lat="42.53009" lon="2.47552">
        <ele>2145.2</ele>
        <time>2020-08-31T11:17:46.070Z</time>
      </trkpt>
      <trkpt lat="42.53013" lon="2.47555">
        <ele>2145.7</ele>
        <time>2020-08-31T11:18:03.001Z</time>
      </trkpt>
      <trkpt lat="42.53018" lon="2.47559">
        <ele>2145.7</ele>
        <time>2020-08-31T11:18:10.511Z</time>
      </trkpt>
      <trkpt lat="42.53024" lon="2.47563">
        <ele>2144.8</ele>
        <time>2020-08-31T11:18:12.181Z</time>
      </trkpt>
      <trkpt lat="42.53028" lon="2.47566">
        <ele>2143.8</ele>
        <time>2020-08-31T11:18:13.323Z</time>
      </trkpt>
      <trkpt lat="42.53031" lon="2.47568">
        <ele>2143.2</ele>
        <time>2020-08-31T11:18:14.158Z</time>
      </trkpt>
      <trkpt lat="42.53034" lon="2.4757">
        <ele>2142.2</ele>
        <time>2020-08-31T11:18:14.993Z</time>
      </trkpt>
      <trkpt lat="42.53037" lon="2.47572">
        <ele>2141.1</ele>
        <time>2020-08-31T11:18:15.828Z</time>
      </trkpt>
      <trkpt lat="42.53041" lon="2.47575">
        <ele>2139.6</ele>
        <time>2020-08-31T11:18:16.969Z</time>
      </trkpt>
      <trkpt lat="42.53046" lon="2.47577">
        <ele>2137.8</ele>
        <time>2020-08-31T11:18:18.271Z</time>
      </trkpt>
      <trkpt lat="42.53051" lon="2.47582">
        <ele>2136.2</ele>
        <time>2020-08-31T11:18:19.823Z</time>
      </trkpt>
      <trkpt lat="42.53055" lon="2.47586">
        <ele>2155.3</ele>
        <time>2020-08-31T11:18:44.623Z</time>
      </trkpt>
      <trkpt lat="42.5306" lon="2.47593">
        <ele>2153.5</ele>
        <time>2020-08-31T11:18:46.417Z</time>
      </trkpt>
      <trkpt lat="42.53065" lon="2.476">
        <ele>2153.3</ele>
        <time>2020-08-31T11:18:48.747Z</time>
      </trkpt>
      <trkpt lat="42.53068" lon="2.47605">
        <ele>2153.6</ele>
        <time>2020-08-31T11:19:00.510Z</time>
      </trkpt>
      <trkpt lat="42.53071" lon="2.4761">
        <ele>2155.3</ele>
        <time>2020-08-31T11:19:24.226Z</time>
      </trkpt>
      <trkpt lat="42.53072" lon="2.47615">
        <ele>2157</ele>
        <time>2020-08-31T11:19:43.281Z</time>
      </trkpt>
      <trkpt lat="42.53073" lon="2.47628">
        <ele>2160.7</ele>
        <time>2020-08-31T11:20:31.356Z</time>
      </trkpt>
      <trkpt lat="42.53075" lon="2.4764">
        <ele>2162.2</ele>
        <time>2020-08-31T11:21:16.607Z</time>
      </trkpt>
      <trkpt lat="42.53076" lon="2.47642">
        <ele>2162.3</ele>
        <time>2020-08-31T11:21:20.806Z</time>
      </trkpt>
      <trkpt lat="42.53076" lon="2.47645">
        <ele>2162.3</ele>
        <time>2020-08-31T11:21:23.667Z</time>
      </trkpt>
      <trkpt lat="42.53076" lon="2.47646">
        <ele>2162.4</ele>
        <time>2020-08-31T11:21:27.345Z</time>
      </trkpt>
      <trkpt lat="42.53076" lon="2.47648">
        <ele>2162.4</ele>
        <time>2020-08-31T11:21:29.252Z</time>
      </trkpt>
      <trkpt lat="42.53075" lon="2.4765">
        <ele>2162.5</ele>
        <time>2020-08-31T11:21:33.451Z</time>
      </trkpt>
      <trkpt lat="42.53074" lon="2.47653">
        <ele>2162.7</ele>
        <time>2020-08-31T11:21:40.422Z</time>
      </trkpt>
      <trkpt lat="42.53073" lon="2.47654">
        <ele>2162.7</ele>
        <time>2020-08-31T11:21:42.030Z</time>
      </trkpt>
      <trkpt lat="42.53072" lon="2.47656">
        <ele>2162.7</ele>
        <time>2020-08-31T11:21:44.334Z</time>
      </trkpt>
      <trkpt lat="42.53071" lon="2.47661">
        <ele>2162.7</ele>
        <time>2020-08-31T11:21:49.275Z</time>
      </trkpt>
      <trkpt lat="42.53071" lon="2.47663">
        <ele>2162.6</ele>
        <time>2020-08-31T11:21:49.643Z</time>
      </trkpt>
      <trkpt lat="42.53071" lon="2.47667">
        <ele>2168.8</ele>
        <time>2020-08-31T11:22:04.355Z</time>
      </trkpt>
      <trkpt lat="42.53072" lon="2.4767">
        <ele>2169.1</ele>
        <time>2020-08-31T11:22:14.964Z</time>
      </trkpt>
      <trkpt lat="42.53072" lon="2.47674">
        <ele>2169.9</ele>
        <time>2020-08-31T11:22:29.676Z</time>
      </trkpt>
      <trkpt lat="42.53072" lon="2.47677">
        <ele>2170.7</ele>
        <time>2020-08-31T11:22:40.710Z</time>
      </trkpt>
      <trkpt lat="42.53073" lon="2.4768">
        <ele>2171.5</ele>
        <time>2020-08-31T11:22:52.821Z</time>
      </trkpt>
      <trkpt lat="42.53073" lon="2.47682">
        <ele>2172.4</ele>
        <time>2020-08-31T11:23:00.177Z</time>
      </trkpt>
      <trkpt lat="42.53072" lon="2.47684">
        <ele>2173.2</ele>
        <time>2020-08-31T11:23:09.067Z</time>
      </trkpt>
      <trkpt lat="42.53072" lon="2.47686">
        <ele>2173.9</ele>
        <time>2020-08-31T11:23:16.423Z</time>
      </trkpt>
      <trkpt lat="42.53072" lon="2.4769">
        <ele>2175.2</ele>
        <time>2020-08-31T11:23:31.135Z</time>
      </trkpt>
      <trkpt lat="42.53072" lon="2.47693">
        <ele>2175.8</ele>
        <time>2020-08-31T11:23:42.169Z</time>
      </trkpt>
      <trkpt lat="42.53073" lon="2.47695">
        <ele>2176.4</ele>
        <time>2020-08-31T11:23:51.059Z</time>
      </trkpt>
      <trkpt lat="42.53073" lon="2.47698">
        <ele>2176.7</ele>
        <time>2020-08-31T11:24:02.093Z</time>
      </trkpt>
      <trkpt lat="42.53074" lon="2.47701">
        <ele>2177</ele>
        <time>2020-08-31T11:24:12.702Z</time>
      </trkpt>
      <trkpt lat="42.53074" lon="2.47704">
        <ele>2177.4</ele>
        <time>2020-08-31T11:24:23.736Z</time>
      </trkpt>
      <trkpt lat="42.53074" lon="2.47713">
        <ele>2177.9</ele>
        <time>2020-08-31T11:24:41.737Z</time>
      </trkpt>
      <trkpt lat="42.53073" lon="2.47718">
        <ele>2177.8</ele>
        <time>2020-08-31T11:24:42.997Z</time>
      </trkpt>
      <trkpt lat="42.53073" lon="2.47722">
        <ele>2177.6</ele>
        <time>2020-08-31T11:24:43.733Z</time>
      </trkpt>
      <trkpt lat="42.53072" lon="2.47727">
        <ele>2177.2</ele>
        <time>2020-08-31T11:24:44.687Z</time>
      </trkpt>
      <trkpt lat="42.53073" lon="2.47732">
        <ele>2176</ele>
        <time>2020-08-31T11:24:45.641Z</time>
      </trkpt>
      <trkpt lat="42.53075" lon="2.47736">
        <ele>2174.4</ele>
        <time>2020-08-31T11:24:46.530Z</time>
      </trkpt>
      <trkpt lat="42.53076" lon="2.4774">
        <ele>2172.9</ele>
        <time>2020-08-31T11:24:47.308Z</time>
      </trkpt>
      <trkpt lat="42.53076" lon="2.47745">
        <ele>2171.3</ele>
        <time>2020-08-31T11:24:48.228Z</time>
      </trkpt>
      <trkpt lat="42.53076" lon="2.47749">
        <ele>2170.5</ele>
        <time>2020-08-31T11:24:48.965Z</time>
      </trkpt>
      <trkpt lat="42.53077" lon="2.47755">
        <ele>2169.6</ele>
        <time>2020-08-31T11:24:50.097Z</time>
      </trkpt>
      <trkpt lat="42.53078" lon="2.47761">
        <ele>2171.3</ele>
        <time>2020-08-31T11:25:12.723Z</time>
      </trkpt>
      <trkpt lat="42.53078" lon="2.47767">
        <ele>2173</ele>
        <time>2020-08-31T11:25:34.791Z</time>
      </trkpt>
      <trkpt lat="42.53077" lon="2.47775">
        <ele>2174.6</ele>
        <time>2020-08-31T11:26:04.636Z</time>
      </trkpt>
      <trkpt lat="42.53075" lon="2.4778">
        <ele>2175.2</ele>
        <time>2020-08-31T11:26:25.561Z</time>
      </trkpt>
      <trkpt lat="42.53074" lon="2.47785">
        <ele>2175.5</ele>
        <time>2020-08-31T11:26:36.189Z</time>
      </trkpt>
      <trkpt lat="42.53073" lon="2.47792">
        <ele>2175.5</ele>
        <time>2020-08-31T11:26:42.989Z</time>
      </trkpt>
      <trkpt lat="42.53072" lon="2.47799">
        <ele>2175</ele>
        <time>2020-08-31T11:26:44.301Z</time>
      </trkpt>
      <trkpt lat="42.53071" lon="2.47808">
        <ele>2173.8</ele>
        <time>2020-08-31T11:26:45.977Z</time>
      </trkpt>
      <trkpt lat="42.5307" lon="2.47819">
        <ele>2171.4</ele>
        <time>2020-08-31T11:26:48.017Z</time>
      </trkpt>
      <trkpt lat="42.53069" lon="2.47826">
        <ele>2170.1</ele>
        <time>2020-08-31T11:26:49.329Z</time>
      </trkpt>
      <trkpt lat="42.53068" lon="2.47831">
        <ele>2169.8</ele>
        <time>2020-08-31T11:26:50.283Z</time>
      </trkpt>
      <trkpt lat="42.53067" lon="2.47838">
        <ele>2164</ele>
        <time>2020-08-31T11:26:51.596Z</time>
      </trkpt>
      <trkpt lat="42.53065" lon="2.47846">
        <ele>2164.5</ele>
        <time>2020-08-31T11:27:09.173Z</time>
      </trkpt>
      <trkpt lat="42.53063" lon="2.47852">
        <ele>2164.8</ele>
        <time>2020-08-31T11:27:21.075Z</time>
      </trkpt>
      <trkpt lat="42.53061" lon="2.4786">
        <ele>2164.8</ele>
        <time>2020-08-31T11:27:29.130Z</time>
      </trkpt>
      <trkpt lat="42.53059" lon="2.47867">
        <ele>2164.6</ele>
        <time>2020-08-31T11:27:30.777Z</time>
      </trkpt>
      <trkpt lat="42.53057" lon="2.47874">
        <ele>2164.2</ele>
        <time>2020-08-31T11:27:32.159Z</time>
      </trkpt>
      <trkpt lat="42.53053" lon="2.47881">
        <ele>2164</ele>
        <time>2020-08-31T11:27:34.214Z</time>
      </trkpt>
      <trkpt lat="42.53048" lon="2.47887">
        <ele>2164.2</ele>
        <time>2020-08-31T11:27:46.119Z</time>
      </trkpt>
      <trkpt lat="42.53043" lon="2.47891">
        <ele>2164.8</ele>
        <time>2020-08-31T11:28:06.314Z</time>
      </trkpt>
      <trkpt lat="42.53039" lon="2.47894">
        <ele>2165.4</ele>
        <time>2020-08-31T11:28:28.437Z</time>
      </trkpt>
      <trkpt lat="42.53034" lon="2.47897">
        <ele>2166.2</ele>
        <time>2020-08-31T11:28:55.723Z</time>
      </trkpt>
      <trkpt lat="42.5303" lon="2.47902">
        <ele>2166.6</ele>
        <time>2020-08-31T11:29:10.274Z</time>
      </trkpt>
      <trkpt lat="42.53026" lon="2.47908">
        <ele>2167.1</ele>
        <time>2020-08-31T11:29:27.611Z</time>
      </trkpt>
      <trkpt lat="42.53024" lon="2.47913">
        <ele>2167.4</ele>
        <time>2020-08-31T11:29:38.657Z</time>
      </trkpt>
      <trkpt lat="42.53023" lon="2.4792">
        <ele>2155.5</ele>
        <time>2020-08-31T11:29:39.969Z</time>
      </trkpt>
      <trkpt lat="42.53021" lon="2.47925">
        <ele>2155.3</ele>
        <time>2020-08-31T11:29:41.090Z</time>
      </trkpt>
      <trkpt lat="42.53018" lon="2.47928">
        <ele>2155.8</ele>
        <time>2020-08-31T11:29:59.690Z</time>
      </trkpt>
      <trkpt lat="42.53015" lon="2.47933">
        <ele>2155.7</ele>
        <time>2020-08-31T11:30:01.352Z</time>
      </trkpt>
      <trkpt lat="42.53011" lon="2.47939">
        <ele>2154.4</ele>
        <time>2020-08-31T11:30:02.841Z</time>
      </trkpt>
      <trkpt lat="42.53008" lon="2.47946">
        <ele>2152.6</ele>
        <time>2020-08-31T11:30:04.332Z</time>
      </trkpt>
      <trkpt lat="42.53005" lon="2.47954">
        <ele>2150.6</ele>
        <time>2020-08-31T11:30:05.984Z</time>
      </trkpt>
      <trkpt lat="42.53002" lon="2.47962">
        <ele>2148.9</ele>
        <time>2020-08-31T11:30:07.637Z</time>
      </trkpt>
      <trkpt lat="42.53" lon="2.47969">
        <ele>2169.7</ele>
        <time>2020-08-31T11:30:35.251Z</time>
      </trkpt>
      <trkpt lat="42.52997" lon="2.47975">
        <ele>2167.8</ele>
        <time>2020-08-31T11:30:36.586Z</time>
      </trkpt>
      <trkpt lat="42.52995" lon="2.4798">
        <ele>2165.9</ele>
        <time>2020-08-31T11:30:37.633Z</time>
      </trkpt>
      <trkpt lat="42.52993" lon="2.47985">
        <ele>2163</ele>
        <time>2020-08-31T11:30:38.680Z</time>
      </trkpt>
      <trkpt lat="42.52993" lon="2.47991">
        <ele>2159.7</ele>
        <time>2020-08-31T11:30:39.785Z</time>
      </trkpt>
      <trkpt lat="42.5299" lon="2.47998">
        <ele>2158</ele>
        <time>2020-08-31T11:30:41.275Z</time>
      </trkpt>
      <trkpt lat="42.52987" lon="2.48005">
        <ele>2151.4</ele>
        <time>2020-08-31T11:30:42.766Z</time>
      </trkpt>
      <trkpt lat="42.52984" lon="2.48012">
        <ele>2152.3</ele>
        <time>2020-08-31T11:31:12.550Z</time>
      </trkpt>
      <trkpt lat="42.52981" lon="2.4802">
        <ele>2152.7</ele>
        <time>2020-08-31T11:31:28.619Z</time>
      </trkpt>
      <trkpt lat="42.52978" lon="2.48026">
        <ele>2153.1</ele>
        <time>2020-08-31T11:31:43.062Z</time>
      </trkpt>
      <trkpt lat="42.52974" lon="2.48032">
        <ele>2153.2</ele>
        <time>2020-08-31T11:31:52.178Z</time>
      </trkpt>
      <trkpt lat="42.52971" lon="2.4804">
        <ele>2152.7</ele>
        <time>2020-08-31T11:31:53.830Z</time>
      </trkpt>
      <trkpt lat="42.52968" lon="2.48046">
        <ele>2152.4</ele>
        <time>2020-08-31T11:31:55.159Z</time>
      </trkpt>
      <trkpt lat="42.52965" lon="2.48051">
        <ele>2152.3</ele>
        <time>2020-08-31T11:31:56.821Z</time>
      </trkpt>
      <trkpt lat="42.52964" lon="2.48056">
        <ele>2151.6</ele>
        <time>2020-08-31T11:31:57.774Z</time>
      </trkpt>
      <trkpt lat="42.52962" lon="2.48067">
        <ele>2150.6</ele>
        <time>2020-08-31T11:31:59.860Z</time>
      </trkpt>
      <trkpt lat="42.52961" lon="2.48074">
        <ele>2150.2</ele>
        <time>2020-08-31T11:32:01.173Z</time>
      </trkpt>
      <trkpt lat="42.5296" lon="2.4808">
        <ele>2150</ele>
        <time>2020-08-31T11:32:02.424Z</time>
      </trkpt>
      <trkpt lat="42.5296" lon="2.48088">
        <ele>2134.4</ele>
        <time>2020-08-31T11:32:03.896Z</time>
      </trkpt>
      <trkpt lat="42.52959" lon="2.48093">
        <ele>2134.1</ele>
        <time>2020-08-31T11:32:04.850Z</time>
      </trkpt>
      <trkpt lat="42.52959" lon="2.48099">
        <ele>2133.7</ele>
        <time>2020-08-31T11:32:05.955Z</time>
      </trkpt>
      <trkpt lat="42.5296" lon="2.48102">
        <ele>2133.2</ele>
        <time>2020-08-31T11:32:06.561Z</time>
      </trkpt>
      <trkpt lat="42.5296" lon="2.48105">
        <ele>2132.8</ele>
        <time>2020-08-31T11:32:07.113Z</time>
      </trkpt>
      <trkpt lat="42.5296" lon="2.48109">
        <ele>2132.5</ele>
        <time>2020-08-31T11:32:07.849Z</time>
      </trkpt>
      <trkpt lat="42.52959" lon="2.48112">
        <ele>2132.5</ele>
        <time>2020-08-31T11:32:10.989Z</time>
      </trkpt>
      <trkpt lat="42.52959" lon="2.48116">
        <ele>2132.1</ele>
        <time>2020-08-31T11:32:11.726Z</time>
      </trkpt>
      <trkpt lat="42.52959" lon="2.48123">
        <ele>2131.2</ele>
        <time>2020-08-31T11:32:13.014Z</time>
      </trkpt>
      <trkpt lat="42.52959" lon="2.48129">
        <ele>2130.4</ele>
        <time>2020-08-31T11:32:14.119Z</time>
      </trkpt>
      <trkpt lat="42.52959" lon="2.48136">
        <ele>2129.4</ele>
        <time>2020-08-31T11:32:15.407Z</time>
      </trkpt>
      <trkpt lat="42.5296" lon="2.48142">
        <ele>2128.4</ele>
        <time>2020-08-31T11:32:16.540Z</time>
      </trkpt>
      <trkpt lat="42.52959" lon="2.48147">
        <ele>2127.9</ele>
        <time>2020-08-31T11:32:17.493Z</time>
      </trkpt>
      <trkpt lat="42.52959" lon="2.48151">
        <ele>2127.8</ele>
        <time>2020-08-31T11:32:18.391Z</time>
      </trkpt>
      <trkpt lat="42.52958" lon="2.48155">
        <ele>2127.7</ele>
        <time>2020-08-31T11:32:19.355Z</time>
      </trkpt>
      <trkpt lat="42.52958" lon="2.48158">
        <ele>2127.4</ele>
        <time>2020-08-31T11:32:19.908Z</time>
      </trkpt>
      <trkpt lat="42.52959" lon="2.4816">
        <ele>2127</ele>
        <time>2020-08-31T11:32:20.353Z</time>
      </trkpt>
      <trkpt lat="42.52959" lon="2.48164">
        <ele>2126.8</ele>
        <time>2020-08-31T11:32:21.089Z</time>
      </trkpt>
      <trkpt lat="42.52959" lon="2.48165">
        <ele>2126.7</ele>
        <time>2020-08-31T11:32:21.273Z</time>
      </trkpt>
      <trkpt lat="42.52959" lon="2.48168">
        <ele>2113.4</ele>
        <time>2020-08-31T11:32:21.825Z</time>
      </trkpt>
      <trkpt lat="42.52959" lon="2.48174">
        <ele>2113</ele>
        <time>2020-08-31T11:32:22.930Z</time>
      </trkpt>
      <trkpt lat="42.5296" lon="2.48178">
        <ele>2112.6</ele>
        <time>2020-08-31T11:32:23.707Z</time>
      </trkpt>
      <trkpt lat="42.5296" lon="2.48182">
        <ele>2112.2</ele>
        <time>2020-08-31T11:32:24.444Z</time>
      </trkpt>
      <trkpt lat="42.52959" lon="2.48186">
        <ele>2112</ele>
        <time>2020-08-31T11:32:25.169Z</time>
      </trkpt>
      <trkpt lat="42.52959" lon="2.4819">
        <ele>2111.6</ele>
        <time>2020-08-31T11:32:25.906Z</time>
      </trkpt>
      <trkpt lat="42.52959" lon="2.48196">
        <ele>2111.1</ele>
        <time>2020-08-31T11:32:27.010Z</time>
      </trkpt>
      <trkpt lat="42.5296" lon="2.482">
        <ele>2110.3</ele>
        <time>2020-08-31T11:32:27.788Z</time>
      </trkpt>
      <trkpt lat="42.52961" lon="2.48203">
        <ele>2109.7</ele>
        <time>2020-08-31T11:32:28.394Z</time>
      </trkpt>
      <trkpt lat="42.52961" lon="2.48207">
        <ele>2109.3</ele>
        <time>2020-08-31T11:32:29.130Z</time>
      </trkpt>
      <trkpt lat="42.5296" lon="2.48209">
        <ele>2109.4</ele>
        <time>2020-08-31T11:32:33.329Z</time>
      </trkpt>
      <trkpt lat="42.52957" lon="2.48211">
        <ele>2109.7</ele>
        <time>2020-08-31T11:32:43.556Z</time>
      </trkpt>
      <trkpt lat="42.52956" lon="2.48214">
        <ele>2109.5</ele>
        <time>2020-08-31T11:32:44.162Z</time>
      </trkpt>
      <trkpt lat="42.52957" lon="2.48217">
        <ele>2109</ele>
        <time>2020-08-31T11:32:44.768Z</time>
      </trkpt>
      <trkpt lat="42.52955" lon="2.48221">
        <ele>2109</ele>
        <time>2020-08-31T11:32:49.377Z</time>
      </trkpt>
      <trkpt lat="42.52952" lon="2.48232">
        <ele>2108.4</ele>
        <time>2020-08-31T11:32:51.537Z</time>
      </trkpt>
      <trkpt lat="42.5295" lon="2.48238">
        <ele>2108.5</ele>
        <time>2020-08-31T11:32:59.277Z</time>
      </trkpt>
      <trkpt lat="42.52948" lon="2.48241">
        <ele>2108.8</ele>
        <time>2020-08-31T11:33:09.371Z</time>
      </trkpt>
      <trkpt lat="42.52946" lon="2.48244">
        <ele>2109</ele>
        <time>2020-08-31T11:33:16.967Z</time>
      </trkpt>
      <trkpt lat="42.52944" lon="2.48249">
        <ele>2109.1</ele>
        <time>2020-08-31T11:33:23.909Z</time>
      </trkpt>
      <trkpt lat="42.52945" lon="2.48251">
        <ele>2098.3</ele>
        <time>2020-08-31T11:33:24.354Z</time>
      </trkpt>
      <trkpt lat="42.52946" lon="2.48254">
        <ele>2097.8</ele>
        <time>2020-08-31T11:33:24.960Z</time>
      </trkpt>
      <trkpt lat="42.52949" lon="2.48257">
        <ele>2096.8</ele>
        <time>2020-08-31T11:33:25.891Z</time>
      </trkpt>
      <trkpt lat="42.52952" lon="2.48262">
        <ele>2095.7</ele>
        <time>2020-08-31T11:33:27.077Z</time>
      </trkpt>
      <trkpt lat="42.52955" lon="2.48265">
        <ele>2094.6</ele>
        <time>2020-08-31T11:33:28.008Z</time>
      </trkpt>
      <trkpt lat="42.52958" lon="2.48268">
        <ele>2093.8</ele>
        <time>2020-08-31T11:33:28.939Z</time>
      </trkpt>
      <trkpt lat="42.5296" lon="2.48273">
        <ele>2093.2</ele>
        <time>2020-08-31T11:33:29.987Z</time>
      </trkpt>
      <trkpt lat="42.52961" lon="2.48276">
        <ele>2092.8</ele>
        <time>2020-08-31T11:33:30.593Z</time>
      </trkpt>
      <trkpt lat="42.52961" lon="2.48283">
        <ele>2092.3</ele>
        <time>2020-08-31T11:33:31.881Z</time>
      </trkpt>
      <trkpt lat="42.52962" lon="2.48289">
        <ele>2091.6</ele>
        <time>2020-08-31T11:33:33.014Z</time>
      </trkpt>
      <trkpt lat="42.52963" lon="2.48294">
        <ele>2091.1</ele>
        <time>2020-08-31T11:33:33.967Z</time>
      </trkpt>
      <trkpt lat="42.52964" lon="2.48298">
        <ele>2090.7</ele>
        <time>2020-08-31T11:33:34.745Z</time>
      </trkpt>
      <trkpt lat="42.52964" lon="2.48301">
        <ele>2090.3</ele>
        <time>2020-08-31T11:33:35.297Z</time>
      </trkpt>
      <trkpt lat="42.52963" lon="2.48307">
        <ele>2089.9</ele>
        <time>2020-08-31T11:33:36.430Z</time>
      </trkpt>
      <trkpt lat="42.5296" lon="2.48313">
        <ele>2089.8</ele>
        <time>2020-08-31T11:33:38.350Z</time>
      </trkpt>
      <trkpt lat="42.52956" lon="2.48318">
        <ele>2089.8</ele>
        <time>2020-08-31T11:33:45.388Z</time>
      </trkpt>
      <trkpt lat="42.52953" lon="2.48322">
        <ele>2089.7</ele>
        <time>2020-08-31T11:33:46.814Z</time>
      </trkpt>
      <trkpt lat="42.52949" lon="2.48326">
        <ele>2089.7</ele>
        <time>2020-08-31T11:33:53.243Z</time>
      </trkpt>
      <trkpt lat="42.52943" lon="2.48329">
        <ele>2089.8</ele>
        <time>2020-08-31T11:34:02.901Z</time>
      </trkpt>
      <trkpt lat="42.52938" lon="2.4833">
        <ele>2089.8</ele>
        <time>2020-08-31T11:34:09.441Z</time>
      </trkpt>
      <trkpt lat="42.5293" lon="2.48333">
        <ele>2089.5</ele>
        <time>2020-08-31T11:34:11.912Z</time>
      </trkpt>
      <trkpt lat="42.52926" lon="2.48334">
        <ele>2084.1</ele>
        <time>2020-08-31T11:34:12.928Z</time>
      </trkpt>
      <trkpt lat="42.52918" lon="2.48335">
        <ele>2086.8</ele>
        <time>2020-08-31T11:34:53.026Z</time>
      </trkpt>
      <trkpt lat="42.52911" lon="2.48338">
        <ele>2084.5</ele>
        <time>2020-08-31T11:34:54.860Z</time>
      </trkpt>
      <trkpt lat="42.52903" lon="2.48341">
        <ele>2081.6</ele>
        <time>2020-08-31T11:34:56.933Z</time>
      </trkpt>
      <trkpt lat="42.52898" lon="2.48343">
        <ele>2080.2</ele>
        <time>2020-08-31T11:34:58.236Z</time>
      </trkpt>
      <trkpt lat="42.52891" lon="2.48344">
        <ele>2079</ele>
        <time>2020-08-31T11:34:59.994Z</time>
      </trkpt>
      <trkpt lat="42.52885" lon="2.48346">
        <ele>2078.2</ele>
        <time>2020-08-31T11:35:01.537Z</time>
      </trkpt>
      <trkpt lat="42.52877" lon="2.48348">
        <ele>2077.5</ele>
        <time>2020-08-31T11:35:03.569Z</time>
      </trkpt>
      <trkpt lat="42.52866" lon="2.48352">
        <ele>2076.9</ele>
        <time>2020-08-31T11:35:06.484Z</time>
      </trkpt>
      <trkpt lat="42.52853" lon="2.48352">
        <ele>2077.6</ele>
        <time>2020-08-31T11:35:36.659Z</time>
      </trkpt>
      <trkpt lat="42.5284" lon="2.48349">
        <ele>2079.7</ele>
        <time>2020-08-31T11:36:42.475Z</time>
      </trkpt>
      <trkpt lat="42.52832" lon="2.48347">
        <ele>2077.8</ele>
        <time>2020-08-31T11:36:44.508Z</time>
      </trkpt>
      <trkpt lat="42.52824" lon="2.48344">
        <ele>2077.6</ele>
        <time>2020-08-31T11:36:47.312Z</time>
      </trkpt>
      <trkpt lat="42.52817" lon="2.4834">
        <ele>2076.2</ele>
        <time>2020-08-31T11:36:49.209Z</time>
      </trkpt>
      <trkpt lat="42.52809" lon="2.48337">
        <ele>2074.4</ele>
        <time>2020-08-31T11:36:51.282Z</time>
      </trkpt>
      <trkpt lat="42.52803" lon="2.48337">
        <ele>2073</ele>
        <time>2020-08-31T11:36:52.781Z</time>
      </trkpt>
      <trkpt lat="42.52797" lon="2.48338">
        <ele>2071.8</ele>
        <time>2020-08-31T11:36:54.291Z</time>
      </trkpt>
      <trkpt lat="42.52788" lon="2.48336">
        <ele>2071.2</ele>
        <time>2020-08-31T11:36:56.392Z</time>
      </trkpt>
      <trkpt lat="42.52778" lon="2.48333">
        <ele>2089.6</ele>
        <time>2020-08-31T11:37:47.509Z</time>
      </trkpt>
      <trkpt lat="42.52766" lon="2.48331">
        <ele>2086.5</ele>
        <time>2020-08-31T11:37:50.529Z</time>
      </trkpt>
      <trkpt lat="42.52757" lon="2.48333">
        <ele>2081.8</ele>
        <time>2020-08-31T11:37:52.807Z</time>
      </trkpt>
      <trkpt lat="42.52747" lon="2.48333">
        <ele>2079.5</ele>
        <time>2020-08-31T11:37:55.305Z</time>
      </trkpt>
      <trkpt lat="42.52735" lon="2.48335">
        <ele>2073.5</ele>
        <time>2020-08-31T11:37:58.325Z</time>
      </trkpt>
      <trkpt lat="42.52727" lon="2.48338">
        <ele>2072.7</ele>
        <time>2020-08-31T11:38:00.398Z</time>
      </trkpt>
      <trkpt lat="42.52717" lon="2.48343">
        <ele>2072.3</ele>
        <time>2020-08-31T11:38:03.528Z</time>
      </trkpt>
      <trkpt lat="42.52706" lon="2.48352">
        <ele>2072.1</ele>
        <time>2020-08-31T11:38:08.326Z</time>
      </trkpt>
      <trkpt lat="42.52696" lon="2.48361">
        <ele>2071.9</ele>
        <time>2020-08-31T11:38:12.748Z</time>
      </trkpt>
      <trkpt lat="42.52688" lon="2.48368">
        <ele>2071.3</ele>
        <time>2020-08-31T11:38:14.988Z</time>
      </trkpt>
      <trkpt lat="42.52681" lon="2.48375">
        <ele>2070.4</ele>
        <time>2020-08-31T11:38:17.160Z</time>
      </trkpt>
      <trkpt lat="42.52673" lon="2.48381">
        <ele>2069.4</ele>
        <time>2020-08-31T11:38:19.443Z</time>
      </trkpt>
      <trkpt lat="42.52662" lon="2.48387">
        <ele>2074.8</ele>
        <time>2020-08-31T11:39:18.616Z</time>
      </trkpt>
      <trkpt lat="42.52653" lon="2.48393">
        <ele>2074</ele>
        <time>2020-08-31T11:39:21.120Z</time>
      </trkpt>
      <trkpt lat="42.52646" lon="2.48399">
        <ele>2073.5</ele>
        <time>2020-08-31T11:39:23.110Z</time>
      </trkpt>
      <trkpt lat="42.52638" lon="2.48408">
        <ele>2073.4</ele>
        <time>2020-08-31T11:39:27.299Z</time>
      </trkpt>
      <trkpt lat="42.52631" lon="2.48415">
        <ele>2073.5</ele>
        <time>2020-08-31T11:39:39.876Z</time>
      </trkpt>
      <trkpt lat="42.52619" lon="2.48429">
        <ele>2058.7</ele>
        <time>2020-08-31T11:39:43.829Z</time>
      </trkpt>
      <trkpt lat="42.52616" lon="2.48437">
        <ele>2058.1</ele>
        <time>2020-08-31T11:39:45.482Z</time>
      </trkpt>
      <trkpt lat="42.52609" lon="2.48439">
        <ele>2058.4</ele>
        <time>2020-08-31T11:40:00.512Z</time>
      </trkpt>
      <trkpt lat="42.52598" lon="2.48442">
        <ele>2058.7</ele>
        <time>2020-08-31T11:40:19.740Z</time>
      </trkpt>
      <trkpt lat="42.52595" lon="2.48443">
        <ele>2058.7</ele>
        <time>2020-08-31T11:40:23.738Z</time>
      </trkpt>
      <trkpt lat="42.5259" lon="2.48445">
        <ele>2058.6</ele>
        <time>2020-08-31T11:40:25.601Z</time>
      </trkpt>
      <trkpt lat="42.5258" lon="2.48443">
        <ele>2054.8</ele>
        <time>2020-08-31T11:40:28.126Z</time>
      </trkpt>
      <trkpt lat="42.5256" lon="2.4844">
        <ele>2052.8</ele>
        <time>2020-08-31T11:40:33.153Z</time>
      </trkpt>
      <trkpt lat="42.52556" lon="2.48441">
        <ele>2051.8</ele>
        <time>2020-08-31T11:40:34.169Z</time>
      </trkpt>
      <trkpt lat="42.52546" lon="2.48441">
        <ele>2050.3</ele>
        <time>2020-08-31T11:40:36.667Z</time>
      </trkpt>
      <trkpt lat="42.52542" lon="2.4844">
        <ele>2050</ele>
        <time>2020-08-31T11:40:37.683Z</time>
      </trkpt>
      <trkpt lat="42.52537" lon="2.48438">
        <ele>2049.7</ele>
        <time>2020-08-31T11:40:38.964Z</time>
      </trkpt>
      <trkpt lat="42.52535" lon="2.48438">
        <ele>2049.4</ele>
        <time>2020-08-31T11:40:39.464Z</time>
      </trkpt>
      <trkpt lat="42.52532" lon="2.48438">
        <ele>2049.1</ele>
        <time>2020-08-31T11:40:40.213Z</time>
      </trkpt>
      <trkpt lat="42.5253" lon="2.48444">
        <ele>2048.1</ele>
        <time>2020-08-31T11:40:41.425Z</time>
      </trkpt>
      <trkpt lat="42.52531" lon="2.48449">
        <ele>2047.4</ele>
        <time>2020-08-31T11:40:42.379Z</time>
      </trkpt>
      <trkpt lat="42.52532" lon="2.48452">
        <ele>2047.2</ele>
        <time>2020-08-31T11:40:42.985Z</time>
      </trkpt>
      <trkpt lat="42.52534" lon="2.48454">
        <ele>2047</ele>
        <time>2020-08-31T11:40:43.606Z</time>
      </trkpt>
      <trkpt lat="42.52538" lon="2.48457">
        <ele>2047</ele>
        <time>2020-08-31T11:40:49.520Z</time>
      </trkpt>
      <trkpt lat="42.52542" lon="2.48459">
        <ele>2047.2</ele>
        <time>2020-08-31T11:40:58.974Z</time>
      </trkpt>
      <trkpt lat="42.52547" lon="2.4846">
        <ele>2047.6</ele>
        <time>2020-08-31T11:41:13.109Z</time>
      </trkpt>
      <trkpt lat="42.52551" lon="2.48462">
        <ele>2047.8</ele>
        <time>2020-08-31T11:41:22.563Z</time>
      </trkpt>
      <trkpt lat="42.52555" lon="2.48465">
        <ele>2047.9</ele>
        <time>2020-08-31T11:41:29.960Z</time>
      </trkpt>
      <trkpt lat="42.5256" lon="2.48469">
        <ele>2047.8</ele>
        <time>2020-08-31T11:41:32.084Z</time>
      </trkpt>
      <trkpt lat="42.52564" lon="2.48472">
        <ele>2047.8</ele>
        <time>2020-08-31T11:41:37.998Z</time>
      </trkpt>
      <trkpt lat="42.5257" lon="2.48474">
        <ele>2048</ele>
        <time>2020-08-31T11:41:49.363Z</time>
      </trkpt>
      <trkpt lat="42.52576" lon="2.48477">
        <ele>2048</ele>
        <time>2020-08-31T11:41:57.637Z</time>
      </trkpt>
      <trkpt lat="42.52581" lon="2.48479">
        <ele>2048</ele>
        <time>2020-08-31T11:42:04.382Z</time>
      </trkpt>
      <trkpt lat="42.52584" lon="2.48481">
        <ele>2051.8</ele>
        <time>2020-08-31T11:42:21.065Z</time>
      </trkpt>
      <trkpt lat="42.52588" lon="2.48483">
        <ele>2051.4</ele>
        <time>2020-08-31T11:42:22.130Z</time>
      </trkpt>
      <trkpt lat="42.52591" lon="2.48485">
        <ele>2051.3</ele>
        <time>2020-08-31T11:42:23.190Z</time>
      </trkpt>
      <trkpt lat="42.52593" lon="2.48486">
        <ele>2051.2</ele>
        <time>2020-08-31T11:42:23.764Z</time>
      </trkpt>
      <trkpt lat="42.52601" lon="2.48495">
        <ele>2051</ele>
        <time>2020-08-31T11:42:27.477Z</time>
      </trkpt>
      <trkpt lat="42.52607" lon="2.48496">
        <ele>2051.4</ele>
        <time>2020-08-31T11:42:42.775Z</time>
      </trkpt>
      <trkpt lat="42.52616" lon="2.48496">
        <ele>2051.6</ele>
        <time>2020-08-31T11:42:57.398Z</time>
      </trkpt>
      <trkpt lat="42.52624" lon="2.48498">
        <ele>2051.5</ele>
        <time>2020-08-31T11:43:00.564Z</time>
      </trkpt>
      <trkpt lat="42.52629" lon="2.48498">
        <ele>2051.2</ele>
        <time>2020-08-31T11:43:01.769Z</time>
      </trkpt>
      <trkpt lat="42.52638" lon="2.48499">
        <ele>2050.5</ele>
        <time>2020-08-31T11:43:04.025Z</time>
      </trkpt>
      <trkpt lat="42.52648" lon="2.48499">
        <ele>2049</ele>
        <time>2020-08-31T11:43:06.523Z</time>
      </trkpt>
      <trkpt lat="42.52652" lon="2.48502">
        <ele>2038.7</ele>
        <time>2020-08-31T11:43:07.665Z</time>
      </trkpt>
      <trkpt lat="42.52653" lon="2.48507">
        <ele>2038.5</ele>
        <time>2020-08-31T11:43:08.645Z</time>
      </trkpt>
      <trkpt lat="42.52651" lon="2.48514">
        <ele>2037.2</ele>
        <time>2020-08-31T11:43:10.027Z</time>
      </trkpt>
      <trkpt lat="42.52647" lon="2.48518">
        <ele>2036.2</ele>
        <time>2020-08-31T11:43:11.268Z</time>
      </trkpt>
      <trkpt lat="42.52643" lon="2.48522">
        <ele>2035.4</ele>
        <time>2020-08-31T11:43:12.509Z</time>
      </trkpt>
      <trkpt lat="42.52643" lon="2.48525">
        <ele>2035</ele>
        <time>2020-08-31T11:43:13.061Z</time>
      </trkpt>
      <trkpt lat="42.52643" lon="2.48529">
        <ele>2034.4</ele>
        <time>2020-08-31T11:43:13.798Z</time>
      </trkpt>
      <trkpt lat="42.52649" lon="2.48537">
        <ele>2033.4</ele>
        <time>2020-08-31T11:43:15.899Z</time>
      </trkpt>
      <trkpt lat="42.52657" lon="2.48544">
        <ele>2032.4</ele>
        <time>2020-08-31T11:43:18.277Z</time>
      </trkpt>
      <trkpt lat="42.52665" lon="2.48548">
        <ele>2032</ele>
        <time>2020-08-31T11:43:20.571Z</time>
      </trkpt>
      <trkpt lat="42.52671" lon="2.48547">
        <ele>2027.1</ele>
        <time>2020-08-31T11:43:22.081Z</time>
      </trkpt>
      <trkpt lat="42.52673" lon="2.48544">
        <ele>2027.4</ele>
        <time>2020-08-31T11:43:32.175Z</time>
      </trkpt>
      <trkpt lat="42.52673" lon="2.48537">
        <ele>2028.4</ele>
        <time>2020-08-31T11:43:57.923Z</time>
      </trkpt>
      <trkpt lat="42.52674" lon="2.48532">
        <ele>2029.3</ele>
        <time>2020-08-31T11:44:16.980Z</time>
      </trkpt>
      <trkpt lat="42.52678" lon="2.4853">
        <ele>2029.5</ele>
        <time>2020-08-31T11:44:26.435Z</time>
      </trkpt>
      <trkpt lat="42.52686" lon="2.48526">
        <ele>2029.2</ele>
        <time>2020-08-31T11:44:28.997Z</time>
      </trkpt>
      <trkpt lat="42.52691" lon="2.48527">
        <ele>2028.3</ele>
        <time>2020-08-31T11:44:30.259Z</time>
      </trkpt>
      <trkpt lat="42.52694" lon="2.48527">
        <ele>2027.8</ele>
        <time>2020-08-31T11:44:31.009Z</time>
      </trkpt>
      <trkpt lat="42.52696" lon="2.4853">
        <ele>2027.2</ele>
        <time>2020-08-31T11:44:31.754Z</time>
      </trkpt>
      <trkpt lat="42.52696" lon="2.48545">
        <ele>2025.2</ele>
        <time>2020-08-31T11:44:34.515Z</time>
      </trkpt>
      <trkpt lat="42.52696" lon="2.48551">
        <ele>2024.5</ele>
        <time>2020-08-31T11:44:35.620Z</time>
      </trkpt>
      <trkpt lat="42.52696" lon="2.48556">
        <ele>2024.1</ele>
        <time>2020-08-31T11:44:36.540Z</time>
      </trkpt>
      <trkpt lat="42.52696" lon="2.48563">
        <ele>2023.5</ele>
        <time>2020-08-31T11:44:37.829Z</time>
      </trkpt>
      <trkpt lat="42.52694" lon="2.48569">
        <ele>2023.3</ele>
        <time>2020-08-31T11:44:39.205Z</time>
      </trkpt>
      <trkpt lat="42.52693" lon="2.48574">
        <ele>2023.3</ele>
        <time>2020-08-31T11:44:44.145Z</time>
      </trkpt>
      <trkpt lat="42.52691" lon="2.48579">
        <ele>2023.3</ele>
        <time>2020-08-31T11:44:49.570Z</time>
      </trkpt>
      <trkpt lat="42.5269" lon="2.48584">
        <ele>2009.2</ele>
        <time>2020-08-31T11:44:50.524Z</time>
      </trkpt>
      <trkpt lat="42.52688" lon="2.4859">
        <ele>2009.3</ele>
        <time>2020-08-31T11:44:58.265Z</time>
      </trkpt>
      <trkpt lat="42.52686" lon="2.48594">
        <ele>2008.9</ele>
        <time>2020-08-31T11:44:59.155Z</time>
      </trkpt>
      <trkpt lat="42.52685" lon="2.48597">
        <ele>2008.3</ele>
        <time>2020-08-31T11:44:59.761Z</time>
      </trkpt>
      <trkpt lat="42.52683" lon="2.48603">
        <ele>2006.8</ele>
        <time>2020-08-31T11:45:00.973Z</time>
      </trkpt>
      <trkpt lat="42.52681" lon="2.48612">
        <ele>2003.9</ele>
        <time>2020-08-31T11:45:02.704Z</time>
      </trkpt>
      <trkpt lat="42.52682" lon="2.48615">
        <ele>2002.6</ele>
        <time>2020-08-31T11:45:03.310Z</time>
      </trkpt>
      <trkpt lat="42.52684" lon="2.48618">
        <ele>2001.3</ele>
        <time>2020-08-31T11:45:04.055Z</time>
      </trkpt>
      <trkpt lat="42.52687" lon="2.48622">
        <ele>1999.7</ele>
        <time>2020-08-31T11:45:05.105Z</time>
      </trkpt>
      <trkpt lat="42.5269" lon="2.48626">
        <ele>1998.2</ele>
        <time>2020-08-31T11:45:06.156Z</time>
      </trkpt>
      <trkpt lat="42.52695" lon="2.48631">
        <ele>1996.8</ele>
        <time>2020-08-31T11:45:07.708Z</time>
      </trkpt>
      <trkpt lat="42.52698" lon="2.48633">
        <ele>1996.2</ele>
        <time>2020-08-31T11:45:08.543Z</time>
      </trkpt>
      <trkpt lat="42.52703" lon="2.48635">
        <ele>1995.8</ele>
        <time>2020-08-31T11:45:09.845Z</time>
      </trkpt>
      <trkpt lat="42.52706" lon="2.48636">
        <ele>1995.4</ele>
        <time>2020-08-31T11:45:10.616Z</time>
      </trkpt>
      <trkpt lat="42.52709" lon="2.48639">
        <ele>1994.8</ele>
        <time>2020-08-31T11:45:11.547Z</time>
      </trkpt>
      <trkpt lat="42.52709" lon="2.48642">
        <ele>1994.3</ele>
        <time>2020-08-31T11:45:12.099Z</time>
      </trkpt>
      <trkpt lat="42.52708" lon="2.48644">
        <ele>1993.9</ele>
        <time>2020-08-31T11:45:12.544Z</time>
      </trkpt>
      <trkpt lat="42.52709" lon="2.48649">
        <ele>1993.1</ele>
        <time>2020-08-31T11:45:13.498Z</time>
      </trkpt>
      <trkpt lat="42.52714" lon="2.48652">
        <ele>1992.6</ele>
        <time>2020-08-31T11:45:14.864Z</time>
      </trkpt>
      <trkpt lat="42.52718" lon="2.48652">
        <ele>1992.3</ele>
        <time>2020-08-31T11:45:15.863Z</time>
      </trkpt>
      <trkpt lat="42.52721" lon="2.48653">
        <ele>1992</ele>
        <time>2020-08-31T11:45:16.635Z</time>
      </trkpt>
      <trkpt lat="42.52722" lon="2.48654">
        <ele>1991.7</ele>
        <time>2020-08-31T11:45:16.945Z</time>
      </trkpt>
      <trkpt lat="42.52722" lon="2.48656">
        <ele>1991.4</ele>
        <time>2020-08-31T11:45:17.313Z</time>
      </trkpt>
      <trkpt lat="42.5272" lon="2.4866">
        <ele>1991.1</ele>
        <time>2020-08-31T11:45:18.203Z</time>
      </trkpt>
      <trkpt lat="42.52718" lon="2.48662">
        <ele>1991.1</ele>
        <time>2020-08-31T11:45:21.418Z</time>
      </trkpt>
      <trkpt lat="42.52714" lon="2.48668">
        <ele>1973.1</ele>
        <time>2020-08-31T11:45:22.907Z</time>
      </trkpt>
      <trkpt lat="42.52715" lon="2.48671">
        <ele>1973</ele>
        <time>2020-08-31T11:45:23.595Z</time>
      </trkpt>
      <trkpt lat="42.52715" lon="2.48673">
        <ele>1972.8</ele>
        <time>2020-08-31T11:45:23.964Z</time>
      </trkpt>
      <trkpt lat="42.52713" lon="2.48675">
        <ele>1972.5</ele>
        <time>2020-08-31T11:45:24.584Z</time>
      </trkpt>
      <trkpt lat="42.52713" lon="2.48677">
        <ele>1972.3</ele>
        <time>2020-08-31T11:45:24.952Z</time>
      </trkpt>
      <trkpt lat="42.52714" lon="2.48679">
        <ele>1972.1</ele>
        <time>2020-08-31T11:45:25.397Z</time>
      </trkpt>
      <trkpt lat="42.52716" lon="2.48682">
        <ele>1971.9</ele>
        <time>2020-08-31T11:45:26.142Z</time>
      </trkpt>
      <trkpt lat="42.5272" lon="2.48685">
        <ele>1971.8</ele>
        <time>2020-08-31T11:45:27.725Z</time>
      </trkpt>
      <trkpt lat="42.52723" lon="2.48687">
        <ele>1971.7</ele>
        <time>2020-08-31T11:45:28.786Z</time>
      </trkpt>
      <trkpt lat="42.52724" lon="2.48688">
        <ele>1971.5</ele>
        <time>2020-08-31T11:45:29.096Z</time>
      </trkpt>
      <trkpt lat="42.52724" lon="2.48691">
        <ele>1971.1</ele>
        <time>2020-08-31T11:45:29.648Z</time>
      </trkpt>
      <trkpt lat="42.52723" lon="2.48694">
        <ele>1970.5</ele>
        <time>2020-08-31T11:45:30.254Z</time>
      </trkpt>
      <trkpt lat="42.52725" lon="2.48697">
        <ele>1970.1</ele>
        <time>2020-08-31T11:45:30.999Z</time>
      </trkpt>
      <trkpt lat="42.52727" lon="2.48698">
        <ele>1970</ele>
        <time>2020-08-31T11:45:31.573Z</time>
      </trkpt>
      <trkpt lat="42.52728" lon="2.48699">
        <ele>1969.8</ele>
        <time>2020-08-31T11:45:31.883Z</time>
      </trkpt>
      <trkpt lat="42.52729" lon="2.487">
        <ele>1969.7</ele>
        <time>2020-08-31T11:45:32.193Z</time>
      </trkpt>
      <trkpt lat="42.52728" lon="2.48702">
        <ele>1969.3</ele>
        <time>2020-08-31T11:45:32.638Z</time>
      </trkpt>
      <trkpt lat="42.52726" lon="2.48703">
        <ele>1969</ele>
        <time>2020-08-31T11:45:33.171Z</time>
      </trkpt>
      <trkpt lat="42.52723" lon="2.48704">
        <ele>1968.8</ele>
        <time>2020-08-31T11:45:33.888Z</time>
      </trkpt>
      <trkpt lat="42.52722" lon="2.48706">
        <ele>1968.5</ele>
        <time>2020-08-31T11:45:34.333Z</time>
      </trkpt>
      <trkpt lat="42.5272" lon="2.48708">
        <ele>1968.1</ele>
        <time>2020-08-31T11:45:34.953Z</time>
      </trkpt>
      <trkpt lat="42.52718" lon="2.4871">
        <ele>1967.7</ele>
        <time>2020-08-31T11:45:35.574Z</time>
      </trkpt>
      <trkpt lat="42.52716" lon="2.48711">
        <ele>1967.5</ele>
        <time>2020-08-31T11:45:36.107Z</time>
      </trkpt>
      <trkpt lat="42.5271" lon="2.48716">
        <ele>1966.8</ele>
        <time>2020-08-31T11:45:37.865Z</time>
      </trkpt>
      <trkpt lat="42.52708" lon="2.48718">
        <ele>1966.5</ele>
        <time>2020-08-31T11:45:38.486Z</time>
      </trkpt>
      <trkpt lat="42.52711" lon="2.4872">
        <ele>1966.2</ele>
        <time>2020-08-31T11:45:39.321Z</time>
      </trkpt>
      <trkpt lat="42.52713" lon="2.48721">
        <ele>1966</ele>
        <time>2020-08-31T11:45:39.853Z</time>
      </trkpt>
      <trkpt lat="42.52717" lon="2.48724">
        <ele>1965.5</ele>
        <time>2020-08-31T11:45:40.995Z</time>
      </trkpt>
      <trkpt lat="42.5272" lon="2.48727">
        <ele>1965</ele>
        <time>2020-08-31T11:45:41.926Z</time>
      </trkpt>
      <trkpt lat="42.52721" lon="2.48729">
        <ele>1964.5</ele>
        <time>2020-08-31T11:45:42.371Z</time>
      </trkpt>
      <trkpt lat="42.52725" lon="2.48732">
        <ele>1963.8</ele>
        <time>2020-08-31T11:45:43.513Z</time>
      </trkpt>
      <trkpt lat="42.52728" lon="2.48735">
        <ele>1963</ele>
        <time>2020-08-31T11:45:44.443Z</time>
      </trkpt>
      <trkpt lat="42.52731" lon="2.48738">
        <ele>1962.1</ele>
        <time>2020-08-31T11:45:45.374Z</time>
      </trkpt>
      <trkpt lat="42.52732" lon="2.4874">
        <ele>1961.7</ele>
        <time>2020-08-31T11:45:45.819Z</time>
      </trkpt>
      <trkpt lat="42.52733" lon="2.48744">
        <ele>1960.9</ele>
        <time>2020-08-31T11:45:46.597Z</time>
      </trkpt>
      <trkpt lat="42.52731" lon="2.48748">
        <ele>1960.8</ele>
        <time>2020-08-31T11:45:47.749Z</time>
      </trkpt>
      <trkpt lat="42.52729" lon="2.48753">
        <ele>1946.5</ele>
        <time>2020-08-31T11:45:48.796Z</time>
      </trkpt>
      <trkpt lat="42.52727" lon="2.48759">
        <ele>1945.5</ele>
        <time>2020-08-31T11:45:50.009Z</time>
      </trkpt>
      <trkpt lat="42.52725" lon="2.48764">
        <ele>1944.5</ele>
        <time>2020-08-31T11:45:51.056Z</time>
      </trkpt>
      <trkpt lat="42.52723" lon="2.48769">
        <ele>1943.5</ele>
        <time>2020-08-31T11:45:52.103Z</time>
      </trkpt>
      <trkpt lat="42.52721" lon="2.48775">
        <ele>1942.4</ele>
        <time>2020-08-31T11:45:53.316Z</time>
      </trkpt>
      <trkpt lat="42.5272" lon="2.48777">
        <ele>1942</ele>
        <time>2020-08-31T11:45:53.760Z</time>
      </trkpt>
      <trkpt lat="42.52717" lon="2.48779">
        <ele>1941.5</ele>
        <time>2020-08-31T11:45:54.595Z</time>
      </trkpt>
      <trkpt lat="42.52715" lon="2.48784">
        <ele>1940.5</ele>
        <time>2020-08-31T11:45:55.643Z</time>
      </trkpt>
      <trkpt lat="42.52717" lon="2.4879">
        <ele>1939.5</ele>
        <time>2020-08-31T11:45:56.855Z</time>
      </trkpt>
      <trkpt lat="42.52719" lon="2.4879">
        <ele>1939.4</ele>
        <time>2020-08-31T11:45:57.379Z</time>
      </trkpt>
      <trkpt lat="42.52722" lon="2.48791">
        <ele>1939.4</ele>
        <time>2020-08-31T11:46:01.376Z</time>
      </trkpt>
      <trkpt lat="42.52725" lon="2.48791">
        <ele>1939.4</ele>
        <time>2020-08-31T11:46:05.258Z</time>
      </trkpt>
      <trkpt lat="42.5273" lon="2.4879">
        <ele>1939.8</ele>
        <time>2020-08-31T11:46:19.393Z</time>
      </trkpt>
      <trkpt lat="42.52732" lon="2.48789">
        <ele>1940.1</ele>
        <time>2020-08-31T11:46:30.031Z</time>
      </trkpt>
      <trkpt lat="42.52733" lon="2.48795">
        <ele>1939</ele>
        <time>2020-08-31T11:46:31.164Z</time>
      </trkpt>
      <trkpt lat="42.52732" lon="2.48799">
        <ele>1938.1</ele>
        <time>2020-08-31T11:46:31.941Z</time>
      </trkpt>
      <trkpt lat="42.52731" lon="2.48804">
        <ele>1937.1</ele>
        <time>2020-08-31T11:46:32.895Z</time>
      </trkpt>
      <trkpt lat="42.52729" lon="2.48809">
        <ele>1936.2</ele>
        <time>2020-08-31T11:46:33.942Z</time>
      </trkpt>
      <trkpt lat="42.52728" lon="2.48813">
        <ele>1935.6</ele>
        <time>2020-08-31T11:46:34.720Z</time>
      </trkpt>
      <trkpt lat="42.5273" lon="2.48817">
        <ele>1935.1</ele>
        <time>2020-08-31T11:46:35.610Z</time>
      </trkpt>
      <trkpt lat="42.52734" lon="2.4882">
        <ele>1934.5</ele>
        <time>2020-08-31T11:46:36.751Z</time>
      </trkpt>
      <trkpt lat="42.52738" lon="2.48823">
        <ele>1933.8</ele>
        <time>2020-08-31T11:46:37.893Z</time>
      </trkpt>
      <trkpt lat="42.5274" lon="2.48826">
        <ele>1933</ele>
        <time>2020-08-31T11:46:38.638Z</time>
      </trkpt>
      <trkpt lat="42.52743" lon="2.4883">
        <ele>1932</ele>
        <time>2020-08-31T11:46:39.688Z</time>
      </trkpt>
      <trkpt lat="42.52744" lon="2.48835">
        <ele>1925</ele>
        <time>2020-08-31T11:46:40.642Z</time>
      </trkpt>
      <trkpt lat="42.52745" lon="2.4884">
        <ele>1923.1</ele>
        <time>2020-08-31T11:46:41.596Z</time>
      </trkpt>
      <trkpt lat="42.52743" lon="2.48848">
        <ele>1918.7</ele>
        <time>2020-08-31T11:46:43.151Z</time>
      </trkpt>
      <trkpt lat="42.5274" lon="2.48853">
        <ele>1916.1</ele>
        <time>2020-08-31T11:46:44.338Z</time>
      </trkpt>
      <trkpt lat="42.52738" lon="2.48852">
        <ele>1916</ele>
        <time>2020-08-31T11:46:44.912Z</time>
      </trkpt>
      <trkpt lat="42.52734" lon="2.4885">
        <ele>1915.6</ele>
        <time>2020-08-31T11:46:45.977Z</time>
      </trkpt>
      <trkpt lat="42.52727" lon="2.4885">
        <ele>1914</ele>
        <time>2020-08-31T11:46:47.725Z</time>
      </trkpt>
      <trkpt lat="42.52724" lon="2.48849">
        <ele>1913.4</ele>
        <time>2020-08-31T11:46:48.497Z</time>
      </trkpt>
      <trkpt lat="42.52721" lon="2.48849">
        <ele>1913</ele>
        <time>2020-08-31T11:46:49.246Z</time>
      </trkpt>
      <trkpt lat="42.52717" lon="2.48847">
        <ele>1912.5</ele>
        <time>2020-08-31T11:46:50.311Z</time>
      </trkpt>
      <trkpt lat="42.52712" lon="2.48848">
        <ele>1911.6</ele>
        <time>2020-08-31T11:46:51.574Z</time>
      </trkpt>
      <trkpt lat="42.52713" lon="2.4885">
        <ele>1911.3</ele>
        <time>2020-08-31T11:46:52.018Z</time>
      </trkpt>
      <trkpt lat="42.52715" lon="2.48853">
        <ele>1911</ele>
        <time>2020-08-31T11:46:52.763Z</time>
      </trkpt>
      <trkpt lat="42.52718" lon="2.48857">
        <ele>1910.9</ele>
        <time>2020-08-31T11:46:54.189Z</time>
      </trkpt>
      <trkpt lat="42.52721" lon="2.48859">
        <ele>1911</ele>
        <time>2020-08-31T11:47:00.147Z</time>
      </trkpt>
      <trkpt lat="42.52725" lon="2.48861">
        <ele>1911</ele>
        <time>2020-08-31T11:47:05.663Z</time>
      </trkpt>
      <trkpt lat="42.52728" lon="2.48862">
        <ele>1911.3</ele>
        <time>2020-08-31T11:47:15.774Z</time>
      </trkpt>
      <trkpt lat="42.52731" lon="2.48865">
        <ele>1911</ele>
        <time>2020-08-31T11:47:16.705Z</time>
      </trkpt>
      <trkpt lat="42.52735" lon="2.48869">
        <ele>1910.1</ele>
        <time>2020-08-31T11:47:17.946Z</time>
      </trkpt>
      <trkpt lat="42.52736" lon="2.48871">
        <ele>1909.7</ele>
        <time>2020-08-31T11:47:18.391Z</time>
      </trkpt>
      <trkpt lat="42.52739" lon="2.48876">
        <ele>1908.8</ele>
        <time>2020-08-31T11:47:19.578Z</time>
      </trkpt>
      <trkpt lat="42.52743" lon="2.48882">
        <ele>1907.4</ele>
        <time>2020-08-31T11:47:21.068Z</time>
      </trkpt>
      <trkpt lat="42.52747" lon="2.48887">
        <ele>1906.2</ele>
        <time>2020-08-31T11:47:22.426Z</time>
      </trkpt>
      <trkpt lat="42.52751" lon="2.48891">
        <ele>1906.9</ele>
        <time>2020-08-31T11:47:47.227Z</time>
      </trkpt>
      <trkpt lat="42.52754" lon="2.48894">
        <ele>1905.9</ele>
        <time>2020-08-31T11:47:48.157Z</time>
      </trkpt>
      <trkpt lat="42.52757" lon="2.48899">
        <ele>1904.8</ele>
        <time>2020-08-31T11:47:49.344Z</time>
      </trkpt>
      <trkpt lat="42.52759" lon="2.48904">
        <ele>1903.9</ele>
        <time>2020-08-31T11:47:50.392Z</time>
      </trkpt>
      <trkpt lat="42.52762" lon="2.48912">
        <ele>1902.7</ele>
        <time>2020-08-31T11:47:52.044Z</time>
      </trkpt>
      <trkpt lat="42.52764" lon="2.48918">
        <ele>1890.5</ele>
        <time>2020-08-31T11:47:53.256Z</time>
      </trkpt>
      <trkpt lat="42.52766" lon="2.48923">
        <ele>1889.3</ele>
        <time>2020-08-31T11:47:54.304Z</time>
      </trkpt>
      <trkpt lat="42.52768" lon="2.48928">
        <ele>1887.4</ele>
        <time>2020-08-31T11:47:55.351Z</time>
      </trkpt>
      <trkpt lat="42.52771" lon="2.48935">
        <ele>1885.1</ele>
        <time>2020-08-31T11:47:56.842Z</time>
      </trkpt>
      <trkpt lat="42.52774" lon="2.4894">
        <ele>1883.5</ele>
        <time>2020-08-31T11:47:58.029Z</time>
      </trkpt>
      <trkpt lat="42.52777" lon="2.48948">
        <ele>1881.7</ele>
        <time>2020-08-31T11:47:59.681Z</time>
      </trkpt>
      <trkpt lat="42.52779" lon="2.48954">
        <ele>1880.2</ele>
        <time>2020-08-31T11:48:00.893Z</time>
      </trkpt>
      <trkpt lat="42.52782" lon="2.48962">
        <ele>1878.4</ele>
        <time>2020-08-31T11:48:02.546Z</time>
      </trkpt>
      <trkpt lat="42.52786" lon="2.4897">
        <ele>1877</ele>
        <time>2020-08-31T11:48:04.325Z</time>
      </trkpt>
      <trkpt lat="42.52789" lon="2.48976">
        <ele>1876</ele>
        <time>2020-08-31T11:48:05.660Z</time>
      </trkpt>
      <trkpt lat="42.52793" lon="2.48983">
        <ele>1875.1</ele>
        <time>2020-08-31T11:48:07.291Z</time>
      </trkpt>
      <trkpt lat="42.52795" lon="2.48991">
        <ele>1874.2</ele>
        <time>2020-08-31T11:48:08.846Z</time>
      </trkpt>
      <trkpt lat="42.52798" lon="2.49002">
        <ele>1859.4</ele>
        <time>2020-08-31T11:48:11.005Z</time>
      </trkpt>
      <trkpt lat="42.52798" lon="2.49003">
        <ele>1859.4</ele>
        <time>2020-08-31T11:48:11.959Z</time>
      </trkpt>
      <trkpt lat="42.528" lon="2.49008">
        <ele>1859.2</ele>
        <time>2020-08-31T11:48:13.079Z</time>
        <extensions>
          <visugpx:TrkExtension xmlns:visugpx="https://www.visugpx.com/editgpx/">
            <visugpx:node>15</visugpx:node>
            </visugpx:TrkExtension>
        </extensions>
      </trkpt>
      <trkpt lat="42.52801" lon="2.49011">
        <ele>1859.1</ele>
        <time>2020-08-31T11:48:13.767Z</time>
      </trkpt>
      <trkpt lat="42.52803" lon="2.49017">
        <ele>1858.8</ele>
        <time>2020-08-31T11:48:14.920Z</time>
      </trkpt>
      <trkpt lat="42.52805" lon="2.49027">
        <ele>1858.1</ele>
        <time>2020-08-31T11:48:16.828Z</time>
      </trkpt>
      <trkpt lat="42.52809" lon="2.49045">
        <ele>1856.6</ele>
        <time>2020-08-31T11:48:20.288Z</time>
      </trkpt>
      <trkpt lat="42.5281" lon="2.49054">
        <ele>1856</ele>
        <time>2020-08-31T11:48:21.964Z</time>
      </trkpt>
      <trkpt lat="42.52812" lon="2.49059">
        <ele>1855.8</ele>
        <time>2020-08-31T11:48:23.084Z</time>
      </trkpt>
      <trkpt lat="42.52812" lon="2.4906">
        <ele>1855.8</ele>
        <time>2020-08-31T11:48:24.038Z</time>
      </trkpt>
      <trkpt lat="42.52816" lon="2.49062">
        <ele>1855.9</ele>
        <time>2020-08-31T11:48:31.064Z</time>
      </trkpt>
      <trkpt lat="42.52819" lon="2.49062">
        <ele>1856.1</ele>
        <time>2020-08-31T11:48:38.684Z</time>
      </trkpt>
      <trkpt lat="42.52821" lon="2.49066">
        <ele>1856.1</ele>
        <time>2020-08-31T11:48:43.293Z</time>
      </trkpt>
      <trkpt lat="42.52824" lon="2.49075">
        <ele>1856.2</ele>
        <time>2020-08-31T11:48:54.069Z</time>
      </trkpt>
      <trkpt lat="42.52828" lon="2.49081">
        <ele>1856.6</ele>
        <time>2020-08-31T11:49:09.261Z</time>
      </trkpt>
      <trkpt lat="42.52831" lon="2.49084">
        <ele>1854.5</ele>
        <time>2020-08-31T11:49:10.192Z</time>
      </trkpt>
      <trkpt lat="42.52832" lon="2.49087">
        <ele>1853.9</ele>
        <time>2020-08-31T11:49:10.798Z</time>
      </trkpt>
      <trkpt lat="42.52839" lon="2.49101">
        <ele>1849.6</ele>
        <time>2020-08-31T11:49:13.912Z</time>
      </trkpt>
      <trkpt lat="42.52844" lon="2.49117">
        <ele>1846.2</ele>
        <time>2020-08-31T11:49:17.111Z</time>
      </trkpt>
      <trkpt lat="42.52847" lon="2.49122">
        <ele>1845.4</ele>
        <time>2020-08-31T11:49:18.298Z</time>
      </trkpt>
      <trkpt lat="42.52849" lon="2.49129">
        <ele>1844.6</ele>
        <time>2020-08-31T11:49:19.680Z</time>
      </trkpt>
      <trkpt lat="42.5285" lon="2.49137">
        <ele>1844</ele>
        <time>2020-08-31T11:49:21.174Z</time>
      </trkpt>
      <trkpt lat="42.52852" lon="2.49148">
        <ele>1843.4</ele>
        <time>2020-08-31T11:49:23.260Z</time>
      </trkpt>
      <trkpt lat="42.52852" lon="2.49158">
        <ele>1843</ele>
        <time>2020-08-31T11:49:25.121Z</time>
      </trkpt>
      <trkpt lat="42.52852" lon="2.49165">
        <ele>1842.9</ele>
        <time>2020-08-31T11:49:26.961Z</time>
      </trkpt>
      <trkpt lat="42.52854" lon="2.49172">
        <ele>1836.9</ele>
        <time>2020-08-31T11:49:28.343Z</time>
      </trkpt>
      <trkpt lat="42.52857" lon="2.4918">
        <ele>1835.8</ele>
        <time>2020-08-31T11:49:29.995Z</time>
      </trkpt>
      <trkpt lat="42.5286" lon="2.49188">
        <ele>1834.6</ele>
        <time>2020-08-31T11:49:31.648Z</time>
      </trkpt>
      <trkpt lat="42.52863" lon="2.49194">
        <ele>1833.9</ele>
        <time>2020-08-31T11:49:32.982Z</time>
      </trkpt>
      <trkpt lat="42.52867" lon="2.49201">
        <ele>1833.1</ele>
        <time>2020-08-31T11:49:34.613Z</time>
      </trkpt>
      <trkpt lat="42.52871" lon="2.49209">
        <ele>1832.3</ele>
        <time>2020-08-31T11:49:36.393Z</time>
      </trkpt>
      <trkpt lat="42.52874" lon="2.49217">
        <ele>1831.7</ele>
        <time>2020-08-31T11:49:38.045Z</time>
      </trkpt>
      <trkpt lat="42.52876" lon="2.49224">
        <ele>1831.3</ele>
        <time>2020-08-31T11:49:39.427Z</time>
      </trkpt>
      <trkpt lat="42.52877" lon="2.49229">
        <ele>1831</ele>
        <time>2020-08-31T11:49:40.381Z</time>
      </trkpt>
      <trkpt lat="42.52878" lon="2.49234">
        <ele>1830.8</ele>
        <time>2020-08-31T11:49:41.361Z</time>
      </trkpt>
      <trkpt lat="42.52878" lon="2.49236">
        <ele>1830.7</ele>
        <time>2020-08-31T11:49:41.729Z</time>
      </trkpt>
      <trkpt lat="42.52878" lon="2.49239">
        <ele>1830.5</ele>
        <time>2020-08-31T11:49:42.281Z</time>
      </trkpt>
      <trkpt lat="42.52879" lon="2.49247">
        <ele>1830.3</ele>
        <time>2020-08-31T11:49:44.110Z</time>
      </trkpt>
      <trkpt lat="42.52879" lon="2.49253">
        <ele>1820.2</ele>
        <time>2020-08-31T11:49:45.214Z</time>
      </trkpt>
      <trkpt lat="42.5288" lon="2.49268">
        <ele>1819.4</ele>
        <time>2020-08-31T11:49:47.987Z</time>
      </trkpt>
      <trkpt lat="42.52883" lon="2.49282">
        <ele>1818.2</ele>
        <time>2020-08-31T11:49:50.671Z</time>
      </trkpt>
      <trkpt lat="42.52885" lon="2.4929">
        <ele>1817.6</ele>
        <time>2020-08-31T11:49:52.226Z</time>
      </trkpt>
      <trkpt lat="42.52886" lon="2.49296">
        <ele>1817</ele>
        <time>2020-08-31T11:49:53.358Z</time>
      </trkpt>
      <trkpt lat="42.52888" lon="2.49299">
        <ele>1816.9</ele>
        <time>2020-08-31T11:49:54.269Z</time>
      </trkpt>
      <trkpt lat="42.5289" lon="2.49301">
        <ele>1817</ele>
        <time>2020-08-31T11:49:59.362Z</time>
      </trkpt>
      <trkpt lat="42.52891" lon="2.49304">
        <ele>1816.9</ele>
        <time>2020-08-31T11:50:00.050Z</time>
      </trkpt>
      <trkpt lat="42.52893" lon="2.49308">
        <ele>1816.7</ele>
        <time>2020-08-31T11:50:00.936Z</time>
      </trkpt>
      <trkpt lat="42.52892" lon="2.4931">
        <ele>1816.5</ele>
        <time>2020-08-31T11:50:01.380Z</time>
      </trkpt>
      <trkpt lat="42.5289" lon="2.49312">
        <ele>1816.2</ele>
        <time>2020-08-31T11:50:02.001Z</time>
      </trkpt>
      <trkpt lat="42.5289" lon="2.49316">
        <ele>1816</ele>
        <time>2020-08-31T11:50:02.737Z</time>
      </trkpt>
      <trkpt lat="42.52891" lon="2.49319">
        <ele>1816</ele>
        <time>2020-08-31T11:50:05.877Z</time>
      </trkpt>
      <trkpt lat="42.52891" lon="2.49323">
        <ele>1815.8</ele>
        <time>2020-08-31T11:50:06.614Z</time>
      </trkpt>
      <trkpt lat="42.52891" lon="2.49328">
        <ele>1815.7</ele>
        <time>2020-08-31T11:50:07.817Z</time>
      </trkpt>
      <trkpt lat="42.52891" lon="2.49334">
        <ele>1803.6</ele>
        <time>2020-08-31T11:50:08.922Z</time>
      </trkpt>
      <trkpt lat="42.5289" lon="2.49339">
        <ele>1802.7</ele>
        <time>2020-08-31T11:50:09.876Z</time>
      </trkpt>
      <trkpt lat="42.52889" lon="2.49345">
        <ele>1801.7</ele>
        <time>2020-08-31T11:50:11.008Z</time>
      </trkpt>
      <trkpt lat="42.52887" lon="2.49351">
        <ele>1800.2</ele>
        <time>2020-08-31T11:50:12.220Z</time>
      </trkpt>
      <trkpt lat="42.52886" lon="2.49357">
        <ele>1798.9</ele>
        <time>2020-08-31T11:50:13.353Z</time>
      </trkpt>
      <trkpt lat="42.52885" lon="2.49363">
        <ele>1797.7</ele>
        <time>2020-08-31T11:50:14.485Z</time>
      </trkpt>
      <trkpt lat="42.52886" lon="2.4937">
        <ele>1796.6</ele>
        <time>2020-08-31T11:50:15.798Z</time>
      </trkpt>
      <trkpt lat="42.52887" lon="2.49379">
        <ele>1795.2</ele>
        <time>2020-08-31T11:50:17.473Z</time>
      </trkpt>
      <trkpt lat="42.52888" lon="2.49388">
        <ele>1794</ele>
        <time>2020-08-31T11:50:19.149Z</time>
      </trkpt>
      <trkpt lat="42.52888" lon="2.49398">
        <ele>1792.9</ele>
        <time>2020-08-31T11:50:20.990Z</time>
      </trkpt>
      <trkpt lat="42.52887" lon="2.49405">
        <ele>1792.2</ele>
        <time>2020-08-31T11:50:22.302Z</time>
      </trkpt>
      <trkpt lat="42.52886" lon="2.4941">
        <ele>1791.7</ele>
        <time>2020-08-31T11:50:23.256Z</time>
      </trkpt>
      <trkpt lat="42.52887" lon="2.49413">
        <ele>1791.6</ele>
        <time>2020-08-31T11:50:23.944Z</time>
      </trkpt>
      <trkpt lat="42.52891" lon="2.49417">
        <ele>1791.9</ele>
        <time>2020-08-31T11:50:36.007Z</time>
      </trkpt>
      <trkpt lat="42.52894" lon="2.49419">
        <ele>1778.6</ele>
        <time>2020-08-31T11:50:36.842Z</time>
      </trkpt>
      <trkpt lat="42.52896" lon="2.49422">
        <ele>1779.1</ele>
        <time>2020-08-31T11:50:51.721Z</time>
      </trkpt>
      <trkpt lat="42.52897" lon="2.49426">
        <ele>1778.8</ele>
        <time>2020-08-31T11:50:52.499Z</time>
      </trkpt>
      <trkpt lat="42.52898" lon="2.49432">
        <ele>1777.8</ele>
        <time>2020-08-31T11:50:53.631Z</time>
      </trkpt>
      <trkpt lat="42.52899" lon="2.49436">
        <ele>1776.8</ele>
        <time>2020-08-31T11:50:54.409Z</time>
      </trkpt>
      <trkpt lat="42.52899" lon="2.49441">
        <ele>1775.7</ele>
        <time>2020-08-31T11:50:55.329Z</time>
      </trkpt>
      <trkpt lat="42.529" lon="2.49446">
        <ele>1774.6</ele>
        <time>2020-08-31T11:50:56.283Z</time>
      </trkpt>
      <trkpt lat="42.52901" lon="2.49453">
        <ele>1773</ele>
        <time>2020-08-31T11:50:57.596Z</time>
      </trkpt>
      <trkpt lat="42.52901" lon="2.49458">
        <ele>1772</ele>
        <time>2020-08-31T11:50:58.516Z</time>
      </trkpt>
      <trkpt lat="42.52902" lon="2.49463">
        <ele>1771.2</ele>
        <time>2020-08-31T11:50:59.470Z</time>
      </trkpt>
      <trkpt lat="42.52904" lon="2.49466">
        <ele>1770.9</ele>
        <time>2020-08-31T11:51:00.214Z</time>
      </trkpt>
      <trkpt lat="42.52907" lon="2.4947">
        <ele>1770.4</ele>
        <time>2020-08-31T11:51:01.265Z</time>
      </trkpt>
      <trkpt lat="42.52907" lon="2.49474">
        <ele>1769.9</ele>
        <time>2020-08-31T11:51:02.001Z</time>
      </trkpt>
      <trkpt lat="42.52907" lon="2.49477">
        <ele>1769.5</ele>
        <time>2020-08-31T11:51:02.554Z</time>
      </trkpt>
      <trkpt lat="42.52911" lon="2.4948">
        <ele>1769.5</ele>
        <time>2020-08-31T11:51:08.468Z</time>
      </trkpt>
      <trkpt lat="42.52917" lon="2.49482">
        <ele>1773.5</ele>
        <time>2020-08-31T11:51:39.305Z</time>
      </trkpt>
      <trkpt lat="42.52922" lon="2.49483">
        <ele>1773.2</ele>
        <time>2020-08-31T11:51:40.529Z</time>
      </trkpt>
      <trkpt lat="42.52924" lon="2.49483">
        <ele>1773.3</ele>
        <time>2020-08-31T11:51:45.055Z</time>
      </trkpt>
      <trkpt lat="42.52928" lon="2.49483">
        <ele>1773.4</ele>
        <time>2020-08-31T11:51:51.768Z</time>
      </trkpt>
      <trkpt lat="42.52931" lon="2.49486">
        <ele>1773.2</ele>
        <time>2020-08-31T11:51:52.714Z</time>
      </trkpt>
      <trkpt lat="42.5293" lon="2.49489">
        <ele>1772.7</ele>
        <time>2020-08-31T11:51:53.320Z</time>
      </trkpt>
      <trkpt lat="42.52928" lon="2.49492">
        <ele>1772.1</ele>
        <time>2020-08-31T11:51:54.065Z</time>
      </trkpt>
      <trkpt lat="42.52927" lon="2.49495">
        <ele>1771.7</ele>
        <time>2020-08-31T11:51:54.671Z</time>
      </trkpt>
      <trkpt lat="42.52927" lon="2.49498">
        <ele>1771.3</ele>
        <time>2020-08-31T11:51:55.223Z</time>
      </trkpt>
      <trkpt lat="42.52926" lon="2.49502">
        <ele>1763.6</ele>
        <time>2020-08-31T11:51:56.001Z</time>
      </trkpt>
      <trkpt lat="42.52926" lon="2.49503">
        <ele>1763.4</ele>
        <time>2020-08-31T11:51:56.185Z</time>
      </trkpt>
      <trkpt lat="42.52926" lon="2.49507">
        <ele>1762.6</ele>
        <time>2020-08-31T11:51:56.921Z</time>
      </trkpt>
      <trkpt lat="42.52927" lon="2.4951">
        <ele>1761</ele>
        <time>2020-08-31T11:51:57.527Z</time>
      </trkpt>
      <trkpt lat="42.5293" lon="2.49514">
        <ele>1759.2</ele>
        <time>2020-08-31T11:51:58.578Z</time>
      </trkpt>
      <trkpt lat="42.52933" lon="2.49518">
        <ele>1757.8</ele>
        <time>2020-08-31T11:51:59.628Z</time>
      </trkpt>
      <trkpt lat="42.52935" lon="2.49522">
        <ele>1756.4</ele>
        <time>2020-08-31T11:52:00.518Z</time>
      </trkpt>
      <trkpt lat="42.52936" lon="2.49527">
        <ele>1755.2</ele>
        <time>2020-08-31T11:52:01.472Z</time>
      </trkpt>
      <trkpt lat="42.5295" lon="2.49526">
        <ele>1754.2</ele>
        <time>2020-08-31T11:52:04.974Z</time>
      </trkpt>
      <trkpt lat="42.52949" lon="2.49533">
        <ele>1753</ele>
        <time>2020-08-31T11:52:06.287Z</time>
      </trkpt>
      <trkpt lat="42.52947" lon="2.4954">
        <ele>1751.9</ele>
        <time>2020-08-31T11:52:07.669Z</time>
      </trkpt>
      <trkpt lat="42.52944" lon="2.49549">
        <ele>1750.2</ele>
        <time>2020-08-31T11:52:09.487Z</time>
      </trkpt>
      <trkpt lat="42.52941" lon="2.49557">
        <ele>1748.7</ele>
        <time>2020-08-31T11:52:11.139Z</time>
      </trkpt>
      <trkpt lat="42.52939" lon="2.49564">
        <ele>1747.3</ele>
        <time>2020-08-31T11:52:12.521Z</time>
      </trkpt>
      <trkpt lat="42.52938" lon="2.4957">
        <ele>1746.2</ele>
        <time>2020-08-31T11:52:13.654Z</time>
      </trkpt>
      <trkpt lat="42.52938" lon="2.49575">
        <ele>1745.5</ele>
        <time>2020-08-31T11:52:14.574Z</time>
      </trkpt>
      <trkpt lat="42.5294" lon="2.49582">
        <ele>1745.1</ele>
        <time>2020-08-31T11:52:15.956Z</time>
      </trkpt>
      <trkpt lat="42.52944" lon="2.49587">
        <ele>1730.4</ele>
        <time>2020-08-31T11:52:17.315Z</time>
      </trkpt>
      <trkpt lat="42.52951" lon="2.49597">
        <ele>1729</ele>
        <time>2020-08-31T11:52:19.854Z</time>
      </trkpt>
      <trkpt lat="42.52947" lon="2.496">
        <ele>1728.9</ele>
        <time>2020-08-31T11:52:21.437Z</time>
      </trkpt>
      <trkpt lat="42.52943" lon="2.49601">
        <ele>1729</ele>
        <time>2020-08-31T11:52:28.230Z</time>
      </trkpt>
      <trkpt lat="42.52939" lon="2.49601">
        <ele>1729.2</ele>
        <time>2020-08-31T11:52:37.281Z</time>
      </trkpt>
      <trkpt lat="42.52935" lon="2.49596">
        <ele>1730.4</ele>
        <time>2020-08-31T11:53:04.425Z</time>
      </trkpt>
      <trkpt lat="42.52932" lon="2.4959">
        <ele>1731.9</ele>
        <time>2020-08-31T11:53:31.094Z</time>
      </trkpt>
      <trkpt lat="42.52928" lon="2.49584">
        <ele>1733.6</ele>
        <time>2020-08-31T11:54:00.853Z</time>
      </trkpt>
      <trkpt lat="42.52924" lon="2.4958">
        <ele>1741.7</ele>
        <time>2020-08-31T11:54:25.653Z</time>
      </trkpt>
      <trkpt lat="42.52918" lon="2.49578">
        <ele>1740.7</ele>
        <time>2020-08-31T11:54:27.197Z</time>
      </trkpt>
      <trkpt lat="42.52914" lon="2.49573">
        <ele>1738.3</ele>
        <time>2020-08-31T11:54:28.555Z</time>
      </trkpt>
      <trkpt lat="42.52909" lon="2.49566">
        <ele>1738.6</ele>
        <time>2020-08-31T11:54:43.610Z</time>
      </trkpt>
      <trkpt lat="42.52903" lon="2.4956">
        <ele>1739</ele>
        <time>2020-08-31T11:55:00.889Z</time>
      </trkpt>
      <trkpt lat="42.52898" lon="2.49555">
        <ele>1739.2</ele>
        <time>2020-08-31T11:55:12.288Z</time>
      </trkpt>
      <trkpt lat="42.52893" lon="2.49553">
        <ele>1738.9</ele>
        <time>2020-08-31T11:55:13.570Z</time>
      </trkpt>
      <trkpt lat="42.52886" lon="2.49551">
        <ele>1738.2</ele>
        <time>2020-08-31T11:55:15.357Z</time>
      </trkpt>
      <trkpt lat="42.52879" lon="2.49549">
        <ele>1737.2</ele>
        <time>2020-08-31T11:55:17.144Z</time>
      </trkpt>
      <trkpt lat="42.5287" lon="2.49549">
        <ele>1735.7</ele>
        <time>2020-08-31T11:55:19.392Z</time>
      </trkpt>
      <trkpt lat="42.52864" lon="2.49549">
        <ele>1734.4</ele>
        <time>2020-08-31T11:55:20.891Z</time>
      </trkpt>
      <trkpt lat="42.5286" lon="2.4955">
        <ele>1733.3</ele>
        <time>2020-08-31T11:55:21.907Z</time>
      </trkpt>
      <trkpt lat="42.52856" lon="2.49548">
        <ele>1733.1</ele>
        <time>2020-08-31T11:55:23.054Z</time>
      </trkpt>
      <trkpt lat="42.52851" lon="2.49545">
        <ele>1733.1</ele>
        <time>2020-08-31T11:55:30.128Z</time>
      </trkpt>
      <trkpt lat="42.52845" lon="2.49542">
        <ele>1733.1</ele>
        <time>2020-08-31T11:55:38.402Z</time>
      </trkpt>
      <trkpt lat="42.5284" lon="2.4954">
        <ele>1733.2</ele>
        <time>2020-08-31T11:55:46.586Z</time>
      </trkpt>
      <trkpt lat="42.52836" lon="2.49538">
        <ele>1733.5</ele>
        <time>2020-08-31T11:55:57.717Z</time>
      </trkpt>
      <trkpt lat="42.52834" lon="2.49535">
        <ele>1734.3</ele>
        <time>2020-08-31T11:56:12.597Z</time>
      </trkpt>
      <trkpt lat="42.52829" lon="2.49527">
        <ele>1709</ele>
        <time>2020-08-31T11:56:14.528Z</time>
      </trkpt>
      <trkpt lat="42.52827" lon="2.49521">
        <ele>1712.3</ele>
        <time>2020-08-31T11:56:38.750Z</time>
      </trkpt>
      <trkpt lat="42.52825" lon="2.49517">
        <ele>1715</ele>
        <time>2020-08-31T11:56:56.529Z</time>
      </trkpt>
      <trkpt lat="42.52824" lon="2.49513">
        <ele>1717.5</ele>
        <time>2020-08-31T11:57:12.066Z</time>
      </trkpt>
      <trkpt lat="42.52824" lon="2.49507">
        <ele>1721.8</ele>
        <time>2020-08-31T11:57:34.135Z</time>
      </trkpt>
      <trkpt lat="42.5282" lon="2.49501">
        <ele>1719.8</ele>
        <time>2020-08-31T11:57:35.624Z</time>
      </trkpt>
      <trkpt lat="42.52816" lon="2.49497">
        <ele>1730.9</ele>
        <time>2020-08-31T11:58:00.425Z</time>
      </trkpt>
      <trkpt lat="42.52811" lon="2.49492">
        <ele>1728.5</ele>
        <time>2020-08-31T11:58:01.976Z</time>
      </trkpt>
      <trkpt lat="42.52808" lon="2.49487">
        <ele>1727.2</ele>
        <time>2020-08-31T11:58:03.163Z</time>
      </trkpt>
      <trkpt lat="42.52805" lon="2.49481">
        <ele>1725.9</ele>
        <time>2020-08-31T11:58:04.498Z</time>
      </trkpt>
      <trkpt lat="42.52802" lon="2.49474">
        <ele>1725.4</ele>
        <time>2020-08-31T11:58:05.988Z</time>
      </trkpt>
      <trkpt lat="42.52802" lon="2.49469">
        <ele>1726</ele>
        <time>2020-08-31T11:58:24.379Z</time>
      </trkpt>
      <trkpt lat="42.52803" lon="2.4946">
        <ele>1727.7</ele>
        <time>2020-08-31T11:58:57.858Z</time>
      </trkpt>
      <trkpt lat="42.52803" lon="2.49454">
        <ele>1729.2</ele>
        <time>2020-08-31T11:59:19.927Z</time>
      </trkpt>
      <trkpt lat="42.52803" lon="2.49448">
        <ele>1730.5</ele>
        <time>2020-08-31T11:59:41.996Z</time>
      </trkpt>
      <trkpt lat="42.52802" lon="2.49443">
        <ele>1731.3</ele>
        <time>2020-08-31T12:00:01.053Z</time>
      </trkpt>
      <trkpt lat="42.52798" lon="2.49438">
        <ele>1730.5</ele>
        <time>2020-08-31T12:00:02.411Z</time>
      </trkpt>
      <trkpt lat="42.52793" lon="2.49434">
        <ele>1729</ele>
        <time>2020-08-31T12:00:03.861Z</time>
      </trkpt>
      <trkpt lat="42.52789" lon="2.4943">
        <ele>1727.6</ele>
        <time>2020-08-31T12:00:05.102Z</time>
      </trkpt>
      <trkpt lat="42.52783" lon="2.49424">
        <ele>1725.3</ele>
        <time>2020-08-31T12:00:06.964Z</time>
      </trkpt>
      <trkpt lat="42.5278" lon="2.49419">
        <ele>1724.1</ele>
        <time>2020-08-31T12:00:08.151Z</time>
      </trkpt>
      <trkpt lat="42.52778" lon="2.49415">
        <ele>1740</ele>
        <time>2020-08-31T12:00:25.931Z</time>
      </trkpt>
      <trkpt lat="42.52777" lon="2.49412">
        <ele>1739.2</ele>
        <time>2020-08-31T12:00:26.537Z</time>
      </trkpt>
      <trkpt lat="42.52776" lon="2.49407">
        <ele>1739.5</ele>
        <time>2020-08-31T12:00:37.166Z</time>
      </trkpt>
      <trkpt lat="42.52775" lon="2.49403">
        <ele>1740</ele>
        <time>2020-08-31T12:00:52.702Z</time>
      </trkpt>
      <trkpt lat="42.52773" lon="2.49397">
        <ele>1740.8</ele>
        <time>2020-08-31T12:01:16.924Z</time>
      </trkpt>
      <trkpt lat="42.52771" lon="2.49393">
        <ele>1741.4</ele>
        <time>2020-08-31T12:01:34.704Z</time>
      </trkpt>
      <trkpt lat="42.52769" lon="2.49389">
        <ele>1741.8</ele>
        <time>2020-08-31T12:01:48.322Z</time>
      </trkpt>
      <trkpt lat="42.52766" lon="2.49387">
        <ele>1741.4</ele>
        <time>2020-08-31T12:01:49.156Z</time>
      </trkpt>
      <trkpt lat="42.52765" lon="2.49383">
        <ele>1742.3</ele>
        <time>2020-08-31T12:02:04.693Z</time>
      </trkpt>
      <trkpt lat="42.52764" lon="2.49379">
        <ele>1743.5</ele>
        <time>2020-08-31T12:02:20.229Z</time>
      </trkpt>
      <trkpt lat="42.52764" lon="2.49374">
        <ele>1744.3</ele>
        <time>2020-08-31T12:02:38.621Z</time>
      </trkpt>
      <trkpt lat="42.52761" lon="2.49369">
        <ele>1744.7</ele>
        <time>2020-08-31T12:02:52.475Z</time>
      </trkpt>
      <trkpt lat="42.52758" lon="2.49365">
        <ele>1744.6</ele>
        <time>2020-08-31T12:02:53.901Z</time>
      </trkpt>
      <trkpt lat="42.52755" lon="2.49361">
        <ele>1744.3</ele>
        <time>2020-08-31T12:02:54.951Z</time>
      </trkpt>
      <trkpt lat="42.52748" lon="2.49355">
        <ele>1715.9</ele>
        <time>2020-08-31T12:02:57.020Z</time>
      </trkpt>
      <trkpt lat="42.52743" lon="2.4935">
        <ele>1717.6</ele>
        <time>2020-08-31T12:03:28.020Z</time>
      </trkpt>
      <trkpt lat="42.52737" lon="2.49346">
        <ele>1717.2</ele>
        <time>2020-08-31T12:03:29.633Z</time>
      </trkpt>
      <trkpt lat="42.52733" lon="2.49344">
        <ele>1715.5</ele>
        <time>2020-08-31T12:03:30.698Z</time>
      </trkpt>
      <trkpt lat="42.52729" lon="2.49341">
        <ele>1713.9</ele>
        <time>2020-08-31T12:03:31.840Z</time>
      </trkpt>
      <trkpt lat="42.52725" lon="2.4934">
        <ele>1712.3</ele>
        <time>2020-08-31T12:03:32.856Z</time>
      </trkpt>
      <trkpt lat="42.5272" lon="2.49336">
        <ele>1709.8</ele>
        <time>2020-08-31T12:03:34.306Z</time>
      </trkpt>
      <trkpt lat="42.52717" lon="2.49331">
        <ele>1726</ele>
        <time>2020-08-31T12:03:58.022Z</time>
      </trkpt>
      <trkpt lat="42.52715" lon="2.49325">
        <ele>1725.6</ele>
        <time>2020-08-31T12:03:59.234Z</time>
      </trkpt>
      <trkpt lat="42.52713" lon="2.49319">
        <ele>1725.7</ele>
        <time>2020-08-31T12:04:06.975Z</time>
      </trkpt>
      <trkpt lat="42.52713" lon="2.49312">
        <ele>1726.3</ele>
        <time>2020-08-31T12:04:27.614Z</time>
      </trkpt>
      <trkpt lat="42.52711" lon="2.49306">
        <ele>1726.6</ele>
        <time>2020-08-31T12:04:39.516Z</time>
      </trkpt>
      <trkpt lat="42.52708" lon="2.493">
        <ele>1726.8</ele>
        <time>2020-08-31T12:04:50.038Z</time>
      </trkpt>
      <trkpt lat="42.52706" lon="2.49295">
        <ele>1727.1</ele>
        <time>2020-08-31T12:05:01.084Z</time>
      </trkpt>
      <trkpt lat="42.52703" lon="2.49288">
        <ele>1727.8</ele>
        <time>2020-08-31T12:05:25.237Z</time>
      </trkpt>
      <trkpt lat="42.527" lon="2.4928">
        <ele>1728.3</ele>
        <time>2020-08-31T12:05:43.219Z</time>
      </trkpt>
      <trkpt lat="42.52697" lon="2.49272">
        <ele>1728.7</ele>
        <time>2020-08-31T12:05:59.289Z</time>
      </trkpt>
      <trkpt lat="42.52694" lon="2.49263">
        <ele>1728.8</ele>
        <time>2020-08-31T12:06:10.065Z</time>
      </trkpt>
      <trkpt lat="42.52693" lon="2.49255">
        <ele>1728.7</ele>
        <time>2020-08-31T12:06:12.267Z</time>
      </trkpt>
      <trkpt lat="42.52691" lon="2.4925">
        <ele>1746.4</ele>
        <time>2020-08-31T12:06:33.192Z</time>
      </trkpt>
      <trkpt lat="42.52687" lon="2.49242">
        <ele>1745.2</ele>
        <time>2020-08-31T12:06:34.972Z</time>
      </trkpt>
      <trkpt lat="42.52681" lon="2.49234">
        <ele>1745.2</ele>
        <time>2020-08-31T12:06:45.857Z</time>
      </trkpt>
      <trkpt lat="42.52677" lon="2.49229">
        <ele>1746.4</ele>
        <time>2020-08-31T12:07:13.002Z</time>
      </trkpt>
      <trkpt lat="42.52672" lon="2.49225">
        <ele>1747.2</ele>
        <time>2020-08-31T12:07:41.972Z</time>
      </trkpt>
      <trkpt lat="42.52667" lon="2.49224">
        <ele>1747.1</ele>
        <time>2020-08-31T12:07:43.766Z</time>
      </trkpt>
      <trkpt lat="42.52661" lon="2.49223">
        <ele>1726.9</ele>
        <time>2020-08-31T12:07:45.276Z</time>
      </trkpt>
      <trkpt lat="42.52653" lon="2.49224">
        <ele>1726.3</ele>
        <time>2020-08-31T12:07:47.283Z</time>
      </trkpt>
      <trkpt lat="42.52645" lon="2.49226">
        <ele>1725.2</ele>
        <time>2020-08-31T12:07:49.315Z</time>
      </trkpt>
      <trkpt lat="42.52638" lon="2.49228">
        <ele>1723.8</ele>
        <time>2020-08-31T12:07:51.102Z</time>
      </trkpt>
      <trkpt lat="42.52631" lon="2.49229">
        <ele>1722.5</ele>
        <time>2020-08-31T12:07:52.860Z</time>
      </trkpt>
      <trkpt lat="42.52627" lon="2.49228">
        <ele>1721.6</ele>
        <time>2020-08-31T12:07:53.876Z</time>
      </trkpt>
      <trkpt lat="42.52621" lon="2.49228">
        <ele>1720.4</ele>
        <time>2020-08-31T12:07:55.375Z</time>
      </trkpt>
      <trkpt lat="42.52613" lon="2.49226">
        <ele>1718.6</ele>
        <time>2020-08-31T12:07:57.407Z</time>
      </trkpt>
      <trkpt lat="42.52606" lon="2.49224">
        <ele>1717.4</ele>
        <time>2020-08-31T12:07:59.194Z</time>
      </trkpt>
      <trkpt lat="42.526" lon="2.49223">
        <ele>1716.3</ele>
        <time>2020-08-31T12:08:00.704Z</time>
      </trkpt>
      <trkpt lat="42.52599" lon="2.49223">
        <ele>1715.9</ele>
        <time>2020-08-31T12:08:00.954Z</time>
        <extensions>
          <visugpx:TrkExtension xmlns:visugpx="https://www.visugpx.com/editgpx/">
            <visugpx:node>16</visugpx:node>
            </visugpx:TrkExtension>
        </extensions>
      </trkpt>
      <trkpt lat="42.52593" lon="2.49223">
        <ele>1714.7</ele>
        <time>2020-08-31T12:08:02.452Z</time>
      </trkpt>
      <trkpt lat="42.52585" lon="2.49223">
        <ele>1713.4</ele>
        <time>2020-08-31T12:08:04.451Z</time>
      </trkpt>
      <trkpt lat="42.52579" lon="2.49222">
        <ele>1703.1</ele>
        <time>2020-08-31T12:08:05.961Z</time>
      </trkpt>
      <trkpt lat="42.52571" lon="2.49219">
        <ele>1704.5</ele>
        <time>2020-08-31T12:08:47.387Z</time>
      </trkpt>
      <trkpt lat="42.52563" lon="2.49215">
        <ele>1705.9</ele>
        <time>2020-08-31T12:09:29.941Z</time>
      </trkpt>
      <trkpt lat="42.52554" lon="2.49212">
        <ele>1706.7</ele>
        <time>2020-08-31T12:09:57.459Z</time>
      </trkpt>
      <trkpt lat="42.52546" lon="2.4921">
        <ele>1706.9</ele>
        <time>2020-08-31T12:10:11.045Z</time>
      </trkpt>
      <trkpt lat="42.52539" lon="2.49208">
        <ele>1707.3</ele>
        <time>2020-08-31T12:10:27.883Z</time>
      </trkpt>
      <trkpt lat="42.52533" lon="2.49205">
        <ele>1707.6</ele>
        <time>2020-08-31T12:10:42.065Z</time>
      </trkpt>
      <trkpt lat="42.52527" lon="2.49203">
        <ele>1708</ele>
        <time>2020-08-31T12:10:57.539Z</time>
      </trkpt>
      <trkpt lat="42.52521" lon="2.49202">
        <ele>1708</ele>
        <time>2020-08-31T12:11:05.362Z</time>
      </trkpt>
      <trkpt lat="42.52515" lon="2.49204">
        <ele>1707.6</ele>
        <time>2020-08-31T12:11:06.796Z</time>
      </trkpt>
      <trkpt lat="42.5251" lon="2.49207">
        <ele>1706.4</ele>
        <time>2020-08-31T12:11:08.162Z</time>
      </trkpt>
      <trkpt lat="42.52503" lon="2.49212">
        <ele>1704.7</ele>
        <time>2020-08-31T12:11:10.138Z</time>
      </trkpt>
      <trkpt lat="42.52498" lon="2.49217">
        <ele>1698.2</ele>
        <time>2020-08-31T12:11:11.690Z</time>
      </trkpt>
      <trkpt lat="42.5249" lon="2.49224">
        <ele>1696.2</ele>
        <time>2020-08-31T12:11:14.067Z</time>
      </trkpt>
      <trkpt lat="42.52486" lon="2.49228">
        <ele>1695.4</ele>
        <time>2020-08-31T12:11:15.309Z</time>
      </trkpt>
      <trkpt lat="42.5248" lon="2.4923">
        <ele>1695.1</ele>
        <time>2020-08-31T12:11:16.948Z</time>
      </trkpt>
      <trkpt lat="42.52474" lon="2.49232">
        <ele>1695</ele>
        <time>2020-08-31T12:11:19.238Z</time>
      </trkpt>
      <trkpt lat="42.52468" lon="2.49233">
        <ele>1695.1</ele>
        <time>2020-08-31T12:11:28.457Z</time>
      </trkpt>
      <trkpt lat="42.52461" lon="2.49232">
        <ele>1695</ele>
        <time>2020-08-31T12:11:31.131Z</time>
      </trkpt>
      <trkpt lat="42.52454" lon="2.49231">
        <ele>1694.7</ele>
        <time>2020-08-31T12:11:33.101Z</time>
      </trkpt>
      <trkpt lat="42.52446" lon="2.49229">
        <ele>1694.3</ele>
        <time>2020-08-31T12:11:35.247Z</time>
      </trkpt>
      <trkpt lat="42.52438" lon="2.49225">
        <ele>1694.2</ele>
        <time>2020-08-31T12:11:38.590Z</time>
      </trkpt>
      <trkpt lat="42.52432" lon="2.49222">
        <ele>1694.4</ele>
        <time>2020-08-31T12:11:50.187Z</time>
      </trkpt>
      <trkpt lat="42.52426" lon="2.49218">
        <ele>1695</ele>
        <time>2020-08-31T12:12:10.640Z</time>
      </trkpt>
      <trkpt lat="42.52419" lon="2.49214">
        <ele>1696</ele>
        <time>2020-08-31T12:12:47.601Z</time>
      </trkpt>
      <trkpt lat="42.52413" lon="2.49209">
        <ele>1686.9</ele>
        <time>2020-08-31T12:12:49.360Z</time>
      </trkpt>
      <trkpt lat="42.52409" lon="2.49205">
        <ele>1687.9</ele>
        <time>2020-08-31T12:13:14.161Z</time>
      </trkpt>
      <trkpt lat="42.52405" lon="2.492">
        <ele>1688.9</ele>
        <time>2020-08-31T12:13:41.306Z</time>
      </trkpt>
      <trkpt lat="42.524" lon="2.49195">
        <ele>1689.8</ele>
        <time>2020-08-31T12:14:12.307Z</time>
      </trkpt>
      <trkpt lat="42.52395" lon="2.4919">
        <ele>1690.4</ele>
        <time>2020-08-31T12:14:32.538Z</time>
      </trkpt>
      <trkpt lat="42.5239" lon="2.49183">
        <ele>1690.8</ele>
        <time>2020-08-31T12:14:49.421Z</time>
      </trkpt>
      <trkpt lat="42.52383" lon="2.49177">
        <ele>1690.2</ele>
        <time>2020-08-31T12:14:51.490Z</time>
      </trkpt>
      <trkpt lat="42.52378" lon="2.49172">
        <ele>1689.7</ele>
        <time>2020-08-31T12:14:53.041Z</time>
      </trkpt>
      <trkpt lat="42.5237" lon="2.49169">
        <ele>1688.6</ele>
        <time>2020-08-31T12:14:55.115Z</time>
      </trkpt>
      <trkpt lat="42.52365" lon="2.49169">
        <ele>1688</ele>
        <time>2020-08-31T12:14:56.364Z</time>
      </trkpt>
      <trkpt lat="42.52358" lon="2.49167">
        <ele>1687.7</ele>
        <time>2020-08-31T12:14:58.378Z</time>
      </trkpt>
      <trkpt lat="42.52352" lon="2.49166">
        <ele>1705.4</ele>
        <time>2020-08-31T12:15:28.550Z</time>
      </trkpt>
      <trkpt lat="42.52345" lon="2.49165">
        <ele>1701.4</ele>
        <time>2020-08-31T12:15:30.308Z</time>
      </trkpt>
      <trkpt lat="42.52339" lon="2.49164">
        <ele>1697.1</ele>
        <time>2020-08-31T12:15:31.818Z</time>
      </trkpt>
      <trkpt lat="42.52337" lon="2.49162">
        <ele>1696.6</ele>
        <time>2020-08-31T12:15:32.439Z</time>
      </trkpt>
      <trkpt lat="42.52335" lon="2.4916">
        <ele>1697.9</ele>
        <time>2020-08-31T12:15:44.840Z</time>
      </trkpt>
      <trkpt lat="42.5233" lon="2.49157">
        <ele>1690.7</ele>
        <time>2020-08-31T12:15:46.205Z</time>
      </trkpt>
      <trkpt lat="42.52323" lon="2.49156">
        <ele>1690.2</ele>
        <time>2020-08-31T12:15:47.964Z</time>
      </trkpt>
      <trkpt lat="42.52316" lon="2.49155">
        <ele>1689.4</ele>
        <time>2020-08-31T12:15:49.722Z</time>
      </trkpt>
      <trkpt lat="42.52308" lon="2.49155">
        <ele>1688.1</ele>
        <time>2020-08-31T12:15:51.720Z</time>
      </trkpt>
      <trkpt lat="42.52301" lon="2.49155">
        <ele>1686.6</ele>
        <time>2020-08-31T12:15:53.469Z</time>
      </trkpt>
      <trkpt lat="42.52296" lon="2.49155">
        <ele>1685.3</ele>
        <time>2020-08-31T12:15:54.718Z</time>
      </trkpt>
      <trkpt lat="42.52289" lon="2.49155">
        <ele>1683.2</ele>
        <time>2020-08-31T12:15:56.466Z</time>
      </trkpt>
      <trkpt lat="42.52281" lon="2.49153">
        <ele>1680.7</ele>
        <time>2020-08-31T12:15:58.498Z</time>
      </trkpt>
      <trkpt lat="42.52275" lon="2.49153">
        <ele>1678.3</ele>
        <time>2020-08-31T12:15:59.997Z</time>
      </trkpt>
      <trkpt lat="42.52269" lon="2.49151">
        <ele>1676.5</ele>
        <time>2020-08-31T12:16:01.540Z</time>
      </trkpt>
      <trkpt lat="42.52266" lon="2.49152">
        <ele>1674.8</ele>
        <time>2020-08-31T12:16:02.312Z</time>
      </trkpt>
      <trkpt lat="42.52262" lon="2.49151">
        <ele>1673.8</ele>
        <time>2020-08-31T12:16:03.328Z</time>
      </trkpt>
      <trkpt lat="42.52259" lon="2.49148">
        <ele>1673.9</ele>
        <time>2020-08-31T12:16:09.722Z</time>
      </trkpt>
      <trkpt lat="42.52259" lon="2.49142">
        <ele>1676.5</ele>
        <time>2020-08-31T12:16:31.793Z</time>
      </trkpt>
      <trkpt lat="42.52259" lon="2.49139">
        <ele>1678</ele>
        <time>2020-08-31T12:16:42.829Z</time>
      </trkpt>
      <trkpt lat="42.52259" lon="2.4913">
        <ele>1680.8</ele>
        <time>2020-08-31T12:17:15.936Z</time>
      </trkpt>
      <trkpt lat="42.52259" lon="2.4912">
        <ele>1682.9</ele>
        <time>2020-08-31T12:17:52.721Z</time>
      </trkpt>
      <trkpt lat="42.52257" lon="2.49102">
        <ele>1684.4</ele>
        <time>2020-08-31T12:18:43.736Z</time>
      </trkpt>
      <trkpt lat="42.52255" lon="2.49091">
        <ele>1683.4</ele>
        <time>2020-08-31T12:18:45.822Z</time>
      </trkpt>
      <trkpt lat="42.52253" lon="2.4908">
        <ele>1687.2</ele>
        <time>2020-08-31T12:19:27.499Z</time>
      </trkpt>
      <trkpt lat="42.52251" lon="2.49073">
        <ele>1694.1</ele>
        <time>2020-08-31T12:19:55.116Z</time>
      </trkpt>
      <trkpt lat="42.52246" lon="2.49066">
        <ele>1675.5</ele>
        <time>2020-08-31T12:19:56.911Z</time>
      </trkpt>
      <trkpt lat="42.52241" lon="2.49059">
        <ele>1674.5</ele>
        <time>2020-08-31T12:19:58.705Z</time>
      </trkpt>
      <trkpt lat="42.52236" lon="2.4905">
        <ele>1674.1</ele>
        <time>2020-08-31T12:20:00.916Z</time>
      </trkpt>
      <trkpt lat="42.52231" lon="2.49044">
        <ele>1673.9</ele>
        <time>2020-08-31T12:20:03.033Z</time>
      </trkpt>
      <trkpt lat="42.52226" lon="2.49039">
        <ele>1673.5</ele>
        <time>2020-08-31T12:20:04.479Z</time>
      </trkpt>
      <trkpt lat="42.5222" lon="2.49035">
        <ele>1672.6</ele>
        <time>2020-08-31T12:20:06.149Z</time>
      </trkpt>
      <trkpt lat="42.52217" lon="2.4903">
        <ele>1672.2</ele>
        <time>2020-08-31T12:20:07.336Z</time>
      </trkpt>
      <trkpt lat="42.52214" lon="2.49021">
        <ele>1673.1</ele>
        <time>2020-08-31T12:20:39.160Z</time>
      </trkpt>
      <trkpt lat="42.52211" lon="2.4901">
        <ele>1673.2</ele>
        <time>2020-08-31T12:20:51.672Z</time>
      </trkpt>
      <trkpt lat="42.52209" lon="2.49005">
        <ele>1672.5</ele>
        <time>2020-08-31T12:20:52.719Z</time>
      </trkpt>
      <trkpt lat="42.52208" lon="2.48998">
        <ele>1689.7</ele>
        <time>2020-08-31T12:21:18.948Z</time>
      </trkpt>
      <trkpt lat="42.52208" lon="2.48986">
        <ele>1690.7</ele>
        <time>2020-08-31T12:21:53.053Z</time>
      </trkpt>
      <trkpt lat="42.52206" lon="2.48971">
        <ele>1692.5</ele>
        <time>2020-08-31T12:22:49.127Z</time>
      </trkpt>
      <trkpt lat="42.52205" lon="2.48965">
        <ele>1693.1</ele>
        <time>2020-08-31T12:23:11.403Z</time>
      </trkpt>
      <trkpt lat="42.52203" lon="2.48959">
        <ele>1693.5</ele>
        <time>2020-08-31T12:23:25.346Z</time>
      </trkpt>
      <trkpt lat="42.52201" lon="2.48953">
        <ele>1693.8</ele>
        <time>2020-08-31T12:23:37.249Z</time>
      </trkpt>
      <trkpt lat="42.52197" lon="2.48948">
        <ele>1693.4</ele>
        <time>2020-08-31T12:23:38.608Z</time>
      </trkpt>
      <trkpt lat="42.52191" lon="2.48944">
        <ele>1692</ele>
        <time>2020-08-31T12:23:40.277Z</time>
      </trkpt>
      <trkpt lat="42.52185" lon="2.48939">
        <ele>1690.6</ele>
        <time>2020-08-31T12:23:42.036Z</time>
      </trkpt>
      <trkpt lat="42.5218" lon="2.48935">
        <ele>1689.5</ele>
        <time>2020-08-31T12:23:43.486Z</time>
      </trkpt>
      <trkpt lat="42.52177" lon="2.4893">
        <ele>1688.4</ele>
        <time>2020-08-31T12:23:44.673Z</time>
      </trkpt>
      <trkpt lat="42.52175" lon="2.48924">
        <ele>1687</ele>
        <time>2020-08-31T12:23:45.886Z</time>
      </trkpt>
      <trkpt lat="42.52174" lon="2.48918">
        <ele>1685.7</ele>
        <time>2020-08-31T12:23:47.018Z</time>
      </trkpt>
      <trkpt lat="42.52173" lon="2.48912">
        <ele>1693.9</ele>
        <time>2020-08-31T12:24:09.647Z</time>
      </trkpt>
      <trkpt lat="42.52171" lon="2.48907">
        <ele>1696.1</ele>
        <time>2020-08-31T12:24:30.574Z</time>
      </trkpt>
      <trkpt lat="42.52165" lon="2.48903">
        <ele>1680.6</ele>
        <time>2020-08-31T12:24:32.244Z</time>
      </trkpt>
      <trkpt lat="42.52159" lon="2.489">
        <ele>1680.1</ele>
        <time>2020-08-31T12:24:33.841Z</time>
      </trkpt>
      <trkpt lat="42.52154" lon="2.48897">
        <ele>1679.6</ele>
        <time>2020-08-31T12:24:35.207Z</time>
      </trkpt>
      <trkpt lat="42.52149" lon="2.48892">
        <ele>1679.3</ele>
        <time>2020-08-31T12:24:36.858Z</time>
      </trkpt>
      <trkpt lat="42.52146" lon="2.48887">
        <ele>1679.5</ele>
        <time>2020-08-31T12:24:46.865Z</time>
      </trkpt>
      <trkpt lat="42.52144" lon="2.48881">
        <ele>1680.2</ele>
        <time>2020-08-31T12:25:11.089Z</time>
      </trkpt>
      <trkpt lat="42.52142" lon="2.48876">
        <ele>1680.8</ele>
        <time>2020-08-31T12:25:32.016Z</time>
      </trkpt>
      <trkpt lat="42.52139" lon="2.48872">
        <ele>1681.1</ele>
        <time>2020-08-31T12:25:43.079Z</time>
      </trkpt>
      <trkpt lat="42.52134" lon="2.48868">
        <ele>1680.7</ele>
        <time>2020-08-31T12:25:44.529Z</time>
      </trkpt>
      <trkpt lat="42.52125" lon="2.48865">
        <ele>1679</ele>
        <time>2020-08-31T12:25:46.844Z</time>
      </trkpt>
      <trkpt lat="42.52119" lon="2.48863">
        <ele>1677.9</ele>
        <time>2020-08-31T12:25:48.387Z</time>
      </trkpt>
      <trkpt lat="42.52114" lon="2.4886">
        <ele>1677.3</ele>
        <time>2020-08-31T12:25:49.753Z</time>
      </trkpt>
      <trkpt lat="42.52111" lon="2.48857">
        <ele>1677.2</ele>
        <time>2020-08-31T12:25:50.975Z</time>
      </trkpt>
      <trkpt lat="42.5211" lon="2.48852">
        <ele>1677.4</ele>
        <time>2020-08-31T12:25:59.751Z</time>
      </trkpt>
      <trkpt lat="42.52109" lon="2.48848">
        <ele>1677.9</ele>
        <time>2020-08-31T12:26:15.289Z</time>
      </trkpt>
      <trkpt lat="42.52109" lon="2.48841">
        <ele>1678.4</ele>
        <time>2020-08-31T12:26:32.143Z</time>
      </trkpt>
      <trkpt lat="42.52108" lon="2.48833">
        <ele>1678.7</ele>
        <time>2020-08-31T12:26:45.689Z</time>
      </trkpt>
      <trkpt lat="42.52108" lon="2.48826">
        <ele>1698.3</ele>
        <time>2020-08-31T12:27:11.440Z</time>
      </trkpt>
      <trkpt lat="42.52108" lon="2.48819">
        <ele>1700.1</ele>
        <time>2020-08-31T12:27:37.190Z</time>
      </trkpt>
      <trkpt lat="42.52107" lon="2.48814">
        <ele>1701.5</ele>
        <time>2020-08-31T12:27:56.248Z</time>
      </trkpt>
      <trkpt lat="42.52107" lon="2.48806">
        <ele>1704</ele>
        <time>2020-08-31T12:28:25.677Z</time>
      </trkpt>
      <trkpt lat="42.52107" lon="2.48802">
        <ele>1705.3</ele>
        <time>2020-08-31T12:28:40.392Z</time>
      </trkpt>
      <trkpt lat="42.52107" lon="2.48797">
        <ele>1706.7</ele>
        <time>2020-08-31T12:28:58.785Z</time>
      </trkpt>
      <trkpt lat="42.52105" lon="2.48794">
        <ele>1707.3</ele>
        <time>2020-08-31T12:29:13.666Z</time>
      </trkpt>
      <trkpt lat="42.52099" lon="2.48794">
        <ele>1706.7</ele>
        <time>2020-08-31T12:29:15.165Z</time>
      </trkpt>
      <trkpt lat="42.52091" lon="2.48794">
        <ele>1705.5</ele>
        <time>2020-08-31T12:29:17.163Z</time>
      </trkpt>
      <trkpt lat="42.52086" lon="2.48795">
        <ele>1704.7</ele>
        <time>2020-08-31T12:29:18.426Z</time>
      </trkpt>
      <trkpt lat="42.52079" lon="2.48795">
        <ele>1685</ele>
        <time>2020-08-31T12:29:20.174Z</time>
      </trkpt>
      <trkpt lat="42.52072" lon="2.48795">
        <ele>1684.3</ele>
        <time>2020-08-31T12:29:21.923Z</time>
      </trkpt>
      <trkpt lat="42.52067" lon="2.48798">
        <ele>1682.8</ele>
        <time>2020-08-31T12:29:23.288Z</time>
      </trkpt>
      <trkpt lat="42.52063" lon="2.48804">
        <ele>1680.9</ele>
        <time>2020-08-31T12:29:24.778Z</time>
      </trkpt>
      <trkpt lat="42.52059" lon="2.48808">
        <ele>1679.6</ele>
        <time>2020-08-31T12:29:26.019Z</time>
      </trkpt>
      <trkpt lat="42.52053" lon="2.48811">
        <ele>1678.1</ele>
        <time>2020-08-31T12:29:27.616Z</time>
      </trkpt>
      <trkpt lat="42.52049" lon="2.48811">
        <ele>1677.4</ele>
        <time>2020-08-31T12:29:28.616Z</time>
      </trkpt>
      <trkpt lat="42.52043" lon="2.48811">
        <ele>1676.4</ele>
        <time>2020-08-31T12:29:30.114Z</time>
      </trkpt>
      <trkpt lat="42.52037" lon="2.48809">
        <ele>1675.3</ele>
        <time>2020-08-31T12:29:31.658Z</time>
      </trkpt>
      <trkpt lat="42.5203" lon="2.48806">
        <ele>1674.5</ele>
        <time>2020-08-31T12:29:33.492Z</time>
      </trkpt>
      <trkpt lat="42.52023" lon="2.48801">
        <ele>1674.3</ele>
        <time>2020-08-31T12:29:36.129Z</time>
      </trkpt>
      <trkpt lat="42.52017" lon="2.48797">
        <ele>1674.5</ele>
        <time>2020-08-31T12:29:48.045Z</time>
      </trkpt>
      <trkpt lat="42.52011" lon="2.48792">
        <ele>1675.3</ele>
        <time>2020-08-31T12:30:15.364Z</time>
      </trkpt>
      <trkpt lat="42.52006" lon="2.48788">
        <ele>1676.2</ele>
        <time>2020-08-31T12:30:44.335Z</time>
      </trkpt>
      <trkpt lat="42.52002" lon="2.48782">
        <ele>1677.3</ele>
        <time>2020-08-31T12:31:14.097Z</time>
      </trkpt>
      <trkpt lat="42.51997" lon="2.48772">
        <ele>1665.2</ele>
        <time>2020-08-31T12:31:16.322Z</time>
      </trkpt>
      <trkpt lat="42.51993" lon="2.48764">
        <ele>1668.8</ele>
        <time>2020-08-31T12:31:51.884Z</time>
      </trkpt>
      <trkpt lat="42.51989" lon="2.48756">
        <ele>1671.3</ele>
        <time>2020-08-31T12:32:27.446Z</time>
      </trkpt>
      <trkpt lat="42.51985" lon="2.48747">
        <ele>1684.8</ele>
        <time>2020-08-31T12:33:06.108Z</time>
      </trkpt>
      <trkpt lat="42.51982" lon="2.48739">
        <ele>1685.5</ele>
        <time>2020-08-31T12:33:29.706Z</time>
      </trkpt>
      <trkpt lat="42.51977" lon="2.48733">
        <ele>1686.2</ele>
        <time>2020-08-31T12:33:53.287Z</time>
      </trkpt>
      <trkpt lat="42.51973" lon="2.48728">
        <ele>1686.7</ele>
        <time>2020-08-31T12:34:10.255Z</time>
      </trkpt>
      <trkpt lat="42.51967" lon="2.48721">
        <ele>1687.2</ele>
        <time>2020-08-31T12:34:29.852Z</time>
      </trkpt>
      <trkpt lat="42.51964" lon="2.48716">
        <ele>1687.9</ele>
        <time>2020-08-31T12:34:53.570Z</time>
      </trkpt>
      <trkpt lat="42.51961" lon="2.4871">
        <ele>1688.9</ele>
        <time>2020-08-31T12:35:20.242Z</time>
      </trkpt>
      <trkpt lat="42.51955" lon="2.48704">
        <ele>1689.2</ele>
        <time>2020-08-31T12:35:35.519Z</time>
      </trkpt>
      <trkpt lat="42.51951" lon="2.487">
        <ele>1689.6</ele>
        <time>2020-08-31T12:35:49.570Z</time>
      </trkpt>
      <trkpt lat="42.51947" lon="2.48695">
        <ele>1690</ele>
        <time>2020-08-31T12:36:04.121Z</time>
      </trkpt>
      <trkpt lat="42.51943" lon="2.4869">
        <ele>1690.5</ele>
        <time>2020-08-31T12:36:21.089Z</time>
      </trkpt>
      <trkpt lat="42.51941" lon="2.48684">
        <ele>1691.4</ele>
        <time>2020-08-31T12:36:45.314Z</time>
      </trkpt>
      <trkpt lat="42.5194" lon="2.48676">
        <ele>1692.5</ele>
        <time>2020-08-31T12:37:15.164Z</time>
      </trkpt>
      <trkpt lat="42.51939" lon="2.48669">
        <ele>1693.2</ele>
        <time>2020-08-31T12:37:41.305Z</time>
      </trkpt>
      <trkpt lat="42.51936" lon="2.48664">
        <ele>1710.6</ele>
        <time>2020-08-31T12:38:05.023Z</time>
      </trkpt>
      <trkpt lat="42.51933" lon="2.48661">
        <ele>1709.4</ele>
        <time>2020-08-31T12:38:05.953Z</time>
      </trkpt>
      <trkpt lat="42.51931" lon="2.4866">
        <ele>1708.3</ele>
        <time>2020-08-31T12:38:06.486Z</time>
      </trkpt>
      <trkpt lat="42.51929" lon="2.4866">
        <ele>1707.4</ele>
        <time>2020-08-31T12:38:06.986Z</time>
      </trkpt>
      <trkpt lat="42.51927" lon="2.4866">
        <ele>1706</ele>
        <time>2020-08-31T12:38:07.485Z</time>
      </trkpt>
      <trkpt lat="42.51925" lon="2.48664">
        <ele>1703.2</ele>
        <time>2020-08-31T12:38:08.375Z</time>
      </trkpt>
      <trkpt lat="42.51924" lon="2.4867">
        <ele>1693.4</ele>
        <time>2020-08-31T12:38:09.508Z</time>
      </trkpt>
      <trkpt lat="42.51924" lon="2.48679">
        <ele>1691.9</ele>
        <time>2020-08-31T12:38:11.165Z</time>
      </trkpt>
      <trkpt lat="42.51922" lon="2.48689">
        <ele>1689.6</ele>
        <time>2020-08-31T12:38:13.072Z</time>
      </trkpt>
      <trkpt lat="42.51921" lon="2.48695">
        <ele>1687.9</ele>
        <time>2020-08-31T12:38:14.205Z</time>
      </trkpt>
      <trkpt lat="42.5192" lon="2.48699">
        <ele>1686.9</ele>
        <time>2020-08-31T12:38:14.983Z</time>
      </trkpt>
      <trkpt lat="42.51917" lon="2.487">
        <ele>1686.3</ele>
        <time>2020-08-31T12:38:15.754Z</time>
      </trkpt>
      <trkpt lat="42.51914" lon="2.48699">
        <ele>1682.9</ele>
        <time>2020-08-31T12:38:16.526Z</time>
      </trkpt>
      <trkpt lat="42.51909" lon="2.48694">
        <ele>1684.2</ele>
        <time>2020-08-31T12:38:47.528Z</time>
      </trkpt>
      <trkpt lat="42.51904" lon="2.4869">
        <ele>1685.4</ele>
        <time>2020-08-31T12:39:16.499Z</time>
      </trkpt>
      <trkpt lat="42.519" lon="2.48688">
        <ele>1685.8</ele>
        <time>2020-08-31T12:39:30.031Z</time>
      </trkpt>
      <trkpt lat="42.51897" lon="2.48686">
        <ele>1685.9</ele>
        <time>2020-08-31T12:39:35.989Z</time>
      </trkpt>
      <trkpt lat="42.5189" lon="2.48686">
        <ele>1685.7</ele>
        <time>2020-08-31T12:39:38.241Z</time>
      </trkpt>
      <trkpt lat="42.51885" lon="2.48683">
        <ele>1686.1</ele>
        <time>2020-08-31T12:39:52.824Z</time>
      </trkpt>
      <trkpt lat="42.51881" lon="2.4868">
        <ele>1686.6</ele>
        <time>2020-08-31T12:40:09.755Z</time>
      </trkpt>
      <trkpt lat="42.51877" lon="2.48677">
        <ele>1686.9</ele>
        <time>2020-08-31T12:40:21.277Z</time>
      </trkpt>
      <trkpt lat="42.51874" lon="2.48676">
        <ele>1687.2</ele>
        <time>2020-08-31T12:40:31.388Z</time>
      </trkpt>
      <trkpt lat="42.5187" lon="2.48678">
        <ele>1687.3</ele>
        <time>2020-08-31T12:40:38.413Z</time>
      </trkpt>
      <trkpt lat="42.51868" lon="2.4868">
        <ele>1687.2</ele>
        <time>2020-08-31T12:40:39.124Z</time>
      </trkpt>
      <trkpt lat="42.51865" lon="2.48685">
        <ele>1686.8</ele>
        <time>2020-08-31T12:40:40.311Z</time>
      </trkpt>
      <trkpt lat="42.51866" lon="2.48689">
        <ele>1686.2</ele>
        <time>2020-08-31T12:40:41.089Z</time>
      </trkpt>
      <trkpt lat="42.51868" lon="2.48694">
        <ele>1685.4</ele>
        <time>2020-08-31T12:40:42.137Z</time>
      </trkpt>
      <trkpt lat="42.51869" lon="2.487">
        <ele>1684.4</ele>
        <time>2020-08-31T12:40:43.269Z</time>
      </trkpt>
      <trkpt lat="42.5187" lon="2.48705">
        <ele>1683.5</ele>
        <time>2020-08-31T12:40:44.223Z</time>
      </trkpt>
      <trkpt lat="42.51868" lon="2.48711">
        <ele>1682.8</ele>
        <time>2020-08-31T12:40:45.435Z</time>
      </trkpt>
      <trkpt lat="42.51864" lon="2.48715">
        <ele>1682.5</ele>
        <time>2020-08-31T12:40:46.629Z</time>
      </trkpt>
      <trkpt lat="42.51861" lon="2.48719">
        <ele>1682.3</ele>
        <time>2020-08-31T12:40:47.755Z</time>
      </trkpt>
      <trkpt lat="42.51859" lon="2.48722">
        <ele>1682.1</ele>
        <time>2020-08-31T12:40:48.500Z</time>
      </trkpt>
      <trkpt lat="42.51858" lon="2.48726">
        <ele>1681.7</ele>
        <time>2020-08-31T12:40:49.278Z</time>
      </trkpt>
      <trkpt lat="42.51858" lon="2.48729">
        <ele>1681.4</ele>
        <time>2020-08-31T12:40:49.830Z</time>
      </trkpt>
      <trkpt lat="42.51859" lon="2.48731">
        <ele>1681.2</ele>
        <time>2020-08-31T12:40:50.275Z</time>
      </trkpt>
      <trkpt lat="42.51863" lon="2.48731">
        <ele>1680.7</ele>
        <time>2020-08-31T12:40:51.274Z</time>
      </trkpt>
      <trkpt lat="42.51864" lon="2.48735">
        <ele>1680.2</ele>
        <time>2020-08-31T12:40:52.052Z</time>
      </trkpt>
      <trkpt lat="42.51865" lon="2.4874">
        <ele>1679.7</ele>
        <time>2020-08-31T12:40:53.006Z</time>
      </trkpt>
      <trkpt lat="42.51865" lon="2.48745">
        <ele>1679.3</ele>
        <time>2020-08-31T12:40:53.926Z</time>
      </trkpt>
      <trkpt lat="42.51865" lon="2.48751">
        <ele>1664.7</ele>
        <time>2020-08-31T12:40:55.031Z</time>
      </trkpt>
      <trkpt lat="42.51864" lon="2.48755">
        <ele>1664.8</ele>
        <time>2020-08-31T12:41:00.739Z</time>
      </trkpt>
      <trkpt lat="42.51862" lon="2.48757">
        <ele>1665.2</ele>
        <time>2020-08-31T12:41:13.140Z</time>
      </trkpt>
      <trkpt lat="42.51854" lon="2.4876">
        <ele>1667.7</ele>
        <time>2020-08-31T12:41:54.566Z</time>
      </trkpt>
      <trkpt lat="42.51848" lon="2.48762">
        <ele>1669.3</ele>
        <time>2020-08-31T12:42:25.404Z</time>
      </trkpt>
      <trkpt lat="42.51842" lon="2.48764">
        <ele>1670.6</ele>
        <time>2020-08-31T12:42:56.241Z</time>
      </trkpt>
      <trkpt lat="42.51836" lon="2.48767">
        <ele>1670.5</ele>
        <time>2020-08-31T12:42:58.627Z</time>
      </trkpt>
      <trkpt lat="42.51834" lon="2.48767">
        <ele>1670.7</ele>
        <time>2020-08-31T12:43:05.357Z</time>
      </trkpt>
      <trkpt lat="42.5183" lon="2.4877">
        <ele>1686.7</ele>
        <time>2020-08-31T12:43:28.169Z</time>
      </trkpt>
      <trkpt lat="42.51825" lon="2.48773">
        <ele>1687.3</ele>
        <time>2020-08-31T12:43:48.497Z</time>
      </trkpt>
      <trkpt lat="42.51821" lon="2.48778">
        <ele>1687.9</ele>
        <time>2020-08-31T12:44:08.845Z</time>
      </trkpt>
      <trkpt lat="42.51816" lon="2.48786">
        <ele>1688.4</ele>
        <time>2020-08-31T12:44:28.198Z</time>
      </trkpt>
      <trkpt lat="42.51813" lon="2.48792">
        <ele>1688.5</ele>
        <time>2020-08-31T12:44:36.544Z</time>
      </trkpt>
      <trkpt lat="42.51809" lon="2.48796">
        <ele>1688.8</ele>
        <time>2020-08-31T12:44:48.607Z</time>
      </trkpt>
      <trkpt lat="42.51806" lon="2.488">
        <ele>1688.9</ele>
        <time>2020-08-31T12:44:55.565Z</time>
      </trkpt>
      <trkpt lat="42.51806" lon="2.48808">
        <ele>1688.1</ele>
        <time>2020-08-31T12:44:57.038Z</time>
      </trkpt>
      <trkpt lat="42.51807" lon="2.48819">
        <ele>1686.3</ele>
        <time>2020-08-31T12:44:59.079Z</time>
      </trkpt>
      <trkpt lat="42.51808" lon="2.48829">
        <ele>1684.4</ele>
        <time>2020-08-31T12:45:00.937Z</time>
      </trkpt>
      <trkpt lat="42.51813" lon="2.48835">
        <ele>1680.9</ele>
        <time>2020-08-31T12:45:02.604Z</time>
      </trkpt>
      <trkpt lat="42.51817" lon="2.48839">
        <ele>1679</ele>
        <time>2020-08-31T12:45:03.845Z</time>
      </trkpt>
      <trkpt lat="42.51822" lon="2.48845">
        <ele>1678</ele>
        <time>2020-08-31T12:45:05.513Z</time>
      </trkpt>
      <trkpt lat="42.51826" lon="2.4885">
        <ele>1678.7</ele>
        <time>2020-08-31T12:45:30.922Z</time>
      </trkpt>
      <trkpt lat="42.51829" lon="2.48858">
        <ele>1680.9</ele>
        <time>2020-08-31T12:46:03.942Z</time>
      </trkpt>
      <trkpt lat="42.51831" lon="2.48865">
        <ele>1682.1</ele>
        <time>2020-08-31T12:46:31.561Z</time>
      </trkpt>
      <trkpt lat="42.51836" lon="2.48872">
        <ele>1654.2</ele>
        <time>2020-08-31T12:46:33.356Z</time>
      </trkpt>
      <trkpt lat="42.51841" lon="2.48875">
        <ele>1653.7</ele>
        <time>2020-08-31T12:46:34.721Z</time>
      </trkpt>
      <trkpt lat="42.51844" lon="2.48884">
        <ele>1653.9</ele>
        <time>2020-08-31T12:46:47.310Z</time>
      </trkpt>
      <trkpt lat="42.51844" lon="2.48893">
        <ele>1655.5</ele>
        <time>2020-08-31T12:47:20.419Z</time>
      </trkpt>
      <trkpt lat="42.51844" lon="2.489">
        <ele>1657.4</ele>
        <time>2020-08-31T12:47:46.170Z</time>
      </trkpt>
      <trkpt lat="42.51843" lon="2.48906">
        <ele>1659.9</ele>
        <time>2020-08-31T12:48:08.800Z</time>
      </trkpt>
      <trkpt lat="42.51839" lon="2.48913">
        <ele>1664.4</ele>
        <time>2020-08-31T12:48:41.384Z</time>
      </trkpt>
      <trkpt lat="42.51837" lon="2.48916">
        <ele>1667.2</ele>
        <time>2020-08-31T12:48:56.265Z</time>
      </trkpt>
      <trkpt lat="42.51836" lon="2.48921">
        <ele>1666.5</ele>
        <time>2020-08-31T12:48:57.219Z</time>
      </trkpt>
      <trkpt lat="42.51834" lon="2.48933">
        <ele>1658.8</ele>
        <time>2020-08-31T12:48:59.484Z</time>
      </trkpt>
      <trkpt lat="42.51836" lon="2.48963">
        <ele>1653.5</ele>
        <time>2020-08-31T12:49:05.030Z</time>
      </trkpt>
      <trkpt lat="42.51834" lon="2.48972">
        <ele>1654.7</ele>
        <time>2020-08-31T12:49:39.612Z</time>
      </trkpt>
      <trkpt lat="42.51828" lon="2.4898">
        <ele>1681.5</ele>
        <time>2020-08-31T12:50:21.599Z</time>
      </trkpt>
      <trkpt lat="42.51819" lon="2.48988">
        <ele>1681.4</ele>
        <time>2020-08-31T12:50:25.956Z</time>
      </trkpt>
      <trkpt lat="42.51817" lon="2.48999">
        <ele>1681</ele>
        <time>2020-08-31T12:50:28.184Z</time>
      </trkpt>
      <trkpt lat="42.51816" lon="2.49018">
        <ele>1680.6</ele>
        <time>2020-08-31T12:50:32.705Z</time>
      </trkpt>
      <trkpt lat="42.51819" lon="2.49073">
        <ele>1676.1</ele>
        <time>2020-08-31T12:50:42.859Z</time>
      </trkpt>
      <trkpt lat="42.51819" lon="2.49084">
        <ele>1672.1</ele>
        <time>2020-08-31T12:50:44.885Z</time>
      </trkpt>
      <trkpt lat="42.51816" lon="2.49122">
        <ele>1676.3</ele>
        <time>2020-08-31T12:53:05.478Z</time>
      </trkpt>
      <trkpt lat="42.51818" lon="2.49135">
        <ele>1675.5</ele>
        <time>2020-08-31T12:53:07.924Z</time>
      </trkpt>
      <trkpt lat="42.51823" lon="2.4915">
        <ele>1672.6</ele>
        <time>2020-08-31T12:53:10.955Z</time>
      </trkpt>
      <trkpt lat="42.51824" lon="2.49164">
        <ele>1669.3</ele>
        <time>2020-08-31T12:53:13.544Z</time>
      </trkpt>
      <trkpt lat="42.51823" lon="2.49229">
        <ele>1667.8</ele>
        <time>2020-08-31T12:53:28.526Z</time>
      </trkpt>
      <trkpt lat="42.51823" lon="2.49249">
        <ele>1665.8</ele>
        <time>2020-08-31T12:53:32.208Z</time>
      </trkpt>
      <trkpt lat="42.51819" lon="2.49254">
        <ele>1659.7</ele>
        <time>2020-08-31T12:53:33.567Z</time>
      </trkpt>
      <trkpt lat="42.51813" lon="2.49255">
        <ele>1659.1</ele>
        <time>2020-08-31T12:53:35.077Z</time>
      </trkpt>
      <trkpt lat="42.51709" lon="2.49215">
        <ele>1679.7</ele>
        <time>2020-08-31T13:02:34.612Z</time>
      </trkpt>
      <trkpt lat="42.51706" lon="2.4922">
        <ele>1679.1</ele>
        <time>2020-08-31T13:02:35.800Z</time>
      </trkpt>
      <trkpt lat="42.51703" lon="2.49224">
        <ele>1678.7</ele>
        <time>2020-08-31T13:02:36.850Z</time>
      </trkpt>
      <trkpt lat="42.51699" lon="2.49228">
        <ele>1678.3</ele>
        <time>2020-08-31T13:02:38.092Z</time>
      </trkpt>
      <trkpt lat="42.51693" lon="2.49234">
        <ele>1677.5</ele>
        <time>2020-08-31T13:02:39.953Z</time>
      </trkpt>
      <trkpt lat="42.51689" lon="2.4924">
        <ele>1676.8</ele>
        <time>2020-08-31T13:02:41.443Z</time>
      </trkpt>
      <trkpt lat="42.51687" lon="2.49244">
        <ele>1676.2</ele>
        <time>2020-08-31T13:02:42.333Z</time>
      </trkpt>
      <trkpt lat="42.51685" lon="2.4925">
        <ele>1675.7</ele>
        <time>2020-08-31T13:02:43.545Z</time>
      </trkpt>
      <trkpt lat="42.51682" lon="2.49254">
        <ele>1668</ele>
        <time>2020-08-31T13:02:44.596Z</time>
      </trkpt>
      <trkpt lat="42.51678" lon="2.49257">
        <ele>1668.2</ele>
        <time>2020-08-31T13:02:54.467Z</time>
      </trkpt>
      <trkpt lat="42.51677" lon="2.49264">
        <ele>1667.5</ele>
        <time>2020-08-31T13:02:55.780Z</time>
      </trkpt>
      <trkpt lat="42.51675" lon="2.49272">
        <ele>1666.4</ele>
        <time>2020-08-31T13:02:57.335Z</time>
      </trkpt>
      <trkpt lat="42.51673" lon="2.49277">
        <ele>1665.8</ele>
        <time>2020-08-31T13:02:58.382Z</time>
      </trkpt>
      <trkpt lat="42.51672" lon="2.49284">
        <ele>1665</ele>
        <time>2020-08-31T13:02:59.695Z</time>
      </trkpt>
      <trkpt lat="42.51671" lon="2.4929">
        <ele>1664.2</ele>
        <time>2020-08-31T13:03:00.828Z</time>
      </trkpt>
      <trkpt lat="42.51672" lon="2.49298">
        <ele>1663.5</ele>
        <time>2020-08-31T13:03:02.322Z</time>
      </trkpt>
      <trkpt lat="42.51672" lon="2.49308">
        <ele>1662.8</ele>
        <time>2020-08-31T13:03:04.163Z</time>
      </trkpt>
      <trkpt lat="42.51672" lon="2.49316">
        <ele>1662.4</ele>
        <time>2020-08-31T13:03:05.636Z</time>
      </trkpt>
      <trkpt lat="42.51672" lon="2.49322">
        <ele>1662.1</ele>
        <time>2020-08-31T13:03:06.741Z</time>
      </trkpt>
      <trkpt lat="42.51671" lon="2.49329">
        <ele>1662</ele>
        <time>2020-08-31T13:03:08.623Z</time>
      </trkpt>
      <trkpt lat="42.51668" lon="2.49336">
        <ele>1660</ele>
        <time>2020-08-31T13:03:10.114Z</time>
      </trkpt>
      <trkpt lat="42.51665" lon="2.49341">
        <ele>1662.5</ele>
        <time>2020-08-31T13:03:33.832Z</time>
      </trkpt>
      <trkpt lat="42.51662" lon="2.49345">
        <ele>1662.8</ele>
        <time>2020-08-31T13:03:44.895Z</time>
      </trkpt>
      <trkpt lat="42.51659" lon="2.49347">
        <ele>1662.9</ele>
        <time>2020-08-31T13:03:50.853Z</time>
      </trkpt>
      <trkpt lat="42.51655" lon="2.49347">
        <ele>1663.1</ele>
        <time>2020-08-31T13:03:59.904Z</time>
      </trkpt>
      <trkpt lat="42.5165" lon="2.49345">
        <ele>1663.6</ele>
        <time>2020-08-31T13:04:16.774Z</time>
      </trkpt>
      <trkpt lat="42.51644" lon="2.49341">
        <ele>1664.4</ele>
        <time>2020-08-31T13:04:44.603Z</time>
      </trkpt>
      <trkpt lat="42.51639" lon="2.49339">
        <ele>1665</ele>
        <time>2020-08-31T13:05:05.171Z</time>
      </trkpt>
      <trkpt lat="42.51636" lon="2.49339">
        <ele>1665.4</ele>
        <time>2020-08-31T13:05:20.123Z</time>
      </trkpt>
      <trkpt lat="42.51635" lon="2.49342">
        <ele>1665.5</ele>
        <time>2020-08-31T13:05:25.167Z</time>
      </trkpt>
      <trkpt lat="42.51635" lon="2.49346">
        <ele>1665.3</ele>
        <time>2020-08-31T13:05:25.904Z</time>
      </trkpt>
      <trkpt lat="42.51636" lon="2.49351">
        <ele>1665</ele>
        <time>2020-08-31T13:05:26.858Z</time>
      </trkpt>
      <trkpt lat="42.51633" lon="2.49353">
        <ele>1665.2</ele>
        <time>2020-08-31T13:05:34.942Z</time>
      </trkpt>
      <trkpt lat="42.51629" lon="2.49354">
        <ele>1665.8</ele>
        <time>2020-08-31T13:05:55.243Z</time>
      </trkpt>
      <trkpt lat="42.51626" lon="2.49355">
        <ele>1666.1</ele>
        <time>2020-08-31T13:06:05.353Z</time>
      </trkpt>
      <trkpt lat="42.51622" lon="2.49356">
        <ele>1666.6</ele>
        <time>2020-08-31T13:06:22.978Z</time>
      </trkpt>
      <trkpt lat="42.5162" lon="2.49356">
        <ele>1667</ele>
        <time>2020-08-31T13:06:32.961Z</time>
      </trkpt>
      <trkpt lat="42.51618" lon="2.49358">
        <ele>1667.1</ele>
        <time>2020-08-31T13:06:38.053Z</time>
      </trkpt>
      <trkpt lat="42.51617" lon="2.4936">
        <ele>1667.1</ele>
        <time>2020-08-31T13:06:40.358Z</time>
      </trkpt>
      <trkpt lat="42.51615" lon="2.49371">
        <ele>1666.4</ele>
        <time>2020-08-31T13:06:42.444Z</time>
      </trkpt>
      <trkpt lat="42.51618" lon="2.49376">
        <ele>1665.7</ele>
        <time>2020-08-31T13:06:43.631Z</time>
      </trkpt>
      <trkpt lat="42.51624" lon="2.49378">
        <ele>1664.7</ele>
        <time>2020-08-31T13:06:45.175Z</time>
      </trkpt>
      <trkpt lat="42.51628" lon="2.4938">
        <ele>1663.9</ele>
        <time>2020-08-31T13:06:46.240Z</time>
      </trkpt>
      <trkpt lat="42.5163" lon="2.49385">
        <ele>1663.2</ele>
        <time>2020-08-31T13:06:47.287Z</time>
      </trkpt>
      <trkpt lat="42.5163" lon="2.49391">
        <ele>1662.6</ele>
        <time>2020-08-31T13:06:48.392Z</time>
      </trkpt>
      <trkpt lat="42.51628" lon="2.49398">
        <ele>1662.5</ele>
        <time>2020-08-31T13:06:50.397Z</time>
      </trkpt>
      <trkpt lat="42.51625" lon="2.49405">
        <ele>1662.7</ele>
        <time>2020-08-31T13:07:01.540Z</time>
      </trkpt>
      <trkpt lat="42.51622" lon="2.4941">
        <ele>1663.1</ele>
        <time>2020-08-31T13:07:15.394Z</time>
      </trkpt>
      <trkpt lat="42.51617" lon="2.49413">
        <ele>1664</ele>
        <time>2020-08-31T13:07:42.682Z</time>
      </trkpt>
      <trkpt lat="42.51615" lon="2.49418">
        <ele>1659</ele>
        <time>2020-08-31T13:07:43.729Z</time>
      </trkpt>
      <trkpt lat="42.51613" lon="2.49426">
        <ele>1659.1</ele>
        <time>2020-08-31T13:07:53.176Z</time>
      </trkpt>
      <trkpt lat="42.51611" lon="2.49434">
        <ele>1659.1</ele>
        <time>2020-08-31T13:08:01.234Z</time>
      </trkpt>
      <trkpt lat="42.51607" lon="2.49441">
        <ele>1659.2</ele>
        <time>2020-08-31T13:08:11.060Z</time>
      </trkpt>
      <trkpt lat="42.51604" lon="2.49449">
        <ele>1659</ele>
        <time>2020-08-31T13:08:13.152Z</time>
      </trkpt>
      <trkpt lat="42.51601" lon="2.49456">
        <ele>1658.9</ele>
        <time>2020-08-31T13:08:15.349Z</time>
      </trkpt>
      <trkpt lat="42.51598" lon="2.49463">
        <ele>1658.9</ele>
        <time>2020-08-31T13:08:23.072Z</time>
      </trkpt>
      <trkpt lat="42.51596" lon="2.49471">
        <ele>1659.1</ele>
        <time>2020-08-31T13:08:34.488Z</time>
      </trkpt>
      <trkpt lat="42.51597" lon="2.49478">
        <ele>1659.4</ele>
        <time>2020-08-31T13:08:46.958Z</time>
      </trkpt>
      <trkpt lat="42.51597" lon="2.49483">
        <ele>1659.7</ele>
        <time>2020-08-31T13:08:57.457Z</time>
      </trkpt>
      <trkpt lat="42.51596" lon="2.49488">
        <ele>1660.3</ele>
        <time>2020-08-31T13:09:16.517Z</time>
      </trkpt>
      <trkpt lat="42.51596" lon="2.4949">
        <ele>1660.5</ele>
        <time>2020-08-31T13:09:23.875Z</time>
      </trkpt>
      <trkpt lat="42.51595" lon="2.49495">
        <ele>1661.2</ele>
        <time>2020-08-31T13:09:42.935Z</time>
      </trkpt>
      <trkpt lat="42.51595" lon="2.49501">
        <ele>1662.6</ele>
        <time>2020-08-31T13:10:05.008Z</time>
      </trkpt>
      <trkpt lat="42.51597" lon="2.49508">
        <ele>1662.2</ele>
        <time>2020-08-31T13:10:06.390Z</time>
      </trkpt>
      <trkpt lat="42.51597" lon="2.49515">
        <ele>1662</ele>
        <time>2020-08-31T13:10:07.888Z</time>
      </trkpt>
      <trkpt lat="42.51595" lon="2.49532">
        <ele>1662.7</ele>
        <time>2020-08-31T13:10:37.604Z</time>
      </trkpt>
      <trkpt lat="42.51594" lon="2.49535">
        <ele>1663.1</ele>
        <time>2020-08-31T13:10:49.717Z</time>
      </trkpt>
      <trkpt lat="42.51593" lon="2.49539">
        <ele>1663.6</ele>
        <time>2020-08-31T13:11:05.256Z</time>
      </trkpt>
      <trkpt lat="42.51594" lon="2.49545">
        <ele>1664.3</ele>
        <time>2020-08-31T13:11:27.887Z</time>
      </trkpt>
      <trkpt lat="42.51597" lon="2.4955">
        <ele>1664.8</ele>
        <time>2020-08-31T13:11:44.735Z</time>
      </trkpt>
      <trkpt lat="42.516" lon="2.49555">
        <ele>1665.2</ele>
        <time>2020-08-31T13:11:58.589Z</time>
      </trkpt>
      <trkpt lat="42.51602" lon="2.49558">
        <ele>1665.6</ele>
        <time>2020-08-31T13:12:13.471Z</time>
      </trkpt>
      <trkpt lat="42.51604" lon="2.49561">
        <ele>1665.6</ele>
        <time>2020-08-31T13:12:17.329Z</time>
      </trkpt>
      <trkpt lat="42.5161" lon="2.49567">
        <ele>1664.9</ele>
        <time>2020-08-31T13:12:19.191Z</time>
      </trkpt>
      <trkpt lat="42.51613" lon="2.49571">
        <ele>1664.5</ele>
        <time>2020-08-31T13:12:20.241Z</time>
      </trkpt>
      <trkpt lat="42.51617" lon="2.49584">
        <ele>1674.7</ele>
        <time>2020-08-31T13:13:12.067Z</time>
      </trkpt>
      <trkpt lat="42.51627" lon="2.49593">
        <ele>1672.2</ele>
        <time>2020-08-31T13:13:15.065Z</time>
      </trkpt>
      <trkpt lat="42.51633" lon="2.49612">
        <ele>1672.6</ele>
        <time>2020-08-31T13:13:41.022Z</time>
      </trkpt>
      <trkpt lat="42.51638" lon="2.49623">
        <ele>1673.2</ele>
        <time>2020-08-31T13:14:04.580Z</time>
      </trkpt>
      <trkpt lat="42.51642" lon="2.49628">
        <ele>1672.8</ele>
        <time>2020-08-31T13:14:05.939Z</time>
      </trkpt>
      <trkpt lat="42.51646" lon="2.49632">
        <ele>1672.4</ele>
        <time>2020-08-31T13:14:07.180Z</time>
      </trkpt>
      <trkpt lat="42.51649" lon="2.49637">
        <ele>1672</ele>
        <time>2020-08-31T13:14:08.367Z</time>
      </trkpt>
      <trkpt lat="42.51653" lon="2.49643">
        <ele>1671.4</ele>
        <time>2020-08-31T13:14:09.857Z</time>
      </trkpt>
      <trkpt lat="42.51656" lon="2.49651">
        <ele>1670.2</ele>
        <time>2020-08-31T13:14:11.509Z</time>
      </trkpt>
      <trkpt lat="42.51659" lon="2.49659">
        <ele>1668.2</ele>
        <time>2020-08-31T13:14:13.162Z</time>
      </trkpt>
      <trkpt lat="42.51661" lon="2.49666">
        <ele>1666</ele>
        <time>2020-08-31T13:14:14.544Z</time>
      </trkpt>
      <trkpt lat="42.51664" lon="2.49675">
        <ele>1672.3</ele>
        <time>2020-08-31T13:14:50.883Z</time>
      </trkpt>
      <trkpt lat="42.51667" lon="2.49682">
        <ele>1656.8</ele>
        <time>2020-08-31T13:14:52.373Z</time>
      </trkpt>
      <trkpt lat="42.51668" lon="2.49687">
        <ele>1655.6</ele>
        <time>2020-08-31T13:14:53.327Z</time>
      </trkpt>
      <trkpt lat="42.51668" lon="2.497">
        <ele>1654.9</ele>
        <time>2020-08-31T13:14:55.721Z</time>
      </trkpt>
      <trkpt lat="42.51667" lon="2.49706">
        <ele>1655.3</ele>
        <time>2020-08-31T13:15:09.407Z</time>
      </trkpt>
      <trkpt lat="42.51665" lon="2.49713">
        <ele>1686.6</ele>
        <time>2020-08-31T13:15:37.027Z</time>
      </trkpt>
      <trkpt lat="42.51663" lon="2.49719">
        <ele>1687</ele>
        <time>2020-08-31T13:15:50.970Z</time>
      </trkpt>
      <trkpt lat="42.51662" lon="2.49726">
        <ele>1686.7</ele>
        <time>2020-08-31T13:15:52.267Z</time>
      </trkpt>
      <trkpt lat="42.51664" lon="2.49736">
        <ele>1684.2</ele>
        <time>2020-08-31T13:15:54.174Z</time>
      </trkpt>
      <trkpt lat="42.51669" lon="2.49741">
        <ele>1667.1</ele>
        <time>2020-08-31T13:15:55.726Z</time>
      </trkpt>
      <trkpt lat="42.51676" lon="2.49745">
        <ele>1665.6</ele>
        <time>2020-08-31T13:15:57.623Z</time>
      </trkpt>
      <trkpt lat="42.51687" lon="2.49752">
        <ele>1665.5</ele>
        <time>2020-08-31T13:16:02.614Z</time>
      </trkpt>
      <trkpt lat="42.5169" lon="2.49755">
        <ele>1663.9</ele>
        <time>2020-08-31T13:16:03.545Z</time>
      </trkpt>
      <trkpt lat="42.51693" lon="2.4976">
        <ele>1662.9</ele>
        <time>2020-08-31T13:16:04.733Z</time>
      </trkpt>
      <trkpt lat="42.51694" lon="2.49766">
        <ele>1662.1</ele>
        <time>2020-08-31T13:16:05.865Z</time>
      </trkpt>
      <trkpt lat="42.51695" lon="2.49773">
        <ele>1661.8</ele>
        <time>2020-08-31T13:16:07.162Z</time>
      </trkpt>
      <trkpt lat="42.51695" lon="2.4978">
        <ele>1662.1</ele>
        <time>2020-08-31T13:16:19.494Z</time>
      </trkpt>
      <trkpt lat="42.51694" lon="2.49788">
        <ele>1662.8</ele>
        <time>2020-08-31T13:16:43.628Z</time>
      </trkpt>
      <trkpt lat="42.51694" lon="2.49794">
        <ele>1663.1</ele>
        <time>2020-08-31T13:16:54.958Z</time>
      </trkpt>
      <trkpt lat="42.51695" lon="2.49802">
        <ele>1663.7</ele>
        <time>2020-08-31T13:17:15.147Z</time>
      </trkpt>
      <trkpt lat="42.51697" lon="2.49808">
        <ele>1663.9</ele>
        <time>2020-08-31T13:17:25.235Z</time>
      </trkpt>
      <trkpt lat="42.517" lon="2.49814">
        <ele>1663.8</ele>
        <time>2020-08-31T13:17:27.157Z</time>
      </trkpt>
      <trkpt lat="42.51704" lon="2.49825">
        <ele>1662.6</ele>
        <time>2020-08-31T13:17:29.415Z</time>
      </trkpt>
      <trkpt lat="42.51708" lon="2.4983">
        <ele>1660.8</ele>
        <time>2020-08-31T13:17:30.774Z</time>
      </trkpt>
      <trkpt lat="42.51711" lon="2.49834">
        <ele>1668.3</ele>
        <time>2020-08-31T13:17:51.768Z</time>
      </trkpt>
      <trkpt lat="42.51714" lon="2.49839">
        <ele>1667.2</ele>
        <time>2020-08-31T13:17:52.955Z</time>
      </trkpt>
      <trkpt lat="42.51716" lon="2.49844">
        <ele>1666.8</ele>
        <time>2020-08-31T13:17:54.002Z</time>
      </trkpt>
      <trkpt lat="42.51717" lon="2.4985">
        <ele>1667</ele>
        <time>2020-08-31T13:18:03.847Z</time>
      </trkpt>
      <trkpt lat="42.51718" lon="2.49857">
        <ele>1667.5</ele>
        <time>2020-08-31T13:18:20.732Z</time>
      </trkpt>
      <trkpt lat="42.5172" lon="2.49863">
        <ele>1667.6</ele>
        <time>2020-08-31T13:18:28.474Z</time>
      </trkpt>
      <trkpt lat="42.51723" lon="2.49872">
        <ele>1668</ele>
        <time>2020-08-31T13:18:45.498Z</time>
      </trkpt>
      <trkpt lat="42.51725" lon="2.49878">
        <ele>1668.1</ele>
        <time>2020-08-31T13:18:53.240Z</time>
      </trkpt>
      <trkpt lat="42.51728" lon="2.49884">
        <ele>1667.6</ele>
        <time>2020-08-31T13:18:54.575Z</time>
      </trkpt>
      <trkpt lat="42.51732" lon="2.49891">
        <ele>1666.7</ele>
        <time>2020-08-31T13:18:56.205Z</time>
      </trkpt>
      <trkpt lat="42.51736" lon="2.49898">
        <ele>1665.2</ele>
        <time>2020-08-31T13:18:57.836Z</time>
      </trkpt>
      <trkpt lat="42.51738" lon="2.49904">
        <ele>1663.4</ele>
        <time>2020-08-31T13:18:59.049Z</time>
      </trkpt>
      <trkpt lat="42.51742" lon="2.4991">
        <ele>1660.7</ele>
        <time>2020-08-31T13:19:00.538Z</time>
      </trkpt>
      <trkpt lat="42.51744" lon="2.49917">
        <ele>1658.2</ele>
        <time>2020-08-31T13:19:01.920Z</time>
      </trkpt>
      <trkpt lat="42.51744" lon="2.49923">
        <ele>1663.8</ele>
        <time>2020-08-31T13:19:23.993Z</time>
      </trkpt>
      <trkpt lat="42.51744" lon="2.4993">
        <ele>1668.4</ele>
        <time>2020-08-31T13:19:49.745Z</time>
      </trkpt>
      <trkpt lat="42.51745" lon="2.49937">
        <ele>1672</ele>
        <time>2020-08-31T13:20:15.976Z</time>
      </trkpt>
      <trkpt lat="42.51747" lon="2.49946">
        <ele>1675.2</ele>
        <time>2020-08-31T13:20:50.558Z</time>
      </trkpt>
      <trkpt lat="42.51749" lon="2.49952">
        <ele>1676.6</ele>
        <time>2020-08-31T13:21:14.783Z</time>
      </trkpt>
      <trkpt lat="42.51751" lon="2.49959">
        <ele>1644.8</ele>
        <time>2020-08-31T13:21:16.166Z</time>
      </trkpt>
      <trkpt lat="42.51765" lon="2.49995">
        <ele>1653.9</ele>
        <time>2020-08-31T13:23:45.907Z</time>
      </trkpt>
      <trkpt lat="42.5177" lon="2.50001">
        <ele>1655.4</ele>
        <time>2020-08-31T13:24:19.224Z</time>
      </trkpt>
      <trkpt lat="42.51774" lon="2.50016">
        <ele>1651.8</ele>
        <time>2020-08-31T13:24:22.161Z</time>
      </trkpt>
      <trkpt lat="42.51772" lon="2.50033">
        <ele>1650.7</ele>
        <time>2020-08-31T13:24:25.330Z</time>
      </trkpt>
      <trkpt lat="42.51765" lon="2.50046">
        <ele>1652</ele>
        <time>2020-08-31T13:25:09.360Z</time>
      </trkpt>
      <trkpt lat="42.51753" lon="2.50057">
        <ele>1655.4</ele>
        <time>2020-08-31T13:26:21.643Z</time>
      </trkpt>
      <trkpt lat="42.51749" lon="2.5006">
        <ele>1680.8</ele>
        <time>2020-08-31T13:26:44.456Z</time>
      </trkpt>
      <trkpt lat="42.51744" lon="2.50063">
        <ele>1680.6</ele>
        <time>2020-08-31T13:26:46.076Z</time>
      </trkpt>
      <trkpt lat="42.51742" lon="2.50067">
        <ele>1679.6</ele>
        <time>2020-08-31T13:26:46.966Z</time>
      </trkpt>
      <trkpt lat="42.51742" lon="2.50073">
        <ele>1677.7</ele>
        <time>2020-08-31T13:26:48.071Z</time>
      </trkpt>
      <trkpt lat="42.51743" lon="2.50078">
        <ele>1675.2</ele>
        <time>2020-08-31T13:26:49.025Z</time>
      </trkpt>
      <trkpt lat="42.51743" lon="2.50082">
        <ele>1674.3</ele>
        <time>2020-08-31T13:26:49.761Z</time>
      </trkpt>
      <trkpt lat="42.5174" lon="2.50085">
        <ele>1677.1</ele>
        <time>2020-08-31T13:27:08.363Z</time>
      </trkpt>
      <trkpt lat="42.51736" lon="2.50088">
        <ele>1680.4</ele>
        <time>2020-08-31T13:27:31.175Z</time>
      </trkpt>
      <trkpt lat="42.51733" lon="2.50092">
        <ele>1682.7</ele>
        <time>2020-08-31T13:27:52.169Z</time>
      </trkpt>
      <trkpt lat="42.51728" lon="2.50097">
        <ele>1685.4</ele>
        <time>2020-08-31T13:28:23.171Z</time>
      </trkpt>
      <trkpt lat="42.51726" lon="2.501">
        <ele>1686.7</ele>
        <time>2020-08-31T13:28:38.052Z</time>
      </trkpt>
      <trkpt lat="42.51725" lon="2.50104">
        <ele>1687.6</ele>
        <time>2020-08-31T13:28:53.591Z</time>
      </trkpt>
      <trkpt lat="42.51728" lon="2.50107">
        <ele>1687.3</ele>
        <time>2020-08-31T13:28:54.522Z</time>
      </trkpt>
      <trkpt lat="42.51733" lon="2.50111">
        <ele>1686.7</ele>
        <time>2020-08-31T13:28:55.972Z</time>
      </trkpt>
      <trkpt lat="42.51739" lon="2.50115">
        <ele>1686.3</ele>
        <time>2020-08-31T13:28:57.585Z</time>
      </trkpt>
      <trkpt lat="42.51744" lon="2.5012">
        <ele>1686.4</ele>
        <time>2020-08-31T13:29:07.013Z</time>
      </trkpt>
      <trkpt lat="42.51749" lon="2.50125">
        <ele>1686.5</ele>
        <time>2020-08-31T13:29:16.441Z</time>
      </trkpt>
      <trkpt lat="42.51754" lon="2.5013">
        <ele>1661.7</ele>
        <time>2020-08-31T13:29:17.993Z</time>
      </trkpt>
      <trkpt lat="42.5176" lon="2.50135">
        <ele>1661.8</ele>
        <time>2020-08-31T13:29:28.467Z</time>
      </trkpt>
      <trkpt lat="42.51766" lon="2.50141">
        <ele>1661.9</ele>
        <time>2020-08-31T13:29:39.463Z</time>
      </trkpt>
      <trkpt lat="42.51771" lon="2.50146">
        <ele>1661.5</ele>
        <time>2020-08-31T13:29:40.910Z</time>
      </trkpt>
      <trkpt lat="42.51776" lon="2.50149">
        <ele>1660.4</ele>
        <time>2020-08-31T13:29:42.275Z</time>
      </trkpt>
      <trkpt lat="42.51779" lon="2.50152">
        <ele>1659.6</ele>
        <time>2020-08-31T13:29:43.206Z</time>
      </trkpt>
      <trkpt lat="42.51782" lon="2.50156">
        <ele>1659</ele>
        <time>2020-08-31T13:29:44.257Z</time>
      </trkpt>
      <trkpt lat="42.51786" lon="2.50162">
        <ele>1658.2</ele>
        <time>2020-08-31T13:29:45.747Z</time>
      </trkpt>
      <trkpt lat="42.51793" lon="2.5017">
        <ele>1667</ele>
        <time>2020-08-31T13:30:31.428Z</time>
      </trkpt>
      <trkpt lat="42.518" lon="2.50184">
        <ele>1665.7</ele>
        <time>2020-08-31T13:30:34.543Z</time>
      </trkpt>
      <trkpt lat="42.51805" lon="2.50192">
        <ele>1665.7</ele>
        <time>2020-08-31T13:30:44.547Z</time>
      </trkpt>
      <trkpt lat="42.5181" lon="2.50202">
        <ele>1665.9</ele>
        <time>2020-08-31T13:30:59.057Z</time>
      </trkpt>
      <trkpt lat="42.51813" lon="2.50214">
        <ele>1667.2</ele>
        <time>2020-08-31T13:31:45.672Z</time>
      </trkpt>
      <trkpt lat="42.51814" lon="2.5022">
        <ele>1667.4</ele>
        <time>2020-08-31T13:31:55.517Z</time>
      </trkpt>
      <trkpt lat="42.51817" lon="2.50226">
        <ele>1666.9</ele>
        <time>2020-08-31T13:31:56.852Z</time>
      </trkpt>
      <trkpt lat="42.51821" lon="2.50232">
        <ele>1665.8</ele>
        <time>2020-08-31T13:31:58.342Z</time>
      </trkpt>
      <trkpt lat="42.51824" lon="2.50238">
        <ele>1664.3</ele>
        <time>2020-08-31T13:31:59.677Z</time>
      </trkpt>
      <trkpt lat="42.51826" lon="2.50247">
        <ele>1662.1</ele>
        <time>2020-08-31T13:32:01.407Z</time>
      </trkpt>
      <trkpt lat="42.51826" lon="2.50256">
        <ele>1668</ele>
        <time>2020-08-31T13:32:34.516Z</time>
      </trkpt>
      <trkpt lat="42.51827" lon="2.50266">
        <ele>1673.2</ele>
        <time>2020-08-31T13:33:11.641Z</time>
      </trkpt>
      <trkpt lat="42.51831" lon="2.50286">
        <ele>1679.2</ele>
        <time>2020-08-31T13:34:27.878Z</time>
      </trkpt>
      <trkpt lat="42.51832" lon="2.50295">
        <ele>1679.9</ele>
        <time>2020-08-31T13:34:51.450Z</time>
      </trkpt>
      <trkpt lat="42.51834" lon="2.50304">
        <ele>1647.7</ele>
        <time>2020-08-31T13:34:53.181Z</time>
      </trkpt>
      <trkpt lat="42.51836" lon="2.50307">
        <ele>1648.5</ele>
        <time>2020-08-31T13:35:08.062Z</time>
      </trkpt>
      <trkpt lat="42.51839" lon="2.50312">
        <ele>1649.5</ele>
        <time>2020-08-31T13:35:31.780Z</time>
      </trkpt>
      <trkpt lat="42.51842" lon="2.50315">
        <ele>1650</ele>
        <time>2020-08-31T13:35:50.381Z</time>
      </trkpt>
      <trkpt lat="42.51845" lon="2.50319">
        <ele>1650.5</ele>
        <time>2020-08-31T13:36:07.725Z</time>
      </trkpt>
      <trkpt lat="42.51846" lon="2.50323">
        <ele>1651.9</ele>
        <time>2020-08-31T13:36:23.263Z</time>
      </trkpt>
      <trkpt lat="42.51845" lon="2.50328">
        <ele>1653.6</ele>
        <time>2020-08-31T13:36:42.323Z</time>
      </trkpt>
      <trkpt lat="42.51847" lon="2.50335">
        <ele>1658</ele>
        <time>2020-08-31T13:37:09.941Z</time>
      </trkpt>
      <trkpt lat="42.51848" lon="2.50342">
        <ele>1656.9</ele>
        <time>2020-08-31T13:37:11.254Z</time>
      </trkpt>
      <trkpt lat="42.51848" lon="2.50347">
        <ele>1656.4</ele>
        <time>2020-08-31T13:37:12.174Z</time>
      </trkpt>
      <trkpt lat="42.51847" lon="2.50353">
        <ele>1656</ele>
        <time>2020-08-31T13:37:13.307Z</time>
      </trkpt>
      <trkpt lat="42.51848" lon="2.50361">
        <ele>1655.2</ele>
        <time>2020-08-31T13:37:14.801Z</time>
      </trkpt>
      <trkpt lat="42.51849" lon="2.50368">
        <ele>1655.1</ele>
        <time>2020-08-31T13:37:16.683Z</time>
      </trkpt>
      <trkpt lat="42.51851" lon="2.50377">
        <ele>1655.5</ele>
        <time>2020-08-31T13:37:33.197Z</time>
      </trkpt>
      <trkpt lat="42.51853" lon="2.50383">
        <ele>1656</ele>
        <time>2020-08-31T13:37:50.024Z</time>
      </trkpt>
      <trkpt lat="42.51856" lon="2.50392">
        <ele>1656.9</ele>
        <time>2020-08-31T13:38:21.847Z</time>
      </trkpt>
      <trkpt lat="42.51858" lon="2.50401">
        <ele>1657.8</ele>
        <time>2020-08-31T13:38:54.747Z</time>
      </trkpt>
      <trkpt lat="42.5186" lon="2.50411">
        <ele>1658.4</ele>
        <time>2020-08-31T13:39:16.006Z</time>
      </trkpt>
      <trkpt lat="42.51862" lon="2.50418">
        <ele>1666.8</ele>
        <time>2020-08-31T13:39:43.625Z</time>
      </trkpt>
      <trkpt lat="42.51863" lon="2.50427">
        <ele>1666.4</ele>
        <time>2020-08-31T13:39:45.246Z</time>
      </trkpt>
      <trkpt lat="42.51866" lon="2.50433">
        <ele>1665</ele>
        <time>2020-08-31T13:39:46.581Z</time>
      </trkpt>
      <trkpt lat="42.519" lon="2.50532">
        <ele>1672.2</ele>
        <time>2020-08-31T13:43:52.197Z</time>
      </trkpt>
      <trkpt lat="42.51933" lon="2.50594">
        <ele>1651.6</ele>
        <time>2020-08-31T13:44:06.277Z</time>
      </trkpt>
      <trkpt lat="42.51936" lon="2.50605">
        <ele>1648.7</ele>
        <time>2020-08-31T13:44:08.436Z</time>
      </trkpt>
      <trkpt lat="42.51938" lon="2.5061">
        <ele>1647.6</ele>
        <time>2020-08-31T13:44:09.484Z</time>
      </trkpt>
      <trkpt lat="42.5194" lon="2.50615">
        <ele>1647</ele>
        <time>2020-08-31T13:44:10.531Z</time>
      </trkpt>
      <trkpt lat="42.51941" lon="2.5062">
        <ele>1647.1</ele>
        <time>2020-08-31T13:44:17.032Z</time>
      </trkpt>
      <trkpt lat="42.51942" lon="2.50625">
        <ele>1647.1</ele>
        <time>2020-08-31T13:44:21.973Z</time>
      </trkpt>
      <trkpt lat="42.51943" lon="2.50631">
        <ele>1647.2</ele>
        <time>2020-08-31T13:44:29.325Z</time>
      </trkpt>
      <trkpt lat="42.51944" lon="2.50636">
        <ele>1647.8</ele>
        <time>2020-08-31T13:44:48.384Z</time>
      </trkpt>
      <trkpt lat="42.51944" lon="2.50649">
        <ele>1649.7</ele>
        <time>2020-08-31T13:45:36.207Z</time>
      </trkpt>
      <trkpt lat="42.51944" lon="2.50655">
        <ele>1650.7</ele>
        <time>2020-08-31T13:45:58.280Z</time>
      </trkpt>
      <trkpt lat="42.51944" lon="2.50664">
        <ele>1652</ele>
        <time>2020-08-31T13:46:31.388Z</time>
      </trkpt>
      <trkpt lat="42.51943" lon="2.50676">
        <ele>1654.2</ele>
        <time>2020-08-31T13:47:15.814Z</time>
      </trkpt>
      <trkpt lat="42.51941" lon="2.50691">
        <ele>1652.6</ele>
        <time>2020-08-31T13:47:18.621Z</time>
      </trkpt>
      <trkpt lat="42.51941" lon="2.50699">
        <ele>1651.8</ele>
        <time>2020-08-31T13:47:20.094Z</time>
      </trkpt>
      <trkpt lat="42.5194" lon="2.50708">
        <ele>1651.4</ele>
        <time>2020-08-31T13:47:21.715Z</time>
      </trkpt>
      <trkpt lat="42.51937" lon="2.50723">
        <ele>1652.4</ele>
        <time>2020-08-31T13:47:56.017Z</time>
      </trkpt>
      <trkpt lat="42.51936" lon="2.50731">
        <ele>1653.8</ele>
        <time>2020-08-31T13:48:25.867Z</time>
      </trkpt>
      <trkpt lat="42.51934" lon="2.50739">
        <ele>1656.1</ele>
        <time>2020-08-31T13:48:56.943Z</time>
      </trkpt>
      <trkpt lat="42.51931" lon="2.50759">
        <ele>1654.9</ele>
        <time>2020-08-31T13:49:00.701Z</time>
      </trkpt>
      <trkpt lat="42.51929" lon="2.50768">
        <ele>1652.5</ele>
        <time>2020-08-31T13:49:02.432Z</time>
      </trkpt>
      <trkpt lat="42.51925" lon="2.50784">
        <ele>1649</ele>
        <time>2020-08-31T13:49:05.543Z</time>
      </trkpt>
      <trkpt lat="42.51924" lon="2.50796">
        <ele>1648.1</ele>
        <time>2020-08-31T13:49:07.766Z</time>
      </trkpt>
      <trkpt lat="42.51922" lon="2.50804">
        <ele>1648.6</ele>
        <time>2020-08-31T13:49:25.344Z</time>
      </trkpt>
      <trkpt lat="42.5192" lon="2.50813">
        <ele>1650.3</ele>
        <time>2020-08-31T13:49:59.925Z</time>
      </trkpt>
      <trkpt lat="42.51918" lon="2.50821">
        <ele>1653</ele>
        <time>2020-08-31T13:50:31.002Z</time>
      </trkpt>
      <trkpt lat="42.51915" lon="2.50828">
        <ele>1667</ele>
        <time>2020-08-31T13:51:00.790Z</time>
      </trkpt>
      <trkpt lat="42.51913" lon="2.50835">
        <ele>1662.1</ele>
        <time>2020-08-31T13:51:02.172Z</time>
      </trkpt>
      <trkpt lat="42.51913" lon="2.50842">
        <ele>1663.2</ele>
        <time>2020-08-31T13:51:27.923Z</time>
      </trkpt>
      <trkpt lat="42.51912" lon="2.5085">
        <ele>1664</ele>
        <time>2020-08-31T13:51:57.773Z</time>
      </trkpt>
      <trkpt lat="42.5191" lon="2.50857">
        <ele>1664.2</ele>
        <time>2020-08-31T13:52:08.478Z</time>
      </trkpt>
      <trkpt lat="42.5191" lon="2.50865">
        <ele>1663.9</ele>
        <time>2020-08-31T13:52:10.010Z</time>
      </trkpt>
      <trkpt lat="42.5191" lon="2.5087">
        <ele>1663.4</ele>
        <time>2020-08-31T13:52:10.931Z</time>
      </trkpt>
      <trkpt lat="42.51909" lon="2.50877">
        <ele>1662.4</ele>
        <time>2020-08-31T13:52:12.244Z</time>
      </trkpt>
      <trkpt lat="42.51907" lon="2.50882">
        <ele>1661.7</ele>
        <time>2020-08-31T13:52:13.291Z</time>
      </trkpt>
      <trkpt lat="42.51903" lon="2.50887">
        <ele>1661.1</ele>
        <time>2020-08-31T13:52:14.650Z</time>
      </trkpt>
      <trkpt lat="42.51898" lon="2.50893">
        <ele>1660.5</ele>
        <time>2020-08-31T13:52:16.317Z</time>
      </trkpt>
      <trkpt lat="42.51894" lon="2.50899">
        <ele>1660.3</ele>
        <time>2020-08-31T13:52:18.139Z</time>
      </trkpt>
      <trkpt lat="42.51889" lon="2.50905">
        <ele>1660.4</ele>
        <time>2020-08-31T13:52:28.151Z</time>
      </trkpt>
      <trkpt lat="42.51885" lon="2.50909">
        <ele>1660.8</ele>
        <time>2020-08-31T13:52:42.202Z</time>
      </trkpt>
      <trkpt lat="42.51881" lon="2.50911">
        <ele>1661.4</ele>
        <time>2020-08-31T13:53:03.479Z</time>
      </trkpt>
      <trkpt lat="42.51876" lon="2.50911">
        <ele>1662.4</ele>
        <time>2020-08-31T13:53:28.435Z</time>
      </trkpt>
      <trkpt lat="42.51871" lon="2.50911">
        <ele>1663.2</ele>
        <time>2020-08-31T13:53:53.390Z</time>
      </trkpt>
      <trkpt lat="42.51866" lon="2.50911">
        <ele>1663.7</ele>
        <time>2020-08-31T13:54:10.216Z</time>
      </trkpt>
      <trkpt lat="42.51859" lon="2.5091">
        <ele>1664.3</ele>
        <time>2020-08-31T13:54:30.923Z</time>
      </trkpt>
      <trkpt lat="42.51853" lon="2.50909">
        <ele>1664.4</ele>
        <time>2020-08-31T13:54:40.143Z</time>
      </trkpt>
      <trkpt lat="42.51847" lon="2.50908">
        <ele>1664.3</ele>
        <time>2020-08-31T13:54:42.374Z</time>
      </trkpt>
      <trkpt lat="42.5184" lon="2.50906">
        <ele>1664.1</ele>
        <time>2020-08-31T13:54:44.690Z</time>
      </trkpt>
      <trkpt lat="42.51832" lon="2.50907">
        <ele>1671</ele>
        <time>2020-08-31T13:55:24.789Z</time>
      </trkpt>
      <trkpt lat="42.51826" lon="2.50909">
        <ele>1672</ele>
        <time>2020-08-31T13:55:55.626Z</time>
      </trkpt>
      <trkpt lat="42.5182" lon="2.50911">
        <ele>1674.4</ele>
        <time>2020-08-31T13:56:26.464Z</time>
      </trkpt>
      <trkpt lat="42.51815" lon="2.50914">
        <ele>1677.2</ele>
        <time>2020-08-31T13:56:53.751Z</time>
      </trkpt>
      <trkpt lat="42.51809" lon="2.50917">
        <ele>1659.7</ele>
        <time>2020-08-31T13:56:55.348Z</time>
      </trkpt>
      <trkpt lat="42.51804" lon="2.50921">
        <ele>1659.8</ele>
        <time>2020-08-31T13:57:04.267Z</time>
      </trkpt>
      <trkpt lat="42.51797" lon="2.50924">
        <ele>1660.4</ele>
        <time>2020-08-31T13:57:25.237Z</time>
      </trkpt>
      <trkpt lat="42.5179" lon="2.50927">
        <ele>1661.3</ele>
        <time>2020-08-31T13:57:56.916Z</time>
      </trkpt>
      <trkpt lat="42.51785" lon="2.50929">
        <ele>1662.3</ele>
        <time>2020-08-31T13:58:22.934Z</time>
      </trkpt>
      <trkpt lat="42.51779" lon="2.5093">
        <ele>1663.4</ele>
        <time>2020-08-31T13:58:53.106Z</time>
      </trkpt>
      <trkpt lat="42.51771" lon="2.50932">
        <ele>1665.3</ele>
        <time>2020-08-31T13:59:33.707Z</time>
      </trkpt>
      <trkpt lat="42.51764" lon="2.50935">
        <ele>1666.7</ele>
        <time>2020-08-31T14:00:10.347Z</time>
      </trkpt>
      <trkpt lat="42.51755" lon="2.50937">
        <ele>1667.5</ele>
        <time>2020-08-31T14:00:37.756Z</time>
      </trkpt>
      <trkpt lat="42.51748" lon="2.50938">
        <ele>1683.7</ele>
        <time>2020-08-31T14:01:12.888Z</time>
      </trkpt>
      <trkpt lat="42.51741" lon="2.5094">
        <ele>1684.1</ele>
        <time>2020-08-31T14:01:29.726Z</time>
      </trkpt>
      <trkpt lat="42.51734" lon="2.50943">
        <ele>1684.8</ele>
        <time>2020-08-31T14:01:53.359Z</time>
      </trkpt>
      <trkpt lat="42.51728" lon="2.50946">
        <ele>1685.6</ele>
        <time>2020-08-31T14:02:21.847Z</time>
      </trkpt>
      <trkpt lat="42.51724" lon="2.50947">
        <ele>1686.2</ele>
        <time>2020-08-31T14:02:42.148Z</time>
      </trkpt>
      <trkpt lat="42.51722" lon="2.5095">
        <ele>1686.4</ele>
        <time>2020-08-31T14:02:49.744Z</time>
      </trkpt>
      <trkpt lat="42.51721" lon="2.50955">
        <ele>1685.9</ele>
        <time>2020-08-31T14:02:50.698Z</time>
      </trkpt>
      <trkpt lat="42.51722" lon="2.5096">
        <ele>1684.9</ele>
        <time>2020-08-31T14:02:51.652Z</time>
      </trkpt>
      <trkpt lat="42.51725" lon="2.50967">
        <ele>1683.1</ele>
        <time>2020-08-31T14:02:53.143Z</time>
      </trkpt>
      <trkpt lat="42.51728" lon="2.50972">
        <ele>1681</ele>
        <time>2020-08-31T14:02:54.330Z</time>
      </trkpt>
      <trkpt lat="42.51731" lon="2.50979">
        <ele>1678.2</ele>
        <time>2020-08-31T14:02:55.821Z</time>
      </trkpt>
      <trkpt lat="42.51734" lon="2.50988">
        <ele>1673.6</ele>
        <time>2020-08-31T14:02:57.639Z</time>
      </trkpt>
      <trkpt lat="42.51739" lon="2.50998">
        <ele>1667.2</ele>
        <time>2020-08-31T14:02:59.864Z</time>
      </trkpt>
      <trkpt lat="42.51741" lon="2.51005">
        <ele>1663.5</ele>
        <time>2020-08-31T14:03:01.246Z</time>
      </trkpt>
      <trkpt lat="42.51742" lon="2.51012">
        <ele>1665.4</ele>
        <time>2020-08-31T14:03:27.477Z</time>
      </trkpt>
      <trkpt lat="42.51743" lon="2.51019">
        <ele>1668</ele>
        <time>2020-08-31T14:03:53.709Z</time>
      </trkpt>
      <trkpt lat="42.51743" lon="2.51027">
        <ele>1670.2</ele>
        <time>2020-08-31T14:04:23.139Z</time>
      </trkpt>
      <trkpt lat="42.51741" lon="2.51037">
        <ele>1671.8</ele>
        <time>2020-08-31T14:05:01.258Z</time>
      </trkpt>
      <trkpt lat="42.51741" lon="2.51048">
        <ele>1671.9</ele>
        <time>2020-08-31T14:05:13.086Z</time>
      </trkpt>
      <trkpt lat="42.5174" lon="2.51057">
        <ele>1670.7</ele>
        <time>2020-08-31T14:05:14.761Z</time>
      </trkpt>
      <trkpt lat="42.5174" lon="2.51068">
        <ele>1667.6</ele>
        <time>2020-08-31T14:05:16.787Z</time>
      </trkpt>
      <trkpt lat="42.5174" lon="2.51084">
        <ele>1662.3</ele>
        <time>2020-08-31T14:05:19.733Z</time>
      </trkpt>
      <trkpt lat="42.5174" lon="2.51094">
        <ele>1664.7</ele>
        <time>2020-08-31T14:05:56.521Z</time>
      </trkpt>
      <trkpt lat="42.5174" lon="2.51106">
        <ele>1668.1</ele>
        <time>2020-08-31T14:06:40.667Z</time>
      </trkpt>
      <trkpt lat="42.5174" lon="2.51115">
        <ele>1669.5</ele>
        <time>2020-08-31T14:07:13.777Z</time>
      </trkpt>
      <trkpt lat="42.5174" lon="2.51137">
        <ele>1668.6</ele>
        <time>2020-08-31T14:07:17.831Z</time>
      </trkpt>
      <trkpt lat="42.51741" lon="2.51148">
        <ele>1665.8</ele>
        <time>2020-08-31T14:07:19.871Z</time>
      </trkpt>
      <trkpt lat="42.5174" lon="2.51158">
        <ele>1662.5</ele>
        <time>2020-08-31T14:07:21.729Z</time>
      </trkpt>
      <trkpt lat="42.5174" lon="2.51165">
        <ele>1661</ele>
        <time>2020-08-31T14:07:23.018Z</time>
      </trkpt>
      <trkpt lat="42.51737" lon="2.51172">
        <ele>1658.5</ele>
        <time>2020-08-31T14:07:24.509Z</time>
      </trkpt>
      <trkpt lat="42.51707" lon="2.51202">
        <ele>1666.7</ele>
        <time>2020-08-31T14:10:30.523Z</time>
      </trkpt>
      <trkpt lat="42.517" lon="2.51224">
        <ele>1666.6</ele>
        <time>2020-08-31T14:10:51.553Z</time>
      </trkpt>
      <trkpt lat="42.51695" lon="2.51256">
        <ele>1656.9</ele>
        <time>2020-08-31T14:10:57.576Z</time>
      </trkpt>
      <trkpt lat="42.51683" lon="2.51283">
        <ele>1654.9</ele>
        <time>2020-08-31T14:11:03.381Z</time>
      </trkpt>
      <trkpt lat="42.51671" lon="2.513">
        <ele>1653.3</ele>
        <time>2020-08-31T14:11:07.715Z</time>
      </trkpt>
      <trkpt lat="42.51655" lon="2.5131">
        <ele>1666</ele>
        <time>2020-08-31T14:12:35.640Z</time>
      </trkpt>
      <trkpt lat="42.51621" lon="2.51313">
        <ele>1668.9</ele>
        <time>2020-08-31T14:14:15.769Z</time>
      </trkpt>
      <trkpt lat="42.51575" lon="2.51306">
        <ele>1681.6</ele>
        <time>2020-08-31T14:18:06.802Z</time>
      </trkpt>
      <trkpt lat="42.51564" lon="2.5131">
        <ele>1682.6</ele>
        <time>2020-08-31T14:18:41.055Z</time>
      </trkpt>
      <trkpt lat="42.51541" lon="2.51337">
        <ele>1657.5</ele>
        <time>2020-08-31T14:18:48.653Z</time>
      </trkpt>
      <trkpt lat="42.51519" lon="2.51357">
        <ele>1659.2</ele>
        <time>2020-08-31T14:19:54.717Z</time>
      </trkpt>
      <trkpt lat="42.51497" lon="2.51363">
        <ele>1674</ele>
        <time>2020-08-31T14:21:46.719Z</time>
      </trkpt>
      <trkpt lat="42.51484" lon="2.51365">
        <ele>1674.3</ele>
        <time>2020-08-31T14:22:08.150Z</time>
      </trkpt>
      <trkpt lat="42.51474" lon="2.51372">
        <ele>1673.5</ele>
        <time>2020-08-31T14:22:10.961Z</time>
      </trkpt>
      <trkpt lat="42.51465" lon="2.51382">
        <ele>1672.2</ele>
        <time>2020-08-31T14:22:13.867Z</time>
      </trkpt>
      <trkpt lat="42.51446" lon="2.51409">
        <ele>1670.9</ele>
        <time>2020-08-31T14:22:21.251Z</time>
      </trkpt>
      <trkpt lat="42.51432" lon="2.51421">
        <ele>1661.4</ele>
        <time>2020-08-31T14:22:25.387Z</time>
      </trkpt>
      <trkpt lat="42.51417" lon="2.51433">
        <ele>1662.1</ele>
        <time>2020-08-31T14:23:01.053Z</time>
      </trkpt>
      <trkpt lat="42.51397" lon="2.51445">
        <ele>1686.2</ele>
        <time>2020-08-31T14:24:50.203Z</time>
      </trkpt>
      <trkpt lat="42.51382" lon="2.51461">
        <ele>1690.4</ele>
        <time>2020-08-31T14:26:25.441Z</time>
      </trkpt>
      <trkpt lat="42.5138" lon="2.51478">
        <ele>1690.7</ele>
        <time>2020-08-31T14:26:46.400Z</time>
      </trkpt>
      <trkpt lat="42.51387" lon="2.51495">
        <ele>1686.9</ele>
        <time>2020-08-31T14:26:49.985Z</time>
      </trkpt>
      <trkpt lat="42.51403" lon="2.51512">
        <ele>1684.3</ele>
        <time>2020-08-31T14:26:55.062Z</time>
      </trkpt>
      <trkpt lat="42.51412" lon="2.51521">
        <ele>1685.1</ele>
        <time>2020-08-31T14:27:24.520Z</time>
      </trkpt>
      <trkpt lat="42.51428" lon="2.51522">
        <ele>1658.8</ele>
        <time>2020-08-31T14:27:28.521Z</time>
      </trkpt>
      <trkpt lat="42.51441" lon="2.51524">
        <ele>1656.1</ele>
        <time>2020-08-31T14:27:31.789Z</time>
      </trkpt>
      <trkpt lat="42.5145" lon="2.51529">
        <ele>1654</ele>
        <time>2020-08-31T14:27:34.218Z</time>
      </trkpt>
      <trkpt lat="42.51458" lon="2.51543">
        <ele>1653</ele>
        <time>2020-08-31T14:27:37.480Z</time>
      </trkpt>
      <trkpt lat="42.51456" lon="2.51556">
        <ele>1654.4</ele>
        <time>2020-08-31T14:28:26.338Z</time>
      </trkpt>
      <trkpt lat="42.51454" lon="2.51573">
        <ele>1656.7</ele>
        <time>2020-08-31T14:29:29.672Z</time>
      </trkpt>
      <trkpt lat="42.51453" lon="2.51585">
        <ele>1667.4</ele>
        <time>2020-08-31T14:30:14.102Z</time>
      </trkpt>
      <trkpt lat="42.51456" lon="2.51591">
        <ele>1666.2</ele>
        <time>2020-08-31T14:30:15.437Z</time>
      </trkpt>
      <trkpt lat="42.51467" lon="2.51598">
        <ele>1662.6</ele>
        <time>2020-08-31T14:30:18.472Z</time>
      </trkpt>
      <trkpt lat="42.51473" lon="2.51604">
        <ele>1661</ele>
        <time>2020-08-31T14:30:20.334Z</time>
      </trkpt>
      <trkpt lat="42.51476" lon="2.51616">
        <ele>1662.4</ele>
        <time>2020-08-31T14:31:06.952Z</time>
      </trkpt>
      <trkpt lat="42.51477" lon="2.51631">
        <ele>1664.2</ele>
        <time>2020-08-31T14:32:02.362Z</time>
      </trkpt>
      <trkpt lat="42.51479" lon="2.51643">
        <ele>1664.1</ele>
        <time>2020-08-31T14:32:05.951Z</time>
      </trkpt>
      <trkpt lat="42.51486" lon="2.51653">
        <ele>1661.6</ele>
        <time>2020-08-31T14:32:08.490Z</time>
      </trkpt>
      <trkpt lat="42.51503" lon="2.5166">
        <ele>1645</ele>
        <time>2020-08-31T14:32:12.928Z</time>
      </trkpt>
      <trkpt lat="42.51536" lon="2.51704">
        <ele>1642.6</ele>
        <time>2020-08-31T14:32:24.854Z</time>
      </trkpt>
      <trkpt lat="42.51545" lon="2.51717">
        <ele>1641.6</ele>
        <time>2020-08-31T14:32:28.138Z</time>
      </trkpt>
      <trkpt lat="42.51555" lon="2.51734">
        <ele>1639.1</ele>
        <time>2020-08-31T14:32:32.142Z</time>
      </trkpt>
      <trkpt lat="42.5156" lon="2.51753">
        <ele>1642.4</ele>
        <time>2020-08-31T14:33:46.364Z</time>
      </trkpt>
      <trkpt lat="42.51563" lon="2.51774">
        <ele>1644.1</ele>
        <time>2020-08-31T14:34:43.797Z</time>
      </trkpt>
      <trkpt lat="42.51563" lon="2.51807">
        <ele>1643.5</ele>
        <time>2020-08-31T14:34:51.963Z</time>
      </trkpt>
      <trkpt lat="42.51561" lon="2.51862">
        <ele>1645.8</ele>
        <time>2020-08-31T14:36:27.996Z</time>
      </trkpt>
      <trkpt lat="42.51559" lon="2.51881">
        <ele>1647.4</ele>
        <time>2020-08-31T14:37:22.566Z</time>
      </trkpt>
      <trkpt lat="42.51561" lon="2.51903">
        <ele>1644.7</ele>
        <time>2020-08-31T14:37:26.648Z</time>
      </trkpt>
      <trkpt lat="42.51566" lon="2.51913">
        <ele>1639.9</ele>
        <time>2020-08-31T14:37:28.873Z</time>
      </trkpt>
      <trkpt lat="42.5158" lon="2.51929">
        <ele>1639.8</ele>
        <time>2020-08-31T14:37:50.730Z</time>
      </trkpt>
      <trkpt lat="42.516" lon="2.51952">
        <ele>1614.8</ele>
        <time>2020-08-31T14:37:57.280Z</time>
      </trkpt>
      <trkpt lat="42.51623" lon="2.51969">
        <ele>1610.7</ele>
        <time>2020-08-31T14:38:03.822Z</time>
      </trkpt>
      <trkpt lat="42.51653" lon="2.51996">
        <ele>1602.6</ele>
        <time>2020-08-31T14:38:12.815Z</time>
      </trkpt>
      <trkpt lat="42.51669" lon="2.52021">
        <ele>1590.3</ele>
        <time>2020-08-31T14:38:18.911Z</time>
      </trkpt>
      <trkpt lat="42.51685" lon="2.52055">
        <ele>1591</ele>
        <time>2020-08-31T14:39:07.964Z</time>
      </trkpt>
      <trkpt lat="42.51694" lon="2.52098">
        <ele>1594</ele>
        <time>2020-08-31T14:40:49.944Z</time>
      </trkpt>
      <trkpt lat="42.51701" lon="2.52142">
        <ele>1588.8</ele>
        <time>2020-08-31T14:40:58.232Z</time>
      </trkpt>
      <trkpt lat="42.51705" lon="2.52187">
        <ele>1581.5</ele>
        <time>2020-08-31T14:41:06.577Z</time>
      </trkpt>
      <trkpt lat="42.51706" lon="2.5224">
        <ele>1578.6</ele>
        <time>2020-08-31T14:41:16.339Z</time>
      </trkpt>
      <trkpt lat="42.51705" lon="2.52293">
        <ele>1571.7</ele>
        <time>2020-08-31T14:41:26.100Z</time>
      </trkpt>
      <trkpt lat="42.517" lon="2.52362">
        <ele>1563.2</ele>
        <time>2020-08-31T14:41:38.866Z</time>
      </trkpt>
      <trkpt lat="42.51692" lon="2.52491">
        <ele>1544.4</ele>
        <time>2020-08-31T14:42:02.701Z</time>
      </trkpt>
      <trkpt lat="42.51693" lon="2.52503">
        <ele>1530.1</ele>
        <time>2020-08-31T14:42:04.925Z</time>
      </trkpt>
      <trkpt lat="42.51696" lon="2.52503">
        <ele>1528.3</ele>
        <time>2020-08-31T14:42:05.674Z</time>
      </trkpt>
      <trkpt lat="42.51706" lon="2.52488">
        <ele>1539.3</ele>
        <time>2020-08-31T14:43:20.081Z</time>
      </trkpt>
      <trkpt lat="42.51718" lon="2.52464">
        <ele>1538.2</ele>
        <time>2020-08-31T14:43:25.610Z</time>
      </trkpt>
      <trkpt lat="42.51732" lon="2.52418">
        <ele>1535.7</ele>
        <time>2020-08-31T14:43:34.773Z</time>
      </trkpt>
      <trkpt lat="42.51746" lon="2.52369">
        <ele>1550.2</ele>
        <time>2020-08-31T14:46:48.105Z</time>
      </trkpt>
      <trkpt lat="42.51762" lon="2.52314">
        <ele>1527.1</ele>
        <time>2020-08-31T14:46:58.992Z</time>
      </trkpt>
      <trkpt lat="42.5178" lon="2.52267">
        <ele>1524.1</ele>
        <time>2020-08-31T14:47:08.744Z</time>
      </trkpt>
      <trkpt lat="42.51787" lon="2.52257">
        <ele>1521.8</ele>
        <time>2020-08-31T14:47:11.283Z</time>
      </trkpt>
      <trkpt lat="42.51791" lon="2.52257">
        <ele>1520.4</ele>
        <time>2020-08-31T14:47:12.283Z</time>
      </trkpt>
      <trkpt lat="42.51792" lon="2.52263">
        <ele>1519.4</ele>
        <time>2020-08-31T14:47:13.415Z</time>
      </trkpt>
      <trkpt lat="42.51797" lon="2.52306">
        <ele>1515.2</ele>
        <time>2020-08-31T14:47:21.430Z</time>
      </trkpt>
      <trkpt lat="42.51798" lon="2.52337">
        <ele>1505.7</ele>
        <time>2020-08-31T14:47:27.143Z</time>
      </trkpt>
      <trkpt lat="42.51797" lon="2.52384">
        <ele>1503.8</ele>
        <time>2020-08-31T14:47:35.856Z</time>
      </trkpt>
      <trkpt lat="42.518" lon="2.52411">
        <ele>1500</ele>
        <time>2020-08-31T14:47:40.884Z</time>
      </trkpt>
    </trkseg>
  </trk>
</gpx>